<?xml version="1.0" encoding="UTF-8" standalone="no" ?>
<gpx xmlns="http://www.topografix.com/GPX/1/1" xmlns:xsi="http://www.w3.org/2001/XMLSchema-instance" xsi:schemaLocation="http://www.topografix.com/GPX/1/1 http://www.topografix.com/GPX/1/1/gpx.xsd" version="1.1" creator="VisuGPX - https://www.visugpx.com">
  <metadata>
    <name>Les gorges d'Ehujarre</name>
    <desc><![CDATA[Moins connues et donc moins courues que Kakouetta ou Holzarte, les gorges d'Ehujarre sont tout aussi spectaculaires et sauvages. Ce cabnyon constitue une grande voie de transhumance vers les immenses pâturages d'altitude d'Erraize.]]></desc>
  </metadata>
  <trk>
    <name><![CDATA[Move]]></name>
    <trkseg>
      <trkpt lat="42.99558" lon="-0.80962">
        <ele>623.09997558594</ele>
        <time>2019-04-14T07:22:09.000Z</time>
      </trkpt>
      <trkpt lat="42.99569" lon="-0.80961">
        <ele>638</ele>
        <time>2019-04-14T07:22:50.045Z</time>
      </trkpt>
      <trkpt lat="42.99566" lon="-0.80962">
        <ele>638</ele>
        <time>2019-04-14T07:23:03.000Z</time>
      </trkpt>
      <trkpt lat="42.99561" lon="-0.80965">
        <ele>638</ele>
        <time>2019-04-14T07:23:08.013Z</time>
      </trkpt>
      <trkpt lat="42.99569" lon="-0.8097">
        <ele>638</ele>
        <time>2019-04-14T07:23:35.013Z</time>
      </trkpt>
      <trkpt lat="42.99574" lon="-0.80981">
        <ele>638</ele>
        <time>2019-04-14T07:23:45.030Z</time>
      </trkpt>
      <trkpt lat="42.99579" lon="-0.8097">
        <ele>637</ele>
        <time>2019-04-14T07:24:00.002Z</time>
      </trkpt>
      <trkpt lat="42.99583" lon="-0.80958">
        <ele>635</ele>
        <time>2019-04-14T07:24:10.002Z</time>
      </trkpt>
      <trkpt lat="42.99582" lon="-0.80945">
        <ele>634</ele>
        <time>2019-04-14T07:24:19.002Z</time>
      </trkpt>
      <trkpt lat="42.99584" lon="-0.80932">
        <ele>633</ele>
        <time>2019-04-14T07:24:26.000Z</time>
      </trkpt>
      <trkpt lat="42.99582" lon="-0.80919">
        <ele>633</ele>
        <time>2019-04-14T07:24:40.000Z</time>
      </trkpt>
      <trkpt lat="42.9958" lon="-0.80907">
        <ele>632.803008</ele>
        <time>2019-04-14T07:25:05.013Z</time>
      </trkpt>
      <trkpt lat="42.99578" lon="-0.80892">
        <ele>632</ele>
        <time>2019-04-14T07:25:54.013Z</time>
      </trkpt>
      <trkpt lat="42.99578" lon="-0.80878">
        <ele>632</ele>
        <time>2019-04-14T07:26:04.013Z</time>
      </trkpt>
      <trkpt lat="42.99579" lon="-0.80865">
        <ele>631</ele>
        <time>2019-04-14T07:26:14.015Z</time>
      </trkpt>
      <trkpt lat="42.99582" lon="-0.80853">
        <ele>631</ele>
        <time>2019-04-14T07:26:21.002Z</time>
      </trkpt>
      <trkpt lat="42.99577" lon="-0.80841">
        <ele>630</ele>
        <time>2019-04-14T07:26:34.012Z</time>
      </trkpt>
      <trkpt lat="42.99568" lon="-0.80839">
        <ele>629</ele>
        <time>2019-04-14T07:26:44.012Z</time>
      </trkpt>
      <trkpt lat="42.99559" lon="-0.80832">
        <ele>627</ele>
        <time>2019-04-14T07:26:52.012Z</time>
      </trkpt>
      <trkpt lat="42.9955" lon="-0.80831">
        <ele>625</ele>
        <time>2019-04-14T07:27:01.002Z</time>
      </trkpt>
      <trkpt lat="42.99541" lon="-0.80836">
        <ele>623</ele>
        <time>2019-04-14T07:27:12.015Z</time>
      </trkpt>
      <trkpt lat="42.99536" lon="-0.80848">
        <ele>620</ele>
        <time>2019-04-14T07:27:20.000Z</time>
      </trkpt>
      <trkpt lat="42.9953" lon="-0.80859">
        <ele>620</ele>
        <time>2019-04-14T07:27:28.002Z</time>
      </trkpt>
      <trkpt lat="42.99527" lon="-0.80872">
        <ele>617</ele>
        <time>2019-04-14T07:27:35.013Z</time>
      </trkpt>
      <trkpt lat="42.99523" lon="-0.80883">
        <ele>616</ele>
        <time>2019-04-14T07:27:43.015Z</time>
      </trkpt>
      <trkpt lat="42.99516" lon="-0.80892">
        <ele>613</ele>
        <time>2019-04-14T07:27:55.002Z</time>
      </trkpt>
      <trkpt lat="42.99506" lon="-0.80893">
        <ele>612</ele>
        <time>2019-04-14T07:28:05.002Z</time>
      </trkpt>
      <trkpt lat="42.99496" lon="-0.8089">
        <ele>611</ele>
        <time>2019-04-14T07:28:13.012Z</time>
      </trkpt>
      <trkpt lat="42.99487" lon="-0.80893">
        <ele>609</ele>
        <time>2019-04-14T07:28:22.013Z</time>
      </trkpt>
      <trkpt lat="42.99477" lon="-0.80894">
        <ele>606</ele>
        <time>2019-04-14T07:28:31.012Z</time>
      </trkpt>
      <trkpt lat="42.99469" lon="-0.80897">
        <ele>605.23619119601</ele>
        <time>2019-04-14T07:28:39.002Z</time>
      </trkpt>
      <trkpt lat="42.9946" lon="-0.809">
        <ele>604</ele>
        <time>2019-04-14T07:28:47.000Z</time>
      </trkpt>
      <trkpt lat="42.99448" lon="-0.80904">
        <ele>602</ele>
        <time>2019-04-14T07:29:02.013Z</time>
      </trkpt>
      <trkpt lat="42.99442" lon="-0.80914">
        <ele>600.19222618861</ele>
        <time>2019-04-14T07:29:08.027Z</time>
      </trkpt>
      <trkpt lat="42.99432" lon="-0.80916">
        <ele>600</ele>
        <time>2019-04-14T07:29:16.002Z</time>
      </trkpt>
      <trkpt lat="42.99422" lon="-0.8092">
        <ele>598</ele>
        <time>2019-04-14T07:29:24.002Z</time>
      </trkpt>
      <trkpt lat="42.99413" lon="-0.80918">
        <ele>597</ele>
        <time>2019-04-14T07:29:33.002Z</time>
      </trkpt>
      <trkpt lat="42.99404" lon="-0.80915">
        <ele>595</ele>
        <time>2019-04-14T07:29:43.002Z</time>
      </trkpt>
      <trkpt lat="42.99394" lon="-0.80916">
        <ele>593.26713844241</ele>
        <time>2019-04-14T07:29:54.013Z</time>
      </trkpt>
      <trkpt lat="42.99387" lon="-0.80925">
        <ele>593</ele>
        <time>2019-04-14T07:30:01.002Z</time>
      </trkpt>
      <trkpt lat="42.99394" lon="-0.80917">
        <ele>592</ele>
        <time>2019-04-14T07:30:55.001Z</time>
      </trkpt>
      <trkpt lat="42.99387" lon="-0.80924">
        <ele>591</ele>
        <time>2019-04-14T07:31:14.013Z</time>
      </trkpt>
      <trkpt lat="42.9938" lon="-0.80937">
        <ele>592</ele>
        <time>2019-04-14T07:31:59.013Z</time>
      </trkpt>
      <trkpt lat="42.99372" lon="-0.80945">
        <ele>591</ele>
        <time>2019-04-14T07:32:05.003Z</time>
      </trkpt>
      <trkpt lat="42.9936" lon="-0.8096">
        <ele>588.35205414599</ele>
        <time>2019-04-14T07:32:21.013Z</time>
      </trkpt>
      <trkpt lat="42.99364" lon="-0.80955">
        <ele>588</ele>
        <time>2019-04-14T07:32:30.013Z</time>
      </trkpt>
      <trkpt lat="42.99365" lon="-0.80958">
        <ele>587</ele>
        <time>2019-04-14T07:32:38.013Z</time>
      </trkpt>
      <trkpt lat="42.99364" lon="-0.80962">
        <ele>587</ele>
        <time>2019-04-14T07:32:40.013Z</time>
      </trkpt>
      <trkpt lat="42.99363" lon="-0.80966">
        <ele>587</ele>
        <time>2019-04-14T07:32:42.013Z</time>
      </trkpt>
      <trkpt lat="42.99362" lon="-0.80969">
        <ele>587</ele>
        <time>2019-04-14T07:32:44.013Z</time>
      </trkpt>
      <trkpt lat="42.99361" lon="-0.80975">
        <ele>587</ele>
        <time>2019-04-14T07:32:47.013Z</time>
      </trkpt>
      <trkpt lat="42.99361" lon="-0.80979">
        <ele>586</ele>
        <time>2019-04-14T07:32:49.013Z</time>
      </trkpt>
      <trkpt lat="42.9936" lon="-0.80982">
        <ele>586</ele>
        <time>2019-04-14T07:32:51.013Z</time>
      </trkpt>
      <trkpt lat="42.99359" lon="-0.80985">
        <ele>586</ele>
        <time>2019-04-14T07:32:53.013Z</time>
      </trkpt>
      <trkpt lat="42.99358" lon="-0.80988">
        <ele>585.30209652645</ele>
        <time>2019-04-14T07:32:55.013Z</time>
      </trkpt>
      <trkpt lat="42.99358" lon="-0.80991">
        <ele>585.73229333333</ele>
        <time>2019-04-14T07:32:57.013Z</time>
      </trkpt>
      <trkpt lat="42.99357" lon="-0.80994">
        <ele>586</ele>
        <time>2019-04-14T07:32:59.013Z</time>
      </trkpt>
      <trkpt lat="42.99356" lon="-0.80998">
        <ele>586</ele>
        <time>2019-04-14T07:33:01.013Z</time>
      </trkpt>
      <trkpt lat="42.99356" lon="-0.81001">
        <ele>585.24476112689</ele>
        <time>2019-04-14T07:33:03.013Z</time>
      </trkpt>
      <trkpt lat="42.99355" lon="-0.81004">
        <ele>585</ele>
        <time>2019-04-14T07:33:05.013Z</time>
      </trkpt>
      <trkpt lat="42.99355" lon="-0.81011">
        <ele>585</ele>
        <time>2019-04-14T07:33:09.013Z</time>
      </trkpt>
      <trkpt lat="42.99354" lon="-0.81015">
        <ele>584.3069952</ele>
        <time>2019-04-14T07:33:11.013Z</time>
      </trkpt>
      <trkpt lat="42.99354" lon="-0.81018">
        <ele>584</ele>
        <time>2019-04-14T07:33:13.013Z</time>
      </trkpt>
      <trkpt lat="42.99354" lon="-0.81021">
        <ele>584</ele>
        <time>2019-04-14T07:33:15.013Z</time>
      </trkpt>
      <trkpt lat="42.99354" lon="-0.81024">
        <ele>584</ele>
        <time>2019-04-14T07:33:17.013Z</time>
      </trkpt>
      <trkpt lat="42.99353" lon="-0.81027">
        <ele>584</ele>
        <time>2019-04-14T07:33:19.013Z</time>
      </trkpt>
      <trkpt lat="42.99352" lon="-0.81031">
        <ele>584</ele>
        <time>2019-04-14T07:33:21.013Z</time>
      </trkpt>
      <trkpt lat="42.99352" lon="-0.81034">
        <ele>584</ele>
        <time>2019-04-14T07:33:23.013Z</time>
      </trkpt>
      <trkpt lat="42.99351" lon="-0.81037">
        <ele>584</ele>
        <time>2019-04-14T07:33:25.013Z</time>
      </trkpt>
      <trkpt lat="42.99351" lon="-0.8104">
        <ele>584</ele>
        <time>2019-04-14T07:33:27.013Z</time>
      </trkpt>
      <trkpt lat="42.9935" lon="-0.81043">
        <ele>584</ele>
        <time>2019-04-14T07:33:29.013Z</time>
      </trkpt>
      <trkpt lat="42.9935" lon="-0.81046">
        <ele>584</ele>
        <time>2019-04-14T07:33:31.013Z</time>
      </trkpt>
      <trkpt lat="42.99349" lon="-0.81049">
        <ele>584</ele>
        <time>2019-04-14T07:33:33.013Z</time>
      </trkpt>
      <trkpt lat="42.99349" lon="-0.81052">
        <ele>584</ele>
        <time>2019-04-14T07:33:35.013Z</time>
      </trkpt>
      <trkpt lat="42.99349" lon="-0.81056">
        <ele>584</ele>
        <time>2019-04-14T07:33:37.013Z</time>
      </trkpt>
      <trkpt lat="42.99348" lon="-0.81059">
        <ele>584</ele>
        <time>2019-04-14T07:33:39.013Z</time>
      </trkpt>
      <trkpt lat="42.99348" lon="-0.81062">
        <ele>584</ele>
        <time>2019-04-14T07:33:41.013Z</time>
      </trkpt>
      <trkpt lat="42.99348" lon="-0.81066">
        <ele>584</ele>
        <time>2019-04-14T07:33:43.013Z</time>
      </trkpt>
      <trkpt lat="42.99347" lon="-0.81069">
        <ele>584</ele>
        <time>2019-04-14T07:33:45.013Z</time>
      </trkpt>
      <trkpt lat="42.99347" lon="-0.81072">
        <ele>584</ele>
        <time>2019-04-14T07:33:47.013Z</time>
      </trkpt>
      <trkpt lat="42.99347" lon="-0.81076">
        <ele>584</ele>
        <time>2019-04-14T07:33:49.013Z</time>
      </trkpt>
      <trkpt lat="42.99348" lon="-0.81082">
        <ele>584</ele>
        <time>2019-04-14T07:33:52.013Z</time>
      </trkpt>
      <trkpt lat="42.99349" lon="-0.81091">
        <ele>583</ele>
        <time>2019-04-14T07:33:57.013Z</time>
      </trkpt>
      <trkpt lat="42.99347" lon="-0.811">
        <ele>583</ele>
        <time>2019-04-14T07:34:02.013Z</time>
      </trkpt>
      <trkpt lat="42.99346" lon="-0.81103">
        <ele>583</ele>
        <time>2019-04-14T07:34:04.013Z</time>
      </trkpt>
      <trkpt lat="42.99346" lon="-0.81107">
        <ele>583</ele>
        <time>2019-04-14T07:34:06.013Z</time>
      </trkpt>
      <trkpt lat="42.99345" lon="-0.8111">
        <ele>583</ele>
        <time>2019-04-14T07:34:08.013Z</time>
      </trkpt>
      <trkpt lat="42.99345" lon="-0.81113">
        <ele>583</ele>
        <time>2019-04-14T07:34:10.013Z</time>
      </trkpt>
      <trkpt lat="42.99344" lon="-0.81117">
        <ele>582</ele>
        <time>2019-04-14T07:34:12.013Z</time>
      </trkpt>
      <trkpt lat="42.99344" lon="-0.81121">
        <ele>582.7530080385</ele>
        <time>2019-04-14T07:34:14.013Z</time>
      </trkpt>
      <trkpt lat="42.99343" lon="-0.81124">
        <ele>583</ele>
        <time>2019-04-14T07:34:16.013Z</time>
      </trkpt>
      <trkpt lat="42.99343" lon="-0.81127">
        <ele>583</ele>
        <time>2019-04-14T07:34:18.013Z</time>
      </trkpt>
      <trkpt lat="42.99342" lon="-0.8113">
        <ele>582</ele>
        <time>2019-04-14T07:34:20.013Z</time>
      </trkpt>
      <trkpt lat="42.99342" lon="-0.81133">
        <ele>582</ele>
        <time>2019-04-14T07:34:22.013Z</time>
      </trkpt>
      <trkpt lat="42.99341" lon="-0.81136">
        <ele>582</ele>
        <time>2019-04-14T07:34:24.013Z</time>
      </trkpt>
      <trkpt lat="42.9934" lon="-0.8114">
        <ele>582</ele>
        <time>2019-04-14T07:34:26.013Z</time>
      </trkpt>
      <trkpt lat="42.9934" lon="-0.81143">
        <ele>582</ele>
        <time>2019-04-14T07:34:28.013Z</time>
      </trkpt>
      <trkpt lat="42.99339" lon="-0.81146">
        <ele>582</ele>
        <time>2019-04-14T07:34:30.013Z</time>
      </trkpt>
      <trkpt lat="42.99338" lon="-0.81149">
        <ele>582</ele>
        <time>2019-04-14T07:34:32.013Z</time>
      </trkpt>
      <trkpt lat="42.99337" lon="-0.81153">
        <ele>582</ele>
        <time>2019-04-14T07:34:34.013Z</time>
      </trkpt>
      <trkpt lat="42.99336" lon="-0.81156">
        <ele>582</ele>
        <time>2019-04-14T07:34:36.013Z</time>
      </trkpt>
      <trkpt lat="42.99334" lon="-0.81159">
        <ele>582</ele>
        <time>2019-04-14T07:34:38.013Z</time>
      </trkpt>
      <trkpt lat="42.99333" lon="-0.81163">
        <ele>582</ele>
        <time>2019-04-14T07:34:40.013Z</time>
      </trkpt>
      <trkpt lat="42.99332" lon="-0.81167">
        <ele>582</ele>
        <time>2019-04-14T07:34:42.013Z</time>
      </trkpt>
      <trkpt lat="42.9933" lon="-0.8117">
        <ele>582</ele>
        <time>2019-04-14T07:34:44.013Z</time>
      </trkpt>
      <trkpt lat="42.99329" lon="-0.8118">
        <ele>582</ele>
        <time>2019-04-14T07:34:48.013Z</time>
      </trkpt>
      <trkpt lat="42.99326" lon="-0.81188">
        <ele>581</ele>
        <time>2019-04-14T07:34:52.013Z</time>
      </trkpt>
      <trkpt lat="42.99325" lon="-0.81191">
        <ele>581</ele>
        <time>2019-04-14T07:34:54.013Z</time>
      </trkpt>
      <trkpt lat="42.99324" lon="-0.81194">
        <ele>581</ele>
        <time>2019-04-14T07:34:56.013Z</time>
      </trkpt>
      <trkpt lat="42.99322" lon="-0.81197">
        <ele>581</ele>
        <time>2019-04-14T07:34:58.013Z</time>
      </trkpt>
      <trkpt lat="42.99321" lon="-0.81201">
        <ele>580.1869952</ele>
        <time>2019-04-14T07:35:00.013Z</time>
      </trkpt>
      <trkpt lat="42.9932" lon="-0.81204">
        <ele>580.8130048</ele>
        <time>2019-04-14T07:35:02.013Z</time>
      </trkpt>
      <trkpt lat="42.99318" lon="-0.81207">
        <ele>581</ele>
        <time>2019-04-14T07:35:04.013Z</time>
      </trkpt>
      <trkpt lat="42.99317" lon="-0.81209">
        <ele>581</ele>
        <time>2019-04-14T07:35:06.013Z</time>
      </trkpt>
      <trkpt lat="42.99316" lon="-0.81212">
        <ele>581</ele>
        <time>2019-04-14T07:35:08.013Z</time>
      </trkpt>
      <trkpt lat="42.99315" lon="-0.81215">
        <ele>581</ele>
        <time>2019-04-14T07:35:10.013Z</time>
      </trkpt>
      <trkpt lat="42.99314" lon="-0.81218">
        <ele>580</ele>
        <time>2019-04-14T07:35:12.013Z</time>
      </trkpt>
      <trkpt lat="42.99313" lon="-0.81221">
        <ele>580</ele>
        <time>2019-04-14T07:35:14.013Z</time>
      </trkpt>
      <trkpt lat="42.99311" lon="-0.81224">
        <ele>580</ele>
        <time>2019-04-14T07:35:16.013Z</time>
      </trkpt>
      <trkpt lat="42.9931" lon="-0.81227">
        <ele>580</ele>
        <time>2019-04-14T07:35:18.013Z</time>
      </trkpt>
      <trkpt lat="42.99309" lon="-0.8123">
        <ele>580</ele>
        <time>2019-04-14T07:35:20.013Z</time>
      </trkpt>
      <trkpt lat="42.99308" lon="-0.81233">
        <ele>580</ele>
        <time>2019-04-14T07:35:22.013Z</time>
      </trkpt>
      <trkpt lat="42.99307" lon="-0.81238">
        <ele>580</ele>
        <time>2019-04-14T07:35:25.013Z</time>
      </trkpt>
      <trkpt lat="42.99306" lon="-0.81241">
        <ele>580</ele>
        <time>2019-04-14T07:35:27.013Z</time>
      </trkpt>
      <trkpt lat="42.99305" lon="-0.81245">
        <ele>580</ele>
        <time>2019-04-14T07:35:29.013Z</time>
      </trkpt>
      <trkpt lat="42.99304" lon="-0.81248">
        <ele>579.236992</ele>
        <time>2019-04-14T07:35:31.013Z</time>
      </trkpt>
      <trkpt lat="42.99303" lon="-0.81252">
        <ele>579</ele>
        <time>2019-04-14T07:35:33.013Z</time>
      </trkpt>
      <trkpt lat="42.99303" lon="-0.81255">
        <ele>579</ele>
        <time>2019-04-14T07:35:35.013Z</time>
      </trkpt>
      <trkpt lat="42.99302" lon="-0.81258">
        <ele>579</ele>
        <time>2019-04-14T07:35:37.013Z</time>
      </trkpt>
      <trkpt lat="42.99301" lon="-0.81262">
        <ele>579</ele>
        <time>2019-04-14T07:35:39.013Z</time>
      </trkpt>
      <trkpt lat="42.993" lon="-0.81266">
        <ele>579</ele>
        <time>2019-04-14T07:35:41.013Z</time>
      </trkpt>
      <trkpt lat="42.99299" lon="-0.81271">
        <ele>579</ele>
        <time>2019-04-14T07:35:44.013Z</time>
      </trkpt>
      <trkpt lat="42.99298" lon="-0.81274">
        <ele>579</ele>
        <time>2019-04-14T07:35:46.013Z</time>
      </trkpt>
      <trkpt lat="42.99297" lon="-0.81278">
        <ele>578</ele>
        <time>2019-04-14T07:35:48.013Z</time>
      </trkpt>
      <trkpt lat="42.99293" lon="-0.8129">
        <ele>578</ele>
        <time>2019-04-14T07:35:53.013Z</time>
      </trkpt>
      <trkpt lat="42.99286" lon="-0.813">
        <ele>578</ele>
        <time>2019-04-14T07:36:00.013Z</time>
      </trkpt>
      <trkpt lat="42.99284" lon="-0.81302">
        <ele>578</ele>
        <time>2019-04-14T07:36:02.013Z</time>
      </trkpt>
      <trkpt lat="42.99275" lon="-0.81308">
        <ele>578</ele>
        <time>2019-04-14T07:36:09.013Z</time>
      </trkpt>
      <trkpt lat="42.99268" lon="-0.81316">
        <ele>579</ele>
        <time>2019-04-14T07:36:16.013Z</time>
      </trkpt>
      <trkpt lat="42.99262" lon="-0.81327">
        <ele>579</ele>
        <time>2019-04-14T07:36:24.013Z</time>
      </trkpt>
      <trkpt lat="42.9927" lon="-0.81334">
        <ele>582</ele>
        <time>2019-04-14T07:36:35.013Z</time>
      </trkpt>
      <trkpt lat="42.99272" lon="-0.81341">
        <ele>583</ele>
        <time>2019-04-14T07:36:41.013Z</time>
      </trkpt>
      <trkpt lat="42.99273" lon="-0.81344">
        <ele>583</ele>
        <time>2019-04-14T07:36:43.013Z</time>
      </trkpt>
      <trkpt lat="42.99273" lon="-0.81357">
        <ele>584</ele>
        <time>2019-04-14T07:36:50.013Z</time>
      </trkpt>
      <trkpt lat="42.9927" lon="-0.81369">
        <ele>584</ele>
        <time>2019-04-14T07:36:56.013Z</time>
      </trkpt>
      <trkpt lat="42.99269" lon="-0.81372">
        <ele>584.723008</ele>
        <time>2019-04-14T07:36:58.013Z</time>
      </trkpt>
      <trkpt lat="42.99268" lon="-0.81374">
        <ele>585</ele>
        <time>2019-04-14T07:37:00.013Z</time>
      </trkpt>
      <trkpt lat="42.99266" lon="-0.81377">
        <ele>585</ele>
        <time>2019-04-14T07:37:02.013Z</time>
      </trkpt>
      <trkpt lat="42.99265" lon="-0.81379">
        <ele>586</ele>
        <time>2019-04-14T07:37:04.013Z</time>
      </trkpt>
      <trkpt lat="42.99264" lon="-0.81382">
        <ele>586</ele>
        <time>2019-04-14T07:37:06.013Z</time>
      </trkpt>
      <trkpt lat="42.99263" lon="-0.81385">
        <ele>586</ele>
        <time>2019-04-14T07:37:08.013Z</time>
      </trkpt>
      <trkpt lat="42.9926" lon="-0.81392">
        <ele>587</ele>
        <time>2019-04-14T07:37:13.013Z</time>
      </trkpt>
      <trkpt lat="42.99259" lon="-0.81395">
        <ele>587</ele>
        <time>2019-04-14T07:37:15.013Z</time>
      </trkpt>
      <trkpt lat="42.99258" lon="-0.81398">
        <ele>587.6630016</ele>
        <time>2019-04-14T07:37:17.013Z</time>
      </trkpt>
      <trkpt lat="42.99257" lon="-0.81401">
        <ele>588</ele>
        <time>2019-04-14T07:37:19.013Z</time>
      </trkpt>
      <trkpt lat="42.99256" lon="-0.81404">
        <ele>588</ele>
        <time>2019-04-14T07:37:21.013Z</time>
      </trkpt>
      <trkpt lat="42.99255" lon="-0.81407">
        <ele>588</ele>
        <time>2019-04-14T07:37:23.013Z</time>
      </trkpt>
      <trkpt lat="42.99254" lon="-0.81409">
        <ele>589</ele>
        <time>2019-04-14T07:37:25.013Z</time>
      </trkpt>
      <trkpt lat="42.99253" lon="-0.81412">
        <ele>589</ele>
        <time>2019-04-14T07:37:27.013Z</time>
      </trkpt>
      <trkpt lat="42.99252" lon="-0.81415">
        <ele>589</ele>
        <time>2019-04-14T07:37:29.013Z</time>
      </trkpt>
      <trkpt lat="42.99251" lon="-0.81419">
        <ele>589</ele>
        <time>2019-04-14T07:37:31.013Z</time>
      </trkpt>
      <trkpt lat="42.99249" lon="-0.81422">
        <ele>590</ele>
        <time>2019-04-14T07:37:33.013Z</time>
      </trkpt>
      <trkpt lat="42.99247" lon="-0.81425">
        <ele>590</ele>
        <time>2019-04-14T07:37:35.013Z</time>
      </trkpt>
      <trkpt lat="42.99246" lon="-0.81428">
        <ele>591</ele>
        <time>2019-04-14T07:37:37.013Z</time>
      </trkpt>
      <trkpt lat="42.99245" lon="-0.81431">
        <ele>591</ele>
        <time>2019-04-14T07:37:39.013Z</time>
      </trkpt>
      <trkpt lat="42.99244" lon="-0.81435">
        <ele>591</ele>
        <time>2019-04-14T07:37:41.013Z</time>
      </trkpt>
      <trkpt lat="42.99243" lon="-0.81438">
        <ele>592</ele>
        <time>2019-04-14T07:37:43.013Z</time>
      </trkpt>
      <trkpt lat="42.99242" lon="-0.81441">
        <ele>592</ele>
        <time>2019-04-14T07:37:45.013Z</time>
      </trkpt>
      <trkpt lat="42.99241" lon="-0.81443">
        <ele>592</ele>
        <time>2019-04-14T07:37:47.013Z</time>
      </trkpt>
      <trkpt lat="42.9924" lon="-0.81446">
        <ele>592</ele>
        <time>2019-04-14T07:37:49.013Z</time>
      </trkpt>
      <trkpt lat="42.99238" lon="-0.81448">
        <ele>593</ele>
        <time>2019-04-14T07:37:51.013Z</time>
      </trkpt>
      <trkpt lat="42.99237" lon="-0.81452">
        <ele>593</ele>
        <time>2019-04-14T07:37:53.013Z</time>
      </trkpt>
      <trkpt lat="42.99236" lon="-0.81456">
        <ele>593</ele>
        <time>2019-04-14T07:37:55.013Z</time>
      </trkpt>
      <trkpt lat="42.99235" lon="-0.81459">
        <ele>593</ele>
        <time>2019-04-14T07:37:57.013Z</time>
      </trkpt>
      <trkpt lat="42.99233" lon="-0.81463">
        <ele>593</ele>
        <time>2019-04-14T07:37:59.013Z</time>
      </trkpt>
      <trkpt lat="42.99232" lon="-0.81465">
        <ele>593</ele>
        <time>2019-04-14T07:38:01.013Z</time>
      </trkpt>
      <trkpt lat="42.9923" lon="-0.81468">
        <ele>593.715851773</ele>
        <time>2019-04-14T07:38:03.013Z</time>
      </trkpt>
      <trkpt lat="42.99228" lon="-0.81472">
        <ele>594</ele>
        <time>2019-04-14T07:38:05.013Z</time>
      </trkpt>
      <trkpt lat="42.99226" lon="-0.81474">
        <ele>593.1869952</ele>
        <time>2019-04-14T07:38:07.013Z</time>
      </trkpt>
      <trkpt lat="42.99225" lon="-0.81476">
        <ele>593.8130048</ele>
        <time>2019-04-14T07:38:09.013Z</time>
      </trkpt>
      <trkpt lat="42.99223" lon="-0.81478">
        <ele>594</ele>
        <time>2019-04-14T07:38:11.013Z</time>
      </trkpt>
      <trkpt lat="42.99221" lon="-0.81481">
        <ele>594</ele>
        <time>2019-04-14T07:38:13.013Z</time>
      </trkpt>
      <trkpt lat="42.99219" lon="-0.81483">
        <ele>594</ele>
        <time>2019-04-14T07:38:15.013Z</time>
      </trkpt>
      <trkpt lat="42.99216" lon="-0.81486">
        <ele>594</ele>
        <time>2019-04-14T07:38:17.013Z</time>
      </trkpt>
      <trkpt lat="42.99213" lon="-0.81488">
        <ele>594</ele>
        <time>2019-04-14T07:38:19.013Z</time>
      </trkpt>
      <trkpt lat="42.9921" lon="-0.8149">
        <ele>593</ele>
        <time>2019-04-14T07:38:21.013Z</time>
      </trkpt>
      <trkpt lat="42.99208" lon="-0.81491">
        <ele>593</ele>
        <time>2019-04-14T07:38:23.013Z</time>
      </trkpt>
      <trkpt lat="42.99206" lon="-0.81493">
        <ele>593</ele>
        <time>2019-04-14T07:38:25.013Z</time>
      </trkpt>
      <trkpt lat="42.99202" lon="-0.81496">
        <ele>593</ele>
        <time>2019-04-14T07:38:28.013Z</time>
      </trkpt>
      <trkpt lat="42.99201" lon="-0.81498">
        <ele>593.7158427009</ele>
        <time>2019-04-14T07:38:30.013Z</time>
      </trkpt>
      <trkpt lat="42.99199" lon="-0.81502">
        <ele>594</ele>
        <time>2019-04-14T07:38:32.013Z</time>
      </trkpt>
      <trkpt lat="42.99197" lon="-0.81505">
        <ele>594.723008</ele>
        <time>2019-04-14T07:38:34.013Z</time>
      </trkpt>
      <trkpt lat="42.99195" lon="-0.81508">
        <ele>595</ele>
        <time>2019-04-14T07:38:36.013Z</time>
      </trkpt>
      <trkpt lat="42.99194" lon="-0.81511">
        <ele>595</ele>
        <time>2019-04-14T07:38:38.013Z</time>
      </trkpt>
      <trkpt lat="42.99193" lon="-0.81513">
        <ele>595</ele>
        <time>2019-04-14T07:38:40.013Z</time>
      </trkpt>
      <trkpt lat="42.99189" lon="-0.81527">
        <ele>597</ele>
        <time>2019-04-14T07:38:48.004Z</time>
      </trkpt>
      <trkpt lat="42.99177" lon="-0.81543">
        <ele>598</ele>
        <time>2019-04-14T07:39:02.013Z</time>
      </trkpt>
      <trkpt lat="42.99176" lon="-0.81544">
        <ele>598</ele>
        <time>2019-04-14T07:39:04.013Z</time>
      </trkpt>
      <trkpt lat="42.99174" lon="-0.81546">
        <ele>599</ele>
        <time>2019-04-14T07:39:06.013Z</time>
      </trkpt>
      <trkpt lat="42.99172" lon="-0.81548">
        <ele>599</ele>
        <time>2019-04-14T07:39:09.013Z</time>
      </trkpt>
      <trkpt lat="42.9917" lon="-0.8155">
        <ele>599</ele>
        <time>2019-04-14T07:39:11.013Z</time>
      </trkpt>
      <trkpt lat="42.99169" lon="-0.81552">
        <ele>599.55314141585</ele>
        <time>2019-04-14T07:39:13.013Z</time>
      </trkpt>
      <trkpt lat="42.99167" lon="-0.81555">
        <ele>600</ele>
        <time>2019-04-14T07:39:16.013Z</time>
      </trkpt>
      <trkpt lat="42.99166" lon="-0.81558">
        <ele>600</ele>
        <time>2019-04-14T07:39:19.013Z</time>
      </trkpt>
      <trkpt lat="42.99164" lon="-0.8156">
        <ele>601</ele>
        <time>2019-04-14T07:39:22.013Z</time>
      </trkpt>
      <trkpt lat="42.99163" lon="-0.81565">
        <ele>602</ele>
        <time>2019-04-14T07:39:26.013Z</time>
      </trkpt>
      <trkpt lat="42.99161" lon="-0.81568">
        <ele>602</ele>
        <time>2019-04-14T07:39:28.013Z</time>
      </trkpt>
      <trkpt lat="42.9916" lon="-0.81571">
        <ele>602</ele>
        <time>2019-04-14T07:39:31.013Z</time>
      </trkpt>
      <trkpt lat="42.99159" lon="-0.81573">
        <ele>602</ele>
        <time>2019-04-14T07:39:33.013Z</time>
      </trkpt>
      <trkpt lat="42.99158" lon="-0.81576">
        <ele>602</ele>
        <time>2019-04-14T07:39:35.013Z</time>
      </trkpt>
      <trkpt lat="42.99157" lon="-0.81578">
        <ele>603</ele>
        <time>2019-04-14T07:39:37.013Z</time>
      </trkpt>
      <trkpt lat="42.99156" lon="-0.81581">
        <ele>603</ele>
        <time>2019-04-14T07:39:39.013Z</time>
      </trkpt>
      <trkpt lat="42.99155" lon="-0.81584">
        <ele>604</ele>
        <time>2019-04-14T07:39:41.013Z</time>
      </trkpt>
      <trkpt lat="42.99154" lon="-0.81587">
        <ele>604</ele>
        <time>2019-04-14T07:39:43.013Z</time>
      </trkpt>
      <trkpt lat="42.99153" lon="-0.8159">
        <ele>605</ele>
        <time>2019-04-14T07:39:45.013Z</time>
      </trkpt>
      <trkpt lat="42.99152" lon="-0.81593">
        <ele>605</ele>
        <time>2019-04-14T07:39:47.013Z</time>
      </trkpt>
      <trkpt lat="42.99151" lon="-0.81596">
        <ele>605</ele>
        <time>2019-04-14T07:39:49.013Z</time>
      </trkpt>
      <trkpt lat="42.9915" lon="-0.816">
        <ele>605</ele>
        <time>2019-04-14T07:39:51.013Z</time>
      </trkpt>
      <trkpt lat="42.99147" lon="-0.81613">
        <ele>606</ele>
        <time>2019-04-14T07:39:57.013Z</time>
      </trkpt>
      <trkpt lat="42.99147" lon="-0.81615">
        <ele>607</ele>
        <time>2019-04-14T07:40:00.013Z</time>
      </trkpt>
      <trkpt lat="42.99146" lon="-0.81618">
        <ele>607</ele>
        <time>2019-04-14T07:40:02.013Z</time>
      </trkpt>
      <trkpt lat="42.99144" lon="-0.81621">
        <ele>607</ele>
        <time>2019-04-14T07:40:04.013Z</time>
      </trkpt>
      <trkpt lat="42.99143" lon="-0.81623">
        <ele>607</ele>
        <time>2019-04-14T07:40:07.013Z</time>
      </trkpt>
      <trkpt lat="42.99142" lon="-0.81626">
        <ele>607.8130048</ele>
        <time>2019-04-14T07:40:09.013Z</time>
      </trkpt>
      <trkpt lat="42.99142" lon="-0.8163">
        <ele>608</ele>
        <time>2019-04-14T07:40:12.013Z</time>
      </trkpt>
      <trkpt lat="42.99141" lon="-0.81633">
        <ele>609</ele>
        <time>2019-04-14T07:40:15.013Z</time>
      </trkpt>
      <trkpt lat="42.99141" lon="-0.81636">
        <ele>609</ele>
        <time>2019-04-14T07:40:17.013Z</time>
      </trkpt>
      <trkpt lat="42.9914" lon="-0.81638">
        <ele>609</ele>
        <time>2019-04-14T07:40:19.013Z</time>
      </trkpt>
      <trkpt lat="42.99139" lon="-0.81641">
        <ele>609.63563735876</ele>
        <time>2019-04-14T07:40:21.013Z</time>
      </trkpt>
      <trkpt lat="42.99139" lon="-0.81644">
        <ele>610</ele>
        <time>2019-04-14T07:40:23.013Z</time>
      </trkpt>
      <trkpt lat="42.99139" lon="-0.81646">
        <ele>610.61264694199</ele>
        <time>2019-04-14T07:40:25.013Z</time>
      </trkpt>
      <trkpt lat="42.99138" lon="-0.81648">
        <ele>611</ele>
        <time>2019-04-14T07:40:27.013Z</time>
      </trkpt>
      <trkpt lat="42.99139" lon="-0.81651">
        <ele>611</ele>
        <time>2019-04-14T07:40:29.013Z</time>
      </trkpt>
      <trkpt lat="42.99139" lon="-0.81654">
        <ele>611</ele>
        <time>2019-04-14T07:40:31.013Z</time>
      </trkpt>
      <trkpt lat="42.99139" lon="-0.81658">
        <ele>611</ele>
        <time>2019-04-14T07:40:34.013Z</time>
      </trkpt>
      <trkpt lat="42.99139" lon="-0.81661">
        <ele>611.6726480142</ele>
        <time>2019-04-14T07:40:36.013Z</time>
      </trkpt>
      <trkpt lat="42.99138" lon="-0.81663">
        <ele>612</ele>
        <time>2019-04-14T07:40:38.013Z</time>
      </trkpt>
      <trkpt lat="42.99136" lon="-0.81666">
        <ele>612.73243464523</ele>
        <time>2019-04-14T07:40:40.013Z</time>
      </trkpt>
      <trkpt lat="42.99135" lon="-0.81668">
        <ele>613</ele>
        <time>2019-04-14T07:40:42.013Z</time>
      </trkpt>
      <trkpt lat="42.99133" lon="-0.81671">
        <ele>614</ele>
        <time>2019-04-14T07:40:44.013Z</time>
      </trkpt>
      <trkpt lat="42.99131" lon="-0.81672">
        <ele>614</ele>
        <time>2019-04-14T07:40:46.013Z</time>
      </trkpt>
      <trkpt lat="42.99129" lon="-0.81674">
        <ele>615</ele>
        <time>2019-04-14T07:40:48.013Z</time>
      </trkpt>
      <trkpt lat="42.99126" lon="-0.81676">
        <ele>615</ele>
        <time>2019-04-14T07:40:50.013Z</time>
      </trkpt>
      <trkpt lat="42.99123" lon="-0.81677">
        <ele>616</ele>
        <time>2019-04-14T07:40:52.013Z</time>
      </trkpt>
      <trkpt lat="42.99121" lon="-0.81678">
        <ele>616</ele>
        <time>2019-04-14T07:40:54.013Z</time>
      </trkpt>
      <trkpt lat="42.99118" lon="-0.81679">
        <ele>616</ele>
        <time>2019-04-14T07:40:56.013Z</time>
      </trkpt>
      <trkpt lat="42.99116" lon="-0.8168">
        <ele>616</ele>
        <time>2019-04-14T07:40:58.013Z</time>
      </trkpt>
      <trkpt lat="42.99113" lon="-0.81681">
        <ele>617</ele>
        <time>2019-04-14T07:41:00.013Z</time>
      </trkpt>
      <trkpt lat="42.99111" lon="-0.81682">
        <ele>617</ele>
        <time>2019-04-14T07:41:02.013Z</time>
      </trkpt>
      <trkpt lat="42.99108" lon="-0.81683">
        <ele>617</ele>
        <time>2019-04-14T07:41:04.013Z</time>
      </trkpt>
      <trkpt lat="42.99106" lon="-0.81684">
        <ele>617</ele>
        <time>2019-04-14T07:41:06.013Z</time>
      </trkpt>
      <trkpt lat="42.99103" lon="-0.81686">
        <ele>617</ele>
        <time>2019-04-14T07:41:08.013Z</time>
      </trkpt>
      <trkpt lat="42.99101" lon="-0.81687">
        <ele>617</ele>
        <time>2019-04-14T07:41:10.013Z</time>
      </trkpt>
      <trkpt lat="42.99098" lon="-0.81689">
        <ele>618</ele>
        <time>2019-04-14T07:41:12.013Z</time>
      </trkpt>
      <trkpt lat="42.99095" lon="-0.8169">
        <ele>618</ele>
        <time>2019-04-14T07:41:14.013Z</time>
      </trkpt>
      <trkpt lat="42.99093" lon="-0.81691">
        <ele>618</ele>
        <time>2019-04-14T07:41:16.013Z</time>
      </trkpt>
      <trkpt lat="42.9909" lon="-0.81691">
        <ele>618</ele>
        <time>2019-04-14T07:41:18.013Z</time>
      </trkpt>
      <trkpt lat="42.99088" lon="-0.81692">
        <ele>618</ele>
        <time>2019-04-14T07:41:20.013Z</time>
      </trkpt>
      <trkpt lat="42.99085" lon="-0.81693">
        <ele>618</ele>
        <time>2019-04-14T07:41:22.013Z</time>
      </trkpt>
      <trkpt lat="42.99083" lon="-0.81693">
        <ele>618</ele>
        <time>2019-04-14T07:41:24.013Z</time>
      </trkpt>
      <trkpt lat="42.9908" lon="-0.81694">
        <ele>618</ele>
        <time>2019-04-14T07:41:26.013Z</time>
      </trkpt>
      <trkpt lat="42.99078" lon="-0.81696">
        <ele>618</ele>
        <time>2019-04-14T07:41:28.013Z</time>
      </trkpt>
      <trkpt lat="42.99075" lon="-0.81696">
        <ele>618</ele>
        <time>2019-04-14T07:41:30.013Z</time>
      </trkpt>
      <trkpt lat="42.99073" lon="-0.81697">
        <ele>618</ele>
        <time>2019-04-14T07:41:32.013Z</time>
      </trkpt>
      <trkpt lat="42.9907" lon="-0.81699">
        <ele>618</ele>
        <time>2019-04-14T07:41:34.013Z</time>
      </trkpt>
      <trkpt lat="42.99068" lon="-0.81701">
        <ele>618</ele>
        <time>2019-04-14T07:41:36.013Z</time>
      </trkpt>
      <trkpt lat="42.99066" lon="-0.81702">
        <ele>618</ele>
        <time>2019-04-14T07:41:38.013Z</time>
      </trkpt>
      <trkpt lat="42.99064" lon="-0.81704">
        <ele>618</ele>
        <time>2019-04-14T07:41:40.013Z</time>
      </trkpt>
      <trkpt lat="42.99061" lon="-0.81706">
        <ele>619</ele>
        <time>2019-04-14T07:41:42.013Z</time>
      </trkpt>
      <trkpt lat="42.99059" lon="-0.81708">
        <ele>619</ele>
        <time>2019-04-14T07:41:44.013Z</time>
      </trkpt>
      <trkpt lat="42.99057" lon="-0.8171">
        <ele>619</ele>
        <time>2019-04-14T07:41:46.013Z</time>
      </trkpt>
      <trkpt lat="42.99056" lon="-0.81711">
        <ele>619</ele>
        <time>2019-04-14T07:41:48.013Z</time>
      </trkpt>
      <trkpt lat="42.99054" lon="-0.81713">
        <ele>620</ele>
        <time>2019-04-14T07:41:50.013Z</time>
      </trkpt>
      <trkpt lat="42.99053" lon="-0.81716">
        <ele>620</ele>
        <time>2019-04-14T07:41:52.013Z</time>
      </trkpt>
      <trkpt lat="42.99051" lon="-0.81718">
        <ele>620</ele>
        <time>2019-04-14T07:41:54.013Z</time>
      </trkpt>
      <trkpt lat="42.9905" lon="-0.8172">
        <ele>620</ele>
        <time>2019-04-14T07:41:56.013Z</time>
      </trkpt>
      <trkpt lat="42.99048" lon="-0.81723">
        <ele>620.683008</ele>
        <time>2019-04-14T07:41:58.013Z</time>
      </trkpt>
      <trkpt lat="42.99046" lon="-0.81725">
        <ele>621</ele>
        <time>2019-04-14T07:42:00.013Z</time>
      </trkpt>
      <trkpt lat="42.99046" lon="-0.81728">
        <ele>621</ele>
        <time>2019-04-14T07:42:02.013Z</time>
      </trkpt>
      <trkpt lat="42.99046" lon="-0.81731">
        <ele>621</ele>
        <time>2019-04-14T07:42:05.013Z</time>
      </trkpt>
      <trkpt lat="42.99047" lon="-0.81734">
        <ele>620.20107079938</ele>
        <time>2019-04-14T07:42:07.013Z</time>
      </trkpt>
      <trkpt lat="42.99049" lon="-0.81733">
        <ele>619</ele>
        <time>2019-04-14T07:44:12.013Z</time>
      </trkpt>
      <trkpt lat="42.99048" lon="-0.81735">
        <ele>620</ele>
        <time>2019-04-14T07:44:20.013Z</time>
      </trkpt>
      <trkpt lat="42.99048" lon="-0.81738">
        <ele>620</ele>
        <time>2019-04-14T07:44:23.013Z</time>
      </trkpt>
      <trkpt lat="42.99048" lon="-0.81741">
        <ele>620</ele>
        <time>2019-04-14T07:44:35.013Z</time>
      </trkpt>
      <trkpt lat="42.9905" lon="-0.81743">
        <ele>621</ele>
        <time>2019-04-14T07:44:52.013Z</time>
      </trkpt>
      <trkpt lat="42.99049" lon="-0.81738">
        <ele>620</ele>
        <time>2019-04-14T07:44:56.013Z</time>
      </trkpt>
      <trkpt lat="42.99049" lon="-0.81734">
        <ele>620</ele>
        <time>2019-04-14T07:44:57.013Z</time>
      </trkpt>
      <trkpt lat="42.99046" lon="-0.81724">
        <ele>619</ele>
        <time>2019-04-14T07:45:01.013Z</time>
      </trkpt>
      <trkpt lat="42.99045" lon="-0.81721">
        <ele>619</ele>
        <time>2019-04-14T07:45:02.013Z</time>
      </trkpt>
      <trkpt lat="42.99043" lon="-0.81718">
        <ele>619.60089142857</ele>
        <time>2019-04-14T07:45:04.013Z</time>
      </trkpt>
      <trkpt lat="42.99043" lon="-0.81721">
        <ele>621</ele>
        <time>2019-04-14T07:45:18.013Z</time>
      </trkpt>
      <trkpt lat="42.9904" lon="-0.81722">
        <ele>621</ele>
        <time>2019-04-14T07:45:20.013Z</time>
      </trkpt>
      <trkpt lat="42.99038" lon="-0.81722">
        <ele>620.39264</ele>
        <time>2019-04-14T07:45:22.013Z</time>
      </trkpt>
      <trkpt lat="42.99036" lon="-0.81723">
        <ele>620</ele>
        <time>2019-04-14T07:45:24.013Z</time>
      </trkpt>
      <trkpt lat="42.99036" lon="-0.8172">
        <ele>620</ele>
        <time>2019-04-14T07:45:39.013Z</time>
      </trkpt>
      <trkpt lat="42.99035" lon="-0.81716">
        <ele>619.29784188505</ele>
        <time>2019-04-14T07:45:41.013Z</time>
      </trkpt>
      <trkpt lat="42.99033" lon="-0.81711">
        <ele>619</ele>
        <time>2019-04-14T07:45:43.013Z</time>
      </trkpt>
      <trkpt lat="42.99031" lon="-0.81709">
        <ele>618</ele>
        <time>2019-04-14T07:45:45.013Z</time>
      </trkpt>
      <trkpt lat="42.9903" lon="-0.81707">
        <ele>617.1869952</ele>
        <time>2019-04-14T07:45:47.013Z</time>
      </trkpt>
      <trkpt lat="42.99027" lon="-0.81704">
        <ele>617</ele>
        <time>2019-04-14T07:45:49.013Z</time>
      </trkpt>
      <trkpt lat="42.99024" lon="-0.81702">
        <ele>616.1869952</ele>
        <time>2019-04-14T07:45:51.013Z</time>
      </trkpt>
      <trkpt lat="42.99017" lon="-0.81694">
        <ele>616</ele>
        <time>2019-04-14T07:45:56.013Z</time>
      </trkpt>
      <trkpt lat="42.99012" lon="-0.8169">
        <ele>615</ele>
        <time>2019-04-14T07:46:01.013Z</time>
      </trkpt>
      <trkpt lat="42.99008" lon="-0.8169">
        <ele>615</ele>
        <time>2019-04-14T07:46:04.013Z</time>
      </trkpt>
      <trkpt lat="42.98999" lon="-0.81687">
        <ele>614</ele>
        <time>2019-04-14T07:46:10.013Z</time>
      </trkpt>
      <trkpt lat="42.9899" lon="-0.81686">
        <ele>612.196992</ele>
        <time>2019-04-14T07:46:17.013Z</time>
      </trkpt>
      <trkpt lat="42.9898" lon="-0.81688">
        <ele>611.2090918494</ele>
        <time>2019-04-14T07:46:24.013Z</time>
      </trkpt>
      <trkpt lat="42.98976" lon="-0.81687">
        <ele>611</ele>
        <time>2019-04-14T07:46:28.013Z</time>
      </trkpt>
      <trkpt lat="42.98972" lon="-0.81684">
        <ele>610.7130075265</ele>
        <time>2019-04-14T07:46:33.013Z</time>
      </trkpt>
      <trkpt lat="42.98972" lon="-0.81681">
        <ele>611</ele>
        <time>2019-04-14T07:46:43.013Z</time>
      </trkpt>
      <trkpt lat="42.98971" lon="-0.81679">
        <ele>611</ele>
        <time>2019-04-14T07:46:47.013Z</time>
      </trkpt>
      <trkpt lat="42.98965" lon="-0.8167">
        <ele>613</ele>
        <time>2019-04-14T07:47:02.013Z</time>
      </trkpt>
      <trkpt lat="42.98962" lon="-0.81668">
        <ele>614</ele>
        <time>2019-04-14T07:47:04.013Z</time>
      </trkpt>
      <trkpt lat="42.98961" lon="-0.81667">
        <ele>614</ele>
        <time>2019-04-14T07:47:06.013Z</time>
      </trkpt>
      <trkpt lat="42.98959" lon="-0.81666">
        <ele>616</ele>
        <time>2019-04-14T07:47:10.013Z</time>
      </trkpt>
      <trkpt lat="42.98957" lon="-0.81666">
        <ele>616</ele>
        <time>2019-04-14T07:47:13.013Z</time>
      </trkpt>
      <trkpt lat="42.98955" lon="-0.81666">
        <ele>617</ele>
        <time>2019-04-14T07:47:17.013Z</time>
      </trkpt>
      <trkpt lat="42.98953" lon="-0.81664">
        <ele>617.75679903921</ele>
        <time>2019-04-14T07:47:21.013Z</time>
      </trkpt>
      <trkpt lat="42.98953" lon="-0.81662">
        <ele>618.73823835757</ele>
        <time>2019-04-14T07:47:24.013Z</time>
      </trkpt>
      <trkpt lat="42.98951" lon="-0.8166">
        <ele>619</ele>
        <time>2019-04-14T07:47:26.013Z</time>
      </trkpt>
      <trkpt lat="42.98949" lon="-0.8166">
        <ele>619</ele>
        <time>2019-04-14T07:47:28.013Z</time>
      </trkpt>
      <trkpt lat="42.98947" lon="-0.8166">
        <ele>619.68990484071</ele>
        <time>2019-04-14T07:47:30.013Z</time>
      </trkpt>
      <trkpt lat="42.98945" lon="-0.8166">
        <ele>620</ele>
        <time>2019-04-14T07:47:32.013Z</time>
      </trkpt>
      <trkpt lat="42.98942" lon="-0.81659">
        <ele>621</ele>
        <time>2019-04-14T07:47:36.013Z</time>
      </trkpt>
      <trkpt lat="42.98932" lon="-0.81654">
        <ele>623</ele>
        <time>2019-04-14T07:47:52.013Z</time>
      </trkpt>
      <trkpt lat="42.98923" lon="-0.81657">
        <ele>623</ele>
        <time>2019-04-14T07:47:58.013Z</time>
      </trkpt>
      <trkpt lat="42.98914" lon="-0.81653">
        <ele>625.735055818</ele>
        <time>2019-04-14T07:48:12.013Z</time>
      </trkpt>
      <trkpt lat="42.98906" lon="-0.81645">
        <ele>626</ele>
        <time>2019-04-14T07:48:24.013Z</time>
      </trkpt>
      <trkpt lat="42.98897" lon="-0.81642">
        <ele>625</ele>
        <time>2019-04-14T07:48:39.013Z</time>
      </trkpt>
      <trkpt lat="42.98889" lon="-0.81647">
        <ele>626</ele>
        <time>2019-04-14T07:48:49.013Z</time>
      </trkpt>
      <trkpt lat="42.98882" lon="-0.81637">
        <ele>629</ele>
        <time>2019-04-14T07:49:05.013Z</time>
      </trkpt>
      <trkpt lat="42.98872" lon="-0.81638">
        <ele>629</ele>
        <time>2019-04-14T07:49:28.013Z</time>
      </trkpt>
      <trkpt lat="42.98863" lon="-0.81637">
        <ele>628.71300207357</ele>
        <time>2019-04-14T07:49:34.013Z</time>
      </trkpt>
      <trkpt lat="42.98853" lon="-0.81638">
        <ele>629</ele>
        <time>2019-04-14T07:49:40.013Z</time>
      </trkpt>
      <trkpt lat="42.98848" lon="-0.81649">
        <ele>630</ele>
        <time>2019-04-14T07:49:57.013Z</time>
      </trkpt>
      <trkpt lat="42.98851" lon="-0.81662">
        <ele>632</ele>
        <time>2019-04-14T07:50:10.013Z</time>
      </trkpt>
      <trkpt lat="42.98851" lon="-0.81675">
        <ele>632</ele>
        <time>2019-04-14T07:50:19.013Z</time>
      </trkpt>
      <trkpt lat="42.98842" lon="-0.81681">
        <ele>634</ele>
        <time>2019-04-14T07:50:27.013Z</time>
      </trkpt>
      <trkpt lat="42.98831" lon="-0.81681">
        <ele>635</ele>
        <time>2019-04-14T07:50:33.013Z</time>
      </trkpt>
      <trkpt lat="42.98821" lon="-0.81682">
        <ele>636.66120281217</ele>
        <time>2019-04-14T07:50:42.013Z</time>
      </trkpt>
      <trkpt lat="42.98812" lon="-0.81685">
        <ele>638</ele>
        <time>2019-04-14T07:51:01.013Z</time>
      </trkpt>
      <trkpt lat="42.988" lon="-0.81683">
        <ele>640</ele>
        <time>2019-04-14T07:51:07.013Z</time>
      </trkpt>
      <trkpt lat="42.98791" lon="-0.8168">
        <ele>641</ele>
        <time>2019-04-14T07:51:11.013Z</time>
      </trkpt>
      <trkpt lat="42.98782" lon="-0.81685">
        <ele>641</ele>
        <time>2019-04-14T07:51:15.013Z</time>
      </trkpt>
      <trkpt lat="42.98777" lon="-0.81696">
        <ele>639</ele>
        <time>2019-04-14T07:51:38.013Z</time>
      </trkpt>
      <trkpt lat="42.98785" lon="-0.8169">
        <ele>638</ele>
        <time>2019-04-14T07:52:16.013Z</time>
      </trkpt>
      <trkpt lat="42.9879" lon="-0.81678">
        <ele>640</ele>
        <time>2019-04-14T07:52:23.013Z</time>
      </trkpt>
      <trkpt lat="42.98781" lon="-0.81674">
        <ele>640</ele>
        <time>2019-04-14T07:52:40.013Z</time>
      </trkpt>
      <trkpt lat="42.9877" lon="-0.81675">
        <ele>640</ele>
        <time>2019-04-14T07:52:55.013Z</time>
      </trkpt>
      <trkpt lat="42.98762" lon="-0.8167">
        <ele>641</ele>
        <time>2019-04-14T07:53:06.013Z</time>
      </trkpt>
      <trkpt lat="42.98754" lon="-0.81663">
        <ele>641</ele>
        <time>2019-04-14T07:53:20.013Z</time>
      </trkpt>
      <trkpt lat="42.98746" lon="-0.81655">
        <ele>641</ele>
        <time>2019-04-14T07:53:24.013Z</time>
      </trkpt>
      <trkpt lat="42.98755" lon="-0.81649">
        <ele>642</ele>
        <time>2019-04-14T07:53:42.013Z</time>
      </trkpt>
      <trkpt lat="42.98749" lon="-0.81661">
        <ele>643</ele>
        <time>2019-04-14T07:53:52.013Z</time>
      </trkpt>
      <trkpt lat="42.98748" lon="-0.81673">
        <ele>644</ele>
        <time>2019-04-14T07:54:02.013Z</time>
      </trkpt>
      <trkpt lat="42.98738" lon="-0.81669">
        <ele>644</ele>
        <time>2019-04-14T07:54:22.013Z</time>
      </trkpt>
      <trkpt lat="42.98736" lon="-0.81655">
        <ele>645</ele>
        <time>2019-04-14T07:54:29.013Z</time>
      </trkpt>
      <trkpt lat="42.98728" lon="-0.81648">
        <ele>646</ele>
        <time>2019-04-14T07:54:35.013Z</time>
      </trkpt>
      <trkpt lat="42.98721" lon="-0.81641">
        <ele>646</ele>
        <time>2019-04-14T07:54:48.013Z</time>
      </trkpt>
      <trkpt lat="42.98727" lon="-0.81628">
        <ele>649</ele>
        <time>2019-04-14T07:55:03.013Z</time>
      </trkpt>
      <trkpt lat="42.98731" lon="-0.81615">
        <ele>649</ele>
        <time>2019-04-14T07:55:09.013Z</time>
      </trkpt>
      <trkpt lat="42.98723" lon="-0.81607">
        <ele>653</ele>
        <time>2019-04-14T07:55:37.013Z</time>
      </trkpt>
      <trkpt lat="42.98713" lon="-0.81604">
        <ele>656</ele>
        <time>2019-04-14T07:55:54.013Z</time>
      </trkpt>
      <trkpt lat="42.98703" lon="-0.81604">
        <ele>657</ele>
        <time>2019-04-14T07:55:58.013Z</time>
      </trkpt>
      <trkpt lat="42.98694" lon="-0.81601">
        <ele>657</ele>
        <time>2019-04-14T07:56:02.013Z</time>
      </trkpt>
      <trkpt lat="42.98685" lon="-0.81603">
        <ele>656.53457539269</ele>
        <time>2019-04-14T07:56:09.013Z</time>
      </trkpt>
      <trkpt lat="42.98678" lon="-0.81593">
        <ele>657</ele>
        <time>2019-04-14T07:56:23.013Z</time>
      </trkpt>
      <trkpt lat="42.98673" lon="-0.8158">
        <ele>657.74776694256</ele>
        <time>2019-04-14T07:56:51.013Z</time>
      </trkpt>
      <trkpt lat="42.98682" lon="-0.81589">
        <ele>658</ele>
        <time>2019-04-14T07:57:03.013Z</time>
      </trkpt>
      <trkpt lat="42.98691" lon="-0.81593">
        <ele>658</ele>
        <time>2019-04-14T07:57:07.013Z</time>
      </trkpt>
      <trkpt lat="42.98683" lon="-0.81584">
        <ele>659</ele>
        <time>2019-04-14T07:57:16.013Z</time>
      </trkpt>
      <trkpt lat="42.98674" lon="-0.81583">
        <ele>659</ele>
        <time>2019-04-14T07:57:36.013Z</time>
      </trkpt>
      <trkpt lat="42.98664" lon="-0.81582">
        <ele>660.71863666596</ele>
        <time>2019-04-14T07:57:51.013Z</time>
      </trkpt>
      <trkpt lat="42.98664" lon="-0.81569">
        <ele>662</ele>
        <time>2019-04-14T07:57:59.013Z</time>
      </trkpt>
      <trkpt lat="42.98668" lon="-0.81557">
        <ele>663</ele>
        <time>2019-04-14T07:58:09.013Z</time>
      </trkpt>
      <trkpt lat="42.98659" lon="-0.81552">
        <ele>665</ele>
        <time>2019-04-14T07:58:24.013Z</time>
      </trkpt>
      <trkpt lat="42.98639" lon="-0.81557">
        <ele>665</ele>
        <time>2019-04-14T07:58:43.013Z</time>
      </trkpt>
      <trkpt lat="42.9863" lon="-0.81554">
        <ele>665</ele>
        <time>2019-04-14T07:58:55.013Z</time>
      </trkpt>
      <trkpt lat="42.9862" lon="-0.8155">
        <ele>667.59856045709</ele>
        <time>2019-04-14T07:59:13.013Z</time>
      </trkpt>
      <trkpt lat="42.98609" lon="-0.81547">
        <ele>668</ele>
        <time>2019-04-14T07:59:20.013Z</time>
      </trkpt>
      <trkpt lat="42.98599" lon="-0.81547">
        <ele>669</ele>
        <time>2019-04-14T07:59:24.013Z</time>
      </trkpt>
      <trkpt lat="42.98591" lon="-0.81552">
        <ele>670</ele>
        <time>2019-04-14T07:59:28.013Z</time>
      </trkpt>
      <trkpt lat="42.98581" lon="-0.81559">
        <ele>670</ele>
        <time>2019-04-14T07:59:33.013Z</time>
      </trkpt>
      <trkpt lat="42.98584" lon="-0.81573">
        <ele>671</ele>
        <time>2019-04-14T07:59:44.013Z</time>
      </trkpt>
      <trkpt lat="42.98574" lon="-0.81574">
        <ele>671</ele>
        <time>2019-04-14T07:59:49.013Z</time>
      </trkpt>
      <trkpt lat="42.98566" lon="-0.81567">
        <ele>672</ele>
        <time>2019-04-14T08:00:03.013Z</time>
      </trkpt>
      <trkpt lat="42.98556" lon="-0.81567">
        <ele>672</ele>
        <time>2019-04-14T08:00:34.013Z</time>
      </trkpt>
      <trkpt lat="42.98565" lon="-0.81563">
        <ele>671</ele>
        <time>2019-04-14T08:00:43.013Z</time>
      </trkpt>
      <trkpt lat="42.98563" lon="-0.81549">
        <ele>671</ele>
        <time>2019-04-14T08:01:01.013Z</time>
      </trkpt>
      <trkpt lat="42.98556" lon="-0.8154">
        <ele>673</ele>
        <time>2019-04-14T08:01:24.013Z</time>
      </trkpt>
      <trkpt lat="42.98548" lon="-0.81533">
        <ele>675</ele>
        <time>2019-04-14T08:01:38.013Z</time>
      </trkpt>
      <trkpt lat="42.98541" lon="-0.81526">
        <ele>676</ele>
        <time>2019-04-14T08:01:50.013Z</time>
      </trkpt>
      <trkpt lat="42.98533" lon="-0.81517">
        <ele>677</ele>
        <time>2019-04-14T08:02:08.013Z</time>
      </trkpt>
      <trkpt lat="42.98526" lon="-0.81508">
        <ele>678</ele>
        <time>2019-04-14T08:02:13.013Z</time>
      </trkpt>
      <trkpt lat="42.98519" lon="-0.81498">
        <ele>678</ele>
        <time>2019-04-14T08:02:20.013Z</time>
      </trkpt>
      <trkpt lat="42.98509" lon="-0.81497">
        <ele>678</ele>
        <time>2019-04-14T08:02:30.013Z</time>
      </trkpt>
      <trkpt lat="42.98506" lon="-0.81509">
        <ele>680</ele>
        <time>2019-04-14T08:03:00.013Z</time>
      </trkpt>
      <trkpt lat="42.98497" lon="-0.81509">
        <ele>682</ele>
        <time>2019-04-14T08:03:16.013Z</time>
      </trkpt>
      <trkpt lat="42.98488" lon="-0.81504">
        <ele>684</ele>
        <time>2019-04-14T08:03:24.013Z</time>
      </trkpt>
      <trkpt lat="42.9848" lon="-0.81511">
        <ele>684</ele>
        <time>2019-04-14T08:03:28.013Z</time>
      </trkpt>
      <trkpt lat="42.98471" lon="-0.81515">
        <ele>684.78750545454</ele>
        <time>2019-04-14T08:03:31.013Z</time>
      </trkpt>
      <trkpt lat="42.98463" lon="-0.81508">
        <ele>685</ele>
        <time>2019-04-14T08:03:38.013Z</time>
      </trkpt>
      <trkpt lat="42.98463" lon="-0.81491">
        <ele>685</ele>
        <time>2019-04-14T08:03:42.013Z</time>
      </trkpt>
      <trkpt lat="42.98467" lon="-0.81479">
        <ele>686</ele>
        <time>2019-04-14T08:03:48.013Z</time>
      </trkpt>
      <trkpt lat="42.98476" lon="-0.81472">
        <ele>686</ele>
        <time>2019-04-14T08:03:53.013Z</time>
      </trkpt>
      <trkpt lat="42.98483" lon="-0.81464">
        <ele>686</ele>
        <time>2019-04-14T08:03:58.013Z</time>
      </trkpt>
      <trkpt lat="42.98474" lon="-0.81461">
        <ele>687</ele>
        <time>2019-04-14T08:04:10.013Z</time>
      </trkpt>
      <trkpt lat="42.98465" lon="-0.81467">
        <ele>688</ele>
        <time>2019-04-14T08:04:13.013Z</time>
      </trkpt>
      <trkpt lat="42.98457" lon="-0.8146">
        <ele>688</ele>
        <time>2019-04-14T08:04:22.013Z</time>
      </trkpt>
      <trkpt lat="42.98448" lon="-0.81461">
        <ele>690</ele>
        <time>2019-04-14T08:04:36.013Z</time>
      </trkpt>
      <trkpt lat="42.9844" lon="-0.81453">
        <ele>691.79705852826</ele>
        <time>2019-04-14T08:04:48.013Z</time>
      </trkpt>
      <trkpt lat="42.98429" lon="-0.81454">
        <ele>692</ele>
        <time>2019-04-14T08:04:54.013Z</time>
      </trkpt>
      <trkpt lat="42.98422" lon="-0.81446">
        <ele>694</ele>
        <time>2019-04-14T08:05:06.013Z</time>
      </trkpt>
      <trkpt lat="42.98413" lon="-0.81446">
        <ele>695</ele>
        <time>2019-04-14T08:05:15.013Z</time>
      </trkpt>
      <trkpt lat="42.98403" lon="-0.81451">
        <ele>695.73286155759</ele>
        <time>2019-04-14T08:05:26.013Z</time>
      </trkpt>
      <trkpt lat="42.98391" lon="-0.81452">
        <ele>698</ele>
        <time>2019-04-14T08:05:40.013Z</time>
      </trkpt>
      <trkpt lat="42.98382" lon="-0.81457">
        <ele>698</ele>
        <time>2019-04-14T08:05:43.013Z</time>
      </trkpt>
      <trkpt lat="42.98373" lon="-0.81463">
        <ele>699</ele>
        <time>2019-04-14T08:05:47.013Z</time>
      </trkpt>
      <trkpt lat="42.98362" lon="-0.81465">
        <ele>699</ele>
        <time>2019-04-14T08:05:52.013Z</time>
      </trkpt>
      <trkpt lat="42.98352" lon="-0.81467">
        <ele>700</ele>
        <time>2019-04-14T08:05:56.013Z</time>
      </trkpt>
      <trkpt lat="42.98361" lon="-0.8146">
        <ele>702</ele>
        <time>2019-04-14T08:06:10.013Z</time>
      </trkpt>
      <trkpt lat="42.9837" lon="-0.81454">
        <ele>703</ele>
        <time>2019-04-14T08:06:19.013Z</time>
      </trkpt>
      <trkpt lat="42.98376" lon="-0.81445">
        <ele>703</ele>
        <time>2019-04-14T08:06:45.013Z</time>
      </trkpt>
      <trkpt lat="42.98385" lon="-0.8145">
        <ele>704</ele>
        <time>2019-04-14T08:07:58.013Z</time>
      </trkpt>
      <trkpt lat="42.98384" lon="-0.81437">
        <ele>704</ele>
        <time>2019-04-14T08:08:05.013Z</time>
      </trkpt>
      <trkpt lat="42.9838" lon="-0.81423">
        <ele>704</ele>
        <time>2019-04-14T08:08:08.013Z</time>
      </trkpt>
      <trkpt lat="42.98374" lon="-0.81413">
        <ele>705</ele>
        <time>2019-04-14T08:08:13.013Z</time>
      </trkpt>
      <trkpt lat="42.98366" lon="-0.81423">
        <ele>705</ele>
        <time>2019-04-14T08:08:25.013Z</time>
      </trkpt>
      <trkpt lat="42.9836" lon="-0.81433">
        <ele>706</ele>
        <time>2019-04-14T08:08:31.013Z</time>
      </trkpt>
      <trkpt lat="42.98357" lon="-0.81445">
        <ele>706</ele>
        <time>2019-04-14T08:08:40.013Z</time>
      </trkpt>
      <trkpt lat="42.98348" lon="-0.81452">
        <ele>707</ele>
        <time>2019-04-14T08:09:06.013Z</time>
      </trkpt>
      <trkpt lat="42.98337" lon="-0.81455">
        <ele>706</ele>
        <time>2019-04-14T08:09:11.013Z</time>
      </trkpt>
      <trkpt lat="42.98329" lon="-0.81464">
        <ele>707</ele>
        <time>2019-04-14T08:09:16.013Z</time>
      </trkpt>
      <trkpt lat="42.98328" lon="-0.81477">
        <ele>708</ele>
        <time>2019-04-14T08:09:26.013Z</time>
      </trkpt>
      <trkpt lat="42.98325" lon="-0.81457">
        <ele>709.73286155759</ele>
        <time>2019-04-14T08:09:32.013Z</time>
      </trkpt>
      <trkpt lat="42.98316" lon="-0.81459">
        <ele>712</ele>
        <time>2019-04-14T08:09:46.013Z</time>
      </trkpt>
      <trkpt lat="42.98316" lon="-0.81472">
        <ele>714</ele>
        <time>2019-04-14T08:10:15.013Z</time>
      </trkpt>
      <trkpt lat="42.98308" lon="-0.81464">
        <ele>714</ele>
        <time>2019-04-14T08:10:25.013Z</time>
      </trkpt>
      <trkpt lat="42.98298" lon="-0.81462">
        <ele>717</ele>
        <time>2019-04-14T08:10:37.013Z</time>
      </trkpt>
      <trkpt lat="42.98288" lon="-0.81462">
        <ele>718.73286155759</ele>
        <time>2019-04-14T08:10:44.013Z</time>
      </trkpt>
      <trkpt lat="42.98285" lon="-0.81474">
        <ele>720.80495779789</ele>
        <time>2019-04-14T08:11:04.013Z</time>
      </trkpt>
      <trkpt lat="42.98277" lon="-0.81483">
        <ele>722.79892920062</ele>
        <time>2019-04-14T08:11:23.013Z</time>
      </trkpt>
      <trkpt lat="42.98267" lon="-0.81481">
        <ele>723</ele>
        <time>2019-04-14T08:11:28.013Z</time>
      </trkpt>
      <trkpt lat="42.98257" lon="-0.8148">
        <ele>724.8130048</ele>
        <time>2019-04-14T08:11:34.013Z</time>
      </trkpt>
      <trkpt lat="42.98249" lon="-0.8149">
        <ele>726</ele>
        <time>2019-04-14T08:11:43.013Z</time>
      </trkpt>
      <trkpt lat="42.98239" lon="-0.81496">
        <ele>726</ele>
        <time>2019-04-14T08:11:47.013Z</time>
      </trkpt>
      <trkpt lat="42.98228" lon="-0.81497">
        <ele>726</ele>
        <time>2019-04-14T08:11:50.013Z</time>
      </trkpt>
      <trkpt lat="42.97791" lon="-0.81529">
        <ele>773</ele>
        <time>2019-04-14T08:20:36.013Z</time>
      </trkpt>
      <trkpt lat="42.97733" lon="-0.8151">
        <ele>787</ele>
        <time>2019-04-14T08:22:56.013Z</time>
      </trkpt>
      <trkpt lat="42.97723" lon="-0.81504">
        <ele>788</ele>
        <time>2019-04-14T08:23:01.013Z</time>
      </trkpt>
      <trkpt lat="42.97714" lon="-0.81504">
        <ele>789</ele>
        <time>2019-04-14T08:23:08.013Z</time>
      </trkpt>
      <trkpt lat="42.97876" lon="-0.81521">
        <ele>823</ele>
        <time>2019-04-14T08:27:09.013Z</time>
      </trkpt>
      <trkpt lat="42.97868" lon="-0.8153">
        <ele>826</ele>
        <time>2019-04-14T08:27:37.013Z</time>
      </trkpt>
      <trkpt lat="42.9786" lon="-0.81537">
        <ele>828</ele>
        <time>2019-04-14T08:27:49.013Z</time>
      </trkpt>
      <trkpt lat="42.9785" lon="-0.81545">
        <ele>830</ele>
        <time>2019-04-14T08:28:08.013Z</time>
      </trkpt>
      <trkpt lat="42.97855" lon="-0.81556">
        <ele>832</ele>
        <time>2019-04-14T08:28:19.013Z</time>
      </trkpt>
      <trkpt lat="42.97847" lon="-0.81548">
        <ele>832</ele>
        <time>2019-04-14T08:28:32.013Z</time>
      </trkpt>
      <trkpt lat="42.97836" lon="-0.81547">
        <ele>833</ele>
        <time>2019-04-14T08:28:35.013Z</time>
      </trkpt>
      <trkpt lat="42.97827" lon="-0.8154">
        <ele>834</ele>
        <time>2019-04-14T08:28:44.013Z</time>
      </trkpt>
      <trkpt lat="42.9783" lon="-0.81526">
        <ele>834</ele>
        <time>2019-04-14T08:28:51.013Z</time>
      </trkpt>
      <trkpt lat="42.97834" lon="-0.81514">
        <ele>835</ele>
        <time>2019-04-14T08:28:55.013Z</time>
      </trkpt>
      <trkpt lat="42.9783" lon="-0.81526">
        <ele>839</ele>
        <time>2019-04-14T08:29:33.013Z</time>
      </trkpt>
      <trkpt lat="42.97838" lon="-0.81533">
        <ele>839</ele>
        <time>2019-04-14T08:29:40.013Z</time>
      </trkpt>
      <trkpt lat="42.97845" lon="-0.81541">
        <ele>840</ele>
        <time>2019-04-14T08:29:53.013Z</time>
      </trkpt>
      <trkpt lat="42.97835" lon="-0.81545">
        <ele>840</ele>
        <time>2019-04-14T08:30:01.013Z</time>
      </trkpt>
      <trkpt lat="42.9783" lon="-0.81555">
        <ele>842.72410285714</ele>
        <time>2019-04-14T08:30:15.011Z</time>
      </trkpt>
      <trkpt lat="42.97819" lon="-0.81559">
        <ele>844.78506377908</ele>
        <time>2019-04-14T08:30:30.013Z</time>
      </trkpt>
      <trkpt lat="42.9781" lon="-0.81562">
        <ele>845</ele>
        <time>2019-04-14T08:30:37.013Z</time>
      </trkpt>
      <trkpt lat="42.97815" lon="-0.81575">
        <ele>845</ele>
        <time>2019-04-14T08:30:46.013Z</time>
      </trkpt>
      <trkpt lat="42.97824" lon="-0.81582">
        <ele>846</ele>
        <time>2019-04-14T08:30:52.013Z</time>
      </trkpt>
      <trkpt lat="42.97816" lon="-0.81587">
        <ele>848</ele>
        <time>2019-04-14T08:31:05.013Z</time>
      </trkpt>
      <trkpt lat="42.97813" lon="-0.81598">
        <ele>849.71947531179</ele>
        <time>2019-04-14T08:31:18.013Z</time>
      </trkpt>
      <trkpt lat="42.97805" lon="-0.81607">
        <ele>850</ele>
        <time>2019-04-14T08:31:26.013Z</time>
      </trkpt>
      <trkpt lat="42.97797" lon="-0.81612">
        <ele>851</ele>
        <time>2019-04-14T08:31:36.013Z</time>
      </trkpt>
      <trkpt lat="42.97801" lon="-0.81622">
        <ele>853</ele>
        <time>2019-04-14T08:31:45.013Z</time>
      </trkpt>
      <trkpt lat="42.97809" lon="-0.81632">
        <ele>854</ele>
        <time>2019-04-14T08:31:51.013Z</time>
      </trkpt>
      <trkpt lat="42.97818" lon="-0.81637">
        <ele>855</ele>
        <time>2019-04-14T08:31:54.013Z</time>
      </trkpt>
      <trkpt lat="42.97825" lon="-0.81645">
        <ele>855</ele>
        <time>2019-04-14T08:31:58.013Z</time>
      </trkpt>
      <trkpt lat="42.97837" lon="-0.81658">
        <ele>857</ele>
        <time>2019-04-14T08:32:10.013Z</time>
      </trkpt>
      <trkpt lat="42.97845" lon="-0.81665">
        <ele>857</ele>
        <time>2019-04-14T08:32:18.013Z</time>
      </trkpt>
      <trkpt lat="42.97832" lon="-0.81657">
        <ele>858</ele>
        <time>2019-04-14T08:32:27.013Z</time>
      </trkpt>
      <trkpt lat="42.97822" lon="-0.81657">
        <ele>858</ele>
        <time>2019-04-14T08:32:31.013Z</time>
      </trkpt>
      <trkpt lat="42.97829" lon="-0.81666">
        <ele>860</ele>
        <time>2019-04-14T08:32:37.000Z</time>
      </trkpt>
      <trkpt lat="42.978" lon="-0.81644">
        <ele>861</ele>
        <time>2019-04-14T08:32:48.013Z</time>
      </trkpt>
      <trkpt lat="42.97805" lon="-0.81656">
        <ele>861</ele>
        <time>2019-04-14T08:32:50.013Z</time>
      </trkpt>
      <trkpt lat="42.97818" lon="-0.81674">
        <ele>861</ele>
        <time>2019-04-14T08:32:52.013Z</time>
      </trkpt>
      <trkpt lat="42.97826" lon="-0.81683">
        <ele>861</ele>
        <time>2019-04-14T08:32:56.013Z</time>
      </trkpt>
      <trkpt lat="42.97816" lon="-0.81679">
        <ele>862</ele>
        <time>2019-04-14T08:33:04.013Z</time>
      </trkpt>
      <trkpt lat="42.97803" lon="-0.81673">
        <ele>862.78506377908</ele>
        <time>2019-04-14T08:33:08.013Z</time>
      </trkpt>
      <trkpt lat="42.97796" lon="-0.81681">
        <ele>864</ele>
        <time>2019-04-14T08:33:16.013Z</time>
      </trkpt>
      <trkpt lat="42.97801" lon="-0.81693">
        <ele>866</ele>
        <time>2019-04-14T08:33:31.013Z</time>
      </trkpt>
      <trkpt lat="42.97788" lon="-0.81694">
        <ele>866</ele>
        <time>2019-04-14T08:33:38.013Z</time>
      </trkpt>
      <trkpt lat="42.97797" lon="-0.81697">
        <ele>865</ele>
        <time>2019-04-14T08:33:45.013Z</time>
      </trkpt>
      <trkpt lat="42.97792" lon="-0.81687">
        <ele>867</ele>
        <time>2019-04-14T08:34:00.013Z</time>
      </trkpt>
      <trkpt lat="42.97783" lon="-0.81682">
        <ele>868</ele>
        <time>2019-04-14T08:34:30.013Z</time>
      </trkpt>
      <trkpt lat="42.97776" lon="-0.81691">
        <ele>869</ele>
        <time>2019-04-14T08:34:39.013Z</time>
      </trkpt>
      <trkpt lat="42.97779" lon="-0.81702">
        <ele>870</ele>
        <time>2019-04-14T08:34:44.013Z</time>
      </trkpt>
      <trkpt lat="42.97766" lon="-0.8171">
        <ele>873</ele>
        <time>2019-04-14T08:34:58.013Z</time>
      </trkpt>
      <trkpt lat="42.97757" lon="-0.81713">
        <ele>873.8130048</ele>
        <time>2019-04-14T08:35:03.013Z</time>
      </trkpt>
      <trkpt lat="42.97748" lon="-0.81721">
        <ele>875</ele>
        <time>2019-04-14T08:35:17.013Z</time>
      </trkpt>
      <trkpt lat="42.97752" lon="-0.81737">
        <ele>877</ele>
        <time>2019-04-14T08:35:29.013Z</time>
      </trkpt>
      <trkpt lat="42.97737" lon="-0.81739">
        <ele>878.80722080733</ele>
        <time>2019-04-14T08:35:38.013Z</time>
      </trkpt>
      <trkpt lat="42.97729" lon="-0.81733">
        <ele>879</ele>
        <time>2019-04-14T08:35:42.013Z</time>
      </trkpt>
      <trkpt lat="42.97721" lon="-0.8174">
        <ele>880</ele>
        <time>2019-04-14T08:35:51.013Z</time>
      </trkpt>
      <trkpt lat="42.97709" lon="-0.81754">
        <ele>882</ele>
        <time>2019-04-14T08:36:03.013Z</time>
      </trkpt>
      <trkpt lat="42.97699" lon="-0.81755">
        <ele>884</ele>
        <time>2019-04-14T08:36:39.013Z</time>
      </trkpt>
      <trkpt lat="42.977" lon="-0.81739">
        <ele>884</ele>
        <time>2019-04-14T08:36:45.013Z</time>
      </trkpt>
      <trkpt lat="42.97689" lon="-0.81735">
        <ele>885</ele>
        <time>2019-04-14T08:37:04.013Z</time>
      </trkpt>
      <trkpt lat="42.97682" lon="-0.81744">
        <ele>886</ele>
        <time>2019-04-14T08:37:10.013Z</time>
      </trkpt>
      <trkpt lat="42.97674" lon="-0.8175">
        <ele>889</ele>
        <time>2019-04-14T08:37:26.013Z</time>
      </trkpt>
      <trkpt lat="42.9768" lon="-0.81761">
        <ele>890</ele>
        <time>2019-04-14T08:37:34.013Z</time>
      </trkpt>
      <trkpt lat="42.9767" lon="-0.81765">
        <ele>892</ele>
        <time>2019-04-14T08:37:49.013Z</time>
      </trkpt>
      <trkpt lat="42.9766" lon="-0.81768">
        <ele>894</ele>
        <time>2019-04-14T08:38:04.013Z</time>
      </trkpt>
      <trkpt lat="42.97653" lon="-0.8176">
        <ele>895.79222607805</ele>
        <time>2019-04-14T08:38:17.013Z</time>
      </trkpt>
      <trkpt lat="42.97647" lon="-0.81772">
        <ele>896</ele>
        <time>2019-04-14T08:38:25.013Z</time>
      </trkpt>
      <trkpt lat="42.97637" lon="-0.81771">
        <ele>901</ele>
        <time>2019-04-14T08:38:54.013Z</time>
      </trkpt>
      <trkpt lat="42.97628" lon="-0.81777">
        <ele>902</ele>
        <time>2019-04-14T08:39:06.013Z</time>
      </trkpt>
      <trkpt lat="42.97619" lon="-0.81777">
        <ele>903</ele>
        <time>2019-04-14T08:39:12.013Z</time>
      </trkpt>
      <trkpt lat="42.97617" lon="-0.81789">
        <ele>905</ele>
        <time>2019-04-14T08:39:25.013Z</time>
      </trkpt>
      <trkpt lat="42.97627" lon="-0.81791">
        <ele>905</ele>
        <time>2019-04-14T08:39:28.013Z</time>
      </trkpt>
      <trkpt lat="42.97618" lon="-0.81788">
        <ele>906</ele>
        <time>2019-04-14T08:39:33.013Z</time>
      </trkpt>
      <trkpt lat="42.97609" lon="-0.81787">
        <ele>908</ele>
        <time>2019-04-14T08:39:40.013Z</time>
      </trkpt>
      <trkpt lat="42.97611" lon="-0.81773">
        <ele>909</ele>
        <time>2019-04-14T08:39:52.013Z</time>
      </trkpt>
      <trkpt lat="42.97601" lon="-0.81779">
        <ele>910.78173538461</ele>
        <time>2019-04-14T08:40:08.013Z</time>
      </trkpt>
      <trkpt lat="42.9759" lon="-0.81782">
        <ele>912</ele>
        <time>2019-04-14T08:40:19.013Z</time>
      </trkpt>
      <trkpt lat="42.9758" lon="-0.81776">
        <ele>914</ele>
        <time>2019-04-14T08:40:38.013Z</time>
      </trkpt>
      <trkpt lat="42.9757" lon="-0.81777">
        <ele>916</ele>
        <time>2019-04-14T08:40:50.013Z</time>
      </trkpt>
      <trkpt lat="42.97572" lon="-0.81764">
        <ele>915</ele>
        <time>2019-04-14T08:41:08.013Z</time>
      </trkpt>
      <trkpt lat="42.97579" lon="-0.81771">
        <ele>915</ele>
        <time>2019-04-14T08:41:14.001Z</time>
      </trkpt>
      <trkpt lat="42.97567" lon="-0.81775">
        <ele>915</ele>
        <time>2019-04-14T08:41:41.013Z</time>
      </trkpt>
      <trkpt lat="42.97565" lon="-0.81787">
        <ele>915</ele>
        <time>2019-04-14T08:41:49.013Z</time>
      </trkpt>
      <trkpt lat="42.97568" lon="-0.81773">
        <ele>915</ele>
        <time>2019-04-14T08:41:54.013Z</time>
      </trkpt>
      <trkpt lat="42.97572" lon="-0.81785">
        <ele>915</ele>
        <time>2019-04-14T08:42:00.013Z</time>
      </trkpt>
      <trkpt lat="42.97581" lon="-0.81787">
        <ele>920</ele>
        <time>2019-04-14T08:42:33.013Z</time>
      </trkpt>
      <trkpt lat="42.97594" lon="-0.81788">
        <ele>922</ele>
        <time>2019-04-14T08:42:48.013Z</time>
      </trkpt>
      <trkpt lat="42.97585" lon="-0.81785">
        <ele>922</ele>
        <time>2019-04-14T08:42:50.013Z</time>
      </trkpt>
      <trkpt lat="42.97578" lon="-0.81774">
        <ele>922</ele>
        <time>2019-04-14T08:42:58.013Z</time>
      </trkpt>
      <trkpt lat="42.97568" lon="-0.81777">
        <ele>922</ele>
        <time>2019-04-14T08:43:01.013Z</time>
      </trkpt>
      <trkpt lat="42.97585" lon="-0.81794">
        <ele>922</ele>
        <time>2019-04-14T08:43:09.013Z</time>
      </trkpt>
      <trkpt lat="42.97598" lon="-0.818">
        <ele>922</ele>
        <time>2019-04-14T08:43:10.013Z</time>
      </trkpt>
      <trkpt lat="42.9761" lon="-0.81804">
        <ele>922</ele>
        <time>2019-04-14T08:43:16.013Z</time>
      </trkpt>
      <trkpt lat="42.97629" lon="-0.81812">
        <ele>922</ele>
        <time>2019-04-14T08:43:19.013Z</time>
      </trkpt>
      <trkpt lat="42.97602" lon="-0.81804">
        <ele>923</ele>
        <time>2019-04-14T08:43:36.013Z</time>
      </trkpt>
      <trkpt lat="42.97598" lon="-0.81792">
        <ele>923</ele>
        <time>2019-04-14T08:43:39.013Z</time>
      </trkpt>
      <trkpt lat="42.97587" lon="-0.81786">
        <ele>923</ele>
        <time>2019-04-14T08:43:42.013Z</time>
      </trkpt>
      <trkpt lat="42.97577" lon="-0.81787">
        <ele>923</ele>
        <time>2019-04-14T08:43:44.013Z</time>
      </trkpt>
      <trkpt lat="42.97569" lon="-0.81782">
        <ele>923.8130048</ele>
        <time>2019-04-14T08:43:46.013Z</time>
      </trkpt>
      <trkpt lat="42.9756" lon="-0.81788">
        <ele>924.86333298794</ele>
        <time>2019-04-14T08:43:50.013Z</time>
      </trkpt>
      <trkpt lat="42.97549" lon="-0.81788">
        <ele>926</ele>
        <time>2019-04-14T08:43:57.013Z</time>
      </trkpt>
      <trkpt lat="42.97545" lon="-0.818">
        <ele>927</ele>
        <time>2019-04-14T08:44:03.013Z</time>
      </trkpt>
      <trkpt lat="42.97548" lon="-0.81814">
        <ele>927</ele>
        <time>2019-04-14T08:44:07.013Z</time>
      </trkpt>
      <trkpt lat="42.97541" lon="-0.81822">
        <ele>929</ele>
        <time>2019-04-14T08:44:17.013Z</time>
      </trkpt>
      <trkpt lat="42.97531" lon="-0.8182">
        <ele>930</ele>
        <time>2019-04-14T08:44:22.013Z</time>
      </trkpt>
      <trkpt lat="42.97522" lon="-0.81826">
        <ele>932.8091873253</ele>
        <time>2019-04-14T08:44:35.013Z</time>
      </trkpt>
      <trkpt lat="42.97514" lon="-0.81822">
        <ele>935</ele>
        <time>2019-04-14T08:44:47.013Z</time>
      </trkpt>
      <trkpt lat="42.9751" lon="-0.81834">
        <ele>938.73909097256</ele>
        <time>2019-04-14T08:45:28.013Z</time>
      </trkpt>
      <trkpt lat="42.975" lon="-0.81835">
        <ele>941</ele>
        <time>2019-04-14T08:45:41.013Z</time>
      </trkpt>
      <trkpt lat="42.97494" lon="-0.81846">
        <ele>944</ele>
        <time>2019-04-14T08:45:55.013Z</time>
      </trkpt>
      <trkpt lat="42.97504" lon="-0.81852">
        <ele>947</ele>
        <time>2019-04-14T08:46:09.013Z</time>
      </trkpt>
      <trkpt lat="42.97495" lon="-0.81848">
        <ele>947</ele>
        <time>2019-04-14T08:46:14.013Z</time>
      </trkpt>
      <trkpt lat="42.97486" lon="-0.81846">
        <ele>949</ele>
        <time>2019-04-14T08:46:29.013Z</time>
      </trkpt>
      <trkpt lat="42.97476" lon="-0.81845">
        <ele>950.80495779789</ele>
        <time>2019-04-14T08:46:36.013Z</time>
      </trkpt>
      <trkpt lat="42.97467" lon="-0.81846">
        <ele>958.79705852826</ele>
        <time>2019-04-14T08:47:30.013Z</time>
      </trkpt>
      <trkpt lat="42.97457" lon="-0.81853">
        <ele>960</ele>
        <time>2019-04-14T08:47:43.013Z</time>
      </trkpt>
      <trkpt lat="42.97448" lon="-0.81851">
        <ele>961</ele>
        <time>2019-04-14T08:47:47.013Z</time>
      </trkpt>
      <trkpt lat="42.9744" lon="-0.81855">
        <ele>961</ele>
        <time>2019-04-14T08:47:49.013Z</time>
      </trkpt>
      <trkpt lat="42.97449" lon="-0.81864">
        <ele>963.71947531179</ele>
        <time>2019-04-14T08:48:00.013Z</time>
      </trkpt>
      <trkpt lat="42.97458" lon="-0.81864">
        <ele>964.77429264546</ele>
        <time>2019-04-14T08:48:03.013Z</time>
      </trkpt>
      <trkpt lat="42.97374" lon="-0.81891">
        <ele>975</ele>
        <time>2019-04-14T08:50:01.013Z</time>
      </trkpt>
      <trkpt lat="42.9738" lon="-0.81901">
        <ele>975</ele>
        <time>2019-04-14T08:50:10.013Z</time>
      </trkpt>
      <trkpt lat="42.97386" lon="-0.81889">
        <ele>975</ele>
        <time>2019-04-14T08:50:17.013Z</time>
      </trkpt>
      <trkpt lat="42.97375" lon="-0.81882">
        <ele>975</ele>
        <time>2019-04-14T08:50:23.013Z</time>
      </trkpt>
      <trkpt lat="42.97384" lon="-0.81887">
        <ele>974.8130048</ele>
        <time>2019-04-14T08:50:35.013Z</time>
      </trkpt>
      <trkpt lat="42.97393" lon="-0.81881">
        <ele>975</ele>
        <time>2019-04-14T08:50:39.013Z</time>
      </trkpt>
      <trkpt lat="42.97402" lon="-0.81885">
        <ele>975</ele>
        <time>2019-04-14T08:50:44.013Z</time>
      </trkpt>
      <trkpt lat="42.9741" lon="-0.81891">
        <ele>975</ele>
        <time>2019-04-14T08:50:48.013Z</time>
      </trkpt>
      <trkpt lat="42.97402" lon="-0.81885">
        <ele>975</ele>
        <time>2019-04-14T08:51:28.013Z</time>
      </trkpt>
      <trkpt lat="42.97396" lon="-0.81875">
        <ele>975</ele>
        <time>2019-04-14T08:51:50.013Z</time>
      </trkpt>
      <trkpt lat="42.97391" lon="-0.81901">
        <ele>975</ele>
        <time>2019-04-14T08:52:32.013Z</time>
      </trkpt>
      <trkpt lat="42.9741" lon="-0.81863">
        <ele>975</ele>
        <time>2019-04-14T08:52:35.013Z</time>
      </trkpt>
      <trkpt lat="42.97421" lon="-0.81857">
        <ele>975</ele>
        <time>2019-04-14T08:52:37.013Z</time>
      </trkpt>
      <trkpt lat="42.97432" lon="-0.81858">
        <ele>975</ele>
        <time>2019-04-14T08:52:44.014Z</time>
      </trkpt>
      <trkpt lat="42.97427" lon="-0.81869">
        <ele>975</ele>
        <time>2019-04-14T08:53:02.013Z</time>
      </trkpt>
      <trkpt lat="42.97436" lon="-0.81867">
        <ele>975</ele>
        <time>2019-04-14T08:53:06.013Z</time>
      </trkpt>
      <trkpt lat="42.9743" lon="-0.81852">
        <ele>975</ele>
        <time>2019-04-14T08:53:14.013Z</time>
      </trkpt>
      <trkpt lat="42.97436" lon="-0.81868">
        <ele>975</ele>
        <time>2019-04-14T08:53:18.013Z</time>
      </trkpt>
      <trkpt lat="42.97438" lon="-0.81881">
        <ele>975</ele>
        <time>2019-04-14T08:53:21.013Z</time>
      </trkpt>
      <trkpt lat="42.97445" lon="-0.81891">
        <ele>975</ele>
        <time>2019-04-14T08:53:31.013Z</time>
      </trkpt>
      <trkpt lat="42.97406" lon="-0.81887">
        <ele>975</ele>
        <time>2019-04-14T08:53:40.013Z</time>
      </trkpt>
      <trkpt lat="42.97398" lon="-0.81884">
        <ele>975</ele>
        <time>2019-04-14T08:53:43.013Z</time>
      </trkpt>
      <trkpt lat="42.9739" lon="-0.81876">
        <ele>975</ele>
        <time>2019-04-14T08:53:46.013Z</time>
      </trkpt>
      <trkpt lat="42.97397" lon="-0.81887">
        <ele>975</ele>
        <time>2019-04-14T08:53:49.013Z</time>
      </trkpt>
      <trkpt lat="42.97403" lon="-0.81898">
        <ele>975</ele>
        <time>2019-04-14T08:53:58.013Z</time>
      </trkpt>
      <trkpt lat="42.97403" lon="-0.81914">
        <ele>975</ele>
        <time>2019-04-14T08:54:39.013Z</time>
      </trkpt>
      <trkpt lat="42.97397" lon="-0.81924">
        <ele>976.80918981754</ele>
        <time>2019-04-14T08:54:52.013Z</time>
      </trkpt>
      <trkpt lat="42.97387" lon="-0.81924">
        <ele>981</ele>
        <time>2019-04-14T08:55:12.013Z</time>
      </trkpt>
      <trkpt lat="42.97374" lon="-0.81928">
        <ele>982</ele>
        <time>2019-04-14T08:55:17.013Z</time>
      </trkpt>
      <trkpt lat="42.97365" lon="-0.81931">
        <ele>983</ele>
        <time>2019-04-14T08:55:21.013Z</time>
      </trkpt>
      <trkpt lat="42.97356" lon="-0.81929">
        <ele>985</ele>
        <time>2019-04-14T08:55:31.013Z</time>
      </trkpt>
      <trkpt lat="42.97353" lon="-0.81914">
        <ele>987</ele>
        <time>2019-04-14T08:55:44.013Z</time>
      </trkpt>
      <trkpt lat="42.97363" lon="-0.81912">
        <ele>988</ele>
        <time>2019-04-14T08:55:57.013Z</time>
      </trkpt>
      <trkpt lat="42.97371" lon="-0.81899">
        <ele>988</ele>
        <time>2019-04-14T08:56:02.013Z</time>
      </trkpt>
      <trkpt lat="42.97373" lon="-0.81913">
        <ele>988</ele>
        <time>2019-04-14T08:56:03.013Z</time>
      </trkpt>
      <trkpt lat="42.97376" lon="-0.81925">
        <ele>988</ele>
        <time>2019-04-14T08:56:06.013Z</time>
      </trkpt>
      <trkpt lat="42.97384" lon="-0.81915">
        <ele>988</ele>
        <time>2019-04-14T08:56:11.017Z</time>
      </trkpt>
      <trkpt lat="42.97374" lon="-0.81914">
        <ele>988</ele>
        <time>2019-04-14T08:56:14.013Z</time>
      </trkpt>
      <trkpt lat="42.97369" lon="-0.81903">
        <ele>988</ele>
        <time>2019-04-14T08:56:37.013Z</time>
      </trkpt>
      <trkpt lat="42.97364" lon="-0.81914">
        <ele>990</ele>
        <time>2019-04-14T08:56:44.013Z</time>
      </trkpt>
      <trkpt lat="42.97355" lon="-0.81918">
        <ele>990</ele>
        <time>2019-04-14T08:56:51.013Z</time>
      </trkpt>
      <trkpt lat="42.97346" lon="-0.81924">
        <ele>993</ele>
        <time>2019-04-14T08:57:01.013Z</time>
      </trkpt>
      <trkpt lat="42.97336" lon="-0.81926">
        <ele>994</ele>
        <time>2019-04-14T08:57:19.013Z</time>
      </trkpt>
      <trkpt lat="42.97326" lon="-0.81926">
        <ele>996</ele>
        <time>2019-04-14T08:57:29.013Z</time>
      </trkpt>
      <trkpt lat="42.97331" lon="-0.81916">
        <ele>997</ele>
        <time>2019-04-14T08:57:33.009Z</time>
      </trkpt>
      <trkpt lat="42.97326" lon="-0.81902">
        <ele>996</ele>
        <time>2019-04-14T08:57:49.013Z</time>
      </trkpt>
      <trkpt lat="42.97317" lon="-0.8191">
        <ele>994</ele>
        <time>2019-04-14T08:58:03.013Z</time>
      </trkpt>
      <trkpt lat="42.9731" lon="-0.81902">
        <ele>995</ele>
        <time>2019-04-14T08:58:11.013Z</time>
      </trkpt>
      <trkpt lat="42.97302" lon="-0.81894">
        <ele>995</ele>
        <time>2019-04-14T08:58:16.013Z</time>
      </trkpt>
      <trkpt lat="42.97292" lon="-0.81898">
        <ele>995</ele>
        <time>2019-04-14T08:58:18.013Z</time>
      </trkpt>
      <trkpt lat="42.9729" lon="-0.81884">
        <ele>997</ele>
        <time>2019-04-14T08:58:25.013Z</time>
      </trkpt>
      <trkpt lat="42.97283" lon="-0.81877">
        <ele>996</ele>
        <time>2019-04-14T08:58:36.013Z</time>
      </trkpt>
      <trkpt lat="42.97292" lon="-0.81871">
        <ele>998</ele>
        <time>2019-04-14T08:58:46.013Z</time>
      </trkpt>
      <trkpt lat="42.97281" lon="-0.81873">
        <ele>999</ele>
        <time>2019-04-14T08:58:54.013Z</time>
      </trkpt>
      <trkpt lat="42.97271" lon="-0.81881">
        <ele>999</ele>
        <time>2019-04-14T08:58:57.013Z</time>
      </trkpt>
      <trkpt lat="42.97262" lon="-0.81887">
        <ele>1000</ele>
        <time>2019-04-14T08:59:04.013Z</time>
      </trkpt>
      <trkpt lat="42.97254" lon="-0.81893">
        <ele>1002</ele>
        <time>2019-04-14T08:59:09.013Z</time>
      </trkpt>
      <trkpt lat="42.97256" lon="-0.81879">
        <ele>1003</ele>
        <time>2019-04-14T08:59:24.013Z</time>
      </trkpt>
      <trkpt lat="42.97246" lon="-0.81874">
        <ele>1004</ele>
        <time>2019-04-14T08:59:32.013Z</time>
      </trkpt>
      <trkpt lat="42.97236" lon="-0.81878">
        <ele>1005</ele>
        <time>2019-04-14T08:59:41.520Z</time>
      </trkpt>
      <trkpt lat="42.97227" lon="-0.81875">
        <ele>1007</ele>
        <time>2019-04-14T08:59:57.013Z</time>
      </trkpt>
      <trkpt lat="42.97222" lon="-0.81864">
        <ele>1007</ele>
        <time>2019-04-14T09:00:06.013Z</time>
      </trkpt>
      <trkpt lat="42.97218" lon="-0.81853">
        <ele>1009</ele>
        <time>2019-04-14T09:00:19.013Z</time>
      </trkpt>
      <trkpt lat="42.97209" lon="-0.81847">
        <ele>1010.7669810296</ele>
        <time>2019-04-14T09:00:29.013Z</time>
      </trkpt>
      <trkpt lat="42.97203" lon="-0.81837">
        <ele>1014</ele>
        <time>2019-04-14T09:00:37.013Z</time>
      </trkpt>
      <trkpt lat="42.97195" lon="-0.81843">
        <ele>1014.7289912069</ele>
        <time>2019-04-14T09:00:42.013Z</time>
      </trkpt>
      <trkpt lat="42.97188" lon="-0.8185">
        <ele>1016.8130048</ele>
        <time>2019-04-14T09:00:49.013Z</time>
      </trkpt>
      <trkpt lat="42.97179" lon="-0.81857">
        <ele>1018</ele>
        <time>2019-04-14T09:00:58.013Z</time>
      </trkpt>
      <trkpt lat="42.9717" lon="-0.81856">
        <ele>1018</ele>
        <time>2019-04-14T09:01:02.013Z</time>
      </trkpt>
      <trkpt lat="42.97167" lon="-0.81843">
        <ele>1021</ele>
        <time>2019-04-14T09:01:17.013Z</time>
      </trkpt>
      <trkpt lat="42.97175" lon="-0.81833">
        <ele>1022</ele>
        <time>2019-04-14T09:01:23.013Z</time>
      </trkpt>
      <trkpt lat="42.97182" lon="-0.81825">
        <ele>1022</ele>
        <time>2019-04-14T09:01:26.013Z</time>
      </trkpt>
      <trkpt lat="42.97192" lon="-0.81818">
        <ele>1023.597522532</ele>
        <time>2019-04-14T09:01:33.013Z</time>
      </trkpt>
      <trkpt lat="42.97184" lon="-0.81825">
        <ele>1028</ele>
        <time>2019-04-14T09:01:58.013Z</time>
      </trkpt>
      <trkpt lat="42.97173" lon="-0.81822">
        <ele>1029</ele>
        <time>2019-04-14T09:02:03.013Z</time>
      </trkpt>
      <trkpt lat="42.97164" lon="-0.81819">
        <ele>1030</ele>
        <time>2019-04-14T09:02:08.013Z</time>
      </trkpt>
      <trkpt lat="42.97131" lon="-0.81823">
        <ele>1033</ele>
        <time>2019-04-14T09:02:30.013Z</time>
      </trkpt>
      <trkpt lat="42.97114" lon="-0.81844">
        <ele>1034</ele>
        <time>2019-04-14T09:02:39.013Z</time>
      </trkpt>
      <trkpt lat="42.97106" lon="-0.81852">
        <ele>1034</ele>
        <time>2019-04-14T09:02:40.013Z</time>
      </trkpt>
      <trkpt lat="42.97098" lon="-0.8186">
        <ele>1034</ele>
        <time>2019-04-14T09:02:41.013Z</time>
      </trkpt>
      <trkpt lat="42.97083" lon="-0.81876">
        <ele>1034</ele>
        <time>2019-04-14T09:02:43.013Z</time>
      </trkpt>
      <trkpt lat="42.97088" lon="-0.81886">
        <ele>1036</ele>
        <time>2019-04-14T09:02:47.013Z</time>
      </trkpt>
      <trkpt lat="42.97058" lon="-0.81911">
        <ele>1039</ele>
        <time>2019-04-14T09:03:07.013Z</time>
      </trkpt>
      <trkpt lat="42.97048" lon="-0.81906">
        <ele>1038.2968162701</ele>
        <time>2019-04-14T09:03:19.013Z</time>
      </trkpt>
      <trkpt lat="42.97323" lon="-0.81568">
        <ele>1054</ele>
        <time>2019-04-14T09:05:29.013Z</time>
      </trkpt>
      <trkpt lat="42.97314" lon="-0.81571">
        <ele>1056</ele>
        <time>2019-04-14T09:05:37.013Z</time>
      </trkpt>
      <trkpt lat="42.97304" lon="-0.81574">
        <ele>1057</ele>
        <time>2019-04-14T09:05:42.013Z</time>
      </trkpt>
      <trkpt lat="42.97294" lon="-0.81579">
        <ele>1058</ele>
        <time>2019-04-14T09:05:48.013Z</time>
      </trkpt>
      <trkpt lat="42.97285" lon="-0.81584">
        <ele>1058</ele>
        <time>2019-04-14T09:05:53.013Z</time>
      </trkpt>
      <trkpt lat="42.97275" lon="-0.81586">
        <ele>1059</ele>
        <time>2019-04-14T09:06:02.013Z</time>
      </trkpt>
      <trkpt lat="42.97262" lon="-0.81586">
        <ele>1059</ele>
        <time>2019-04-14T09:06:05.013Z</time>
      </trkpt>
      <trkpt lat="42.97259" lon="-0.81598">
        <ele>1061</ele>
        <time>2019-04-14T09:06:14.013Z</time>
      </trkpt>
      <trkpt lat="42.97249" lon="-0.81604">
        <ele>1062.7390995729</ele>
        <time>2019-04-14T09:06:25.013Z</time>
      </trkpt>
      <trkpt lat="42.9724" lon="-0.81607">
        <ele>1069</ele>
        <time>2019-04-14T09:07:07.013Z</time>
      </trkpt>
      <trkpt lat="42.97233" lon="-0.81599">
        <ele>1070</ele>
        <time>2019-04-14T09:07:13.013Z</time>
      </trkpt>
      <trkpt lat="42.97223" lon="-0.81589">
        <ele>1070</ele>
        <time>2019-04-14T09:07:20.013Z</time>
      </trkpt>
      <trkpt lat="42.97235" lon="-0.81588">
        <ele>1070</ele>
        <time>2019-04-14T09:07:29.013Z</time>
      </trkpt>
      <trkpt lat="42.97239" lon="-0.816">
        <ele>1070</ele>
        <time>2019-04-14T09:07:54.013Z</time>
      </trkpt>
      <trkpt lat="42.97233" lon="-0.81609">
        <ele>1072</ele>
        <time>2019-04-14T09:08:17.013Z</time>
      </trkpt>
      <trkpt lat="42.97228" lon="-0.8162">
        <ele>1074</ele>
        <time>2019-04-14T09:08:35.013Z</time>
      </trkpt>
      <trkpt lat="42.9722" lon="-0.81668">
        <ele>1075</ele>
        <time>2019-04-14T09:08:50.005Z</time>
      </trkpt>
      <trkpt lat="42.97219" lon="-0.8168">
        <ele>1075</ele>
        <time>2019-04-14T09:08:53.013Z</time>
      </trkpt>
      <trkpt lat="42.97216" lon="-0.81695">
        <ele>1075</ele>
        <time>2019-04-14T09:08:55.013Z</time>
      </trkpt>
      <trkpt lat="42.97206" lon="-0.81693">
        <ele>1075</ele>
        <time>2019-04-14T09:09:10.013Z</time>
      </trkpt>
      <trkpt lat="42.97197" lon="-0.81705">
        <ele>1075</ele>
        <time>2019-04-14T09:09:13.013Z</time>
      </trkpt>
      <trkpt lat="42.97189" lon="-0.81716">
        <ele>1076</ele>
        <time>2019-04-14T09:09:21.013Z</time>
      </trkpt>
      <trkpt lat="42.9718" lon="-0.81715">
        <ele>1077</ele>
        <time>2019-04-14T09:09:34.013Z</time>
      </trkpt>
      <trkpt lat="42.9717" lon="-0.8172">
        <ele>1077</ele>
        <time>2019-04-14T09:09:49.013Z</time>
      </trkpt>
      <trkpt lat="42.97179" lon="-0.81706">
        <ele>1077</ele>
        <time>2019-04-14T09:09:50.013Z</time>
      </trkpt>
      <trkpt lat="42.97168" lon="-0.81708">
        <ele>1077</ele>
        <time>2019-04-14T09:09:58.013Z</time>
      </trkpt>
      <trkpt lat="42.97159" lon="-0.81716">
        <ele>1077</ele>
        <time>2019-04-14T09:10:11.013Z</time>
      </trkpt>
      <trkpt lat="42.97159" lon="-0.81728">
        <ele>1079</ele>
        <time>2019-04-14T09:10:24.013Z</time>
      </trkpt>
      <trkpt lat="42.97167" lon="-0.81733">
        <ele>1081</ele>
        <time>2019-04-14T09:10:33.013Z</time>
      </trkpt>
      <trkpt lat="42.97172" lon="-0.81747">
        <ele>1083.7328664424</ele>
        <time>2019-04-14T09:10:47.013Z</time>
      </trkpt>
      <trkpt lat="42.97164" lon="-0.81742">
        <ele>1088</ele>
        <time>2019-04-14T09:11:06.013Z</time>
      </trkpt>
      <trkpt lat="42.97154" lon="-0.81745">
        <ele>1091</ele>
        <time>2019-04-14T09:11:20.013Z</time>
      </trkpt>
      <trkpt lat="42.97144" lon="-0.81741">
        <ele>1093</ele>
        <time>2019-04-14T09:11:27.013Z</time>
      </trkpt>
      <trkpt lat="42.97136" lon="-0.81747">
        <ele>1096.8091898175</ele>
        <time>2019-04-14T09:11:44.013Z</time>
      </trkpt>
      <trkpt lat="42.97127" lon="-0.8175">
        <ele>1098</ele>
        <time>2019-04-14T09:12:03.013Z</time>
      </trkpt>
      <trkpt lat="42.97121" lon="-0.81739">
        <ele>1098</ele>
        <time>2019-04-14T09:12:09.013Z</time>
      </trkpt>
      <trkpt lat="42.97116" lon="-0.81728">
        <ele>1099.1869952</ele>
        <time>2019-04-14T09:12:25.013Z</time>
      </trkpt>
      <trkpt lat="42.97108" lon="-0.81718">
        <ele>1099</ele>
        <time>2019-04-14T09:12:41.013Z</time>
      </trkpt>
      <trkpt lat="42.97098" lon="-0.8172">
        <ele>1110.8072208073</ele>
        <time>2019-04-14T09:13:29.013Z</time>
      </trkpt>
      <trkpt lat="42.97088" lon="-0.81718">
        <ele>1113</ele>
        <time>2019-04-14T09:13:39.013Z</time>
      </trkpt>
      <trkpt lat="42.97077" lon="-0.81715">
        <ele>1118</ele>
        <time>2019-04-14T09:13:56.013Z</time>
      </trkpt>
      <trkpt lat="42.97068" lon="-0.81712">
        <ele>1120</ele>
        <time>2019-04-14T09:14:10.013Z</time>
      </trkpt>
      <trkpt lat="42.97072" lon="-0.81698">
        <ele>1123</ele>
        <time>2019-04-14T09:14:26.013Z</time>
      </trkpt>
      <trkpt lat="42.97077" lon="-0.81687">
        <ele>1123</ele>
        <time>2019-04-14T09:14:28.013Z</time>
      </trkpt>
      <trkpt lat="42.97081" lon="-0.81675">
        <ele>1124</ele>
        <time>2019-04-14T09:14:33.013Z</time>
      </trkpt>
      <trkpt lat="42.97084" lon="-0.81663">
        <ele>1124</ele>
        <time>2019-04-14T09:14:35.013Z</time>
      </trkpt>
      <trkpt lat="42.97093" lon="-0.81657">
        <ele>1126</ele>
        <time>2019-04-14T09:14:43.013Z</time>
      </trkpt>
      <trkpt lat="42.97085" lon="-0.8166">
        <ele>1128</ele>
        <time>2019-04-14T09:14:55.013Z</time>
      </trkpt>
      <trkpt lat="42.97073" lon="-0.8166">
        <ele>1131</ele>
        <time>2019-04-14T09:15:10.013Z</time>
      </trkpt>
      <trkpt lat="42.97064" lon="-0.81654">
        <ele>1132</ele>
        <time>2019-04-14T09:15:28.013Z</time>
      </trkpt>
      <trkpt lat="42.97072" lon="-0.8166">
        <ele>1134</ele>
        <time>2019-04-14T09:15:34.013Z</time>
      </trkpt>
      <trkpt lat="42.97063" lon="-0.81665">
        <ele>1136</ele>
        <time>2019-04-14T09:15:48.013Z</time>
      </trkpt>
      <trkpt lat="42.97053" lon="-0.81655">
        <ele>1138</ele>
        <time>2019-04-14T09:15:56.013Z</time>
      </trkpt>
      <trkpt lat="42.97041" lon="-0.81647">
        <ele>1138</ele>
        <time>2019-04-14T09:15:58.013Z</time>
      </trkpt>
      <trkpt lat="42.97032" lon="-0.81654">
        <ele>1139</ele>
        <time>2019-04-14T09:16:08.013Z</time>
      </trkpt>
      <trkpt lat="42.97027" lon="-0.81643">
        <ele>1142</ele>
        <time>2019-04-14T09:16:35.013Z</time>
      </trkpt>
      <trkpt lat="42.97034" lon="-0.8165">
        <ele>1142</ele>
        <time>2019-04-14T09:16:46.013Z</time>
      </trkpt>
      <trkpt lat="42.97028" lon="-0.8164">
        <ele>1143</ele>
        <time>2019-04-14T09:16:54.013Z</time>
      </trkpt>
      <trkpt lat="42.97017" lon="-0.81637">
        <ele>1143</ele>
        <time>2019-04-14T09:16:57.013Z</time>
      </trkpt>
      <trkpt lat="42.97008" lon="-0.8164">
        <ele>1144</ele>
        <time>2019-04-14T09:17:02.013Z</time>
      </trkpt>
      <trkpt lat="42.96998" lon="-0.8164">
        <ele>1145</ele>
        <time>2019-04-14T09:17:12.013Z</time>
      </trkpt>
      <trkpt lat="42.9699" lon="-0.81635">
        <ele>1147</ele>
        <time>2019-04-14T09:17:22.013Z</time>
      </trkpt>
      <trkpt lat="42.96981" lon="-0.81641">
        <ele>1147</ele>
        <time>2019-04-14T09:17:28.013Z</time>
      </trkpt>
      <trkpt lat="42.96972" lon="-0.81641">
        <ele>1150.8091898175</ele>
        <time>2019-04-14T09:17:36.013Z</time>
      </trkpt>
      <trkpt lat="42.96963" lon="-0.81646">
        <ele>1152.5130046335</ele>
        <time>2019-04-14T09:18:01.013Z</time>
      </trkpt>
      <trkpt lat="42.96972" lon="-0.81636">
        <ele>1154</ele>
        <time>2019-04-14T09:18:09.013Z</time>
      </trkpt>
      <trkpt lat="42.96978" lon="-0.81627">
        <ele>1154</ele>
        <time>2019-04-14T09:18:12.013Z</time>
      </trkpt>
      <trkpt lat="42.96967" lon="-0.81626">
        <ele>1155</ele>
        <time>2019-04-14T09:18:48.013Z</time>
      </trkpt>
      <trkpt lat="42.96957" lon="-0.8162">
        <ele>1154</ele>
        <time>2019-04-14T09:18:54.013Z</time>
      </trkpt>
      <trkpt lat="42.96949" lon="-0.81608">
        <ele>1154</ele>
        <time>2019-04-14T09:19:18.013Z</time>
      </trkpt>
      <trkpt lat="42.96942" lon="-0.81598">
        <ele>1153</ele>
        <time>2019-04-14T09:19:23.013Z</time>
      </trkpt>
      <trkpt lat="42.96941" lon="-0.81584">
        <ele>1154</ele>
        <time>2019-04-14T09:19:30.013Z</time>
      </trkpt>
      <trkpt lat="42.9693" lon="-0.81573">
        <ele>1153.8130048</ele>
        <time>2019-04-14T09:19:34.013Z</time>
      </trkpt>
      <trkpt lat="42.96924" lon="-0.81562">
        <ele>1154</ele>
        <time>2019-04-14T09:19:41.013Z</time>
      </trkpt>
      <trkpt lat="42.96933" lon="-0.81558">
        <ele>1154</ele>
        <time>2019-04-14T09:19:50.013Z</time>
      </trkpt>
      <trkpt lat="42.96931" lon="-0.81572">
        <ele>1154</ele>
        <time>2019-04-14T09:19:57.013Z</time>
      </trkpt>
      <trkpt lat="42.96932" lon="-0.81589">
        <ele>1154</ele>
        <time>2019-04-14T09:20:04.013Z</time>
      </trkpt>
      <trkpt lat="42.9693" lon="-0.81603">
        <ele>1154</ele>
        <time>2019-04-14T09:20:08.013Z</time>
      </trkpt>
      <trkpt lat="42.96919" lon="-0.8161">
        <ele>1154</ele>
        <time>2019-04-14T09:20:12.013Z</time>
      </trkpt>
      <trkpt lat="42.9693" lon="-0.81608">
        <ele>1153</ele>
        <time>2019-04-14T09:20:23.013Z</time>
      </trkpt>
      <trkpt lat="42.96941" lon="-0.81608">
        <ele>1153</ele>
        <time>2019-04-14T09:20:27.013Z</time>
      </trkpt>
      <trkpt lat="42.96947" lon="-0.81619">
        <ele>1153</ele>
        <time>2019-04-14T09:20:36.013Z</time>
      </trkpt>
      <trkpt lat="42.96954" lon="-0.81628">
        <ele>1153</ele>
        <time>2019-04-14T09:20:46.013Z</time>
      </trkpt>
      <trkpt lat="42.96951" lon="-0.81641">
        <ele>1153.6244166944</ele>
        <time>2019-04-14T09:20:52.013Z</time>
      </trkpt>
      <trkpt lat="42.96952" lon="-0.81655">
        <ele>1153.8130048</ele>
        <time>2019-04-14T09:21:05.013Z</time>
      </trkpt>
      <trkpt lat="42.96948" lon="-0.81667">
        <ele>1154</ele>
        <time>2019-04-14T09:21:09.013Z</time>
      </trkpt>
      <trkpt lat="42.96939" lon="-0.8167">
        <ele>1154</ele>
        <time>2019-04-14T09:21:23.013Z</time>
      </trkpt>
      <trkpt lat="42.96942" lon="-0.81657">
        <ele>1154</ele>
        <time>2019-04-14T09:21:28.013Z</time>
      </trkpt>
      <trkpt lat="42.9695" lon="-0.81661">
        <ele>1154</ele>
        <time>2019-04-14T09:21:39.013Z</time>
      </trkpt>
      <trkpt lat="42.96942" lon="-0.81682">
        <ele>1154</ele>
        <time>2019-04-14T09:21:42.013Z</time>
      </trkpt>
      <trkpt lat="42.96933" lon="-0.81701">
        <ele>1153</ele>
        <time>2019-04-14T09:21:45.013Z</time>
      </trkpt>
      <trkpt lat="42.96923" lon="-0.81701">
        <ele>1152</ele>
        <time>2019-04-14T09:21:51.013Z</time>
      </trkpt>
      <trkpt lat="42.96915" lon="-0.81708">
        <ele>1151</ele>
        <time>2019-04-14T09:22:12.013Z</time>
      </trkpt>
      <trkpt lat="42.96907" lon="-0.817">
        <ele>1152</ele>
        <time>2019-04-14T09:22:24.013Z</time>
      </trkpt>
      <trkpt lat="42.96901" lon="-0.81689">
        <ele>1151</ele>
        <time>2019-04-14T09:22:29.013Z</time>
      </trkpt>
      <trkpt lat="42.96892" lon="-0.81685">
        <ele>1153</ele>
        <time>2019-04-14T09:22:41.013Z</time>
      </trkpt>
      <trkpt lat="42.96898" lon="-0.81672">
        <ele>1154</ele>
        <time>2019-04-14T09:22:47.013Z</time>
      </trkpt>
      <trkpt lat="42.96904" lon="-0.81662">
        <ele>1154</ele>
        <time>2019-04-14T09:22:53.013Z</time>
      </trkpt>
      <trkpt lat="42.96909" lon="-0.8165">
        <ele>1156</ele>
        <time>2019-04-14T09:23:00.013Z</time>
      </trkpt>
      <trkpt lat="42.9691" lon="-0.81636">
        <ele>1156</ele>
        <time>2019-04-14T09:23:05.013Z</time>
      </trkpt>
      <trkpt lat="42.96915" lon="-0.81626">
        <ele>1159.8130048</ele>
        <time>2019-04-14T09:23:18.013Z</time>
      </trkpt>
      <trkpt lat="42.96906" lon="-0.81624">
        <ele>1164</ele>
        <time>2019-04-14T09:23:42.013Z</time>
      </trkpt>
      <trkpt lat="42.96897" lon="-0.81628">
        <ele>1168</ele>
        <time>2019-04-14T09:23:52.013Z</time>
      </trkpt>
      <trkpt lat="42.96891" lon="-0.81638">
        <ele>1168.7817353846</ele>
        <time>2019-04-14T09:24:00.013Z</time>
      </trkpt>
      <trkpt lat="42.96882" lon="-0.81634">
        <ele>1174.8031636104</ele>
        <time>2019-04-14T09:24:29.013Z</time>
      </trkpt>
      <trkpt lat="42.96873" lon="-0.81629">
        <ele>1175</ele>
        <time>2019-04-14T09:24:35.013Z</time>
      </trkpt>
      <trkpt lat="42.96869" lon="-0.81618">
        <ele>1176</ele>
        <time>2019-04-14T09:24:44.013Z</time>
      </trkpt>
      <trkpt lat="42.96862" lon="-0.81609">
        <ele>1177</ele>
        <time>2019-04-14T09:24:55.013Z</time>
      </trkpt>
      <trkpt lat="42.96854" lon="-0.81602">
        <ele>1178</ele>
        <time>2019-04-14T09:25:04.013Z</time>
      </trkpt>
      <trkpt lat="42.96845" lon="-0.81603">
        <ele>1178</ele>
        <time>2019-04-14T09:25:12.013Z</time>
      </trkpt>
      <trkpt lat="42.96837" lon="-0.8161">
        <ele>1179</ele>
        <time>2019-04-14T09:25:18.013Z</time>
      </trkpt>
      <trkpt lat="42.96828" lon="-0.81609">
        <ele>1180.8130048</ele>
        <time>2019-04-14T09:25:27.013Z</time>
      </trkpt>
      <trkpt lat="42.96818" lon="-0.8161">
        <ele>1182</ele>
        <time>2019-04-14T09:25:37.013Z</time>
      </trkpt>
      <trkpt lat="42.96808" lon="-0.81614">
        <ele>1184</ele>
        <time>2019-04-14T09:26:13.013Z</time>
      </trkpt>
      <trkpt lat="42.96802" lon="-0.81604">
        <ele>1185</ele>
        <time>2019-04-14T09:26:34.013Z</time>
      </trkpt>
      <trkpt lat="42.96809" lon="-0.81594">
        <ele>1186</ele>
        <time>2019-04-14T09:26:38.013Z</time>
      </trkpt>
      <trkpt lat="42.968" lon="-0.8159">
        <ele>1189.6253852289</ele>
        <time>2019-04-14T09:26:53.013Z</time>
      </trkpt>
      <trkpt lat="42.96797" lon="-0.81578">
        <ele>1192</ele>
        <time>2019-04-14T09:27:05.013Z</time>
      </trkpt>
      <trkpt lat="42.96795" lon="-0.81566">
        <ele>1195</ele>
        <time>2019-04-14T09:27:22.013Z</time>
      </trkpt>
      <trkpt lat="42.96785" lon="-0.8157">
        <ele>1196</ele>
        <time>2019-04-14T09:27:29.013Z</time>
      </trkpt>
      <trkpt lat="42.96777" lon="-0.81561">
        <ele>1198</ele>
        <time>2019-04-14T09:27:45.013Z</time>
      </trkpt>
      <trkpt lat="42.96768" lon="-0.81557">
        <ele>1201</ele>
        <time>2019-04-14T09:28:01.013Z</time>
      </trkpt>
      <trkpt lat="42.96758" lon="-0.81554">
        <ele>1202</ele>
        <time>2019-04-14T09:28:10.013Z</time>
      </trkpt>
      <trkpt lat="42.96751" lon="-0.81546">
        <ele>1205</ele>
        <time>2019-04-14T09:28:27.013Z</time>
      </trkpt>
      <trkpt lat="42.96744" lon="-0.81536">
        <ele>1207.8130048</ele>
        <time>2019-04-14T09:28:42.013Z</time>
      </trkpt>
      <trkpt lat="42.96735" lon="-0.81537">
        <ele>1209.8130048</ele>
        <time>2019-04-14T09:28:53.013Z</time>
      </trkpt>
      <trkpt lat="42.96731" lon="-0.81525">
        <ele>1211</ele>
        <time>2019-04-14T09:29:05.013Z</time>
      </trkpt>
      <trkpt lat="42.96721" lon="-0.81521">
        <ele>1216</ele>
        <time>2019-04-14T09:29:36.013Z</time>
      </trkpt>
      <trkpt lat="42.96712" lon="-0.81516">
        <ele>1216</ele>
        <time>2019-04-14T09:29:44.013Z</time>
      </trkpt>
      <trkpt lat="42.96701" lon="-0.81517">
        <ele>1216</ele>
        <time>2019-04-14T09:29:49.013Z</time>
      </trkpt>
      <trkpt lat="42.96693" lon="-0.81513">
        <ele>1218</ele>
        <time>2019-04-14T09:30:02.013Z</time>
      </trkpt>
      <trkpt lat="42.96683" lon="-0.8152">
        <ele>1220.8052133333</ele>
        <time>2019-04-14T09:30:11.013Z</time>
      </trkpt>
      <trkpt lat="42.96675" lon="-0.8153">
        <ele>1221</ele>
        <time>2019-04-14T09:30:14.013Z</time>
      </trkpt>
      <trkpt lat="42.96668" lon="-0.81538">
        <ele>1222</ele>
        <time>2019-04-14T09:30:16.013Z</time>
      </trkpt>
      <trkpt lat="42.9666" lon="-0.81546">
        <ele>1222</ele>
        <time>2019-04-14T09:30:20.013Z</time>
      </trkpt>
      <trkpt lat="42.96651" lon="-0.8155">
        <ele>1223</ele>
        <time>2019-04-14T09:30:29.013Z</time>
      </trkpt>
      <trkpt lat="42.96622" lon="-0.81583">
        <ele>1224</ele>
        <time>2019-04-14T09:30:34.013Z</time>
      </trkpt>
      <trkpt lat="42.96618" lon="-0.81599">
        <ele>1224.8130048</ele>
        <time>2019-04-14T09:30:36.013Z</time>
      </trkpt>
      <trkpt lat="42.96618" lon="-0.81611">
        <ele>1225</ele>
        <time>2019-04-14T09:30:39.013Z</time>
      </trkpt>
      <trkpt lat="42.96609" lon="-0.81605">
        <ele>1226</ele>
        <time>2019-04-14T09:30:55.013Z</time>
      </trkpt>
      <trkpt lat="42.96599" lon="-0.81614">
        <ele>1227</ele>
        <time>2019-04-14T09:31:02.013Z</time>
      </trkpt>
      <trkpt lat="42.96592" lon="-0.81629">
        <ele>1227.8130048</ele>
        <time>2019-04-14T09:31:04.013Z</time>
      </trkpt>
      <trkpt lat="42.96588" lon="-0.81642">
        <ele>1228</ele>
        <time>2019-04-14T09:31:08.013Z</time>
      </trkpt>
      <trkpt lat="42.96582" lon="-0.81652">
        <ele>1228</ele>
        <time>2019-04-14T09:31:09.013Z</time>
      </trkpt>
      <trkpt lat="42.96587" lon="-0.81638">
        <ele>1230</ele>
        <time>2019-04-14T09:31:23.013Z</time>
      </trkpt>
      <trkpt lat="42.9658" lon="-0.81631">
        <ele>1233</ele>
        <time>2019-04-14T09:31:51.013Z</time>
      </trkpt>
      <trkpt lat="42.96587" lon="-0.81642">
        <ele>1234.7945114918</ele>
        <time>2019-04-14T09:32:00.013Z</time>
      </trkpt>
      <trkpt lat="42.96587" lon="-0.81629">
        <ele>1237</ele>
        <time>2019-04-14T09:32:14.012Z</time>
      </trkpt>
      <trkpt lat="42.96582" lon="-0.81618">
        <ele>1237.8130048</ele>
        <time>2019-04-14T09:32:23.013Z</time>
      </trkpt>
      <trkpt lat="42.96581" lon="-0.81606">
        <ele>1238</ele>
        <time>2019-04-14T09:32:31.013Z</time>
      </trkpt>
      <trkpt lat="42.96592" lon="-0.81602">
        <ele>1238</ele>
        <time>2019-04-14T09:32:35.013Z</time>
      </trkpt>
      <trkpt lat="42.96581" lon="-0.81593">
        <ele>1237</ele>
        <time>2019-04-14T09:32:42.013Z</time>
      </trkpt>
      <trkpt lat="42.96571" lon="-0.81595">
        <ele>1237</ele>
        <time>2019-04-14T09:32:48.013Z</time>
      </trkpt>
      <trkpt lat="42.96558" lon="-0.81605">
        <ele>1238</ele>
        <time>2019-04-14T09:32:56.013Z</time>
      </trkpt>
      <trkpt lat="42.96561" lon="-0.81617">
        <ele>1238</ele>
        <time>2019-04-14T09:33:04.013Z</time>
      </trkpt>
      <trkpt lat="42.9656" lon="-0.81605">
        <ele>1241</ele>
        <time>2019-04-14T09:33:15.013Z</time>
      </trkpt>
      <trkpt lat="42.9655" lon="-0.81604">
        <ele>1243</ele>
        <time>2019-04-14T09:33:28.013Z</time>
      </trkpt>
      <trkpt lat="42.96541" lon="-0.81603">
        <ele>1244.7527822222</ele>
        <time>2019-04-14T09:33:37.013Z</time>
      </trkpt>
      <trkpt lat="42.96532" lon="-0.81607">
        <ele>1248.7328615576</ele>
        <time>2019-04-14T09:34:08.013Z</time>
      </trkpt>
      <trkpt lat="42.96522" lon="-0.81609">
        <ele>1249</ele>
        <time>2019-04-14T09:34:13.013Z</time>
      </trkpt>
      <trkpt lat="42.96513" lon="-0.81608">
        <ele>1251.8130048</ele>
        <time>2019-04-14T09:34:31.013Z</time>
      </trkpt>
      <trkpt lat="42.96506" lon="-0.81618">
        <ele>1253</ele>
        <time>2019-04-14T09:34:45.013Z</time>
      </trkpt>
      <trkpt lat="42.96513" lon="-0.8161">
        <ele>1255</ele>
        <time>2019-04-14T09:35:03.013Z</time>
      </trkpt>
      <trkpt lat="42.96512" lon="-0.81623">
        <ele>1257</ele>
        <time>2019-04-14T09:35:22.013Z</time>
      </trkpt>
      <trkpt lat="42.96507" lon="-0.81633">
        <ele>1259</ele>
        <time>2019-04-14T09:35:34.013Z</time>
      </trkpt>
      <trkpt lat="42.96493" lon="-0.81635">
        <ele>1262</ele>
        <time>2019-04-14T09:35:56.013Z</time>
      </trkpt>
      <trkpt lat="42.96483" lon="-0.81631">
        <ele>1262</ele>
        <time>2019-04-14T09:36:13.001Z</time>
      </trkpt>
      <trkpt lat="42.96492" lon="-0.81634">
        <ele>1262</ele>
        <time>2019-04-14T09:36:33.013Z</time>
      </trkpt>
      <trkpt lat="42.96484" lon="-0.8164">
        <ele>1263</ele>
        <time>2019-04-14T09:36:42.013Z</time>
      </trkpt>
      <trkpt lat="42.96495" lon="-0.81638">
        <ele>1262.1869952</ele>
        <time>2019-04-14T09:36:47.013Z</time>
      </trkpt>
      <trkpt lat="42.96485" lon="-0.81624">
        <ele>1262</ele>
        <time>2019-04-14T09:36:50.013Z</time>
      </trkpt>
      <trkpt lat="42.96473" lon="-0.81624">
        <ele>1263</ele>
        <time>2019-04-14T09:36:52.013Z</time>
      </trkpt>
      <trkpt lat="42.96463" lon="-0.81622">
        <ele>1263</ele>
        <time>2019-04-14T09:36:54.013Z</time>
      </trkpt>
      <trkpt lat="42.96478" lon="-0.81633">
        <ele>1263</ele>
        <time>2019-04-14T09:37:05.013Z</time>
      </trkpt>
      <trkpt lat="42.96487" lon="-0.81634">
        <ele>1263</ele>
        <time>2019-04-14T09:37:08.013Z</time>
      </trkpt>
      <trkpt lat="42.96477" lon="-0.81643">
        <ele>1262</ele>
        <time>2019-04-14T09:37:16.013Z</time>
      </trkpt>
      <trkpt lat="42.96473" lon="-0.81654">
        <ele>1263</ele>
        <time>2019-04-14T09:37:37.013Z</time>
      </trkpt>
      <trkpt lat="42.96463" lon="-0.81651">
        <ele>1263</ele>
        <time>2019-04-14T09:37:43.013Z</time>
      </trkpt>
      <trkpt lat="42.96453" lon="-0.81656">
        <ele>1264</ele>
        <time>2019-04-14T09:37:50.013Z</time>
      </trkpt>
      <trkpt lat="42.96454" lon="-0.81671">
        <ele>1265</ele>
        <time>2019-04-14T09:37:54.013Z</time>
      </trkpt>
      <trkpt lat="42.96451" lon="-0.81683">
        <ele>1267</ele>
        <time>2019-04-14T09:38:06.013Z</time>
      </trkpt>
      <trkpt lat="42.96442" lon="-0.8168">
        <ele>1268</ele>
        <time>2019-04-14T09:38:17.013Z</time>
      </trkpt>
      <trkpt lat="42.96433" lon="-0.81686">
        <ele>1268</ele>
        <time>2019-04-14T09:38:23.013Z</time>
      </trkpt>
      <trkpt lat="42.96424" lon="-0.81688">
        <ele>1270</ele>
        <time>2019-04-14T09:38:35.013Z</time>
      </trkpt>
      <trkpt lat="42.96416" lon="-0.81695">
        <ele>1273</ele>
        <time>2019-04-14T09:38:54.013Z</time>
      </trkpt>
      <trkpt lat="42.96407" lon="-0.81692">
        <ele>1275</ele>
        <time>2019-04-14T09:39:03.013Z</time>
      </trkpt>
      <trkpt lat="42.96397" lon="-0.81692">
        <ele>1278.1869952</ele>
        <time>2019-04-14T09:39:26.013Z</time>
      </trkpt>
      <trkpt lat="42.96388" lon="-0.81695">
        <ele>1282</ele>
        <time>2019-04-14T09:39:51.013Z</time>
      </trkpt>
      <trkpt lat="42.96395" lon="-0.81703">
        <ele>1287</ele>
        <time>2019-04-14T09:40:23.013Z</time>
      </trkpt>
      <trkpt lat="42.96387" lon="-0.8171">
        <ele>1289</ele>
        <time>2019-04-14T09:40:35.013Z</time>
      </trkpt>
      <trkpt lat="42.96379" lon="-0.81702">
        <ele>1289</ele>
        <time>2019-04-14T09:40:42.000Z</time>
      </trkpt>
      <trkpt lat="42.96369" lon="-0.81701">
        <ele>1291</ele>
        <time>2019-04-14T09:40:53.013Z</time>
      </trkpt>
      <trkpt lat="42.96369" lon="-0.81714">
        <ele>1295</ele>
        <time>2019-04-14T09:41:12.013Z</time>
      </trkpt>
      <trkpt lat="42.96377" lon="-0.8172">
        <ele>1296</ele>
        <time>2019-04-14T09:41:28.016Z</time>
      </trkpt>
      <trkpt lat="42.96386" lon="-0.81724">
        <ele>1298</ele>
        <time>2019-04-14T09:41:53.013Z</time>
      </trkpt>
      <trkpt lat="42.96385" lon="-0.81737">
        <ele>1302.8130048</ele>
        <time>2019-04-14T09:42:47.013Z</time>
      </trkpt>
      <trkpt lat="42.96376" lon="-0.81739">
        <ele>1305</ele>
        <time>2019-04-14T09:42:59.013Z</time>
      </trkpt>
      <trkpt lat="42.96365" lon="-0.81734">
        <ele>1306</ele>
        <time>2019-04-14T09:43:05.013Z</time>
      </trkpt>
      <trkpt lat="42.96357" lon="-0.81724">
        <ele>1307</ele>
        <time>2019-04-14T09:43:17.013Z</time>
      </trkpt>
      <trkpt lat="42.9636" lon="-0.8171">
        <ele>1307</ele>
        <time>2019-04-14T09:43:24.013Z</time>
      </trkpt>
      <trkpt lat="42.96369" lon="-0.81702">
        <ele>1307</ele>
        <time>2019-04-14T09:43:28.013Z</time>
      </trkpt>
      <trkpt lat="42.96356" lon="-0.81697">
        <ele>1307</ele>
        <time>2019-04-14T09:43:51.013Z</time>
      </trkpt>
      <trkpt lat="42.96365" lon="-0.81708">
        <ele>1307</ele>
        <time>2019-04-14T09:44:00.013Z</time>
      </trkpt>
      <trkpt lat="42.96372" lon="-0.81719">
        <ele>1307</ele>
        <time>2019-04-14T09:44:20.013Z</time>
      </trkpt>
      <trkpt lat="42.9638" lon="-0.81727">
        <ele>1307.8130048</ele>
        <time>2019-04-14T09:44:24.013Z</time>
      </trkpt>
      <trkpt lat="42.9639" lon="-0.81726">
        <ele>1308</ele>
        <time>2019-04-14T09:44:31.013Z</time>
      </trkpt>
      <trkpt lat="42.96396" lon="-0.81715">
        <ele>1308</ele>
        <time>2019-04-14T09:44:40.013Z</time>
      </trkpt>
      <trkpt lat="42.96392" lon="-0.81701">
        <ele>1308</ele>
        <time>2019-04-14T09:44:44.013Z</time>
      </trkpt>
      <trkpt lat="42.9639" lon="-0.81689">
        <ele>1307</ele>
        <time>2019-04-14T09:44:55.013Z</time>
      </trkpt>
      <trkpt lat="42.9638" lon="-0.81687">
        <ele>1308</ele>
        <time>2019-04-14T09:45:02.013Z</time>
      </trkpt>
      <trkpt lat="42.96379" lon="-0.81675">
        <ele>1308</ele>
        <time>2019-04-14T09:45:10.013Z</time>
      </trkpt>
      <trkpt lat="42.9636" lon="-0.81677">
        <ele>1308</ele>
        <time>2019-04-14T09:45:11.013Z</time>
      </trkpt>
      <trkpt lat="42.96351" lon="-0.8167">
        <ele>1307</ele>
        <time>2019-04-14T09:45:20.013Z</time>
      </trkpt>
      <trkpt lat="42.96345" lon="-0.81659">
        <ele>1308</ele>
        <time>2019-04-14T09:45:26.013Z</time>
      </trkpt>
      <trkpt lat="42.96354" lon="-0.81651">
        <ele>1308</ele>
        <time>2019-04-14T09:45:34.013Z</time>
      </trkpt>
      <trkpt lat="42.96341" lon="-0.81652">
        <ele>1308</ele>
        <time>2019-04-14T09:45:48.013Z</time>
      </trkpt>
      <trkpt lat="42.96334" lon="-0.81643">
        <ele>1308</ele>
        <time>2019-04-14T09:45:52.013Z</time>
      </trkpt>
      <trkpt lat="42.96344" lon="-0.81643">
        <ele>1307</ele>
        <time>2019-04-14T09:45:57.013Z</time>
      </trkpt>
      <trkpt lat="42.96355" lon="-0.81642">
        <ele>1307</ele>
        <time>2019-04-14T09:46:05.013Z</time>
      </trkpt>
      <trkpt lat="42.9636" lon="-0.81631">
        <ele>1307</ele>
        <time>2019-04-14T09:46:13.013Z</time>
      </trkpt>
      <trkpt lat="42.96332" lon="-0.81645">
        <ele>1307</ele>
        <time>2019-04-14T09:46:21.013Z</time>
      </trkpt>
      <trkpt lat="42.96322" lon="-0.81652">
        <ele>1307</ele>
        <time>2019-04-14T09:46:23.013Z</time>
      </trkpt>
      <trkpt lat="42.96313" lon="-0.81657">
        <ele>1307</ele>
        <time>2019-04-14T09:46:25.013Z</time>
      </trkpt>
      <trkpt lat="42.96304" lon="-0.81662">
        <ele>1306</ele>
        <time>2019-04-14T09:46:37.013Z</time>
      </trkpt>
      <trkpt lat="42.96301" lon="-0.8165">
        <ele>1306</ele>
        <time>2019-04-14T09:46:39.013Z</time>
      </trkpt>
      <trkpt lat="42.96304" lon="-0.81637">
        <ele>1306</ele>
        <time>2019-04-14T09:46:41.013Z</time>
      </trkpt>
      <trkpt lat="42.96306" lon="-0.81651">
        <ele>1306</ele>
        <time>2019-04-14T09:46:44.013Z</time>
      </trkpt>
      <trkpt lat="42.96297" lon="-0.81656">
        <ele>1306</ele>
        <time>2019-04-14T09:46:50.013Z</time>
      </trkpt>
      <trkpt lat="42.96289" lon="-0.81649">
        <ele>1305</ele>
        <time>2019-04-14T09:47:01.013Z</time>
      </trkpt>
      <trkpt lat="42.96287" lon="-0.81636">
        <ele>1305</ele>
        <time>2019-04-14T09:47:05.013Z</time>
      </trkpt>
      <trkpt lat="42.96277" lon="-0.81633">
        <ele>1306</ele>
        <time>2019-04-14T09:47:14.013Z</time>
      </trkpt>
      <trkpt lat="42.96282" lon="-0.81619">
        <ele>1306</ele>
        <time>2019-04-14T09:47:29.013Z</time>
      </trkpt>
      <trkpt lat="42.96276" lon="-0.81644">
        <ele>1306</ele>
        <time>2019-04-14T09:47:35.013Z</time>
      </trkpt>
      <trkpt lat="42.96273" lon="-0.81657">
        <ele>1306</ele>
        <time>2019-04-14T09:47:36.013Z</time>
      </trkpt>
      <trkpt lat="42.96281" lon="-0.81675">
        <ele>1305.2</ele>
        <time>2019-04-14T09:47:39.000Z</time>
      </trkpt>
      <trkpt lat="42.96294" lon="-0.81674">
        <ele>1306</ele>
        <time>2019-04-14T09:47:43.013Z</time>
      </trkpt>
      <trkpt lat="42.96295" lon="-0.81661">
        <ele>1306</ele>
        <time>2019-04-14T09:47:44.013Z</time>
      </trkpt>
      <trkpt lat="42.96285" lon="-0.81651">
        <ele>1306</ele>
        <time>2019-04-14T09:47:46.013Z</time>
      </trkpt>
      <trkpt lat="42.96285" lon="-0.81663">
        <ele>1305</ele>
        <time>2019-04-14T09:47:48.013Z</time>
      </trkpt>
      <trkpt lat="42.96291" lon="-0.81679">
        <ele>1305</ele>
        <time>2019-04-14T09:47:51.013Z</time>
      </trkpt>
      <trkpt lat="42.96291" lon="-0.81696">
        <ele>1305</ele>
        <time>2019-04-14T09:47:53.013Z</time>
      </trkpt>
      <trkpt lat="42.96294" lon="-0.8171">
        <ele>1305</ele>
        <time>2019-04-14T09:47:56.013Z</time>
      </trkpt>
      <trkpt lat="42.963" lon="-0.817">
        <ele>1305</ele>
        <time>2019-04-14T09:48:01.013Z</time>
      </trkpt>
      <trkpt lat="42.96314" lon="-0.8171">
        <ele>1304</ele>
        <time>2019-04-14T09:48:04.013Z</time>
      </trkpt>
      <trkpt lat="42.96323" lon="-0.81721">
        <ele>1304.6253913865</ele>
        <time>2019-04-14T09:48:06.013Z</time>
      </trkpt>
      <trkpt lat="42.96324" lon="-0.81709">
        <ele>1306</ele>
        <time>2019-04-14T09:48:18.013Z</time>
      </trkpt>
      <trkpt lat="42.96334" lon="-0.8171">
        <ele>1305</ele>
        <time>2019-04-14T09:48:22.015Z</time>
      </trkpt>
      <trkpt lat="42.96324" lon="-0.81707">
        <ele>1304</ele>
        <time>2019-04-14T09:48:30.013Z</time>
      </trkpt>
      <trkpt lat="42.9633" lon="-0.81719">
        <ele>1304</ele>
        <time>2019-04-14T09:48:42.013Z</time>
      </trkpt>
      <trkpt lat="42.96341" lon="-0.81724">
        <ele>1304</ele>
        <time>2019-04-14T09:48:50.013Z</time>
      </trkpt>
      <trkpt lat="42.96327" lon="-0.81719">
        <ele>1304</ele>
        <time>2019-04-14T09:48:59.013Z</time>
      </trkpt>
      <trkpt lat="42.96336" lon="-0.8173">
        <ele>1304</ele>
        <time>2019-04-14T09:49:15.013Z</time>
      </trkpt>
      <trkpt lat="42.96344" lon="-0.81736">
        <ele>1304</ele>
        <time>2019-04-14T09:49:16.013Z</time>
      </trkpt>
      <trkpt lat="42.96356" lon="-0.8175">
        <ele>1304</ele>
        <time>2019-04-14T09:49:18.013Z</time>
      </trkpt>
      <trkpt lat="42.96367" lon="-0.81753">
        <ele>1305</ele>
        <time>2019-04-14T09:49:26.013Z</time>
      </trkpt>
      <trkpt lat="42.96362" lon="-0.81764">
        <ele>1313.7742926455</ele>
        <time>2019-04-14T09:50:26.013Z</time>
      </trkpt>
      <trkpt lat="42.96353" lon="-0.81764">
        <ele>1314</ele>
        <time>2019-04-14T09:50:33.013Z</time>
      </trkpt>
      <trkpt lat="42.96337" lon="-0.81763">
        <ele>1314</ele>
        <time>2019-04-14T09:50:34.013Z</time>
      </trkpt>
      <trkpt lat="42.96344" lon="-0.81775">
        <ele>1316</ele>
        <time>2019-04-14T09:50:41.013Z</time>
      </trkpt>
      <trkpt lat="42.96339" lon="-0.81788">
        <ele>1317</ele>
        <time>2019-04-14T09:50:45.013Z</time>
      </trkpt>
      <trkpt lat="42.96342" lon="-0.81774">
        <ele>1317</ele>
        <time>2019-04-14T09:50:51.999Z</time>
      </trkpt>
      <trkpt lat="42.96351" lon="-0.81769">
        <ele>1318</ele>
        <time>2019-04-14T09:51:18.001Z</time>
      </trkpt>
      <trkpt lat="42.96362" lon="-0.81767">
        <ele>1317</ele>
        <time>2019-04-14T09:51:41.013Z</time>
      </trkpt>
      <trkpt lat="42.96352" lon="-0.81773">
        <ele>1317</ele>
        <time>2019-04-14T09:51:52.013Z</time>
      </trkpt>
      <trkpt lat="42.96348" lon="-0.81787">
        <ele>1317</ele>
        <time>2019-04-14T09:51:56.013Z</time>
      </trkpt>
      <trkpt lat="42.96346" lon="-0.81799">
        <ele>1319</ele>
        <time>2019-04-14T09:52:02.001Z</time>
      </trkpt>
      <trkpt lat="42.96341" lon="-0.8181">
        <ele>1321</ele>
        <time>2019-04-14T09:52:16.013Z</time>
      </trkpt>
      <trkpt lat="42.96332" lon="-0.81819">
        <ele>1324</ele>
        <time>2019-04-14T09:52:36.013Z</time>
      </trkpt>
      <trkpt lat="42.96324" lon="-0.81824">
        <ele>1324</ele>
        <time>2019-04-14T09:52:44.013Z</time>
      </trkpt>
      <trkpt lat="42.96322" lon="-0.81811">
        <ele>1325.8130048</ele>
        <time>2019-04-14T09:52:58.013Z</time>
      </trkpt>
      <trkpt lat="42.96323" lon="-0.81824">
        <ele>1326</ele>
        <time>2019-04-14T09:53:09.013Z</time>
      </trkpt>
      <trkpt lat="42.96319" lon="-0.81837">
        <ele>1326</ele>
        <time>2019-04-14T09:53:16.013Z</time>
      </trkpt>
      <trkpt lat="42.96311" lon="-0.81846">
        <ele>1326</ele>
        <time>2019-04-14T09:53:21.013Z</time>
      </trkpt>
      <trkpt lat="42.96303" lon="-0.81852">
        <ele>1327</ele>
        <time>2019-04-14T09:53:29.013Z</time>
      </trkpt>
      <trkpt lat="42.96293" lon="-0.81852">
        <ele>1329</ele>
        <time>2019-04-14T09:53:42.013Z</time>
      </trkpt>
      <trkpt lat="42.96284" lon="-0.81848">
        <ele>1330</ele>
        <time>2019-04-14T09:53:51.013Z</time>
      </trkpt>
      <trkpt lat="42.9628" lon="-0.81859">
        <ele>1332.8130048</ele>
        <time>2019-04-14T09:54:00.013Z</time>
      </trkpt>
      <trkpt lat="42.96273" lon="-0.81869">
        <ele>1335</ele>
        <time>2019-04-14T09:54:12.013Z</time>
      </trkpt>
      <trkpt lat="42.96265" lon="-0.81857">
        <ele>1335.7366276659</ele>
        <time>2019-04-14T09:54:22.013Z</time>
      </trkpt>
      <trkpt lat="42.96275" lon="-0.81854">
        <ele>1335</ele>
        <time>2019-04-14T09:54:36.013Z</time>
      </trkpt>
      <trkpt lat="42.96277" lon="-0.81867">
        <ele>1335</ele>
        <time>2019-04-14T09:54:45.013Z</time>
      </trkpt>
      <trkpt lat="42.96268" lon="-0.81858">
        <ele>1335</ele>
        <time>2019-04-14T09:54:47.013Z</time>
      </trkpt>
      <trkpt lat="42.96255" lon="-0.81848">
        <ele>1335</ele>
        <time>2019-04-14T09:54:49.013Z</time>
      </trkpt>
      <trkpt lat="42.96264" lon="-0.8185">
        <ele>1335</ele>
        <time>2019-04-14T09:54:56.013Z</time>
      </trkpt>
      <trkpt lat="42.96271" lon="-0.8186">
        <ele>1335</ele>
        <time>2019-04-14T09:55:10.013Z</time>
      </trkpt>
      <trkpt lat="42.96279" lon="-0.81868">
        <ele>1335</ele>
        <time>2019-04-14T09:55:27.013Z</time>
      </trkpt>
      <trkpt lat="42.9627" lon="-0.81872">
        <ele>1335</ele>
        <time>2019-04-14T09:55:33.013Z</time>
      </trkpt>
      <trkpt lat="42.96263" lon="-0.81863">
        <ele>1335</ele>
        <time>2019-04-14T09:55:41.013Z</time>
      </trkpt>
      <trkpt lat="42.96256" lon="-0.81855">
        <ele>1336</ele>
        <time>2019-04-14T09:56:02.013Z</time>
      </trkpt>
      <trkpt lat="42.96266" lon="-0.81859">
        <ele>1336</ele>
        <time>2019-04-14T09:56:09.013Z</time>
      </trkpt>
      <trkpt lat="42.96272" lon="-0.8185">
        <ele>1336</ele>
        <time>2019-04-14T09:56:25.003Z</time>
      </trkpt>
      <trkpt lat="42.96276" lon="-0.81861">
        <ele>1336</ele>
        <time>2019-04-14T09:56:34.013Z</time>
      </trkpt>
      <trkpt lat="42.96269" lon="-0.8187">
        <ele>1339.8010675817</ele>
        <time>2019-04-14T09:56:44.013Z</time>
      </trkpt>
      <trkpt lat="42.96263" lon="-0.8188">
        <ele>1340</ele>
        <time>2019-04-14T09:56:49.013Z</time>
      </trkpt>
      <trkpt lat="42.96253" lon="-0.81886">
        <ele>1341</ele>
        <time>2019-04-14T09:57:02.013Z</time>
      </trkpt>
      <trkpt lat="42.96253" lon="-0.81873">
        <ele>1342</ele>
        <time>2019-04-14T09:57:14.001Z</time>
      </trkpt>
      <trkpt lat="42.96244" lon="-0.81865">
        <ele>1342</ele>
        <time>2019-04-14T09:57:41.013Z</time>
      </trkpt>
      <trkpt lat="42.96254" lon="-0.81868">
        <ele>1342</ele>
        <time>2019-04-14T09:57:56.003Z</time>
      </trkpt>
      <trkpt lat="42.96249" lon="-0.81856">
        <ele>1341</ele>
        <time>2019-04-14T09:58:11.013Z</time>
      </trkpt>
      <trkpt lat="42.96243" lon="-0.81842">
        <ele>1340</ele>
        <time>2019-04-14T09:58:27.113Z</time>
      </trkpt>
      <trkpt lat="42.96234" lon="-0.81846">
        <ele>1340</ele>
        <time>2019-04-14T09:58:42.003Z</time>
      </trkpt>
      <trkpt lat="42.96233" lon="-0.81858">
        <ele>1342</ele>
        <time>2019-04-14T09:58:48.999Z</time>
      </trkpt>
      <trkpt lat="42.96238" lon="-0.81869">
        <ele>1343</ele>
        <time>2019-04-14T09:59:00.013Z</time>
      </trkpt>
      <trkpt lat="42.96237" lon="-0.81882">
        <ele>1343</ele>
        <time>2019-04-14T09:59:03.013Z</time>
      </trkpt>
      <trkpt lat="42.96237" lon="-0.81867">
        <ele>1345</ele>
        <time>2019-04-14T09:59:07.001Z</time>
      </trkpt>
      <trkpt lat="42.96248" lon="-0.81861">
        <ele>1344</ele>
        <time>2019-04-14T09:59:12.013Z</time>
      </trkpt>
      <trkpt lat="42.96258" lon="-0.81855">
        <ele>1344</ele>
        <time>2019-04-14T09:59:18.001Z</time>
      </trkpt>
      <trkpt lat="42.96252" lon="-0.81866">
        <ele>1344</ele>
        <time>2019-04-14T09:59:24.001Z</time>
      </trkpt>
      <trkpt lat="42.96241" lon="-0.81869">
        <ele>1343</ele>
        <time>2019-04-14T09:59:34.013Z</time>
      </trkpt>
      <trkpt lat="42.96239" lon="-0.81857">
        <ele>1343</ele>
        <time>2019-04-14T09:59:49.013Z</time>
      </trkpt>
      <trkpt lat="42.9625" lon="-0.81857">
        <ele>1342</ele>
        <time>2019-04-14T09:59:55.013Z</time>
      </trkpt>
      <trkpt lat="42.96255" lon="-0.81867">
        <ele>1342</ele>
        <time>2019-04-14T10:00:02.011Z</time>
      </trkpt>
      <trkpt lat="42.96257" lon="-0.8188">
        <ele>1342.7366276659</ele>
        <time>2019-04-14T10:00:07.013Z</time>
      </trkpt>
      <trkpt lat="42.96252" lon="-0.8189">
        <ele>1343</ele>
        <time>2019-04-14T10:00:10.013Z</time>
      </trkpt>
      <trkpt lat="42.96243" lon="-0.81892">
        <ele>1343.8130048</ele>
        <time>2019-04-14T10:00:13.013Z</time>
      </trkpt>
      <trkpt lat="42.96233" lon="-0.81887">
        <ele>1345</ele>
        <time>2019-04-14T10:00:17.013Z</time>
      </trkpt>
      <trkpt lat="42.96222" lon="-0.81881">
        <ele>1346</ele>
        <time>2019-04-14T10:00:24.013Z</time>
      </trkpt>
      <trkpt lat="42.96214" lon="-0.81876">
        <ele>1348</ele>
        <time>2019-04-14T10:00:46.013Z</time>
      </trkpt>
      <trkpt lat="42.96208" lon="-0.81886">
        <ele>1348</ele>
        <time>2019-04-14T10:00:53.013Z</time>
      </trkpt>
      <trkpt lat="42.96204" lon="-0.81897">
        <ele>1350</ele>
        <time>2019-04-14T10:01:08.013Z</time>
      </trkpt>
      <trkpt lat="42.96195" lon="-0.819">
        <ele>1352</ele>
        <time>2019-04-14T10:01:23.013Z</time>
      </trkpt>
      <trkpt lat="42.96186" lon="-0.81907">
        <ele>1356</ele>
        <time>2019-04-14T10:01:38.013Z</time>
      </trkpt>
      <trkpt lat="42.96177" lon="-0.81904">
        <ele>1358</ele>
        <time>2019-04-14T10:01:52.013Z</time>
      </trkpt>
      <trkpt lat="42.96167" lon="-0.81903">
        <ele>1360</ele>
        <time>2019-04-14T10:01:58.013Z</time>
      </trkpt>
      <trkpt lat="42.96169" lon="-0.81915">
        <ele>1362.8130048</ele>
        <time>2019-04-14T10:02:14.013Z</time>
      </trkpt>
      <trkpt lat="42.9617" lon="-0.81928">
        <ele>1366.7898922783</ele>
        <time>2019-04-14T10:03:04.013Z</time>
      </trkpt>
      <trkpt lat="42.9616" lon="-0.81929">
        <ele>1368</ele>
        <time>2019-04-14T10:03:20.013Z</time>
      </trkpt>
      <trkpt lat="42.96154" lon="-0.81914">
        <ele>1368</ele>
        <time>2019-04-14T10:03:33.013Z</time>
      </trkpt>
      <trkpt lat="42.96153" lon="-0.81928">
        <ele>1368</ele>
        <time>2019-04-14T10:03:46.014Z</time>
      </trkpt>
      <trkpt lat="42.96147" lon="-0.81937">
        <ele>1370.8112248896</ele>
        <time>2019-04-14T10:04:05.015Z</time>
      </trkpt>
      <trkpt lat="42.96141" lon="-0.81948">
        <ele>1374</ele>
        <time>2019-04-14T10:04:23.013Z</time>
      </trkpt>
      <trkpt lat="42.96135" lon="-0.81958">
        <ele>1377</ele>
        <time>2019-04-14T10:04:37.030Z</time>
      </trkpt>
      <trkpt lat="42.96126" lon="-0.81964">
        <ele>1382</ele>
        <time>2019-04-14T10:05:04.013Z</time>
      </trkpt>
      <trkpt lat="42.96124" lon="-0.81976">
        <ele>1384</ele>
        <time>2019-04-14T10:05:21.013Z</time>
      </trkpt>
      <trkpt lat="42.96118" lon="-0.81985">
        <ele>1388</ele>
        <time>2019-04-14T10:05:51.003Z</time>
      </trkpt>
      <trkpt lat="42.96118" lon="-0.81999">
        <ele>1392</ele>
        <time>2019-04-14T10:06:26.013Z</time>
      </trkpt>
      <trkpt lat="42.96114" lon="-0.8201">
        <ele>1397</ele>
        <time>2019-04-14T10:07:35.013Z</time>
      </trkpt>
      <trkpt lat="42.96105" lon="-0.82011">
        <ele>1402.7394400476</ele>
        <time>2019-04-14T10:08:04.015Z</time>
      </trkpt>
      <trkpt lat="42.96096" lon="-0.82007">
        <ele>1402</ele>
        <time>2019-04-14T10:08:13.003Z</time>
      </trkpt>
      <trkpt lat="42.96089" lon="-0.82014">
        <ele>1404</ele>
        <time>2019-04-14T10:08:29.003Z</time>
      </trkpt>
      <trkpt lat="42.96085" lon="-0.82026">
        <ele>1406</ele>
        <time>2019-04-14T10:08:41.999Z</time>
      </trkpt>
      <trkpt lat="42.96088" lon="-0.82039">
        <ele>1406</ele>
        <time>2019-04-14T10:09:14.011Z</time>
      </trkpt>
      <trkpt lat="42.96086" lon="-0.82052">
        <ele>1407</ele>
        <time>2019-04-14T10:09:41.001Z</time>
      </trkpt>
      <trkpt lat="42.96077" lon="-0.82045">
        <ele>1408</ele>
        <time>2019-04-14T10:09:53.003Z</time>
      </trkpt>
      <trkpt lat="42.96071" lon="-0.82035">
        <ele>1410</ele>
        <time>2019-04-14T10:10:11.001Z</time>
      </trkpt>
      <trkpt lat="42.96064" lon="-0.82024">
        <ele>1411.2633723341</ele>
        <time>2019-04-14T10:10:36.013Z</time>
      </trkpt>
      <trkpt lat="42.96066" lon="-0.8201">
        <ele>1413</ele>
        <time>2019-04-14T10:11:05.143Z</time>
      </trkpt>
      <trkpt lat="42.96064" lon="-0.81998">
        <ele>1415</ele>
        <time>2019-04-14T10:11:22.000Z</time>
      </trkpt>
      <trkpt lat="42.96064" lon="-0.81985">
        <ele>1418</ele>
        <time>2019-04-14T10:11:39.011Z</time>
      </trkpt>
      <trkpt lat="42.96064" lon="-0.81972">
        <ele>1420</ele>
        <time>2019-04-14T10:11:59.012Z</time>
      </trkpt>
      <trkpt lat="42.96063" lon="-0.81959">
        <ele>1422</ele>
        <time>2019-04-14T10:12:16.011Z</time>
      </trkpt>
      <trkpt lat="42.96061" lon="-0.81947">
        <ele>1427</ele>
        <time>2019-04-14T10:12:44.013Z</time>
      </trkpt>
      <trkpt lat="42.96065" lon="-0.81936">
        <ele>1428</ele>
        <time>2019-04-14T10:13:29.002Z</time>
      </trkpt>
      <trkpt lat="42.96063" lon="-0.81923">
        <ele>1428</ele>
        <time>2019-04-14T10:15:00.003Z</time>
      </trkpt>
      <trkpt lat="42.96058" lon="-0.81912">
        <ele>1428</ele>
        <time>2019-04-14T10:15:37.002Z</time>
      </trkpt>
      <trkpt lat="42.96066" lon="-0.81904">
        <ele>1428</ele>
        <time>2019-04-14T10:15:49.003Z</time>
      </trkpt>
      <trkpt lat="42.96074" lon="-0.81897">
        <ele>1427</ele>
        <time>2019-04-14T10:16:00.002Z</time>
      </trkpt>
      <trkpt lat="42.96082" lon="-0.81892">
        <ele>1427</ele>
        <time>2019-04-14T10:16:11.012Z</time>
      </trkpt>
      <trkpt lat="42.96092" lon="-0.8189">
        <ele>1426.1980032</ele>
        <time>2019-04-14T10:16:40.002Z</time>
      </trkpt>
      <trkpt lat="42.96081" lon="-0.81892">
        <ele>1426.2666635062</ele>
        <time>2019-04-14T10:16:59.002Z</time>
      </trkpt>
      <trkpt lat="42.96072" lon="-0.8189">
        <ele>1426</ele>
        <time>2019-04-14T10:17:11.013Z</time>
      </trkpt>
      <trkpt lat="42.96062" lon="-0.81887">
        <ele>1427</ele>
        <time>2019-04-14T10:17:21.012Z</time>
      </trkpt>
      <trkpt lat="42.96052" lon="-0.81889">
        <ele>1428</ele>
        <time>2019-04-14T10:17:31.014Z</time>
      </trkpt>
      <trkpt lat="42.96044" lon="-0.81882">
        <ele>1430</ele>
        <time>2019-04-14T10:17:42.002Z</time>
      </trkpt>
      <trkpt lat="42.96043" lon="-0.8187">
        <ele>1430</ele>
        <time>2019-04-14T10:18:09.002Z</time>
      </trkpt>
      <trkpt lat="42.96043" lon="-0.81858">
        <ele>1431.1980032</ele>
        <time>2019-04-14T10:19:39.002Z</time>
      </trkpt>
      <trkpt lat="42.96034" lon="-0.81853">
        <ele>1433</ele>
        <time>2019-04-14T10:19:53.002Z</time>
      </trkpt>
      <trkpt lat="42.96026" lon="-0.81846">
        <ele>1432</ele>
        <time>2019-04-14T10:20:07.003Z</time>
      </trkpt>
      <trkpt lat="42.96021" lon="-0.81836">
        <ele>1435</ele>
        <time>2019-04-14T10:20:27.973Z</time>
      </trkpt>
      <trkpt lat="42.96018" lon="-0.81824">
        <ele>1437</ele>
        <time>2019-04-14T10:20:44.012Z</time>
      </trkpt>
      <trkpt lat="42.96012" lon="-0.81813">
        <ele>1441</ele>
        <time>2019-04-14T10:21:17.002Z</time>
      </trkpt>
      <trkpt lat="42.96007" lon="-0.81803">
        <ele>1441</ele>
        <time>2019-04-14T10:21:54.013Z</time>
      </trkpt>
      <trkpt lat="42.96012" lon="-0.81792">
        <ele>1441</ele>
        <time>2019-04-14T10:25:29.003Z</time>
      </trkpt>
      <trkpt lat="42.96017" lon="-0.81803">
        <ele>1440</ele>
        <time>2019-04-14T10:33:01.002Z</time>
      </trkpt>
      <trkpt lat="42.96028" lon="-0.81808">
        <ele>1439</ele>
        <time>2019-04-14T10:35:48.001Z</time>
      </trkpt>
      <trkpt lat="42.96019" lon="-0.81802">
        <ele>1440</ele>
        <time>2019-04-14T10:36:23.001Z</time>
      </trkpt>
      <trkpt lat="42.96017" lon="-0.8179">
        <ele>1441</ele>
        <time>2019-04-14T10:51:37.003Z</time>
      </trkpt>
      <trkpt lat="42.96021" lon="-0.81797">
        <ele>1441</ele>
        <time>2019-04-14T10:53:01.013Z</time>
      </trkpt>
      <trkpt lat="42.96019" lon="-0.81797">
        <ele>1440</ele>
        <time>2019-04-14T10:53:11.013Z</time>
      </trkpt>
      <trkpt lat="42.96017" lon="-0.81797">
        <ele>1440</ele>
        <time>2019-04-14T10:53:26.013Z</time>
      </trkpt>
      <trkpt lat="42.96015" lon="-0.81797">
        <ele>1440</ele>
        <time>2019-04-14T10:53:50.013Z</time>
      </trkpt>
      <trkpt lat="42.96014" lon="-0.81795">
        <ele>1440</ele>
        <time>2019-04-14T10:54:33.013Z</time>
      </trkpt>
      <trkpt lat="42.96012" lon="-0.81794">
        <ele>1440</ele>
        <time>2019-04-14T10:55:04.013Z</time>
      </trkpt>
      <trkpt lat="42.96011" lon="-0.81797">
        <ele>1441</ele>
        <time>2019-04-14T10:57:21.013Z</time>
      </trkpt>
      <trkpt lat="42.96013" lon="-0.81798">
        <ele>1441</ele>
        <time>2019-04-14T10:59:11.013Z</time>
      </trkpt>
      <trkpt lat="42.96015" lon="-0.81797">
        <ele>1439</ele>
        <time>2019-04-14T10:59:58.013Z</time>
      </trkpt>
      <trkpt lat="42.96017" lon="-0.81799">
        <ele>1439</ele>
        <time>2019-04-14T11:00:10.013Z</time>
      </trkpt>
      <trkpt lat="42.96019" lon="-0.81801">
        <ele>1440</ele>
        <time>2019-04-14T11:00:14.013Z</time>
      </trkpt>
      <trkpt lat="42.96021" lon="-0.81802">
        <ele>1440</ele>
        <time>2019-04-14T11:00:17.013Z</time>
      </trkpt>
      <trkpt lat="42.96019" lon="-0.81804">
        <ele>1440</ele>
        <time>2019-04-14T11:00:43.013Z</time>
      </trkpt>
      <trkpt lat="42.96017" lon="-0.81804">
        <ele>1440</ele>
        <time>2019-04-14T11:00:50.013Z</time>
      </trkpt>
      <trkpt lat="42.96015" lon="-0.81806">
        <ele>1440</ele>
        <time>2019-04-14T11:01:02.013Z</time>
      </trkpt>
      <trkpt lat="42.96013" lon="-0.81806">
        <ele>1440</ele>
        <time>2019-04-14T11:01:18.013Z</time>
      </trkpt>
      <trkpt lat="42.96011" lon="-0.81805">
        <ele>1439</ele>
        <time>2019-04-14T11:01:22.013Z</time>
      </trkpt>
      <trkpt lat="42.96009" lon="-0.81804">
        <ele>1439</ele>
        <time>2019-04-14T11:01:26.013Z</time>
      </trkpt>
      <trkpt lat="42.96009" lon="-0.81801">
        <ele>1439</ele>
        <time>2019-04-14T11:01:37.013Z</time>
      </trkpt>
      <trkpt lat="42.9601" lon="-0.81799">
        <ele>1439</ele>
        <time>2019-04-14T11:01:43.013Z</time>
      </trkpt>
      <trkpt lat="42.96008" lon="-0.81797">
        <ele>1439</ele>
        <time>2019-04-14T11:01:59.013Z</time>
      </trkpt>
      <trkpt lat="42.96006" lon="-0.81795">
        <ele>1439</ele>
        <time>2019-04-14T11:02:02.013Z</time>
      </trkpt>
      <trkpt lat="42.96003" lon="-0.81795">
        <ele>1439</ele>
        <time>2019-04-14T11:02:04.013Z</time>
      </trkpt>
      <trkpt lat="42.96" lon="-0.81792">
        <ele>1439</ele>
        <time>2019-04-14T11:02:06.013Z</time>
      </trkpt>
      <trkpt lat="42.95998" lon="-0.81791">
        <ele>1439</ele>
        <time>2019-04-14T11:02:08.013Z</time>
      </trkpt>
      <trkpt lat="42.95996" lon="-0.81788">
        <ele>1439</ele>
        <time>2019-04-14T11:02:10.013Z</time>
      </trkpt>
      <trkpt lat="42.95995" lon="-0.81786">
        <ele>1439</ele>
        <time>2019-04-14T11:02:12.013Z</time>
      </trkpt>
      <trkpt lat="42.95994" lon="-0.81783">
        <ele>1439</ele>
        <time>2019-04-14T11:02:14.013Z</time>
      </trkpt>
      <trkpt lat="42.95993" lon="-0.8178">
        <ele>1439</ele>
        <time>2019-04-14T11:02:16.013Z</time>
      </trkpt>
      <trkpt lat="42.95992" lon="-0.81775">
        <ele>1439</ele>
        <time>2019-04-14T11:02:18.013Z</time>
      </trkpt>
      <trkpt lat="42.95991" lon="-0.81772">
        <ele>1439</ele>
        <time>2019-04-14T11:02:20.013Z</time>
      </trkpt>
      <trkpt lat="42.9599" lon="-0.81769">
        <ele>1439</ele>
        <time>2019-04-14T11:02:22.013Z</time>
      </trkpt>
      <trkpt lat="42.95989" lon="-0.81767">
        <ele>1439</ele>
        <time>2019-04-14T11:02:24.013Z</time>
      </trkpt>
      <trkpt lat="42.95987" lon="-0.81765">
        <ele>1439</ele>
        <time>2019-04-14T11:02:26.013Z</time>
      </trkpt>
      <trkpt lat="42.95985" lon="-0.81763">
        <ele>1439</ele>
        <time>2019-04-14T11:02:28.013Z</time>
      </trkpt>
      <trkpt lat="42.95984" lon="-0.81761">
        <ele>1439</ele>
        <time>2019-04-14T11:02:37.013Z</time>
      </trkpt>
      <trkpt lat="42.95982" lon="-0.81759">
        <ele>1439</ele>
        <time>2019-04-14T11:02:39.013Z</time>
      </trkpt>
      <trkpt lat="42.95981" lon="-0.81757">
        <ele>1438</ele>
        <time>2019-04-14T11:02:41.013Z</time>
      </trkpt>
      <trkpt lat="42.9598" lon="-0.81754">
        <ele>1438</ele>
        <time>2019-04-14T11:02:43.013Z</time>
      </trkpt>
      <trkpt lat="42.95979" lon="-0.8175">
        <ele>1438</ele>
        <time>2019-04-14T11:02:45.013Z</time>
      </trkpt>
      <trkpt lat="42.95979" lon="-0.81747">
        <ele>1438</ele>
        <time>2019-04-14T11:02:47.013Z</time>
      </trkpt>
      <trkpt lat="42.95979" lon="-0.81745">
        <ele>1439</ele>
        <time>2019-04-14T11:02:49.013Z</time>
      </trkpt>
      <trkpt lat="42.95978" lon="-0.81742">
        <ele>1439</ele>
        <time>2019-04-14T11:02:51.013Z</time>
      </trkpt>
      <trkpt lat="42.95978" lon="-0.81739">
        <ele>1439</ele>
        <time>2019-04-14T11:02:53.013Z</time>
      </trkpt>
      <trkpt lat="42.95977" lon="-0.81737">
        <ele>1439</ele>
        <time>2019-04-14T11:02:55.013Z</time>
      </trkpt>
      <trkpt lat="42.95976" lon="-0.81734">
        <ele>1439</ele>
        <time>2019-04-14T11:02:57.013Z</time>
      </trkpt>
      <trkpt lat="42.95975" lon="-0.81731">
        <ele>1439</ele>
        <time>2019-04-14T11:02:59.013Z</time>
      </trkpt>
      <trkpt lat="42.95975" lon="-0.81728">
        <ele>1439</ele>
        <time>2019-04-14T11:03:02.013Z</time>
      </trkpt>
      <trkpt lat="42.95974" lon="-0.81726">
        <ele>1439</ele>
        <time>2019-04-14T11:03:04.013Z</time>
      </trkpt>
      <trkpt lat="42.95972" lon="-0.81724">
        <ele>1439</ele>
        <time>2019-04-14T11:03:06.013Z</time>
      </trkpt>
      <trkpt lat="42.95971" lon="-0.81722">
        <ele>1439</ele>
        <time>2019-04-14T11:03:08.013Z</time>
      </trkpt>
      <trkpt lat="42.95969" lon="-0.81719">
        <ele>1438</ele>
        <time>2019-04-14T11:03:10.013Z</time>
      </trkpt>
      <trkpt lat="42.95968" lon="-0.81717">
        <ele>1438</ele>
        <time>2019-04-14T11:03:12.013Z</time>
      </trkpt>
      <trkpt lat="42.95966" lon="-0.81715">
        <ele>1438</ele>
        <time>2019-04-14T11:03:14.013Z</time>
      </trkpt>
      <trkpt lat="42.95963" lon="-0.81714">
        <ele>1438</ele>
        <time>2019-04-14T11:03:16.013Z</time>
      </trkpt>
      <trkpt lat="42.95962" lon="-0.81707">
        <ele>1439</ele>
        <time>2019-04-14T11:03:42.013Z</time>
      </trkpt>
      <trkpt lat="42.95964" lon="-0.81705">
        <ele>1439</ele>
        <time>2019-04-14T11:03:44.013Z</time>
      </trkpt>
      <trkpt lat="42.95967" lon="-0.81703">
        <ele>1438.2049501312</ele>
        <time>2019-04-14T11:03:46.013Z</time>
      </trkpt>
      <trkpt lat="42.95968" lon="-0.817">
        <ele>1438</ele>
        <time>2019-04-14T11:03:48.013Z</time>
      </trkpt>
      <trkpt lat="42.9597" lon="-0.81699">
        <ele>1438</ele>
        <time>2019-04-14T11:03:50.013Z</time>
      </trkpt>
      <trkpt lat="42.95971" lon="-0.81696">
        <ele>1438</ele>
        <time>2019-04-14T11:03:52.013Z</time>
      </trkpt>
      <trkpt lat="42.95972" lon="-0.81694">
        <ele>1438</ele>
        <time>2019-04-14T11:03:54.013Z</time>
      </trkpt>
      <trkpt lat="42.95973" lon="-0.81691">
        <ele>1438</ele>
        <time>2019-04-14T11:03:56.013Z</time>
      </trkpt>
      <trkpt lat="42.95972" lon="-0.81688">
        <ele>1438</ele>
        <time>2019-04-14T11:03:58.013Z</time>
      </trkpt>
      <trkpt lat="42.95972" lon="-0.81685">
        <ele>1438</ele>
        <time>2019-04-14T11:04:00.013Z</time>
      </trkpt>
      <trkpt lat="42.95972" lon="-0.81682">
        <ele>1438</ele>
        <time>2019-04-14T11:04:06.013Z</time>
      </trkpt>
      <trkpt lat="42.95973" lon="-0.81679">
        <ele>1438</ele>
        <time>2019-04-14T11:04:08.013Z</time>
      </trkpt>
      <trkpt lat="42.95974" lon="-0.81676">
        <ele>1438</ele>
        <time>2019-04-14T11:04:10.013Z</time>
      </trkpt>
      <trkpt lat="42.95975" lon="-0.81673">
        <ele>1438</ele>
        <time>2019-04-14T11:04:12.013Z</time>
      </trkpt>
      <trkpt lat="42.95976" lon="-0.81671">
        <ele>1437</ele>
        <time>2019-04-14T11:04:14.013Z</time>
      </trkpt>
      <trkpt lat="42.95978" lon="-0.81668">
        <ele>1437</ele>
        <time>2019-04-14T11:04:16.013Z</time>
      </trkpt>
      <trkpt lat="42.9598" lon="-0.81666">
        <ele>1437</ele>
        <time>2019-04-14T11:04:18.013Z</time>
      </trkpt>
      <trkpt lat="42.95982" lon="-0.81663">
        <ele>1437</ele>
        <time>2019-04-14T11:04:20.013Z</time>
      </trkpt>
      <trkpt lat="42.95983" lon="-0.8166">
        <ele>1438</ele>
        <time>2019-04-14T11:04:22.013Z</time>
      </trkpt>
      <trkpt lat="42.95984" lon="-0.81657">
        <ele>1438</ele>
        <time>2019-04-14T11:04:24.013Z</time>
      </trkpt>
      <trkpt lat="42.95984" lon="-0.81654">
        <ele>1438</ele>
        <time>2019-04-14T11:04:26.013Z</time>
      </trkpt>
      <trkpt lat="42.95985" lon="-0.81652">
        <ele>1437.3551208625</ele>
        <time>2019-04-14T11:04:28.013Z</time>
      </trkpt>
      <trkpt lat="42.95985" lon="-0.81648">
        <ele>1437</ele>
        <time>2019-04-14T11:04:30.013Z</time>
      </trkpt>
      <trkpt lat="42.95985" lon="-0.81644">
        <ele>1437.7330048</ele>
        <time>2019-04-14T11:04:32.013Z</time>
      </trkpt>
      <trkpt lat="42.95984" lon="-0.81639">
        <ele>1438</ele>
        <time>2019-04-14T11:04:34.013Z</time>
      </trkpt>
      <trkpt lat="42.95983" lon="-0.81636">
        <ele>1438</ele>
        <time>2019-04-14T11:04:36.013Z</time>
      </trkpt>
      <trkpt lat="42.95982" lon="-0.81633">
        <ele>1438</ele>
        <time>2019-04-14T11:04:38.013Z</time>
      </trkpt>
      <trkpt lat="42.95981" lon="-0.81631">
        <ele>1438</ele>
        <time>2019-04-14T11:04:41.013Z</time>
      </trkpt>
      <trkpt lat="42.9598" lon="-0.81629">
        <ele>1438</ele>
        <time>2019-04-14T11:04:44.013Z</time>
      </trkpt>
      <trkpt lat="42.95978" lon="-0.81628">
        <ele>1438</ele>
        <time>2019-04-14T11:04:48.013Z</time>
      </trkpt>
      <trkpt lat="42.95976" lon="-0.81626">
        <ele>1438</ele>
        <time>2019-04-14T11:04:50.013Z</time>
      </trkpt>
      <trkpt lat="42.95975" lon="-0.81623">
        <ele>1438</ele>
        <time>2019-04-14T11:04:52.013Z</time>
      </trkpt>
      <trkpt lat="42.95973" lon="-0.81621">
        <ele>1438</ele>
        <time>2019-04-14T11:04:54.013Z</time>
      </trkpt>
      <trkpt lat="42.95972" lon="-0.8162">
        <ele>1438</ele>
        <time>2019-04-14T11:04:56.013Z</time>
      </trkpt>
      <trkpt lat="42.9597" lon="-0.81619">
        <ele>1438</ele>
        <time>2019-04-14T11:04:58.013Z</time>
      </trkpt>
      <trkpt lat="42.95968" lon="-0.81618">
        <ele>1439</ele>
        <time>2019-04-14T11:05:00.013Z</time>
      </trkpt>
      <trkpt lat="42.95966" lon="-0.81617">
        <ele>1437</ele>
        <time>2019-04-14T11:05:02.013Z</time>
      </trkpt>
      <trkpt lat="42.95965" lon="-0.81614">
        <ele>1438</ele>
        <time>2019-04-14T11:05:05.013Z</time>
      </trkpt>
      <trkpt lat="42.95962" lon="-0.81613">
        <ele>1438</ele>
        <time>2019-04-14T11:05:08.013Z</time>
      </trkpt>
      <trkpt lat="42.95961" lon="-0.81612">
        <ele>1439</ele>
        <time>2019-04-14T11:05:10.013Z</time>
      </trkpt>
      <trkpt lat="42.95959" lon="-0.81611">
        <ele>1439</ele>
        <time>2019-04-14T11:05:12.013Z</time>
      </trkpt>
      <trkpt lat="42.95957" lon="-0.8161">
        <ele>1438</ele>
        <time>2019-04-14T11:05:14.013Z</time>
      </trkpt>
      <trkpt lat="42.95955" lon="-0.81608">
        <ele>1438</ele>
        <time>2019-04-14T11:05:16.013Z</time>
      </trkpt>
      <trkpt lat="42.95954" lon="-0.81606">
        <ele>1438</ele>
        <time>2019-04-14T11:05:18.013Z</time>
      </trkpt>
      <trkpt lat="42.95953" lon="-0.81603">
        <ele>1438</ele>
        <time>2019-04-14T11:05:20.013Z</time>
      </trkpt>
      <trkpt lat="42.95953" lon="-0.816">
        <ele>1438</ele>
        <time>2019-04-14T11:05:22.013Z</time>
      </trkpt>
      <trkpt lat="42.95952" lon="-0.81597">
        <ele>1438</ele>
        <time>2019-04-14T11:05:24.013Z</time>
      </trkpt>
      <trkpt lat="42.95951" lon="-0.81594">
        <ele>1438</ele>
        <time>2019-04-14T11:05:26.013Z</time>
      </trkpt>
      <trkpt lat="42.9595" lon="-0.81591">
        <ele>1438</ele>
        <time>2019-04-14T11:05:28.013Z</time>
      </trkpt>
      <trkpt lat="42.95949" lon="-0.81588">
        <ele>1438</ele>
        <time>2019-04-14T11:05:30.013Z</time>
      </trkpt>
      <trkpt lat="42.95948" lon="-0.81585">
        <ele>1438</ele>
        <time>2019-04-14T11:05:33.013Z</time>
      </trkpt>
      <trkpt lat="42.95948" lon="-0.81582">
        <ele>1438</ele>
        <time>2019-04-14T11:05:36.013Z</time>
      </trkpt>
      <trkpt lat="42.95947" lon="-0.8158">
        <ele>1438</ele>
        <time>2019-04-14T11:05:38.013Z</time>
      </trkpt>
      <trkpt lat="42.95947" lon="-0.81577">
        <ele>1438</ele>
        <time>2019-04-14T11:05:40.013Z</time>
      </trkpt>
      <trkpt lat="42.95946" lon="-0.81575">
        <ele>1438</ele>
        <time>2019-04-14T11:05:42.013Z</time>
      </trkpt>
      <trkpt lat="42.95945" lon="-0.81572">
        <ele>1438</ele>
        <time>2019-04-14T11:05:44.013Z</time>
      </trkpt>
      <trkpt lat="42.95943" lon="-0.81569">
        <ele>1438</ele>
        <time>2019-04-14T11:05:46.013Z</time>
      </trkpt>
      <trkpt lat="42.95942" lon="-0.81567">
        <ele>1438</ele>
        <time>2019-04-14T11:05:48.013Z</time>
      </trkpt>
      <trkpt lat="42.95941" lon="-0.81564">
        <ele>1437</ele>
        <time>2019-04-14T11:05:50.013Z</time>
      </trkpt>
      <trkpt lat="42.9594" lon="-0.81562">
        <ele>1437</ele>
        <time>2019-04-14T11:05:52.013Z</time>
      </trkpt>
      <trkpt lat="42.95938" lon="-0.81561">
        <ele>1437</ele>
        <time>2019-04-14T11:05:54.013Z</time>
      </trkpt>
      <trkpt lat="42.95936" lon="-0.8156">
        <ele>1437</ele>
        <time>2019-04-14T11:05:56.013Z</time>
      </trkpt>
      <trkpt lat="42.95934" lon="-0.81558">
        <ele>1437</ele>
        <time>2019-04-14T11:05:58.013Z</time>
      </trkpt>
      <trkpt lat="42.95932" lon="-0.81557">
        <ele>1437</ele>
        <time>2019-04-14T11:06:00.013Z</time>
      </trkpt>
      <trkpt lat="42.95931" lon="-0.81555">
        <ele>1437</ele>
        <time>2019-04-14T11:06:02.013Z</time>
      </trkpt>
      <trkpt lat="42.9593" lon="-0.81553">
        <ele>1438</ele>
        <time>2019-04-14T11:06:04.013Z</time>
      </trkpt>
      <trkpt lat="42.95929" lon="-0.81551">
        <ele>1438</ele>
        <time>2019-04-14T11:06:06.013Z</time>
      </trkpt>
      <trkpt lat="42.95928" lon="-0.81549">
        <ele>1438</ele>
        <time>2019-04-14T11:06:08.013Z</time>
      </trkpt>
      <trkpt lat="42.95927" lon="-0.81546">
        <ele>1438</ele>
        <time>2019-04-14T11:06:10.013Z</time>
      </trkpt>
      <trkpt lat="42.95926" lon="-0.81543">
        <ele>1438</ele>
        <time>2019-04-14T11:06:13.013Z</time>
      </trkpt>
      <trkpt lat="42.95925" lon="-0.8154">
        <ele>1438</ele>
        <time>2019-04-14T11:06:16.013Z</time>
      </trkpt>
      <trkpt lat="42.95926" lon="-0.81538">
        <ele>1438</ele>
        <time>2019-04-14T11:06:21.013Z</time>
      </trkpt>
      <trkpt lat="42.95926" lon="-0.81535">
        <ele>1438.6118202869</ele>
        <time>2019-04-14T11:06:24.013Z</time>
      </trkpt>
      <trkpt lat="42.95925" lon="-0.81532">
        <ele>1439</ele>
        <time>2019-04-14T11:06:26.013Z</time>
      </trkpt>
      <trkpt lat="42.95926" lon="-0.81528">
        <ele>1439</ele>
        <time>2019-04-14T11:06:29.013Z</time>
      </trkpt>
      <trkpt lat="42.95928" lon="-0.81527">
        <ele>1439</ele>
        <time>2019-04-14T11:06:31.013Z</time>
      </trkpt>
      <trkpt lat="42.9593" lon="-0.81525">
        <ele>1438</ele>
        <time>2019-04-14T11:06:33.013Z</time>
      </trkpt>
      <trkpt lat="42.95929" lon="-0.81522">
        <ele>1438</ele>
        <time>2019-04-14T11:06:36.013Z</time>
      </trkpt>
      <trkpt lat="42.95929" lon="-0.81518">
        <ele>1438.6890463081</ele>
        <time>2019-04-14T11:06:39.013Z</time>
      </trkpt>
      <trkpt lat="42.95929" lon="-0.81516">
        <ele>1439</ele>
        <time>2019-04-14T11:06:41.013Z</time>
      </trkpt>
      <trkpt lat="42.95928" lon="-0.81513">
        <ele>1439</ele>
        <time>2019-04-14T11:06:43.013Z</time>
      </trkpt>
      <trkpt lat="42.95928" lon="-0.8151">
        <ele>1438</ele>
        <time>2019-04-14T11:06:46.013Z</time>
      </trkpt>
      <trkpt lat="42.95927" lon="-0.81507">
        <ele>1438</ele>
        <time>2019-04-14T11:06:49.013Z</time>
      </trkpt>
      <trkpt lat="42.95926" lon="-0.81504">
        <ele>1439</ele>
        <time>2019-04-14T11:06:52.013Z</time>
      </trkpt>
      <trkpt lat="42.95925" lon="-0.81501">
        <ele>1439</ele>
        <time>2019-04-14T11:06:54.013Z</time>
      </trkpt>
      <trkpt lat="42.95924" lon="-0.81499">
        <ele>1440.0042276247</ele>
        <time>2019-04-14T11:06:57.013Z</time>
      </trkpt>
      <trkpt lat="42.95923" lon="-0.81496">
        <ele>1441</ele>
        <time>2019-04-14T11:07:00.013Z</time>
      </trkpt>
      <trkpt lat="42.95922" lon="-0.81493">
        <ele>1441</ele>
        <time>2019-04-14T11:07:03.013Z</time>
      </trkpt>
      <trkpt lat="42.95921" lon="-0.8149">
        <ele>1441</ele>
        <time>2019-04-14T11:07:06.013Z</time>
      </trkpt>
      <trkpt lat="42.9592" lon="-0.81487">
        <ele>1441</ele>
        <time>2019-04-14T11:07:09.013Z</time>
      </trkpt>
      <trkpt lat="42.95919" lon="-0.81485">
        <ele>1441</ele>
        <time>2019-04-14T11:07:12.013Z</time>
      </trkpt>
      <trkpt lat="42.95918" lon="-0.81482">
        <ele>1441</ele>
        <time>2019-04-14T11:07:14.013Z</time>
      </trkpt>
      <trkpt lat="42.95917" lon="-0.81479">
        <ele>1442</ele>
        <time>2019-04-14T11:07:17.013Z</time>
      </trkpt>
      <trkpt lat="42.95916" lon="-0.81477">
        <ele>1442</ele>
        <time>2019-04-14T11:07:19.013Z</time>
      </trkpt>
      <trkpt lat="42.95915" lon="-0.81475">
        <ele>1442</ele>
        <time>2019-04-14T11:07:21.013Z</time>
      </trkpt>
      <trkpt lat="42.95914" lon="-0.81472">
        <ele>1442</ele>
        <time>2019-04-14T11:07:23.013Z</time>
      </trkpt>
      <trkpt lat="42.95914" lon="-0.8147">
        <ele>1442</ele>
        <time>2019-04-14T11:07:25.013Z</time>
      </trkpt>
      <trkpt lat="42.95913" lon="-0.81467">
        <ele>1442</ele>
        <time>2019-04-14T11:07:27.013Z</time>
      </trkpt>
      <trkpt lat="42.95913" lon="-0.81463">
        <ele>1442</ele>
        <time>2019-04-14T11:07:30.013Z</time>
      </trkpt>
      <trkpt lat="42.95913" lon="-0.8146">
        <ele>1442</ele>
        <time>2019-04-14T11:07:33.013Z</time>
      </trkpt>
      <trkpt lat="42.95913" lon="-0.81457">
        <ele>1442</ele>
        <time>2019-04-14T11:07:36.013Z</time>
      </trkpt>
      <trkpt lat="42.95913" lon="-0.81454">
        <ele>1442</ele>
        <time>2019-04-14T11:07:39.013Z</time>
      </trkpt>
      <trkpt lat="42.95913" lon="-0.81451">
        <ele>1442</ele>
        <time>2019-04-14T11:07:42.013Z</time>
      </trkpt>
      <trkpt lat="42.95912" lon="-0.81448">
        <ele>1442</ele>
        <time>2019-04-14T11:07:45.013Z</time>
      </trkpt>
      <trkpt lat="42.95913" lon="-0.81445">
        <ele>1443</ele>
        <time>2019-04-14T11:07:48.013Z</time>
      </trkpt>
      <trkpt lat="42.95914" lon="-0.81443">
        <ele>1443</ele>
        <time>2019-04-14T11:07:50.013Z</time>
      </trkpt>
      <trkpt lat="42.95916" lon="-0.8144">
        <ele>1443</ele>
        <time>2019-04-14T11:07:52.013Z</time>
      </trkpt>
      <trkpt lat="42.95918" lon="-0.81437">
        <ele>1443.5390925911</ele>
        <time>2019-04-14T11:07:54.013Z</time>
      </trkpt>
      <trkpt lat="42.95918" lon="-0.81434">
        <ele>1444</ele>
        <time>2019-04-14T11:07:56.013Z</time>
      </trkpt>
      <trkpt lat="42.95919" lon="-0.81431">
        <ele>1444</ele>
        <time>2019-04-14T11:07:59.013Z</time>
      </trkpt>
      <trkpt lat="42.9592" lon="-0.81429">
        <ele>1444</ele>
        <time>2019-04-14T11:08:02.013Z</time>
      </trkpt>
      <trkpt lat="42.95921" lon="-0.81426">
        <ele>1444</ele>
        <time>2019-04-14T11:08:05.013Z</time>
      </trkpt>
      <trkpt lat="42.95922" lon="-0.81424">
        <ele>1445</ele>
        <time>2019-04-14T11:08:08.013Z</time>
      </trkpt>
      <trkpt lat="42.95924" lon="-0.81422">
        <ele>1445</ele>
        <time>2019-04-14T11:08:11.013Z</time>
      </trkpt>
      <trkpt lat="42.95925" lon="-0.81419">
        <ele>1445</ele>
        <time>2019-04-14T11:08:14.013Z</time>
      </trkpt>
      <trkpt lat="42.95927" lon="-0.81418">
        <ele>1446.5195279573</ele>
        <time>2019-04-14T11:08:17.013Z</time>
      </trkpt>
      <trkpt lat="42.95928" lon="-0.81415">
        <ele>1447</ele>
        <time>2019-04-14T11:08:21.013Z</time>
      </trkpt>
      <trkpt lat="42.95929" lon="-0.81413">
        <ele>1447</ele>
        <time>2019-04-14T11:08:24.013Z</time>
      </trkpt>
      <trkpt lat="42.9593" lon="-0.8141">
        <ele>1447</ele>
        <time>2019-04-14T11:08:27.013Z</time>
      </trkpt>
      <trkpt lat="42.95931" lon="-0.81407">
        <ele>1448</ele>
        <time>2019-04-14T11:08:31.013Z</time>
      </trkpt>
      <trkpt lat="42.95931" lon="-0.81404">
        <ele>1448</ele>
        <time>2019-04-14T11:08:34.013Z</time>
      </trkpt>
      <trkpt lat="42.95931" lon="-0.81401">
        <ele>1448</ele>
        <time>2019-04-14T11:08:37.013Z</time>
      </trkpt>
      <trkpt lat="42.95932" lon="-0.81398">
        <ele>1449</ele>
        <time>2019-04-14T11:08:42.013Z</time>
      </trkpt>
      <trkpt lat="42.95932" lon="-0.81396">
        <ele>1449</ele>
        <time>2019-04-14T11:08:45.013Z</time>
      </trkpt>
      <trkpt lat="42.95933" lon="-0.81392">
        <ele>1449.7390995729</ele>
        <time>2019-04-14T11:08:49.013Z</time>
      </trkpt>
      <trkpt lat="42.95933" lon="-0.81389">
        <ele>1452</ele>
        <time>2019-04-14T11:08:52.013Z</time>
      </trkpt>
      <trkpt lat="42.95935" lon="-0.81388">
        <ele>1452</ele>
        <time>2019-04-14T11:08:55.013Z</time>
      </trkpt>
      <trkpt lat="42.95936" lon="-0.81386">
        <ele>1452</ele>
        <time>2019-04-14T11:09:00.013Z</time>
      </trkpt>
      <trkpt lat="42.95935" lon="-0.81382">
        <ele>1453</ele>
        <time>2019-04-14T11:09:05.013Z</time>
      </trkpt>
      <trkpt lat="42.95935" lon="-0.8138">
        <ele>1453</ele>
        <time>2019-04-14T11:09:08.013Z</time>
      </trkpt>
      <trkpt lat="42.95936" lon="-0.81377">
        <ele>1453.736673683</ele>
        <time>2019-04-14T11:09:12.013Z</time>
      </trkpt>
      <trkpt lat="42.95937" lon="-0.81376">
        <ele>1455</ele>
        <time>2019-04-14T11:09:16.013Z</time>
      </trkpt>
      <trkpt lat="42.95938" lon="-0.81373">
        <ele>1455</ele>
        <time>2019-04-14T11:09:21.013Z</time>
      </trkpt>
      <trkpt lat="42.95939" lon="-0.81371">
        <ele>1456</ele>
        <time>2019-04-14T11:09:25.013Z</time>
      </trkpt>
      <trkpt lat="42.9594" lon="-0.81369">
        <ele>1457</ele>
        <time>2019-04-14T11:09:29.013Z</time>
      </trkpt>
      <trkpt lat="42.95942" lon="-0.81367">
        <ele>1458</ele>
        <time>2019-04-14T11:09:35.013Z</time>
      </trkpt>
      <trkpt lat="42.95942" lon="-0.81364">
        <ele>1458</ele>
        <time>2019-04-14T11:09:42.013Z</time>
      </trkpt>
      <trkpt lat="42.95943" lon="-0.81362">
        <ele>1458</ele>
        <time>2019-04-14T11:09:45.013Z</time>
      </trkpt>
      <trkpt lat="42.95944" lon="-0.81359">
        <ele>1459</ele>
        <time>2019-04-14T11:09:50.013Z</time>
      </trkpt>
      <trkpt lat="42.95946" lon="-0.81357">
        <ele>1460</ele>
        <time>2019-04-14T11:09:54.013Z</time>
      </trkpt>
      <trkpt lat="42.95947" lon="-0.81354">
        <ele>1460</ele>
        <time>2019-04-14T11:09:57.013Z</time>
      </trkpt>
      <trkpt lat="42.95947" lon="-0.81352">
        <ele>1461</ele>
        <time>2019-04-14T11:10:00.013Z</time>
      </trkpt>
      <trkpt lat="42.95947" lon="-0.81349">
        <ele>1461</ele>
        <time>2019-04-14T11:10:04.013Z</time>
      </trkpt>
      <trkpt lat="42.95948" lon="-0.81346">
        <ele>1462</ele>
        <time>2019-04-14T11:10:09.013Z</time>
      </trkpt>
      <trkpt lat="42.95948" lon="-0.81343">
        <ele>1462</ele>
        <time>2019-04-14T11:10:13.013Z</time>
      </trkpt>
      <trkpt lat="42.95948" lon="-0.8134">
        <ele>1463</ele>
        <time>2019-04-14T11:10:17.013Z</time>
      </trkpt>
      <trkpt lat="42.95948" lon="-0.81337">
        <ele>1463</ele>
        <time>2019-04-14T11:10:20.013Z</time>
      </trkpt>
      <trkpt lat="42.95948" lon="-0.81335">
        <ele>1463.6416711111</ele>
        <time>2019-04-14T11:10:23.013Z</time>
      </trkpt>
      <trkpt lat="42.95949" lon="-0.81332">
        <ele>1464</ele>
        <time>2019-04-14T11:10:28.013Z</time>
      </trkpt>
      <trkpt lat="42.95949" lon="-0.81329">
        <ele>1465</ele>
        <time>2019-04-14T11:10:32.013Z</time>
      </trkpt>
      <trkpt lat="42.95949" lon="-0.81327">
        <ele>1466</ele>
        <time>2019-04-14T11:10:36.013Z</time>
      </trkpt>
      <trkpt lat="42.9595" lon="-0.81324">
        <ele>1467</ele>
        <time>2019-04-14T11:10:40.013Z</time>
      </trkpt>
      <trkpt lat="42.9595" lon="-0.81321">
        <ele>1467</ele>
        <time>2019-04-14T11:10:44.013Z</time>
      </trkpt>
      <trkpt lat="42.9595" lon="-0.81319">
        <ele>1467</ele>
        <time>2019-04-14T11:10:46.013Z</time>
      </trkpt>
      <trkpt lat="42.9595" lon="-0.81316">
        <ele>1467</ele>
        <time>2019-04-14T11:10:51.013Z</time>
      </trkpt>
      <trkpt lat="42.95951" lon="-0.81314">
        <ele>1469</ele>
        <time>2019-04-14T11:10:57.013Z</time>
      </trkpt>
      <trkpt lat="42.95951" lon="-0.81311">
        <ele>1469</ele>
        <time>2019-04-14T11:11:01.013Z</time>
      </trkpt>
      <trkpt lat="42.95951" lon="-0.81307">
        <ele>1470</ele>
        <time>2019-04-14T11:11:06.013Z</time>
      </trkpt>
      <trkpt lat="42.95952" lon="-0.81304">
        <ele>1470</ele>
        <time>2019-04-14T11:11:10.013Z</time>
      </trkpt>
      <trkpt lat="42.95953" lon="-0.81302">
        <ele>1471.6565317404</ele>
        <time>2019-04-14T11:11:14.013Z</time>
      </trkpt>
      <trkpt lat="42.95954" lon="-0.81299">
        <ele>1472</ele>
        <time>2019-04-14T11:11:18.013Z</time>
      </trkpt>
      <trkpt lat="42.95955" lon="-0.81297">
        <ele>1473.7386852147</ele>
        <time>2019-04-14T11:11:22.013Z</time>
      </trkpt>
      <trkpt lat="42.95956" lon="-0.81296">
        <ele>1474</ele>
        <time>2019-04-14T11:11:26.013Z</time>
      </trkpt>
      <trkpt lat="42.95958" lon="-0.81296">
        <ele>1475</ele>
        <time>2019-04-14T11:11:30.013Z</time>
      </trkpt>
      <trkpt lat="42.9596" lon="-0.81295">
        <ele>1474</ele>
        <time>2019-04-14T11:11:40.013Z</time>
      </trkpt>
      <trkpt lat="42.95962" lon="-0.81294">
        <ele>1475</ele>
        <time>2019-04-14T11:12:06.013Z</time>
      </trkpt>
      <trkpt lat="42.95963" lon="-0.81292">
        <ele>1476</ele>
        <time>2019-04-14T11:12:10.013Z</time>
      </trkpt>
      <trkpt lat="42.95964" lon="-0.8129">
        <ele>1476</ele>
        <time>2019-04-14T11:12:14.013Z</time>
      </trkpt>
      <trkpt lat="42.95965" lon="-0.81287">
        <ele>1476.7109831101</ele>
        <time>2019-04-14T11:12:18.013Z</time>
      </trkpt>
      <trkpt lat="42.95966" lon="-0.81284">
        <ele>1477</ele>
        <time>2019-04-14T11:12:23.013Z</time>
      </trkpt>
      <trkpt lat="42.95968" lon="-0.81282">
        <ele>1478</ele>
        <time>2019-04-14T11:12:26.013Z</time>
      </trkpt>
      <trkpt lat="42.95969" lon="-0.81281">
        <ele>1479</ele>
        <time>2019-04-14T11:12:30.013Z</time>
      </trkpt>
      <trkpt lat="42.9597" lon="-0.81278">
        <ele>1479.6575254018</ele>
        <time>2019-04-14T11:12:33.013Z</time>
      </trkpt>
      <trkpt lat="42.95971" lon="-0.81276">
        <ele>1480</ele>
        <time>2019-04-14T11:12:36.013Z</time>
      </trkpt>
      <trkpt lat="42.95972" lon="-0.81273">
        <ele>1481</ele>
        <time>2019-04-14T11:12:40.013Z</time>
      </trkpt>
      <trkpt lat="42.95973" lon="-0.8127">
        <ele>1481</ele>
        <time>2019-04-14T11:12:45.013Z</time>
      </trkpt>
      <trkpt lat="42.95973" lon="-0.81267">
        <ele>1482</ele>
        <time>2019-04-14T11:12:50.013Z</time>
      </trkpt>
      <trkpt lat="42.95973" lon="-0.81265">
        <ele>1482.744457262</ele>
        <time>2019-04-14T11:12:53.013Z</time>
      </trkpt>
      <trkpt lat="42.95972" lon="-0.81262">
        <ele>1483</ele>
        <time>2019-04-14T11:12:57.013Z</time>
      </trkpt>
      <trkpt lat="42.95972" lon="-0.81259">
        <ele>1484</ele>
        <time>2019-04-14T11:13:04.013Z</time>
      </trkpt>
      <trkpt lat="42.95971" lon="-0.81257">
        <ele>1485</ele>
        <time>2019-04-14T11:13:08.013Z</time>
      </trkpt>
      <trkpt lat="42.95972" lon="-0.81254">
        <ele>1485.7796169954</ele>
        <time>2019-04-14T11:13:13.013Z</time>
      </trkpt>
      <trkpt lat="42.95973" lon="-0.81251">
        <ele>1487</ele>
        <time>2019-04-14T11:13:18.013Z</time>
      </trkpt>
      <trkpt lat="42.95974" lon="-0.81249">
        <ele>1485</ele>
        <time>2019-04-14T11:13:24.013Z</time>
      </trkpt>
      <trkpt lat="42.95974" lon="-0.81246">
        <ele>1487</ele>
        <time>2019-04-14T11:13:28.013Z</time>
      </trkpt>
      <trkpt lat="42.95974" lon="-0.81243">
        <ele>1488</ele>
        <time>2019-04-14T11:13:35.013Z</time>
      </trkpt>
      <trkpt lat="42.95975" lon="-0.81241">
        <ele>1489.7231787459</ele>
        <time>2019-04-14T11:13:41.013Z</time>
      </trkpt>
      <trkpt lat="42.95976" lon="-0.81239">
        <ele>1490.6662796928</ele>
        <time>2019-04-14T11:13:46.013Z</time>
      </trkpt>
      <trkpt lat="42.95977" lon="-0.81237">
        <ele>1491.7699998578</ele>
        <time>2019-04-14T11:13:52.013Z</time>
      </trkpt>
      <trkpt lat="42.95978" lon="-0.81234">
        <ele>1493</ele>
        <time>2019-04-14T11:13:57.013Z</time>
      </trkpt>
      <trkpt lat="42.95979" lon="-0.81232">
        <ele>1494</ele>
        <time>2019-04-14T11:14:02.013Z</time>
      </trkpt>
      <trkpt lat="42.95981" lon="-0.8123">
        <ele>1495</ele>
        <time>2019-04-14T11:14:08.013Z</time>
      </trkpt>
      <trkpt lat="42.95982" lon="-0.81227">
        <ele>1496</ele>
        <time>2019-04-14T11:14:14.013Z</time>
      </trkpt>
      <trkpt lat="42.95983" lon="-0.81225">
        <ele>1497</ele>
        <time>2019-04-14T11:14:18.013Z</time>
      </trkpt>
      <trkpt lat="42.95984" lon="-0.81223">
        <ele>1498</ele>
        <time>2019-04-14T11:14:24.013Z</time>
      </trkpt>
      <trkpt lat="42.95984" lon="-0.8122">
        <ele>1499</ele>
        <time>2019-04-14T11:14:32.013Z</time>
      </trkpt>
      <trkpt lat="42.95985" lon="-0.81217">
        <ele>1498</ele>
        <time>2019-04-14T11:14:36.013Z</time>
      </trkpt>
      <trkpt lat="42.95985" lon="-0.81215">
        <ele>1499.7311822595</ele>
        <time>2019-04-14T11:14:41.013Z</time>
      </trkpt>
      <trkpt lat="42.95984" lon="-0.81212">
        <ele>1501</ele>
        <time>2019-04-14T11:14:46.013Z</time>
      </trkpt>
      <trkpt lat="42.95984" lon="-0.8121">
        <ele>1502</ele>
        <time>2019-04-14T11:14:52.013Z</time>
      </trkpt>
      <trkpt lat="42.95984" lon="-0.81207">
        <ele>1503</ele>
        <time>2019-04-14T11:14:59.013Z</time>
      </trkpt>
      <trkpt lat="42.95985" lon="-0.81204">
        <ele>1504</ele>
        <time>2019-04-14T11:15:04.013Z</time>
      </trkpt>
      <trkpt lat="42.95985" lon="-0.81201">
        <ele>1505</ele>
        <time>2019-04-14T11:15:09.013Z</time>
      </trkpt>
      <trkpt lat="42.95984" lon="-0.81198">
        <ele>1506</ele>
        <time>2019-04-14T11:15:13.013Z</time>
      </trkpt>
      <trkpt lat="42.95984" lon="-0.81196">
        <ele>1506</ele>
        <time>2019-04-14T11:15:17.013Z</time>
      </trkpt>
      <trkpt lat="42.95983" lon="-0.81193">
        <ele>1506.639096082</ele>
        <time>2019-04-14T11:15:21.013Z</time>
      </trkpt>
      <trkpt lat="42.95983" lon="-0.81196">
        <ele>1507</ele>
        <time>2019-04-14T11:15:52.013Z</time>
      </trkpt>
      <trkpt lat="42.95985" lon="-0.81197">
        <ele>1506</ele>
        <time>2019-04-14T11:18:02.013Z</time>
      </trkpt>
      <trkpt lat="42.95984" lon="-0.81199">
        <ele>1506</ele>
        <time>2019-04-14T11:20:18.013Z</time>
      </trkpt>
      <trkpt lat="42.95986" lon="-0.81197">
        <ele>1504</ele>
        <time>2019-04-14T11:30:53.013Z</time>
      </trkpt>
      <trkpt lat="42.95986" lon="-0.81195">
        <ele>1504</ele>
        <time>2019-04-14T11:30:59.013Z</time>
      </trkpt>
      <trkpt lat="42.95985" lon="-0.81192">
        <ele>1504</ele>
        <time>2019-04-14T11:31:02.013Z</time>
      </trkpt>
      <trkpt lat="42.95985" lon="-0.81189">
        <ele>1505</ele>
        <time>2019-04-14T11:31:05.013Z</time>
      </trkpt>
      <trkpt lat="42.95985" lon="-0.81187">
        <ele>1505</ele>
        <time>2019-04-14T11:31:08.013Z</time>
      </trkpt>
      <trkpt lat="42.95985" lon="-0.81184">
        <ele>1505</ele>
        <time>2019-04-14T11:31:12.013Z</time>
      </trkpt>
      <trkpt lat="42.95986" lon="-0.81181">
        <ele>1505</ele>
        <time>2019-04-14T11:31:15.013Z</time>
      </trkpt>
      <trkpt lat="42.95986" lon="-0.81179">
        <ele>1505</ele>
        <time>2019-04-14T11:31:18.013Z</time>
      </trkpt>
      <trkpt lat="42.95986" lon="-0.81175">
        <ele>1505</ele>
        <time>2019-04-14T11:31:22.013Z</time>
      </trkpt>
      <trkpt lat="42.95987" lon="-0.81172">
        <ele>1507</ele>
        <time>2019-04-14T11:31:32.013Z</time>
      </trkpt>
      <trkpt lat="42.95987" lon="-0.8117">
        <ele>1507</ele>
        <time>2019-04-14T11:31:42.013Z</time>
      </trkpt>
      <trkpt lat="42.95987" lon="-0.81167">
        <ele>1506</ele>
        <time>2019-04-14T11:31:45.013Z</time>
      </trkpt>
      <trkpt lat="42.95988" lon="-0.81165">
        <ele>1507</ele>
        <time>2019-04-14T11:31:49.013Z</time>
      </trkpt>
      <trkpt lat="42.95989" lon="-0.81162">
        <ele>1507.625476984</ele>
        <time>2019-04-14T11:31:52.013Z</time>
      </trkpt>
      <trkpt lat="42.9599" lon="-0.8116">
        <ele>1508</ele>
        <time>2019-04-14T11:31:56.013Z</time>
      </trkpt>
      <trkpt lat="42.95991" lon="-0.81157">
        <ele>1509</ele>
        <time>2019-04-14T11:32:01.013Z</time>
      </trkpt>
      <trkpt lat="42.95992" lon="-0.81155">
        <ele>1509</ele>
        <time>2019-04-14T11:32:05.013Z</time>
      </trkpt>
      <trkpt lat="42.95993" lon="-0.81152">
        <ele>1511</ele>
        <time>2019-04-14T11:32:10.013Z</time>
      </trkpt>
      <trkpt lat="42.95994" lon="-0.8115">
        <ele>1511</ele>
        <time>2019-04-14T11:32:15.013Z</time>
      </trkpt>
      <trkpt lat="42.95995" lon="-0.81146">
        <ele>1511</ele>
        <time>2019-04-14T11:32:19.013Z</time>
      </trkpt>
      <trkpt lat="42.95996" lon="-0.81144">
        <ele>1511</ele>
        <time>2019-04-14T11:32:23.013Z</time>
      </trkpt>
      <trkpt lat="42.95997" lon="-0.81141">
        <ele>1511</ele>
        <time>2019-04-14T11:33:47.013Z</time>
      </trkpt>
      <trkpt lat="42.95999" lon="-0.81139">
        <ele>1511</ele>
        <time>2019-04-14T11:33:50.013Z</time>
      </trkpt>
      <trkpt lat="42.96" lon="-0.81136">
        <ele>1510.3878260569</ele>
        <time>2019-04-14T11:33:53.013Z</time>
      </trkpt>
      <trkpt lat="42.96002" lon="-0.81134">
        <ele>1510</ele>
        <time>2019-04-14T11:33:56.013Z</time>
      </trkpt>
      <trkpt lat="42.96004" lon="-0.81131">
        <ele>1510</ele>
        <time>2019-04-14T11:33:59.013Z</time>
      </trkpt>
      <trkpt lat="42.96006" lon="-0.81129">
        <ele>1510</ele>
        <time>2019-04-14T11:34:02.013Z</time>
      </trkpt>
      <trkpt lat="42.96008" lon="-0.81128">
        <ele>1512</ele>
        <time>2019-04-14T11:34:04.013Z</time>
      </trkpt>
      <trkpt lat="42.9601" lon="-0.81127">
        <ele>1512</ele>
        <time>2019-04-14T11:34:06.013Z</time>
      </trkpt>
      <trkpt lat="42.96011" lon="-0.81125">
        <ele>1512</ele>
        <time>2019-04-14T11:34:08.013Z</time>
      </trkpt>
      <trkpt lat="42.96013" lon="-0.81123">
        <ele>1512</ele>
        <time>2019-04-14T11:34:11.013Z</time>
      </trkpt>
      <trkpt lat="42.96015" lon="-0.8112">
        <ele>1512</ele>
        <time>2019-04-14T11:34:14.013Z</time>
      </trkpt>
      <trkpt lat="42.96017" lon="-0.81118">
        <ele>1512</ele>
        <time>2019-04-14T11:34:17.013Z</time>
      </trkpt>
      <trkpt lat="42.96019" lon="-0.81117">
        <ele>1512</ele>
        <time>2019-04-14T11:34:20.013Z</time>
      </trkpt>
      <trkpt lat="42.96021" lon="-0.81115">
        <ele>1512</ele>
        <time>2019-04-14T11:34:23.013Z</time>
      </trkpt>
      <trkpt lat="42.96023" lon="-0.81114">
        <ele>1513</ele>
        <time>2019-04-14T11:34:25.013Z</time>
      </trkpt>
      <trkpt lat="42.96025" lon="-0.81113">
        <ele>1513</ele>
        <time>2019-04-14T11:34:28.013Z</time>
      </trkpt>
      <trkpt lat="42.96028" lon="-0.81112">
        <ele>1513</ele>
        <time>2019-04-14T11:34:31.013Z</time>
      </trkpt>
      <trkpt lat="42.9603" lon="-0.81112">
        <ele>1513</ele>
        <time>2019-04-14T11:34:33.013Z</time>
      </trkpt>
      <trkpt lat="42.96032" lon="-0.81112">
        <ele>1513</ele>
        <time>2019-04-14T11:34:36.013Z</time>
      </trkpt>
      <trkpt lat="42.96034" lon="-0.81112">
        <ele>1514</ele>
        <time>2019-04-14T11:34:39.013Z</time>
      </trkpt>
      <trkpt lat="42.96036" lon="-0.81112">
        <ele>1514</ele>
        <time>2019-04-14T11:34:41.013Z</time>
      </trkpt>
      <trkpt lat="42.96038" lon="-0.81113">
        <ele>1513</ele>
        <time>2019-04-14T11:34:43.013Z</time>
      </trkpt>
      <trkpt lat="42.9604" lon="-0.81113">
        <ele>1514</ele>
        <time>2019-04-14T11:34:45.013Z</time>
      </trkpt>
      <trkpt lat="42.96042" lon="-0.81113">
        <ele>1514</ele>
        <time>2019-04-14T11:34:47.013Z</time>
      </trkpt>
      <trkpt lat="42.96044" lon="-0.81113">
        <ele>1514</ele>
        <time>2019-04-14T11:34:49.013Z</time>
      </trkpt>
      <trkpt lat="42.96046" lon="-0.81114">
        <ele>1514</ele>
        <time>2019-04-14T11:34:51.013Z</time>
      </trkpt>
      <trkpt lat="42.96048" lon="-0.81115">
        <ele>1514</ele>
        <time>2019-04-14T11:34:53.013Z</time>
      </trkpt>
      <trkpt lat="42.9605" lon="-0.81115">
        <ele>1513</ele>
        <time>2019-04-14T11:34:55.013Z</time>
      </trkpt>
      <trkpt lat="42.96052" lon="-0.81116">
        <ele>1513</ele>
        <time>2019-04-14T11:34:57.013Z</time>
      </trkpt>
      <trkpt lat="42.96054" lon="-0.81117">
        <ele>1513</ele>
        <time>2019-04-14T11:34:59.013Z</time>
      </trkpt>
      <trkpt lat="42.96056" lon="-0.81117">
        <ele>1513</ele>
        <time>2019-04-14T11:35:01.013Z</time>
      </trkpt>
      <trkpt lat="42.96058" lon="-0.81118">
        <ele>1513</ele>
        <time>2019-04-14T11:35:03.013Z</time>
      </trkpt>
      <trkpt lat="42.9606" lon="-0.81119">
        <ele>1514</ele>
        <time>2019-04-14T11:35:05.013Z</time>
      </trkpt>
      <trkpt lat="42.96061" lon="-0.8112">
        <ele>1514</ele>
        <time>2019-04-14T11:35:07.013Z</time>
      </trkpt>
      <trkpt lat="42.96063" lon="-0.8112">
        <ele>1513</ele>
        <time>2019-04-14T11:35:09.013Z</time>
      </trkpt>
      <trkpt lat="42.96066" lon="-0.81121">
        <ele>1513</ele>
        <time>2019-04-14T11:35:12.013Z</time>
      </trkpt>
      <trkpt lat="42.96068" lon="-0.81121">
        <ele>1513</ele>
        <time>2019-04-14T11:35:14.013Z</time>
      </trkpt>
      <trkpt lat="42.9607" lon="-0.81121">
        <ele>1513</ele>
        <time>2019-04-14T11:35:17.013Z</time>
      </trkpt>
      <trkpt lat="42.96073" lon="-0.81119">
        <ele>1513</ele>
        <time>2019-04-14T11:35:20.013Z</time>
      </trkpt>
      <trkpt lat="42.96075" lon="-0.81118">
        <ele>1513.7950599447</ele>
        <time>2019-04-14T11:35:23.013Z</time>
      </trkpt>
      <trkpt lat="42.96077" lon="-0.81116">
        <ele>1514</ele>
        <time>2019-04-14T11:35:26.013Z</time>
      </trkpt>
      <trkpt lat="42.96078" lon="-0.81114">
        <ele>1514</ele>
        <time>2019-04-14T11:35:28.013Z</time>
      </trkpt>
      <trkpt lat="42.9608" lon="-0.81112">
        <ele>1514</ele>
        <time>2019-04-14T11:35:31.013Z</time>
      </trkpt>
      <trkpt lat="42.96082" lon="-0.8111">
        <ele>1514</ele>
        <time>2019-04-14T11:35:34.013Z</time>
      </trkpt>
      <trkpt lat="42.96084" lon="-0.81108">
        <ele>1514</ele>
        <time>2019-04-14T11:35:37.013Z</time>
      </trkpt>
      <trkpt lat="42.96085" lon="-0.81106">
        <ele>1515</ele>
        <time>2019-04-14T11:37:09.013Z</time>
      </trkpt>
      <trkpt lat="42.96087" lon="-0.81104">
        <ele>1515</ele>
        <time>2019-04-14T11:37:12.013Z</time>
      </trkpt>
      <trkpt lat="42.96099" lon="-0.81086">
        <ele>1516</ele>
        <time>2019-04-14T11:37:32.013Z</time>
      </trkpt>
      <trkpt lat="42.961" lon="-0.81084">
        <ele>1516</ele>
        <time>2019-04-14T11:37:34.013Z</time>
      </trkpt>
      <trkpt lat="42.96102" lon="-0.81082">
        <ele>1516</ele>
        <time>2019-04-14T11:37:37.013Z</time>
      </trkpt>
      <trkpt lat="42.96104" lon="-0.8108">
        <ele>1516</ele>
        <time>2019-04-14T11:37:39.013Z</time>
      </trkpt>
      <trkpt lat="42.96106" lon="-0.81077">
        <ele>1516</ele>
        <time>2019-04-14T11:37:42.013Z</time>
      </trkpt>
      <trkpt lat="42.96107" lon="-0.81075">
        <ele>1516</ele>
        <time>2019-04-14T11:37:44.013Z</time>
      </trkpt>
      <trkpt lat="42.96109" lon="-0.81074">
        <ele>1516</ele>
        <time>2019-04-14T11:37:46.013Z</time>
      </trkpt>
      <trkpt lat="42.96111" lon="-0.81071">
        <ele>1516</ele>
        <time>2019-04-14T11:37:49.013Z</time>
      </trkpt>
      <trkpt lat="42.96112" lon="-0.81069">
        <ele>1516</ele>
        <time>2019-04-14T11:37:51.013Z</time>
      </trkpt>
      <trkpt lat="42.96113" lon="-0.81067">
        <ele>1516</ele>
        <time>2019-04-14T11:37:53.013Z</time>
      </trkpt>
      <trkpt lat="42.96114" lon="-0.81065">
        <ele>1516</ele>
        <time>2019-04-14T11:37:55.013Z</time>
      </trkpt>
      <trkpt lat="42.96115" lon="-0.81063">
        <ele>1516</ele>
        <time>2019-04-14T11:37:57.013Z</time>
      </trkpt>
      <trkpt lat="42.96117" lon="-0.81061">
        <ele>1516</ele>
        <time>2019-04-14T11:37:59.013Z</time>
      </trkpt>
      <trkpt lat="42.96118" lon="-0.81059">
        <ele>1515</ele>
        <time>2019-04-14T11:38:01.013Z</time>
      </trkpt>
      <trkpt lat="42.96119" lon="-0.81057">
        <ele>1515</ele>
        <time>2019-04-14T11:38:03.013Z</time>
      </trkpt>
      <trkpt lat="42.9612" lon="-0.81055">
        <ele>1515</ele>
        <time>2019-04-14T11:38:05.013Z</time>
      </trkpt>
      <trkpt lat="42.96121" lon="-0.81052">
        <ele>1515</ele>
        <time>2019-04-14T11:38:07.013Z</time>
      </trkpt>
      <trkpt lat="42.96123" lon="-0.81049">
        <ele>1516</ele>
        <time>2019-04-14T11:38:10.013Z</time>
      </trkpt>
      <trkpt lat="42.96123" lon="-0.81047">
        <ele>1516</ele>
        <time>2019-04-14T11:38:12.013Z</time>
      </trkpt>
      <trkpt lat="42.96125" lon="-0.81045">
        <ele>1515.2445441411</ele>
        <time>2019-04-14T11:38:14.013Z</time>
      </trkpt>
      <trkpt lat="42.96126" lon="-0.81043">
        <ele>1515</ele>
        <time>2019-04-14T11:38:16.013Z</time>
      </trkpt>
      <trkpt lat="42.96127" lon="-0.81041">
        <ele>1515</ele>
        <time>2019-04-14T11:38:18.013Z</time>
      </trkpt>
      <trkpt lat="42.96128" lon="-0.81039">
        <ele>1515</ele>
        <time>2019-04-14T11:38:20.013Z</time>
      </trkpt>
      <trkpt lat="42.9613" lon="-0.81037">
        <ele>1515.8010162523</ele>
        <time>2019-04-14T11:38:23.013Z</time>
      </trkpt>
      <trkpt lat="42.96131" lon="-0.81035">
        <ele>1516</ele>
        <time>2019-04-14T11:38:25.013Z</time>
      </trkpt>
      <trkpt lat="42.96133" lon="-0.81033">
        <ele>1516</ele>
        <time>2019-04-14T11:38:28.013Z</time>
      </trkpt>
      <trkpt lat="42.96135" lon="-0.81032">
        <ele>1516</ele>
        <time>2019-04-14T11:38:30.013Z</time>
      </trkpt>
      <trkpt lat="42.96137" lon="-0.81029">
        <ele>1516</ele>
        <time>2019-04-14T11:38:33.013Z</time>
      </trkpt>
      <trkpt lat="42.96139" lon="-0.81027">
        <ele>1516</ele>
        <time>2019-04-14T11:38:36.013Z</time>
      </trkpt>
      <trkpt lat="42.9614" lon="-0.81024">
        <ele>1516</ele>
        <time>2019-04-14T11:38:39.013Z</time>
      </trkpt>
      <trkpt lat="42.96142" lon="-0.81022">
        <ele>1515</ele>
        <time>2019-04-14T11:38:42.013Z</time>
      </trkpt>
      <trkpt lat="42.96144" lon="-0.81021">
        <ele>1515.723008</ele>
        <time>2019-04-14T11:38:44.013Z</time>
      </trkpt>
      <trkpt lat="42.96145" lon="-0.81019">
        <ele>1516</ele>
        <time>2019-04-14T11:38:46.013Z</time>
      </trkpt>
      <trkpt lat="42.96146" lon="-0.81017">
        <ele>1516</ele>
        <time>2019-04-14T11:38:48.013Z</time>
      </trkpt>
      <trkpt lat="42.96148" lon="-0.81015">
        <ele>1516</ele>
        <time>2019-04-14T11:38:50.013Z</time>
      </trkpt>
      <trkpt lat="42.96149" lon="-0.81013">
        <ele>1516</ele>
        <time>2019-04-14T11:38:52.013Z</time>
      </trkpt>
      <trkpt lat="42.96151" lon="-0.81011">
        <ele>1516</ele>
        <time>2019-04-14T11:38:54.013Z</time>
      </trkpt>
      <trkpt lat="42.96152" lon="-0.81009">
        <ele>1516</ele>
        <time>2019-04-14T11:38:56.013Z</time>
      </trkpt>
      <trkpt lat="42.96154" lon="-0.81007">
        <ele>1516</ele>
        <time>2019-04-14T11:38:58.013Z</time>
      </trkpt>
      <trkpt lat="42.96156" lon="-0.81005">
        <ele>1516.5302736842</ele>
        <time>2019-04-14T11:39:01.013Z</time>
      </trkpt>
      <trkpt lat="42.96157" lon="-0.81004">
        <ele>1517</ele>
        <time>2019-04-14T11:39:03.013Z</time>
      </trkpt>
      <trkpt lat="42.96159" lon="-0.81002">
        <ele>1517</ele>
        <time>2019-04-14T11:39:05.013Z</time>
      </trkpt>
      <trkpt lat="42.9616" lon="-0.81">
        <ele>1517</ele>
        <time>2019-04-14T11:39:07.013Z</time>
      </trkpt>
      <trkpt lat="42.96162" lon="-0.80998">
        <ele>1517</ele>
        <time>2019-04-14T11:39:10.013Z</time>
      </trkpt>
      <trkpt lat="42.96164" lon="-0.80997">
        <ele>1517</ele>
        <time>2019-04-14T11:39:12.013Z</time>
      </trkpt>
      <trkpt lat="42.96166" lon="-0.80995">
        <ele>1518</ele>
        <time>2019-04-14T11:39:15.013Z</time>
      </trkpt>
      <trkpt lat="42.96167" lon="-0.80993">
        <ele>1518</ele>
        <time>2019-04-14T11:39:17.013Z</time>
      </trkpt>
      <trkpt lat="42.96168" lon="-0.8099">
        <ele>1518</ele>
        <time>2019-04-14T11:39:19.013Z</time>
      </trkpt>
      <trkpt lat="42.9617" lon="-0.80988">
        <ele>1518</ele>
        <time>2019-04-14T11:39:22.013Z</time>
      </trkpt>
      <trkpt lat="42.96172" lon="-0.80986">
        <ele>1519</ele>
        <time>2019-04-14T11:39:25.013Z</time>
      </trkpt>
      <trkpt lat="42.96173" lon="-0.80984">
        <ele>1519</ele>
        <time>2019-04-14T11:39:28.013Z</time>
      </trkpt>
      <trkpt lat="42.96174" lon="-0.80981">
        <ele>1520</ele>
        <time>2019-04-14T11:39:32.013Z</time>
      </trkpt>
      <trkpt lat="42.96175" lon="-0.80979">
        <ele>1521</ele>
        <time>2019-04-14T11:39:35.013Z</time>
      </trkpt>
      <trkpt lat="42.96176" lon="-0.80976">
        <ele>1521</ele>
        <time>2019-04-14T11:39:38.013Z</time>
      </trkpt>
      <trkpt lat="42.96177" lon="-0.80974">
        <ele>1521</ele>
        <time>2019-04-14T11:39:41.013Z</time>
      </trkpt>
      <trkpt lat="42.96178" lon="-0.80971">
        <ele>1521</ele>
        <time>2019-04-14T11:39:45.013Z</time>
      </trkpt>
      <trkpt lat="42.96179" lon="-0.80968">
        <ele>1522</ele>
        <time>2019-04-14T11:39:48.013Z</time>
      </trkpt>
      <trkpt lat="42.9618" lon="-0.80965">
        <ele>1522</ele>
        <time>2019-04-14T11:39:51.013Z</time>
      </trkpt>
      <trkpt lat="42.96181" lon="-0.80963">
        <ele>1522.6035298015</ele>
        <time>2019-04-14T11:39:54.013Z</time>
      </trkpt>
      <trkpt lat="42.96183" lon="-0.80961">
        <ele>1523</ele>
        <time>2019-04-14T11:39:58.013Z</time>
      </trkpt>
      <trkpt lat="42.96185" lon="-0.80959">
        <ele>1523</ele>
        <time>2019-04-14T11:40:00.013Z</time>
      </trkpt>
      <trkpt lat="42.96186" lon="-0.80956">
        <ele>1523</ele>
        <time>2019-04-14T11:40:03.013Z</time>
      </trkpt>
      <trkpt lat="42.96188" lon="-0.80954">
        <ele>1524</ele>
        <time>2019-04-14T11:40:06.013Z</time>
      </trkpt>
      <trkpt lat="42.96189" lon="-0.80951">
        <ele>1524</ele>
        <time>2019-04-14T11:40:09.013Z</time>
      </trkpt>
      <trkpt lat="42.96191" lon="-0.80949">
        <ele>1524</ele>
        <time>2019-04-14T11:40:12.013Z</time>
      </trkpt>
      <trkpt lat="42.96192" lon="-0.80946">
        <ele>1524</ele>
        <time>2019-04-14T11:40:14.013Z</time>
      </trkpt>
      <trkpt lat="42.96194" lon="-0.80944">
        <ele>1525</ele>
        <time>2019-04-14T11:40:17.013Z</time>
      </trkpt>
      <trkpt lat="42.96195" lon="-0.80941">
        <ele>1525.6922417328</ele>
        <time>2019-04-14T11:40:20.013Z</time>
      </trkpt>
      <trkpt lat="42.96197" lon="-0.80939">
        <ele>1526</ele>
        <time>2019-04-14T11:40:23.013Z</time>
      </trkpt>
      <trkpt lat="42.96198" lon="-0.80937">
        <ele>1526</ele>
        <time>2019-04-14T11:40:26.013Z</time>
      </trkpt>
      <trkpt lat="42.96201" lon="-0.80935">
        <ele>1526</ele>
        <time>2019-04-14T11:40:29.013Z</time>
      </trkpt>
      <trkpt lat="42.96203" lon="-0.80935">
        <ele>1527</ele>
        <time>2019-04-14T11:40:32.013Z</time>
      </trkpt>
      <trkpt lat="42.96205" lon="-0.80934">
        <ele>1527</ele>
        <time>2019-04-14T11:40:36.013Z</time>
      </trkpt>
      <trkpt lat="42.96205" lon="-0.80929">
        <ele>1527</ele>
        <time>2019-04-14T11:40:40.013Z</time>
      </trkpt>
      <trkpt lat="42.96207" lon="-0.8093">
        <ele>1527</ele>
        <time>2019-04-14T11:40:58.013Z</time>
      </trkpt>
      <trkpt lat="42.9621" lon="-0.8093">
        <ele>1527</ele>
        <time>2019-04-14T11:41:01.013Z</time>
      </trkpt>
      <trkpt lat="42.96212" lon="-0.8093">
        <ele>1527.6694518518</ele>
        <time>2019-04-14T11:41:03.013Z</time>
      </trkpt>
      <trkpt lat="42.96214" lon="-0.8093">
        <ele>1528</ele>
        <time>2019-04-14T11:41:06.013Z</time>
      </trkpt>
      <trkpt lat="42.96216" lon="-0.80929">
        <ele>1528</ele>
        <time>2019-04-14T11:41:09.013Z</time>
      </trkpt>
      <trkpt lat="42.96219" lon="-0.80928">
        <ele>1528</ele>
        <time>2019-04-14T11:41:12.013Z</time>
      </trkpt>
      <trkpt lat="42.96221" lon="-0.80928">
        <ele>1528</ele>
        <time>2019-04-14T11:41:15.013Z</time>
      </trkpt>
      <trkpt lat="42.96223" lon="-0.80927">
        <ele>1528.7079563636</ele>
        <time>2019-04-14T11:41:18.013Z</time>
      </trkpt>
      <trkpt lat="42.96225" lon="-0.80925">
        <ele>1529</ele>
        <time>2019-04-14T11:41:21.013Z</time>
      </trkpt>
      <trkpt lat="42.96227" lon="-0.80924">
        <ele>1528</ele>
        <time>2019-04-14T11:41:24.013Z</time>
      </trkpt>
      <trkpt lat="42.96229" lon="-0.80923">
        <ele>1529</ele>
        <time>2019-04-14T11:41:27.013Z</time>
      </trkpt>
      <trkpt lat="42.96231" lon="-0.80921">
        <ele>1529</ele>
        <time>2019-04-14T11:41:30.013Z</time>
      </trkpt>
      <trkpt lat="42.96232" lon="-0.8092">
        <ele>1528.3563031267</ele>
        <time>2019-04-14T11:41:33.013Z</time>
      </trkpt>
      <trkpt lat="42.96234" lon="-0.80918">
        <ele>1529</ele>
        <time>2019-04-14T11:41:36.013Z</time>
      </trkpt>
      <trkpt lat="42.96236" lon="-0.80917">
        <ele>1529</ele>
        <time>2019-04-14T11:41:39.013Z</time>
      </trkpt>
      <trkpt lat="42.96237" lon="-0.80915">
        <ele>1529</ele>
        <time>2019-04-14T11:41:42.013Z</time>
      </trkpt>
      <trkpt lat="42.96239" lon="-0.80913">
        <ele>1529</ele>
        <time>2019-04-14T11:41:45.013Z</time>
      </trkpt>
      <trkpt lat="42.9624" lon="-0.8091">
        <ele>1529</ele>
        <time>2019-04-14T11:41:49.013Z</time>
      </trkpt>
      <trkpt lat="42.96241" lon="-0.80908">
        <ele>1529</ele>
        <time>2019-04-14T11:41:53.013Z</time>
      </trkpt>
      <trkpt lat="42.96243" lon="-0.80906">
        <ele>1529</ele>
        <time>2019-04-14T11:41:57.013Z</time>
      </trkpt>
      <trkpt lat="42.96245" lon="-0.80904">
        <ele>1530</ele>
        <time>2019-04-14T11:42:01.013Z</time>
      </trkpt>
      <trkpt lat="42.96245" lon="-0.80901">
        <ele>1530</ele>
        <time>2019-04-14T11:42:04.013Z</time>
      </trkpt>
      <trkpt lat="42.96246" lon="-0.80899">
        <ele>1530</ele>
        <time>2019-04-14T11:42:07.013Z</time>
      </trkpt>
      <trkpt lat="42.96248" lon="-0.80897">
        <ele>1530</ele>
        <time>2019-04-14T11:42:12.013Z</time>
      </trkpt>
      <trkpt lat="42.9625" lon="-0.80895">
        <ele>1530</ele>
        <time>2019-04-14T11:42:16.013Z</time>
      </trkpt>
      <trkpt lat="42.96251" lon="-0.80893">
        <ele>1530</ele>
        <time>2019-04-14T11:42:20.013Z</time>
      </trkpt>
      <trkpt lat="42.96253" lon="-0.80892">
        <ele>1531</ele>
        <time>2019-04-14T11:42:24.013Z</time>
      </trkpt>
      <trkpt lat="42.96254" lon="-0.80889">
        <ele>1531</ele>
        <time>2019-04-14T11:42:27.013Z</time>
      </trkpt>
      <trkpt lat="42.96255" lon="-0.80887">
        <ele>1532</ele>
        <time>2019-04-14T11:42:30.013Z</time>
      </trkpt>
      <trkpt lat="42.96256" lon="-0.80884">
        <ele>1532</ele>
        <time>2019-04-14T11:42:33.013Z</time>
      </trkpt>
      <trkpt lat="42.96258" lon="-0.80882">
        <ele>1532.7330048</ele>
        <time>2019-04-14T11:42:36.013Z</time>
      </trkpt>
      <trkpt lat="42.96259" lon="-0.80879">
        <ele>1533</ele>
        <time>2019-04-14T11:42:39.013Z</time>
      </trkpt>
      <trkpt lat="42.9626" lon="-0.80877">
        <ele>1533.5676143431</ele>
        <time>2019-04-14T11:42:42.013Z</time>
      </trkpt>
      <trkpt lat="42.96261" lon="-0.80873">
        <ele>1534</ele>
        <time>2019-04-14T11:42:45.013Z</time>
      </trkpt>
      <trkpt lat="42.96262" lon="-0.80872">
        <ele>1534</ele>
        <time>2019-04-14T11:42:48.013Z</time>
      </trkpt>
      <trkpt lat="42.96263" lon="-0.80869">
        <ele>1533</ele>
        <time>2019-04-14T11:42:51.013Z</time>
      </trkpt>
      <trkpt lat="42.96265" lon="-0.80867">
        <ele>1533.7275964042</ele>
        <time>2019-04-14T11:42:54.013Z</time>
      </trkpt>
      <trkpt lat="42.96266" lon="-0.80865">
        <ele>1534</ele>
        <time>2019-04-14T11:42:57.013Z</time>
      </trkpt>
      <trkpt lat="42.96267" lon="-0.80862">
        <ele>1535</ele>
        <time>2019-04-14T11:43:01.013Z</time>
      </trkpt>
      <trkpt lat="42.96269" lon="-0.8086">
        <ele>1535</ele>
        <time>2019-04-14T11:43:04.013Z</time>
      </trkpt>
      <trkpt lat="42.96269" lon="-0.80857">
        <ele>1536</ele>
        <time>2019-04-14T11:43:07.013Z</time>
      </trkpt>
      <trkpt lat="42.96271" lon="-0.80854">
        <ele>1536</ele>
        <time>2019-04-14T11:43:10.013Z</time>
      </trkpt>
      <trkpt lat="42.96271" lon="-0.80851">
        <ele>1536</ele>
        <time>2019-04-14T11:43:13.013Z</time>
      </trkpt>
      <trkpt lat="42.96272" lon="-0.80848">
        <ele>1536</ele>
        <time>2019-04-14T11:43:16.013Z</time>
      </trkpt>
      <trkpt lat="42.96273" lon="-0.80845">
        <ele>1536.7030016</ele>
        <time>2019-04-14T11:43:19.013Z</time>
      </trkpt>
      <trkpt lat="42.96274" lon="-0.80842">
        <ele>1537</ele>
        <time>2019-04-14T11:43:22.013Z</time>
      </trkpt>
      <trkpt lat="42.96275" lon="-0.80839">
        <ele>1536</ele>
        <time>2019-04-14T11:43:25.013Z</time>
      </trkpt>
      <trkpt lat="42.96276" lon="-0.80837">
        <ele>1536</ele>
        <time>2019-04-14T11:43:28.013Z</time>
      </trkpt>
      <trkpt lat="42.96278" lon="-0.80834">
        <ele>1536</ele>
        <time>2019-04-14T11:43:31.013Z</time>
      </trkpt>
      <trkpt lat="42.9628" lon="-0.80833">
        <ele>1537</ele>
        <time>2019-04-14T11:43:43.013Z</time>
      </trkpt>
      <trkpt lat="42.96281" lon="-0.8083">
        <ele>1537</ele>
        <time>2019-04-14T11:43:45.013Z</time>
      </trkpt>
      <trkpt lat="42.96283" lon="-0.80828">
        <ele>1537</ele>
        <time>2019-04-14T11:43:47.013Z</time>
      </trkpt>
      <trkpt lat="42.96284" lon="-0.80825">
        <ele>1537</ele>
        <time>2019-04-14T11:43:49.013Z</time>
      </trkpt>
      <trkpt lat="42.96286" lon="-0.80823">
        <ele>1537</ele>
        <time>2019-04-14T11:43:51.013Z</time>
      </trkpt>
      <trkpt lat="42.96287" lon="-0.8082">
        <ele>1537</ele>
        <time>2019-04-14T11:43:53.013Z</time>
      </trkpt>
      <trkpt lat="42.96289" lon="-0.8082">
        <ele>1536</ele>
        <time>2019-04-14T11:44:00.013Z</time>
      </trkpt>
      <trkpt lat="42.96291" lon="-0.80818">
        <ele>1535</ele>
        <time>2019-04-14T11:44:03.013Z</time>
      </trkpt>
      <trkpt lat="42.96292" lon="-0.80816">
        <ele>1535</ele>
        <time>2019-04-14T11:44:05.013Z</time>
      </trkpt>
      <trkpt lat="42.96294" lon="-0.80815">
        <ele>1535</ele>
        <time>2019-04-14T11:44:08.013Z</time>
      </trkpt>
      <trkpt lat="42.96296" lon="-0.80813">
        <ele>1535</ele>
        <time>2019-04-14T11:44:11.013Z</time>
      </trkpt>
      <trkpt lat="42.96297" lon="-0.80812">
        <ele>1534.3039566066</ele>
        <time>2019-04-14T11:44:13.013Z</time>
      </trkpt>
      <trkpt lat="42.963" lon="-0.8081">
        <ele>1534</ele>
        <time>2019-04-14T11:44:16.013Z</time>
      </trkpt>
      <trkpt lat="42.96301" lon="-0.80809">
        <ele>1534</ele>
        <time>2019-04-14T11:44:19.013Z</time>
      </trkpt>
      <trkpt lat="42.96302" lon="-0.80806">
        <ele>1535</ele>
        <time>2019-04-14T11:44:39.013Z</time>
      </trkpt>
      <trkpt lat="42.96304" lon="-0.80804">
        <ele>1535</ele>
        <time>2019-04-14T11:44:41.013Z</time>
      </trkpt>
      <trkpt lat="42.96306" lon="-0.80802">
        <ele>1535</ele>
        <time>2019-04-14T11:44:43.013Z</time>
      </trkpt>
      <trkpt lat="42.96308" lon="-0.808">
        <ele>1535</ele>
        <time>2019-04-14T11:44:46.013Z</time>
      </trkpt>
      <trkpt lat="42.9631" lon="-0.80798">
        <ele>1535</ele>
        <time>2019-04-14T11:44:49.013Z</time>
      </trkpt>
      <trkpt lat="42.96312" lon="-0.80797">
        <ele>1535</ele>
        <time>2019-04-14T11:44:54.013Z</time>
      </trkpt>
      <trkpt lat="42.96314" lon="-0.80796">
        <ele>1534.2247484348</ele>
        <time>2019-04-14T11:44:56.013Z</time>
      </trkpt>
      <trkpt lat="42.96316" lon="-0.80794">
        <ele>1534</ele>
        <time>2019-04-14T11:44:58.013Z</time>
      </trkpt>
      <trkpt lat="42.96318" lon="-0.80793">
        <ele>1534</ele>
        <time>2019-04-14T11:45:00.013Z</time>
      </trkpt>
      <trkpt lat="42.9632" lon="-0.80791">
        <ele>1534.6915181375</ele>
        <time>2019-04-14T11:45:02.013Z</time>
      </trkpt>
      <trkpt lat="42.9632" lon="-0.80789">
        <ele>1536</ele>
        <time>2019-04-14T11:45:06.013Z</time>
      </trkpt>
      <trkpt lat="42.96322" lon="-0.80786">
        <ele>1536</ele>
        <time>2019-04-14T11:45:09.013Z</time>
      </trkpt>
      <trkpt lat="42.96322" lon="-0.80784">
        <ele>1536</ele>
        <time>2019-04-14T11:45:12.013Z</time>
      </trkpt>
      <trkpt lat="42.96324" lon="-0.80782">
        <ele>1536</ele>
        <time>2019-04-14T11:45:20.013Z</time>
      </trkpt>
      <trkpt lat="42.96326" lon="-0.8078">
        <ele>1536</ele>
        <time>2019-04-14T11:45:22.013Z</time>
      </trkpt>
      <trkpt lat="42.96327" lon="-0.80779">
        <ele>1536</ele>
        <time>2019-04-14T11:45:24.013Z</time>
      </trkpt>
      <trkpt lat="42.96329" lon="-0.80777">
        <ele>1536</ele>
        <time>2019-04-14T11:45:27.013Z</time>
      </trkpt>
      <trkpt lat="42.96331" lon="-0.80775">
        <ele>1536</ele>
        <time>2019-04-14T11:45:30.013Z</time>
      </trkpt>
      <trkpt lat="42.96332" lon="-0.80773">
        <ele>1537</ele>
        <time>2019-04-14T11:45:32.013Z</time>
      </trkpt>
      <trkpt lat="42.96334" lon="-0.80771">
        <ele>1537</ele>
        <time>2019-04-14T11:45:35.013Z</time>
      </trkpt>
      <trkpt lat="42.96336" lon="-0.80768">
        <ele>1537</ele>
        <time>2019-04-14T11:45:38.013Z</time>
      </trkpt>
      <trkpt lat="42.96337" lon="-0.80766">
        <ele>1537</ele>
        <time>2019-04-14T11:45:40.013Z</time>
      </trkpt>
      <trkpt lat="42.96339" lon="-0.80764">
        <ele>1537</ele>
        <time>2019-04-14T11:45:42.013Z</time>
      </trkpt>
      <trkpt lat="42.9634" lon="-0.80762">
        <ele>1537</ele>
        <time>2019-04-14T11:45:44.013Z</time>
      </trkpt>
      <trkpt lat="42.96342" lon="-0.8076">
        <ele>1537</ele>
        <time>2019-04-14T11:45:46.013Z</time>
      </trkpt>
      <trkpt lat="42.96343" lon="-0.80757">
        <ele>1537</ele>
        <time>2019-04-14T11:45:48.013Z</time>
      </trkpt>
      <trkpt lat="42.96345" lon="-0.80755">
        <ele>1537</ele>
        <time>2019-04-14T11:45:50.013Z</time>
      </trkpt>
      <trkpt lat="42.96346" lon="-0.80752">
        <ele>1537</ele>
        <time>2019-04-14T11:45:53.013Z</time>
      </trkpt>
      <trkpt lat="42.96347" lon="-0.8075">
        <ele>1537</ele>
        <time>2019-04-14T11:45:56.013Z</time>
      </trkpt>
      <trkpt lat="42.96349" lon="-0.80747">
        <ele>1536</ele>
        <time>2019-04-14T11:45:59.013Z</time>
      </trkpt>
      <trkpt lat="42.9635" lon="-0.80746">
        <ele>1536</ele>
        <time>2019-04-14T11:46:03.013Z</time>
      </trkpt>
      <trkpt lat="42.96352" lon="-0.80744">
        <ele>1536</ele>
        <time>2019-04-14T11:46:05.013Z</time>
      </trkpt>
      <trkpt lat="42.96354" lon="-0.80743">
        <ele>1535</ele>
        <time>2019-04-14T11:46:07.013Z</time>
      </trkpt>
      <trkpt lat="42.96355" lon="-0.80741">
        <ele>1536</ele>
        <time>2019-04-14T11:46:09.013Z</time>
      </trkpt>
      <trkpt lat="42.96357" lon="-0.80738">
        <ele>1536</ele>
        <time>2019-04-14T11:46:12.013Z</time>
      </trkpt>
      <trkpt lat="42.96358" lon="-0.80735">
        <ele>1536</ele>
        <time>2019-04-14T11:46:15.013Z</time>
      </trkpt>
      <trkpt lat="42.96357" lon="-0.80732">
        <ele>1535</ele>
        <time>2019-04-14T11:46:19.013Z</time>
      </trkpt>
      <trkpt lat="42.96358" lon="-0.80729">
        <ele>1535</ele>
        <time>2019-04-14T11:46:22.013Z</time>
      </trkpt>
      <trkpt lat="42.96357" lon="-0.80726">
        <ele>1535</ele>
        <time>2019-04-14T11:46:25.013Z</time>
      </trkpt>
      <trkpt lat="42.96355" lon="-0.80725">
        <ele>1536</ele>
        <time>2019-04-14T11:46:59.013Z</time>
      </trkpt>
      <trkpt lat="42.96356" lon="-0.80721">
        <ele>1536</ele>
        <time>2019-04-14T11:47:02.013Z</time>
      </trkpt>
      <trkpt lat="42.96356" lon="-0.80719">
        <ele>1536</ele>
        <time>2019-04-14T11:47:04.013Z</time>
      </trkpt>
      <trkpt lat="42.96357" lon="-0.80716">
        <ele>1535</ele>
        <time>2019-04-14T11:47:06.013Z</time>
      </trkpt>
      <trkpt lat="42.96357" lon="-0.80713">
        <ele>1535</ele>
        <time>2019-04-14T11:47:08.013Z</time>
      </trkpt>
      <trkpt lat="42.96357" lon="-0.8071">
        <ele>1535</ele>
        <time>2019-04-14T11:47:10.013Z</time>
      </trkpt>
      <trkpt lat="42.96356" lon="-0.80706">
        <ele>1535</ele>
        <time>2019-04-14T11:47:12.013Z</time>
      </trkpt>
      <trkpt lat="42.96357" lon="-0.80703">
        <ele>1535</ele>
        <time>2019-04-14T11:47:14.013Z</time>
      </trkpt>
      <trkpt lat="42.96358" lon="-0.80698">
        <ele>1536</ele>
        <time>2019-04-14T11:47:16.013Z</time>
      </trkpt>
      <trkpt lat="42.96359" lon="-0.80695">
        <ele>1536</ele>
        <time>2019-04-14T11:47:18.013Z</time>
      </trkpt>
      <trkpt lat="42.9636" lon="-0.80693">
        <ele>1536</ele>
        <time>2019-04-14T11:47:20.013Z</time>
      </trkpt>
      <trkpt lat="42.9636" lon="-0.8069">
        <ele>1536</ele>
        <time>2019-04-14T11:47:23.013Z</time>
      </trkpt>
      <trkpt lat="42.9636" lon="-0.80687">
        <ele>1536</ele>
        <time>2019-04-14T11:47:25.013Z</time>
      </trkpt>
      <trkpt lat="42.96362" lon="-0.80684">
        <ele>1536</ele>
        <time>2019-04-14T11:47:28.013Z</time>
      </trkpt>
      <trkpt lat="42.96363" lon="-0.80682">
        <ele>1536</ele>
        <time>2019-04-14T11:47:30.013Z</time>
      </trkpt>
      <trkpt lat="42.96365" lon="-0.8068">
        <ele>1536</ele>
        <time>2019-04-14T11:47:32.013Z</time>
      </trkpt>
      <trkpt lat="42.96368" lon="-0.80677">
        <ele>1536</ele>
        <time>2019-04-14T11:47:34.013Z</time>
      </trkpt>
      <trkpt lat="42.96369" lon="-0.80675">
        <ele>1536</ele>
        <time>2019-04-14T11:47:36.013Z</time>
      </trkpt>
      <trkpt lat="42.96371" lon="-0.80674">
        <ele>1536</ele>
        <time>2019-04-14T11:47:38.013Z</time>
      </trkpt>
      <trkpt lat="42.96372" lon="-0.80672">
        <ele>1536</ele>
        <time>2019-04-14T11:47:40.013Z</time>
      </trkpt>
      <trkpt lat="42.96373" lon="-0.8067">
        <ele>1536</ele>
        <time>2019-04-14T11:47:42.013Z</time>
      </trkpt>
      <trkpt lat="42.96375" lon="-0.80668">
        <ele>1536</ele>
        <time>2019-04-14T11:47:44.013Z</time>
      </trkpt>
      <trkpt lat="42.96377" lon="-0.80667">
        <ele>1536</ele>
        <time>2019-04-14T11:47:46.013Z</time>
      </trkpt>
      <trkpt lat="42.9638" lon="-0.80666">
        <ele>1535</ele>
        <time>2019-04-14T11:47:48.013Z</time>
      </trkpt>
      <trkpt lat="42.96382" lon="-0.80665">
        <ele>1536</ele>
        <time>2019-04-14T11:47:50.013Z</time>
      </trkpt>
      <trkpt lat="42.96384" lon="-0.80664">
        <ele>1536</ele>
        <time>2019-04-14T11:47:53.013Z</time>
      </trkpt>
      <trkpt lat="42.96386" lon="-0.80662">
        <ele>1537</ele>
        <time>2019-04-14T11:47:56.013Z</time>
      </trkpt>
      <trkpt lat="42.96388" lon="-0.8066">
        <ele>1537</ele>
        <time>2019-04-14T11:48:00.013Z</time>
      </trkpt>
      <trkpt lat="42.9639" lon="-0.80658">
        <ele>1537</ele>
        <time>2019-04-14T11:48:03.013Z</time>
      </trkpt>
      <trkpt lat="42.96391" lon="-0.80656">
        <ele>1537</ele>
        <time>2019-04-14T11:48:06.013Z</time>
      </trkpt>
      <trkpt lat="42.96392" lon="-0.80653">
        <ele>1537.7330048</ele>
        <time>2019-04-14T11:48:09.013Z</time>
      </trkpt>
      <trkpt lat="42.96393" lon="-0.80651">
        <ele>1538</ele>
        <time>2019-04-14T11:48:13.013Z</time>
      </trkpt>
      <trkpt lat="42.96394" lon="-0.80647">
        <ele>1539</ele>
        <time>2019-04-14T11:48:16.013Z</time>
      </trkpt>
      <trkpt lat="42.96393" lon="-0.80645">
        <ele>1540</ele>
        <time>2019-04-14T11:48:30.013Z</time>
      </trkpt>
      <trkpt lat="42.96393" lon="-0.80642">
        <ele>1540</ele>
        <time>2019-04-14T11:48:34.013Z</time>
      </trkpt>
      <trkpt lat="42.96394" lon="-0.80638">
        <ele>1540</ele>
        <time>2019-04-14T11:48:36.013Z</time>
      </trkpt>
      <trkpt lat="42.96395" lon="-0.80636">
        <ele>1540.6816548452</ele>
        <time>2019-04-14T11:48:38.013Z</time>
      </trkpt>
      <trkpt lat="42.96396" lon="-0.80633">
        <ele>1541</ele>
        <time>2019-04-14T11:48:40.013Z</time>
      </trkpt>
      <trkpt lat="42.96398" lon="-0.80631">
        <ele>1541</ele>
        <time>2019-04-14T11:48:43.013Z</time>
      </trkpt>
      <trkpt lat="42.96399" lon="-0.80629">
        <ele>1541</ele>
        <time>2019-04-14T11:48:45.013Z</time>
      </trkpt>
      <trkpt lat="42.96401" lon="-0.80627">
        <ele>1541</ele>
        <time>2019-04-14T11:48:47.013Z</time>
      </trkpt>
      <trkpt lat="42.96403" lon="-0.80627">
        <ele>1541</ele>
        <time>2019-04-14T11:48:50.013Z</time>
      </trkpt>
      <trkpt lat="42.96406" lon="-0.80627">
        <ele>1541.6009028571</ele>
        <time>2019-04-14T11:48:59.013Z</time>
      </trkpt>
      <trkpt lat="42.96408" lon="-0.80628">
        <ele>1542</ele>
        <time>2019-04-14T11:49:02.013Z</time>
      </trkpt>
      <trkpt lat="42.96411" lon="-0.80627">
        <ele>1542</ele>
        <time>2019-04-14T11:49:05.013Z</time>
      </trkpt>
      <trkpt lat="42.96413" lon="-0.80627">
        <ele>1542</ele>
        <time>2019-04-14T11:49:07.013Z</time>
      </trkpt>
      <trkpt lat="42.96415" lon="-0.80626">
        <ele>1542</ele>
        <time>2019-04-14T11:49:10.013Z</time>
      </trkpt>
      <trkpt lat="42.96417" lon="-0.80624">
        <ele>1542</ele>
        <time>2019-04-14T11:49:13.013Z</time>
      </trkpt>
      <trkpt lat="42.96418" lon="-0.80622">
        <ele>1542</ele>
        <time>2019-04-14T11:49:15.013Z</time>
      </trkpt>
      <trkpt lat="42.9642" lon="-0.80619">
        <ele>1542</ele>
        <time>2019-04-14T11:49:17.013Z</time>
      </trkpt>
      <trkpt lat="42.96422" lon="-0.80618">
        <ele>1542</ele>
        <time>2019-04-14T11:49:19.013Z</time>
      </trkpt>
      <trkpt lat="42.96423" lon="-0.80617">
        <ele>1542</ele>
        <time>2019-04-14T11:49:21.013Z</time>
      </trkpt>
      <trkpt lat="42.96426" lon="-0.80616">
        <ele>1541.4042257838</ele>
        <time>2019-04-14T11:49:24.013Z</time>
      </trkpt>
      <trkpt lat="42.96427" lon="-0.80615">
        <ele>1541</ele>
        <time>2019-04-14T11:49:26.013Z</time>
      </trkpt>
      <trkpt lat="42.96429" lon="-0.80614">
        <ele>1541</ele>
        <time>2019-04-14T11:49:28.013Z</time>
      </trkpt>
      <trkpt lat="42.96431" lon="-0.80613">
        <ele>1541</ele>
        <time>2019-04-14T11:49:30.013Z</time>
      </trkpt>
      <trkpt lat="42.96433" lon="-0.80612">
        <ele>1541</ele>
        <time>2019-04-14T11:49:32.013Z</time>
      </trkpt>
      <trkpt lat="42.96435" lon="-0.80612">
        <ele>1542</ele>
        <time>2019-04-14T11:49:35.013Z</time>
      </trkpt>
      <trkpt lat="42.96437" lon="-0.8061">
        <ele>1542</ele>
        <time>2019-04-14T11:49:38.013Z</time>
      </trkpt>
      <trkpt lat="42.96439" lon="-0.80608">
        <ele>1543</ele>
        <time>2019-04-14T11:49:41.013Z</time>
      </trkpt>
      <trkpt lat="42.96441" lon="-0.80606">
        <ele>1543</ele>
        <time>2019-04-14T11:49:44.013Z</time>
      </trkpt>
      <trkpt lat="42.96442" lon="-0.80604">
        <ele>1543</ele>
        <time>2019-04-14T11:49:47.013Z</time>
      </trkpt>
      <trkpt lat="42.96443" lon="-0.80602">
        <ele>1543</ele>
        <time>2019-04-14T11:49:50.013Z</time>
      </trkpt>
      <trkpt lat="42.96445" lon="-0.80599">
        <ele>1543</ele>
        <time>2019-04-14T11:49:53.013Z</time>
      </trkpt>
      <trkpt lat="42.96447" lon="-0.80597">
        <ele>1544</ele>
        <time>2019-04-14T11:49:56.013Z</time>
      </trkpt>
      <trkpt lat="42.96448" lon="-0.80595">
        <ele>1544</ele>
        <time>2019-04-14T11:49:59.013Z</time>
      </trkpt>
      <trkpt lat="42.96448" lon="-0.80592">
        <ele>1544</ele>
        <time>2019-04-14T11:50:03.013Z</time>
      </trkpt>
      <trkpt lat="42.96449" lon="-0.80589">
        <ele>1545</ele>
        <time>2019-04-14T11:50:06.013Z</time>
      </trkpt>
      <trkpt lat="42.96449" lon="-0.80586">
        <ele>1544.3336403766</ele>
        <time>2019-04-14T11:50:09.013Z</time>
      </trkpt>
      <trkpt lat="42.96449" lon="-0.80583">
        <ele>1544</ele>
        <time>2019-04-14T11:50:11.013Z</time>
      </trkpt>
      <trkpt lat="42.9645" lon="-0.80581">
        <ele>1544</ele>
        <time>2019-04-14T11:50:13.013Z</time>
      </trkpt>
      <trkpt lat="42.9645" lon="-0.80578">
        <ele>1544</ele>
        <time>2019-04-14T11:50:15.013Z</time>
      </trkpt>
      <trkpt lat="42.96449" lon="-0.80575">
        <ele>1544</ele>
        <time>2019-04-14T11:50:18.013Z</time>
      </trkpt>
      <trkpt lat="42.96449" lon="-0.80571">
        <ele>1544</ele>
        <time>2019-04-14T11:50:21.013Z</time>
      </trkpt>
      <trkpt lat="42.9645" lon="-0.80568">
        <ele>1544</ele>
        <time>2019-04-14T11:50:23.013Z</time>
      </trkpt>
      <trkpt lat="42.9645" lon="-0.80566">
        <ele>1544</ele>
        <time>2019-04-14T11:50:25.013Z</time>
      </trkpt>
      <trkpt lat="42.9645" lon="-0.80563">
        <ele>1544</ele>
        <time>2019-04-14T11:50:28.013Z</time>
      </trkpt>
      <trkpt lat="42.9645" lon="-0.8056">
        <ele>1544</ele>
        <time>2019-04-14T11:50:30.013Z</time>
      </trkpt>
      <trkpt lat="42.9645" lon="-0.80557">
        <ele>1544</ele>
        <time>2019-04-14T11:50:32.013Z</time>
      </trkpt>
      <trkpt lat="42.9645" lon="-0.80554">
        <ele>1544</ele>
        <time>2019-04-14T11:50:34.013Z</time>
      </trkpt>
      <trkpt lat="42.9645" lon="-0.80551">
        <ele>1545</ele>
        <time>2019-04-14T11:50:57.013Z</time>
      </trkpt>
      <trkpt lat="42.9645" lon="-0.80548">
        <ele>1545</ele>
        <time>2019-04-14T11:51:00.013Z</time>
      </trkpt>
      <trkpt lat="42.96451" lon="-0.80545">
        <ele>1545</ele>
        <time>2019-04-14T11:51:02.013Z</time>
      </trkpt>
      <trkpt lat="42.96451" lon="-0.80542">
        <ele>1545</ele>
        <time>2019-04-14T11:51:04.013Z</time>
      </trkpt>
      <trkpt lat="42.96451" lon="-0.80538">
        <ele>1545</ele>
        <time>2019-04-14T11:51:07.013Z</time>
      </trkpt>
      <trkpt lat="42.96452" lon="-0.80535">
        <ele>1544</ele>
        <time>2019-04-14T11:51:10.013Z</time>
      </trkpt>
      <trkpt lat="42.96452" lon="-0.80531">
        <ele>1544</ele>
        <time>2019-04-14T11:51:13.013Z</time>
      </trkpt>
      <trkpt lat="42.96453" lon="-0.80528">
        <ele>1544</ele>
        <time>2019-04-14T11:51:15.013Z</time>
      </trkpt>
      <trkpt lat="42.96454" lon="-0.80523">
        <ele>1544</ele>
        <time>2019-04-14T11:51:17.013Z</time>
      </trkpt>
      <trkpt lat="42.96454" lon="-0.8052">
        <ele>1543.354733963</ele>
        <time>2019-04-14T11:51:19.013Z</time>
      </trkpt>
      <trkpt lat="42.96456" lon="-0.80516">
        <ele>1543</ele>
        <time>2019-04-14T11:51:21.013Z</time>
      </trkpt>
      <trkpt lat="42.96457" lon="-0.80513">
        <ele>1543</ele>
        <time>2019-04-14T11:51:23.013Z</time>
      </trkpt>
      <trkpt lat="42.96459" lon="-0.80512">
        <ele>1542.2069914495</ele>
        <time>2019-04-14T11:51:25.013Z</time>
      </trkpt>
      <trkpt lat="42.9646" lon="-0.8051">
        <ele>1542</ele>
        <time>2019-04-14T11:51:27.013Z</time>
      </trkpt>
      <trkpt lat="42.96463" lon="-0.80508">
        <ele>1542</ele>
        <time>2019-04-14T11:51:30.013Z</time>
      </trkpt>
      <trkpt lat="42.96464" lon="-0.80507">
        <ele>1542</ele>
        <time>2019-04-14T11:51:32.013Z</time>
      </trkpt>
      <trkpt lat="42.96467" lon="-0.80506">
        <ele>1542</ele>
        <time>2019-04-14T11:51:35.013Z</time>
      </trkpt>
      <trkpt lat="42.96469" lon="-0.80504">
        <ele>1542</ele>
        <time>2019-04-14T11:51:38.013Z</time>
      </trkpt>
      <trkpt lat="42.9647" lon="-0.80502">
        <ele>1542</ele>
        <time>2019-04-14T11:51:40.013Z</time>
      </trkpt>
      <trkpt lat="42.96472" lon="-0.80501">
        <ele>1541.2869979264</ele>
        <time>2019-04-14T11:51:42.013Z</time>
      </trkpt>
      <trkpt lat="42.96474" lon="-0.80499">
        <ele>1541</ele>
        <time>2019-04-14T11:51:45.013Z</time>
      </trkpt>
      <trkpt lat="42.96477" lon="-0.80497">
        <ele>1541</ele>
        <time>2019-04-14T11:51:48.013Z</time>
      </trkpt>
      <trkpt lat="42.96479" lon="-0.80495">
        <ele>1541</ele>
        <time>2019-04-14T11:51:51.013Z</time>
      </trkpt>
      <trkpt lat="42.9648" lon="-0.80494">
        <ele>1541</ele>
        <time>2019-04-14T11:51:54.013Z</time>
      </trkpt>
      <trkpt lat="42.96482" lon="-0.80492">
        <ele>1541</ele>
        <time>2019-04-14T11:51:56.013Z</time>
      </trkpt>
      <trkpt lat="42.96484" lon="-0.8049">
        <ele>1541.7773866667</ele>
        <time>2019-04-14T11:51:59.013Z</time>
      </trkpt>
      <trkpt lat="42.96485" lon="-0.80488">
        <ele>1542</ele>
        <time>2019-04-14T11:52:02.013Z</time>
      </trkpt>
      <trkpt lat="42.96485" lon="-0.80485">
        <ele>1542</ele>
        <time>2019-04-14T11:52:05.013Z</time>
      </trkpt>
      <trkpt lat="42.96487" lon="-0.80482">
        <ele>1542</ele>
        <time>2019-04-14T11:52:08.013Z</time>
      </trkpt>
      <trkpt lat="42.96488" lon="-0.80479">
        <ele>1542</ele>
        <time>2019-04-14T11:52:11.013Z</time>
      </trkpt>
      <trkpt lat="42.96489" lon="-0.80476">
        <ele>1542</ele>
        <time>2019-04-14T11:52:14.013Z</time>
      </trkpt>
      <trkpt lat="42.96489" lon="-0.80473">
        <ele>1542</ele>
        <time>2019-04-14T11:52:17.013Z</time>
      </trkpt>
      <trkpt lat="42.9649" lon="-0.80469">
        <ele>1542</ele>
        <time>2019-04-14T11:52:20.013Z</time>
      </trkpt>
      <trkpt lat="42.9649" lon="-0.80467">
        <ele>1542.6530048</ele>
        <time>2019-04-14T11:52:23.013Z</time>
      </trkpt>
      <trkpt lat="42.96491" lon="-0.80464">
        <ele>1543</ele>
        <time>2019-04-14T11:52:26.013Z</time>
      </trkpt>
      <trkpt lat="42.96491" lon="-0.80461">
        <ele>1543</ele>
        <time>2019-04-14T11:52:29.013Z</time>
      </trkpt>
      <trkpt lat="42.96492" lon="-0.80458">
        <ele>1544</ele>
        <time>2019-04-14T11:52:32.013Z</time>
      </trkpt>
      <trkpt lat="42.96493" lon="-0.80455">
        <ele>1544</ele>
        <time>2019-04-14T11:52:36.013Z</time>
      </trkpt>
      <trkpt lat="42.96493" lon="-0.80452">
        <ele>1544.7284375118</ele>
        <time>2019-04-14T11:52:40.013Z</time>
      </trkpt>
      <trkpt lat="42.96493" lon="-0.80449">
        <ele>1545</ele>
        <time>2019-04-14T11:52:44.013Z</time>
      </trkpt>
      <trkpt lat="42.96494" lon="-0.80447">
        <ele>1545</ele>
        <time>2019-04-14T11:52:47.013Z</time>
      </trkpt>
      <trkpt lat="42.96494" lon="-0.80444">
        <ele>1546</ele>
        <time>2019-04-14T11:52:50.013Z</time>
      </trkpt>
      <trkpt lat="42.96494" lon="-0.80441">
        <ele>1546</ele>
        <time>2019-04-14T11:52:53.013Z</time>
      </trkpt>
      <trkpt lat="42.96494" lon="-0.80438">
        <ele>1546</ele>
        <time>2019-04-14T11:52:56.013Z</time>
      </trkpt>
      <trkpt lat="42.96496" lon="-0.80435">
        <ele>1547</ele>
        <time>2019-04-14T11:52:59.013Z</time>
      </trkpt>
      <trkpt lat="42.96496" lon="-0.80433">
        <ele>1547</ele>
        <time>2019-04-14T11:53:01.013Z</time>
      </trkpt>
      <trkpt lat="42.96498" lon="-0.8043">
        <ele>1547</ele>
        <time>2019-04-14T11:53:04.013Z</time>
      </trkpt>
      <trkpt lat="42.96499" lon="-0.80427">
        <ele>1547.6700041244</ele>
        <time>2019-04-14T11:53:07.013Z</time>
      </trkpt>
      <trkpt lat="42.965" lon="-0.80425">
        <ele>1548</ele>
        <time>2019-04-14T11:53:10.013Z</time>
      </trkpt>
      <trkpt lat="42.96502" lon="-0.80423">
        <ele>1549</ele>
        <time>2019-04-14T11:54:38.013Z</time>
      </trkpt>
      <trkpt lat="42.96504" lon="-0.80421">
        <ele>1549</ele>
        <time>2019-04-14T11:54:40.013Z</time>
      </trkpt>
      <trkpt lat="42.96505" lon="-0.80419">
        <ele>1549</ele>
        <time>2019-04-14T11:54:42.013Z</time>
      </trkpt>
      <trkpt lat="42.96506" lon="-0.80417">
        <ele>1549</ele>
        <time>2019-04-14T11:54:44.013Z</time>
      </trkpt>
      <trkpt lat="42.96508" lon="-0.80415">
        <ele>1549</ele>
        <time>2019-04-14T11:54:47.013Z</time>
      </trkpt>
      <trkpt lat="42.96509" lon="-0.80412">
        <ele>1549</ele>
        <time>2019-04-14T11:54:50.013Z</time>
      </trkpt>
      <trkpt lat="42.9651" lon="-0.80409">
        <ele>1548.284148227</ele>
        <time>2019-04-14T11:54:53.013Z</time>
      </trkpt>
      <trkpt lat="42.96511" lon="-0.80406">
        <ele>1548</ele>
        <time>2019-04-14T11:54:56.013Z</time>
      </trkpt>
      <trkpt lat="42.96512" lon="-0.80404">
        <ele>1547</ele>
        <time>2019-04-14T11:54:59.013Z</time>
      </trkpt>
      <trkpt lat="42.96513" lon="-0.80401">
        <ele>1547</ele>
        <time>2019-04-14T11:55:02.013Z</time>
      </trkpt>
      <trkpt lat="42.96515" lon="-0.80399">
        <ele>1547</ele>
        <time>2019-04-14T11:55:05.013Z</time>
      </trkpt>
      <trkpt lat="42.96516" lon="-0.80396">
        <ele>1547</ele>
        <time>2019-04-14T11:55:08.013Z</time>
      </trkpt>
      <trkpt lat="42.96518" lon="-0.80394">
        <ele>1546</ele>
        <time>2019-04-14T11:55:13.013Z</time>
      </trkpt>
      <trkpt lat="42.9652" lon="-0.80392">
        <ele>1546</ele>
        <time>2019-04-14T11:55:16.013Z</time>
      </trkpt>
      <trkpt lat="42.96521" lon="-0.8039">
        <ele>1546</ele>
        <time>2019-04-14T11:55:19.013Z</time>
      </trkpt>
      <trkpt lat="42.96524" lon="-0.80389">
        <ele>1546</ele>
        <time>2019-04-14T11:55:22.013Z</time>
      </trkpt>
      <trkpt lat="42.96526" lon="-0.80389">
        <ele>1545.6035657143</ele>
        <time>2019-04-14T11:55:25.013Z</time>
      </trkpt>
      <trkpt lat="42.96528" lon="-0.8039">
        <ele>1545</ele>
        <time>2019-04-14T11:55:27.013Z</time>
      </trkpt>
      <trkpt lat="42.9653" lon="-0.80392">
        <ele>1544</ele>
        <time>2019-04-14T11:56:12.013Z</time>
      </trkpt>
      <trkpt lat="42.96532" lon="-0.80392">
        <ele>1543</ele>
        <time>2019-04-14T11:59:02.013Z</time>
      </trkpt>
      <trkpt lat="42.96533" lon="-0.80394">
        <ele>1543</ele>
        <time>2019-04-14T11:59:04.013Z</time>
      </trkpt>
      <trkpt lat="42.96534" lon="-0.80396">
        <ele>1543</ele>
        <time>2019-04-14T11:59:06.013Z</time>
      </trkpt>
      <trkpt lat="42.96534" lon="-0.80399">
        <ele>1542.3710238896</ele>
        <time>2019-04-14T11:59:08.013Z</time>
      </trkpt>
      <trkpt lat="42.96535" lon="-0.80402">
        <ele>1542</ele>
        <time>2019-04-14T11:59:10.013Z</time>
      </trkpt>
      <trkpt lat="42.96535" lon="-0.80405">
        <ele>1542</ele>
        <time>2019-04-14T11:59:12.013Z</time>
      </trkpt>
      <trkpt lat="42.96536" lon="-0.80408">
        <ele>1542</ele>
        <time>2019-04-14T11:59:15.013Z</time>
      </trkpt>
      <trkpt lat="42.96537" lon="-0.80412">
        <ele>1542</ele>
        <time>2019-04-14T11:59:18.013Z</time>
      </trkpt>
      <trkpt lat="42.96537" lon="-0.80414">
        <ele>1542</ele>
        <time>2019-04-14T11:59:20.013Z</time>
      </trkpt>
      <trkpt lat="42.96537" lon="-0.80417">
        <ele>1542</ele>
        <time>2019-04-14T11:59:22.013Z</time>
      </trkpt>
      <trkpt lat="42.96537" lon="-0.8042">
        <ele>1541.196992</ele>
        <time>2019-04-14T11:59:24.013Z</time>
      </trkpt>
      <trkpt lat="42.96537" lon="-0.80424">
        <ele>1541.8111165701</ele>
        <time>2019-04-14T11:59:26.013Z</time>
      </trkpt>
      <trkpt lat="42.96537" lon="-0.80427">
        <ele>1542</ele>
        <time>2019-04-14T11:59:28.013Z</time>
      </trkpt>
      <trkpt lat="42.96537" lon="-0.80431">
        <ele>1541.1908101825</ele>
        <time>2019-04-14T11:59:30.013Z</time>
      </trkpt>
      <trkpt lat="42.96536" lon="-0.80433">
        <ele>1541</ele>
        <time>2019-04-14T11:59:32.013Z</time>
      </trkpt>
      <trkpt lat="42.96535" lon="-0.80436">
        <ele>1541</ele>
        <time>2019-04-14T11:59:34.013Z</time>
      </trkpt>
      <trkpt lat="42.96536" lon="-0.80439">
        <ele>1541</ele>
        <time>2019-04-14T11:59:36.013Z</time>
      </trkpt>
      <trkpt lat="42.96536" lon="-0.80442">
        <ele>1540</ele>
        <time>2019-04-14T11:59:38.013Z</time>
      </trkpt>
      <trkpt lat="42.96536" lon="-0.80445">
        <ele>1539</ele>
        <time>2019-04-14T11:59:40.013Z</time>
      </trkpt>
      <trkpt lat="42.96536" lon="-0.80448">
        <ele>1540</ele>
        <time>2019-04-14T11:59:42.013Z</time>
      </trkpt>
      <trkpt lat="42.96536" lon="-0.8045">
        <ele>1540</ele>
        <time>2019-04-14T11:59:44.013Z</time>
      </trkpt>
      <trkpt lat="42.96537" lon="-0.80453">
        <ele>1540</ele>
        <time>2019-04-14T11:59:46.013Z</time>
      </trkpt>
      <trkpt lat="42.96538" lon="-0.80456">
        <ele>1540</ele>
        <time>2019-04-14T11:59:48.013Z</time>
      </trkpt>
      <trkpt lat="42.96538" lon="-0.80459">
        <ele>1540</ele>
        <time>2019-04-14T11:59:50.013Z</time>
      </trkpt>
      <trkpt lat="42.96539" lon="-0.80461">
        <ele>1540</ele>
        <time>2019-04-14T11:59:52.013Z</time>
      </trkpt>
      <trkpt lat="42.9654" lon="-0.80464">
        <ele>1540</ele>
        <time>2019-04-14T11:59:54.013Z</time>
      </trkpt>
      <trkpt lat="42.96541" lon="-0.80467">
        <ele>1540</ele>
        <time>2019-04-14T11:59:56.013Z</time>
      </trkpt>
      <trkpt lat="42.96541" lon="-0.8047">
        <ele>1540</ele>
        <time>2019-04-14T11:59:58.013Z</time>
      </trkpt>
      <trkpt lat="42.96541" lon="-0.80473">
        <ele>1540</ele>
        <time>2019-04-14T12:00:00.013Z</time>
      </trkpt>
      <trkpt lat="42.96542" lon="-0.80476">
        <ele>1539.2810972093</ele>
        <time>2019-04-14T12:00:02.013Z</time>
      </trkpt>
      <trkpt lat="42.96542" lon="-0.80479">
        <ele>1539</ele>
        <time>2019-04-14T12:00:04.013Z</time>
      </trkpt>
      <trkpt lat="42.96543" lon="-0.80482">
        <ele>1538.2869979264</ele>
        <time>2019-04-14T12:00:06.013Z</time>
      </trkpt>
      <trkpt lat="42.96543" lon="-0.80485">
        <ele>1538</ele>
        <time>2019-04-14T12:00:08.013Z</time>
      </trkpt>
      <trkpt lat="42.96544" lon="-0.80488">
        <ele>1538</ele>
        <time>2019-04-14T12:00:10.013Z</time>
      </trkpt>
      <trkpt lat="42.96545" lon="-0.8049">
        <ele>1538</ele>
        <time>2019-04-14T12:00:12.013Z</time>
      </trkpt>
      <trkpt lat="42.96545" lon="-0.80494">
        <ele>1538</ele>
        <time>2019-04-14T12:00:14.013Z</time>
      </trkpt>
      <trkpt lat="42.96546" lon="-0.80497">
        <ele>1538</ele>
        <time>2019-04-14T12:00:16.013Z</time>
      </trkpt>
      <trkpt lat="42.96547" lon="-0.805">
        <ele>1538</ele>
        <time>2019-04-14T12:00:18.013Z</time>
      </trkpt>
      <trkpt lat="42.96548" lon="-0.80503">
        <ele>1538</ele>
        <time>2019-04-14T12:00:20.013Z</time>
      </trkpt>
      <trkpt lat="42.96548" lon="-0.80506">
        <ele>1537</ele>
        <time>2019-04-14T12:00:22.013Z</time>
      </trkpt>
      <trkpt lat="42.96549" lon="-0.80509">
        <ele>1537</ele>
        <time>2019-04-14T12:00:24.013Z</time>
      </trkpt>
      <trkpt lat="42.96549" lon="-0.80512">
        <ele>1537</ele>
        <time>2019-04-14T12:00:26.013Z</time>
      </trkpt>
      <trkpt lat="42.9655" lon="-0.80515">
        <ele>1537</ele>
        <time>2019-04-14T12:00:28.013Z</time>
      </trkpt>
      <trkpt lat="42.96551" lon="-0.80518">
        <ele>1537</ele>
        <time>2019-04-14T12:00:30.013Z</time>
      </trkpt>
      <trkpt lat="42.96551" lon="-0.80521">
        <ele>1537</ele>
        <time>2019-04-14T12:00:32.013Z</time>
      </trkpt>
      <trkpt lat="42.96552" lon="-0.80523">
        <ele>1537</ele>
        <time>2019-04-14T12:00:34.013Z</time>
      </trkpt>
      <trkpt lat="42.96553" lon="-0.80526">
        <ele>1537</ele>
        <time>2019-04-14T12:00:36.013Z</time>
      </trkpt>
      <trkpt lat="42.96554" lon="-0.80528">
        <ele>1537</ele>
        <time>2019-04-14T12:00:38.013Z</time>
      </trkpt>
      <trkpt lat="42.96554" lon="-0.80531">
        <ele>1537</ele>
        <time>2019-04-14T12:00:40.013Z</time>
      </trkpt>
      <trkpt lat="42.96555" lon="-0.80534">
        <ele>1537</ele>
        <time>2019-04-14T12:00:42.013Z</time>
      </trkpt>
      <trkpt lat="42.96555" lon="-0.80537">
        <ele>1537</ele>
        <time>2019-04-14T12:00:44.013Z</time>
      </trkpt>
      <trkpt lat="42.96556" lon="-0.8054">
        <ele>1537</ele>
        <time>2019-04-14T12:00:46.013Z</time>
      </trkpt>
      <trkpt lat="42.96557" lon="-0.80543">
        <ele>1536.4528498546</ele>
        <time>2019-04-14T12:00:48.013Z</time>
      </trkpt>
      <trkpt lat="42.96558" lon="-0.80545">
        <ele>1536</ele>
        <time>2019-04-14T12:00:50.013Z</time>
      </trkpt>
      <trkpt lat="42.9656" lon="-0.80548">
        <ele>1536</ele>
        <time>2019-04-14T12:00:52.013Z</time>
      </trkpt>
      <trkpt lat="42.96561" lon="-0.80551">
        <ele>1536</ele>
        <time>2019-04-14T12:00:54.013Z</time>
      </trkpt>
      <trkpt lat="42.96562" lon="-0.80554">
        <ele>1536</ele>
        <time>2019-04-14T12:00:56.013Z</time>
      </trkpt>
      <trkpt lat="42.96563" lon="-0.80557">
        <ele>1536</ele>
        <time>2019-04-14T12:00:58.013Z</time>
      </trkpt>
      <trkpt lat="42.96564" lon="-0.8056">
        <ele>1536</ele>
        <time>2019-04-14T12:01:00.013Z</time>
      </trkpt>
      <trkpt lat="42.96565" lon="-0.80564">
        <ele>1536</ele>
        <time>2019-04-14T12:01:02.013Z</time>
      </trkpt>
      <trkpt lat="42.96565" lon="-0.80567">
        <ele>1536</ele>
        <time>2019-04-14T12:01:04.013Z</time>
      </trkpt>
      <trkpt lat="42.96566" lon="-0.8057">
        <ele>1536</ele>
        <time>2019-04-14T12:01:06.013Z</time>
      </trkpt>
      <trkpt lat="42.96567" lon="-0.80572">
        <ele>1535</ele>
        <time>2019-04-14T12:01:08.013Z</time>
      </trkpt>
      <trkpt lat="42.96567" lon="-0.80575">
        <ele>1535</ele>
        <time>2019-04-14T12:01:10.013Z</time>
      </trkpt>
      <trkpt lat="42.96567" lon="-0.80578">
        <ele>1536</ele>
        <time>2019-04-14T12:01:12.013Z</time>
      </trkpt>
      <trkpt lat="42.96568" lon="-0.8058">
        <ele>1537</ele>
        <time>2019-04-14T12:01:14.013Z</time>
      </trkpt>
      <trkpt lat="42.96569" lon="-0.80584">
        <ele>1537</ele>
        <time>2019-04-14T12:01:17.013Z</time>
      </trkpt>
      <trkpt lat="42.9657" lon="-0.80586">
        <ele>1537</ele>
        <time>2019-04-14T12:01:19.013Z</time>
      </trkpt>
      <trkpt lat="42.96571" lon="-0.80588">
        <ele>1537</ele>
        <time>2019-04-14T12:01:21.013Z</time>
      </trkpt>
      <trkpt lat="42.96572" lon="-0.80592">
        <ele>1537</ele>
        <time>2019-04-14T12:01:24.013Z</time>
      </trkpt>
      <trkpt lat="42.96573" lon="-0.80595">
        <ele>1536.1221612277</ele>
        <time>2019-04-14T12:01:26.013Z</time>
      </trkpt>
      <trkpt lat="42.9658" lon="-0.80615">
        <ele>1536</ele>
        <time>2019-04-14T12:01:46.013Z</time>
      </trkpt>
      <trkpt lat="42.96582" lon="-0.80618">
        <ele>1536</ele>
        <time>2019-04-14T12:01:49.013Z</time>
      </trkpt>
      <trkpt lat="42.96582" lon="-0.80621">
        <ele>1536</ele>
        <time>2019-04-14T12:01:51.013Z</time>
      </trkpt>
      <trkpt lat="42.96583" lon="-0.80624">
        <ele>1536</ele>
        <time>2019-04-14T12:01:54.013Z</time>
      </trkpt>
      <trkpt lat="42.96583" lon="-0.80627">
        <ele>1536</ele>
        <time>2019-04-14T12:01:56.013Z</time>
      </trkpt>
      <trkpt lat="42.96584" lon="-0.80629">
        <ele>1536</ele>
        <time>2019-04-14T12:01:58.013Z</time>
      </trkpt>
      <trkpt lat="42.96585" lon="-0.80631">
        <ele>1536</ele>
        <time>2019-04-14T12:02:00.013Z</time>
      </trkpt>
      <trkpt lat="42.96586" lon="-0.80634">
        <ele>1536</ele>
        <time>2019-04-14T12:02:02.013Z</time>
      </trkpt>
      <trkpt lat="42.96587" lon="-0.80636">
        <ele>1536</ele>
        <time>2019-04-14T12:02:04.013Z</time>
      </trkpt>
      <trkpt lat="42.96588" lon="-0.80639">
        <ele>1536</ele>
        <time>2019-04-14T12:02:06.013Z</time>
      </trkpt>
      <trkpt lat="42.96589" lon="-0.80641">
        <ele>1536</ele>
        <time>2019-04-14T12:02:08.013Z</time>
      </trkpt>
      <trkpt lat="42.9659" lon="-0.80644">
        <ele>1536</ele>
        <time>2019-04-14T12:02:10.013Z</time>
      </trkpt>
      <trkpt lat="42.96591" lon="-0.80646">
        <ele>1536</ele>
        <time>2019-04-14T12:02:12.013Z</time>
      </trkpt>
      <trkpt lat="42.96593" lon="-0.80648">
        <ele>1536</ele>
        <time>2019-04-14T12:02:14.013Z</time>
      </trkpt>
      <trkpt lat="42.96593" lon="-0.80651">
        <ele>1536.6820789007</ele>
        <time>2019-04-14T12:02:16.013Z</time>
      </trkpt>
      <trkpt lat="42.96593" lon="-0.80654">
        <ele>1537</ele>
        <time>2019-04-14T12:02:18.013Z</time>
      </trkpt>
      <trkpt lat="42.96594" lon="-0.80656">
        <ele>1537</ele>
        <time>2019-04-14T12:02:20.013Z</time>
      </trkpt>
      <trkpt lat="42.96595" lon="-0.80659">
        <ele>1537</ele>
        <time>2019-04-14T12:02:22.013Z</time>
      </trkpt>
      <trkpt lat="42.96596" lon="-0.80661">
        <ele>1537</ele>
        <time>2019-04-14T12:02:24.013Z</time>
      </trkpt>
      <trkpt lat="42.96596" lon="-0.80664">
        <ele>1537</ele>
        <time>2019-04-14T12:02:26.013Z</time>
      </trkpt>
      <trkpt lat="42.96597" lon="-0.80666">
        <ele>1537</ele>
        <time>2019-04-14T12:02:28.013Z</time>
      </trkpt>
      <trkpt lat="42.96598" lon="-0.80668">
        <ele>1537</ele>
        <time>2019-04-14T12:02:30.013Z</time>
      </trkpt>
      <trkpt lat="42.96599" lon="-0.8067">
        <ele>1537</ele>
        <time>2019-04-14T12:02:32.013Z</time>
      </trkpt>
      <trkpt lat="42.966" lon="-0.80673">
        <ele>1537</ele>
        <time>2019-04-14T12:02:34.013Z</time>
      </trkpt>
      <trkpt lat="42.96601" lon="-0.80675">
        <ele>1537</ele>
        <time>2019-04-14T12:02:36.013Z</time>
      </trkpt>
      <trkpt lat="42.96602" lon="-0.80677">
        <ele>1537</ele>
        <time>2019-04-14T12:02:38.013Z</time>
      </trkpt>
      <trkpt lat="42.96603" lon="-0.80681">
        <ele>1537</ele>
        <time>2019-04-14T12:02:41.013Z</time>
      </trkpt>
      <trkpt lat="42.96604" lon="-0.80684">
        <ele>1537</ele>
        <time>2019-04-14T12:02:43.013Z</time>
      </trkpt>
      <trkpt lat="42.96604" lon="-0.80686">
        <ele>1537</ele>
        <time>2019-04-14T12:02:45.013Z</time>
      </trkpt>
      <trkpt lat="42.96605" lon="-0.80689">
        <ele>1537</ele>
        <time>2019-04-14T12:02:47.013Z</time>
      </trkpt>
      <trkpt lat="42.96606" lon="-0.80691">
        <ele>1537</ele>
        <time>2019-04-14T12:02:49.013Z</time>
      </trkpt>
      <trkpt lat="42.96608" lon="-0.80694">
        <ele>1537</ele>
        <time>2019-04-14T12:02:51.013Z</time>
      </trkpt>
      <trkpt lat="42.96609" lon="-0.80696">
        <ele>1537</ele>
        <time>2019-04-14T12:02:53.013Z</time>
      </trkpt>
      <trkpt lat="42.9661" lon="-0.80699">
        <ele>1537</ele>
        <time>2019-04-14T12:02:55.013Z</time>
      </trkpt>
      <trkpt lat="42.96611" lon="-0.80702">
        <ele>1537</ele>
        <time>2019-04-14T12:02:57.013Z</time>
      </trkpt>
      <trkpt lat="42.96612" lon="-0.80704">
        <ele>1537</ele>
        <time>2019-04-14T12:02:59.013Z</time>
      </trkpt>
      <trkpt lat="42.96613" lon="-0.80707">
        <ele>1537</ele>
        <time>2019-04-14T12:03:01.013Z</time>
      </trkpt>
      <trkpt lat="42.96613" lon="-0.8071">
        <ele>1537</ele>
        <time>2019-04-14T12:03:03.013Z</time>
      </trkpt>
      <trkpt lat="42.96615" lon="-0.80712">
        <ele>1537</ele>
        <time>2019-04-14T12:03:05.013Z</time>
      </trkpt>
      <trkpt lat="42.96616" lon="-0.80715">
        <ele>1537</ele>
        <time>2019-04-14T12:03:07.013Z</time>
      </trkpt>
      <trkpt lat="42.96617" lon="-0.80717">
        <ele>1536</ele>
        <time>2019-04-14T12:03:09.013Z</time>
      </trkpt>
      <trkpt lat="42.96618" lon="-0.8072">
        <ele>1536</ele>
        <time>2019-04-14T12:03:11.013Z</time>
      </trkpt>
      <trkpt lat="42.96618" lon="-0.80723">
        <ele>1536</ele>
        <time>2019-04-14T12:03:13.013Z</time>
      </trkpt>
      <trkpt lat="42.96619" lon="-0.80725">
        <ele>1536</ele>
        <time>2019-04-14T12:03:15.013Z</time>
      </trkpt>
      <trkpt lat="42.9662" lon="-0.80727">
        <ele>1536</ele>
        <time>2019-04-14T12:03:17.013Z</time>
      </trkpt>
      <trkpt lat="42.96621" lon="-0.80729">
        <ele>1536</ele>
        <time>2019-04-14T12:03:19.013Z</time>
      </trkpt>
      <trkpt lat="42.96622" lon="-0.80732">
        <ele>1536</ele>
        <time>2019-04-14T12:03:21.013Z</time>
      </trkpt>
      <trkpt lat="42.96623" lon="-0.80734">
        <ele>1536.7930085505</ele>
        <time>2019-04-14T12:03:23.013Z</time>
      </trkpt>
      <trkpt lat="42.96625" lon="-0.80736">
        <ele>1537</ele>
        <time>2019-04-14T12:03:26.013Z</time>
      </trkpt>
      <trkpt lat="42.96627" lon="-0.80738">
        <ele>1537</ele>
        <time>2019-04-14T12:03:28.013Z</time>
      </trkpt>
      <trkpt lat="42.96628" lon="-0.8074">
        <ele>1537</ele>
        <time>2019-04-14T12:03:30.013Z</time>
      </trkpt>
      <trkpt lat="42.96629" lon="-0.80742">
        <ele>1537</ele>
        <time>2019-04-14T12:03:32.013Z</time>
      </trkpt>
      <trkpt lat="42.9663" lon="-0.80744">
        <ele>1538</ele>
        <time>2019-04-14T12:03:34.013Z</time>
      </trkpt>
      <trkpt lat="42.96632" lon="-0.80747">
        <ele>1538</ele>
        <time>2019-04-14T12:03:37.013Z</time>
      </trkpt>
      <trkpt lat="42.96633" lon="-0.80749">
        <ele>1538.5960589474</ele>
        <time>2019-04-14T12:03:39.013Z</time>
      </trkpt>
      <trkpt lat="42.96634" lon="-0.80751">
        <ele>1539</ele>
        <time>2019-04-14T12:03:41.013Z</time>
      </trkpt>
      <trkpt lat="42.96635" lon="-0.80754">
        <ele>1539.7505042408</ele>
        <time>2019-04-14T12:03:43.013Z</time>
      </trkpt>
      <trkpt lat="42.96637" lon="-0.80757">
        <ele>1540</ele>
        <time>2019-04-14T12:03:46.013Z</time>
      </trkpt>
      <trkpt lat="42.96638" lon="-0.8076">
        <ele>1539</ele>
        <time>2019-04-14T12:03:50.013Z</time>
      </trkpt>
      <trkpt lat="42.96639" lon="-0.80763">
        <ele>1539</ele>
        <time>2019-04-14T12:03:53.013Z</time>
      </trkpt>
      <trkpt lat="42.9664" lon="-0.80764">
        <ele>1539.7330048</ele>
        <time>2019-04-14T12:03:55.013Z</time>
      </trkpt>
      <trkpt lat="42.96643" lon="-0.80766">
        <ele>1540</ele>
        <time>2019-04-14T12:03:58.013Z</time>
      </trkpt>
      <trkpt lat="42.96645" lon="-0.80767">
        <ele>1540</ele>
        <time>2019-04-14T12:04:01.013Z</time>
      </trkpt>
      <trkpt lat="42.96648" lon="-0.80768">
        <ele>1540</ele>
        <time>2019-04-14T12:04:04.013Z</time>
      </trkpt>
      <trkpt lat="42.9665" lon="-0.80769">
        <ele>1540</ele>
        <time>2019-04-14T12:04:06.013Z</time>
      </trkpt>
      <trkpt lat="42.96652" lon="-0.8077">
        <ele>1540</ele>
        <time>2019-04-14T12:04:08.013Z</time>
      </trkpt>
      <trkpt lat="42.96654" lon="-0.80772">
        <ele>1540</ele>
        <time>2019-04-14T12:04:10.013Z</time>
      </trkpt>
      <trkpt lat="42.96655" lon="-0.80774">
        <ele>1541</ele>
        <time>2019-04-14T12:04:12.013Z</time>
      </trkpt>
      <trkpt lat="42.96657" lon="-0.80776">
        <ele>1541</ele>
        <time>2019-04-14T12:04:14.013Z</time>
      </trkpt>
      <trkpt lat="42.96658" lon="-0.80778">
        <ele>1541</ele>
        <time>2019-04-14T12:04:16.013Z</time>
      </trkpt>
      <trkpt lat="42.96659" lon="-0.80781">
        <ele>1541</ele>
        <time>2019-04-14T12:04:18.013Z</time>
      </trkpt>
      <trkpt lat="42.9666" lon="-0.80783">
        <ele>1541</ele>
        <time>2019-04-14T12:04:20.013Z</time>
      </trkpt>
      <trkpt lat="42.96662" lon="-0.80785">
        <ele>1541</ele>
        <time>2019-04-14T12:04:22.013Z</time>
      </trkpt>
      <trkpt lat="42.96663" lon="-0.80787">
        <ele>1541</ele>
        <time>2019-04-14T12:04:24.013Z</time>
      </trkpt>
      <trkpt lat="42.96664" lon="-0.80789">
        <ele>1540</ele>
        <time>2019-04-14T12:04:26.013Z</time>
      </trkpt>
      <trkpt lat="42.96666" lon="-0.80791">
        <ele>1541.4660096</ele>
        <time>2019-04-14T12:04:28.013Z</time>
      </trkpt>
      <trkpt lat="42.96667" lon="-0.80792">
        <ele>1542</ele>
        <time>2019-04-14T12:04:30.013Z</time>
      </trkpt>
      <trkpt lat="42.96668" lon="-0.80795">
        <ele>1542</ele>
        <time>2019-04-14T12:04:32.013Z</time>
      </trkpt>
      <trkpt lat="42.9667" lon="-0.80797">
        <ele>1542</ele>
        <time>2019-04-14T12:04:34.013Z</time>
      </trkpt>
      <trkpt lat="42.96672" lon="-0.80799">
        <ele>1542</ele>
        <time>2019-04-14T12:04:37.013Z</time>
      </trkpt>
      <trkpt lat="42.96673" lon="-0.80801">
        <ele>1542</ele>
        <time>2019-04-14T12:04:39.013Z</time>
      </trkpt>
      <trkpt lat="42.96674" lon="-0.80803">
        <ele>1542</ele>
        <time>2019-04-14T12:04:41.013Z</time>
      </trkpt>
      <trkpt lat="42.96676" lon="-0.80806">
        <ele>1543</ele>
        <time>2019-04-14T12:04:44.013Z</time>
      </trkpt>
      <trkpt lat="42.96677" lon="-0.80808">
        <ele>1543</ele>
        <time>2019-04-14T12:04:46.013Z</time>
      </trkpt>
      <trkpt lat="42.96678" lon="-0.8081">
        <ele>1543</ele>
        <time>2019-04-14T12:04:48.013Z</time>
      </trkpt>
      <trkpt lat="42.96679" lon="-0.80812">
        <ele>1543</ele>
        <time>2019-04-14T12:04:50.013Z</time>
      </trkpt>
      <trkpt lat="42.96681" lon="-0.80815">
        <ele>1543</ele>
        <time>2019-04-14T12:04:53.013Z</time>
      </trkpt>
      <trkpt lat="42.96683" lon="-0.80817">
        <ele>1543</ele>
        <time>2019-04-14T12:04:56.013Z</time>
      </trkpt>
      <trkpt lat="42.96684" lon="-0.8082">
        <ele>1545</ele>
        <time>2019-04-14T12:04:59.013Z</time>
      </trkpt>
      <trkpt lat="42.96685" lon="-0.80823">
        <ele>1545</ele>
        <time>2019-04-14T12:05:02.013Z</time>
      </trkpt>
      <trkpt lat="42.96687" lon="-0.80824">
        <ele>1545</ele>
        <time>2019-04-14T12:05:05.013Z</time>
      </trkpt>
      <trkpt lat="42.96689" lon="-0.80826">
        <ele>1545</ele>
        <time>2019-04-14T12:05:08.013Z</time>
      </trkpt>
      <trkpt lat="42.9669" lon="-0.80828">
        <ele>1545</ele>
        <time>2019-04-14T12:05:11.013Z</time>
      </trkpt>
      <trkpt lat="42.96692" lon="-0.8083">
        <ele>1546.2026065563</ele>
        <time>2019-04-14T12:05:14.013Z</time>
      </trkpt>
      <trkpt lat="42.96694" lon="-0.80832">
        <ele>1547</ele>
        <time>2019-04-14T12:05:17.013Z</time>
      </trkpt>
      <trkpt lat="42.96695" lon="-0.80834">
        <ele>1547</ele>
        <time>2019-04-14T12:05:20.013Z</time>
      </trkpt>
      <trkpt lat="42.96697" lon="-0.80836">
        <ele>1547</ele>
        <time>2019-04-14T12:05:23.013Z</time>
      </trkpt>
      <trkpt lat="42.96698" lon="-0.80838">
        <ele>1547</ele>
        <time>2019-04-14T12:05:26.013Z</time>
      </trkpt>
      <trkpt lat="42.967" lon="-0.8084">
        <ele>1548</ele>
        <time>2019-04-14T12:05:29.013Z</time>
      </trkpt>
      <trkpt lat="42.96702" lon="-0.80843">
        <ele>1548.5926263993</ele>
        <time>2019-04-14T12:05:32.013Z</time>
      </trkpt>
      <trkpt lat="42.96703" lon="-0.80845">
        <ele>1549</ele>
        <time>2019-04-14T12:05:35.013Z</time>
      </trkpt>
      <trkpt lat="42.96704" lon="-0.80847">
        <ele>1549</ele>
        <time>2019-04-14T12:05:38.013Z</time>
      </trkpt>
      <trkpt lat="42.96706" lon="-0.80849">
        <ele>1549</ele>
        <time>2019-04-14T12:05:41.013Z</time>
      </trkpt>
      <trkpt lat="42.96708" lon="-0.80852">
        <ele>1549.5168313515</ele>
        <time>2019-04-14T12:05:48.013Z</time>
      </trkpt>
      <trkpt lat="42.96709" lon="-0.80853">
        <ele>1550.4407707531</ele>
        <time>2019-04-14T12:05:51.013Z</time>
      </trkpt>
      <trkpt lat="42.96712" lon="-0.80855">
        <ele>1551</ele>
        <time>2019-04-14T12:06:12.013Z</time>
      </trkpt>
      <trkpt lat="42.96714" lon="-0.80857">
        <ele>1551</ele>
        <time>2019-04-14T12:06:15.013Z</time>
      </trkpt>
      <trkpt lat="42.96716" lon="-0.80858">
        <ele>1551</ele>
        <time>2019-04-14T12:06:18.013Z</time>
      </trkpt>
      <trkpt lat="42.96718" lon="-0.80857">
        <ele>1552</ele>
        <time>2019-04-14T12:06:40.013Z</time>
      </trkpt>
      <trkpt lat="42.9672" lon="-0.80858">
        <ele>1552</ele>
        <time>2019-04-14T12:06:44.013Z</time>
      </trkpt>
      <trkpt lat="42.96722" lon="-0.80859">
        <ele>1552</ele>
        <time>2019-04-14T12:06:48.013Z</time>
      </trkpt>
      <trkpt lat="42.96723" lon="-0.8086">
        <ele>1552</ele>
        <time>2019-04-14T12:06:52.013Z</time>
      </trkpt>
      <trkpt lat="42.96726" lon="-0.8086">
        <ele>1552</ele>
        <time>2019-04-14T12:06:56.013Z</time>
      </trkpt>
      <trkpt lat="42.96727" lon="-0.80861">
        <ele>1552</ele>
        <time>2019-04-14T12:07:02.013Z</time>
      </trkpt>
      <trkpt lat="42.96729" lon="-0.80862">
        <ele>1553</ele>
        <time>2019-04-14T12:07:57.013Z</time>
      </trkpt>
      <trkpt lat="42.96731" lon="-0.80863">
        <ele>1553</ele>
        <time>2019-04-14T12:08:00.013Z</time>
      </trkpt>
      <trkpt lat="42.9674" lon="-0.80866">
        <ele>1554</ele>
        <time>2019-04-14T12:08:56.001Z</time>
      </trkpt>
      <trkpt lat="42.96749" lon="-0.80873">
        <ele>1555</ele>
        <time>2019-04-14T12:09:08.014Z</time>
      </trkpt>
      <trkpt lat="42.96756" lon="-0.80881">
        <ele>1557</ele>
        <time>2019-04-14T12:09:23.046Z</time>
      </trkpt>
      <trkpt lat="42.96765" lon="-0.80884">
        <ele>1559</ele>
        <time>2019-04-14T12:09:34.004Z</time>
      </trkpt>
      <trkpt lat="42.96772" lon="-0.80892">
        <ele>1561</ele>
        <time>2019-04-14T12:09:54.002Z</time>
      </trkpt>
      <trkpt lat="42.96781" lon="-0.80896">
        <ele>1562</ele>
        <time>2019-04-14T12:10:11.002Z</time>
      </trkpt>
      <trkpt lat="42.9679" lon="-0.809">
        <ele>1564</ele>
        <time>2019-04-14T12:10:28.017Z</time>
      </trkpt>
      <trkpt lat="42.96799" lon="-0.80901">
        <ele>1564</ele>
        <time>2019-04-14T12:10:39.029Z</time>
      </trkpt>
      <trkpt lat="42.96809" lon="-0.80903">
        <ele>1565</ele>
        <time>2019-04-14T12:10:58.042Z</time>
      </trkpt>
      <trkpt lat="42.96818" lon="-0.809">
        <ele>1565.7211235104</ele>
        <time>2019-04-14T12:11:19.002Z</time>
      </trkpt>
      <trkpt lat="42.96828" lon="-0.809">
        <ele>1566</ele>
        <time>2019-04-14T12:11:31.002Z</time>
      </trkpt>
      <trkpt lat="42.96837" lon="-0.80902">
        <ele>1566</ele>
        <time>2019-04-14T12:11:41.002Z</time>
      </trkpt>
      <trkpt lat="42.96846" lon="-0.80897">
        <ele>1566</ele>
        <time>2019-04-14T12:13:39.004Z</time>
      </trkpt>
      <trkpt lat="42.96856" lon="-0.80895">
        <ele>1565</ele>
        <time>2019-04-14T12:13:54.004Z</time>
      </trkpt>
      <trkpt lat="42.96875" lon="-0.8089">
        <ele>1564</ele>
        <time>2019-04-14T12:14:19.013Z</time>
      </trkpt>
      <trkpt lat="42.96877" lon="-0.8089">
        <ele>1564</ele>
        <time>2019-04-14T12:14:22.013Z</time>
      </trkpt>
      <trkpt lat="42.9688" lon="-0.80889">
        <ele>1564</ele>
        <time>2019-04-14T12:14:26.013Z</time>
      </trkpt>
      <trkpt lat="42.96882" lon="-0.80888">
        <ele>1563.3383539066</ele>
        <time>2019-04-14T12:14:29.013Z</time>
      </trkpt>
      <trkpt lat="42.96885" lon="-0.80887">
        <ele>1563</ele>
        <time>2019-04-14T12:14:33.013Z</time>
      </trkpt>
      <trkpt lat="42.96887" lon="-0.80887">
        <ele>1563</ele>
        <time>2019-04-14T12:14:36.013Z</time>
      </trkpt>
      <trkpt lat="42.96889" lon="-0.80886">
        <ele>1563</ele>
        <time>2019-04-14T12:14:40.013Z</time>
      </trkpt>
      <trkpt lat="42.96891" lon="-0.80885">
        <ele>1562</ele>
        <time>2019-04-14T12:14:43.013Z</time>
      </trkpt>
      <trkpt lat="42.96894" lon="-0.80885">
        <ele>1563</ele>
        <time>2019-04-14T12:14:46.013Z</time>
      </trkpt>
      <trkpt lat="42.96896" lon="-0.80884">
        <ele>1563</ele>
        <time>2019-04-14T12:14:49.013Z</time>
      </trkpt>
      <trkpt lat="42.96899" lon="-0.80884">
        <ele>1563</ele>
        <time>2019-04-14T12:14:52.013Z</time>
      </trkpt>
      <trkpt lat="42.96901" lon="-0.80883">
        <ele>1563</ele>
        <time>2019-04-14T12:14:55.013Z</time>
      </trkpt>
      <trkpt lat="42.96903" lon="-0.80883">
        <ele>1563</ele>
        <time>2019-04-14T12:14:58.013Z</time>
      </trkpt>
      <trkpt lat="42.96905" lon="-0.80882">
        <ele>1562</ele>
        <time>2019-04-14T12:15:01.013Z</time>
      </trkpt>
      <trkpt lat="42.96908" lon="-0.80881">
        <ele>1562</ele>
        <time>2019-04-14T12:15:04.013Z</time>
      </trkpt>
      <trkpt lat="42.96909" lon="-0.80881">
        <ele>1562</ele>
        <time>2019-04-14T12:15:06.013Z</time>
      </trkpt>
      <trkpt lat="42.96911" lon="-0.80881">
        <ele>1562</ele>
        <time>2019-04-14T12:15:08.013Z</time>
      </trkpt>
      <trkpt lat="42.96913" lon="-0.8088">
        <ele>1562</ele>
        <time>2019-04-14T12:15:10.013Z</time>
      </trkpt>
      <trkpt lat="42.96916" lon="-0.8088">
        <ele>1562</ele>
        <time>2019-04-14T12:15:13.013Z</time>
      </trkpt>
      <trkpt lat="42.96918" lon="-0.80879">
        <ele>1562</ele>
        <time>2019-04-14T12:15:16.013Z</time>
      </trkpt>
      <trkpt lat="42.96921" lon="-0.80879">
        <ele>1562</ele>
        <time>2019-04-14T12:15:19.013Z</time>
      </trkpt>
      <trkpt lat="42.96923" lon="-0.80878">
        <ele>1562</ele>
        <time>2019-04-14T12:15:22.013Z</time>
      </trkpt>
      <trkpt lat="42.96926" lon="-0.80878">
        <ele>1561</ele>
        <time>2019-04-14T12:15:25.013Z</time>
      </trkpt>
      <trkpt lat="42.96928" lon="-0.80878">
        <ele>1561.5330461689</ele>
        <time>2019-04-14T12:15:27.013Z</time>
      </trkpt>
      <trkpt lat="42.9693" lon="-0.80877">
        <ele>1562</ele>
        <time>2019-04-14T12:15:30.013Z</time>
      </trkpt>
      <trkpt lat="42.96933" lon="-0.80877">
        <ele>1562</ele>
        <time>2019-04-14T12:15:33.013Z</time>
      </trkpt>
      <trkpt lat="42.96935" lon="-0.80877">
        <ele>1561</ele>
        <time>2019-04-14T12:15:36.013Z</time>
      </trkpt>
      <trkpt lat="42.96937" lon="-0.80876">
        <ele>1561</ele>
        <time>2019-04-14T12:15:39.013Z</time>
      </trkpt>
      <trkpt lat="42.9694" lon="-0.80876">
        <ele>1561</ele>
        <time>2019-04-14T12:15:42.013Z</time>
      </trkpt>
      <trkpt lat="42.96942" lon="-0.80876">
        <ele>1561</ele>
        <time>2019-04-14T12:15:45.013Z</time>
      </trkpt>
      <trkpt lat="42.96945" lon="-0.80875">
        <ele>1561</ele>
        <time>2019-04-14T12:15:48.013Z</time>
      </trkpt>
      <trkpt lat="42.96947" lon="-0.80874">
        <ele>1561</ele>
        <time>2019-04-14T12:15:51.013Z</time>
      </trkpt>
      <trkpt lat="42.9695" lon="-0.80874">
        <ele>1561</ele>
        <time>2019-04-14T12:15:54.013Z</time>
      </trkpt>
      <trkpt lat="42.96952" lon="-0.80874">
        <ele>1561</ele>
        <time>2019-04-14T12:15:56.013Z</time>
      </trkpt>
      <trkpt lat="42.96954" lon="-0.80874">
        <ele>1561</ele>
        <time>2019-04-14T12:15:59.013Z</time>
      </trkpt>
      <trkpt lat="42.96957" lon="-0.80874">
        <ele>1561</ele>
        <time>2019-04-14T12:16:02.013Z</time>
      </trkpt>
      <trkpt lat="42.9696" lon="-0.80874">
        <ele>1561</ele>
        <time>2019-04-14T12:16:05.013Z</time>
      </trkpt>
      <trkpt lat="42.96962" lon="-0.80874">
        <ele>1561</ele>
        <time>2019-04-14T12:16:07.013Z</time>
      </trkpt>
      <trkpt lat="42.96965" lon="-0.80875">
        <ele>1561</ele>
        <time>2019-04-14T12:16:10.013Z</time>
      </trkpt>
      <trkpt lat="42.96966" lon="-0.80875">
        <ele>1560</ele>
        <time>2019-04-14T12:16:12.013Z</time>
      </trkpt>
      <trkpt lat="42.96968" lon="-0.80875">
        <ele>1560</ele>
        <time>2019-04-14T12:16:14.013Z</time>
      </trkpt>
      <trkpt lat="42.9697" lon="-0.80875">
        <ele>1560</ele>
        <time>2019-04-14T12:16:16.013Z</time>
      </trkpt>
      <trkpt lat="42.96972" lon="-0.80875">
        <ele>1560</ele>
        <time>2019-04-14T12:16:18.013Z</time>
      </trkpt>
      <trkpt lat="42.96975" lon="-0.80875">
        <ele>1559</ele>
        <time>2019-04-14T12:16:21.013Z</time>
      </trkpt>
      <trkpt lat="42.96977" lon="-0.80875">
        <ele>1559</ele>
        <time>2019-04-14T12:16:24.013Z</time>
      </trkpt>
      <trkpt lat="42.96979" lon="-0.80876">
        <ele>1558.236992</ele>
        <time>2019-04-14T12:16:27.013Z</time>
      </trkpt>
      <trkpt lat="42.96981" lon="-0.80876">
        <ele>1558</ele>
        <time>2019-04-14T12:16:30.013Z</time>
      </trkpt>
      <trkpt lat="42.97001" lon="-0.80879">
        <ele>1557</ele>
        <time>2019-04-14T12:16:52.013Z</time>
      </trkpt>
      <trkpt lat="42.97004" lon="-0.80879">
        <ele>1557</ele>
        <time>2019-04-14T12:16:55.013Z</time>
      </trkpt>
      <trkpt lat="42.97005" lon="-0.8088">
        <ele>1556</ele>
        <time>2019-04-14T12:16:57.013Z</time>
      </trkpt>
      <trkpt lat="42.97008" lon="-0.80881">
        <ele>1556</ele>
        <time>2019-04-14T12:17:00.013Z</time>
      </trkpt>
      <trkpt lat="42.97009" lon="-0.80882">
        <ele>1556</ele>
        <time>2019-04-14T12:17:02.013Z</time>
      </trkpt>
      <trkpt lat="42.97012" lon="-0.80881">
        <ele>1556</ele>
        <time>2019-04-14T12:17:19.013Z</time>
      </trkpt>
      <trkpt lat="42.97014" lon="-0.80882">
        <ele>1556</ele>
        <time>2019-04-14T12:17:42.013Z</time>
      </trkpt>
      <trkpt lat="42.97015" lon="-0.8088">
        <ele>1556</ele>
        <time>2019-04-14T12:17:45.013Z</time>
      </trkpt>
      <trkpt lat="42.97017" lon="-0.80878">
        <ele>1556</ele>
        <time>2019-04-14T12:17:48.013Z</time>
      </trkpt>
      <trkpt lat="42.97017" lon="-0.8088">
        <ele>1556</ele>
        <time>2019-04-14T12:18:34.013Z</time>
      </trkpt>
      <trkpt lat="42.97019" lon="-0.80883">
        <ele>1556</ele>
        <time>2019-04-14T12:18:37.013Z</time>
      </trkpt>
      <trkpt lat="42.97022" lon="-0.80882">
        <ele>1556</ele>
        <time>2019-04-14T12:18:40.013Z</time>
      </trkpt>
      <trkpt lat="42.97024" lon="-0.80882">
        <ele>1556</ele>
        <time>2019-04-14T12:18:42.013Z</time>
      </trkpt>
      <trkpt lat="42.97027" lon="-0.8088">
        <ele>1555</ele>
        <time>2019-04-14T12:18:44.013Z</time>
      </trkpt>
      <trkpt lat="42.97029" lon="-0.80879">
        <ele>1555</ele>
        <time>2019-04-14T12:18:46.013Z</time>
      </trkpt>
      <trkpt lat="42.97031" lon="-0.80878">
        <ele>1555</ele>
        <time>2019-04-14T12:18:48.013Z</time>
      </trkpt>
      <trkpt lat="42.97033" lon="-0.80877">
        <ele>1555</ele>
        <time>2019-04-14T12:18:50.013Z</time>
      </trkpt>
      <trkpt lat="42.97035" lon="-0.80876">
        <ele>1555</ele>
        <time>2019-04-14T12:18:52.013Z</time>
      </trkpt>
      <trkpt lat="42.97038" lon="-0.80874">
        <ele>1554</ele>
        <time>2019-04-14T12:18:54.013Z</time>
      </trkpt>
      <trkpt lat="42.9704" lon="-0.80873">
        <ele>1554</ele>
        <time>2019-04-14T12:18:56.013Z</time>
      </trkpt>
      <trkpt lat="42.97042" lon="-0.80872">
        <ele>1554</ele>
        <time>2019-04-14T12:18:58.013Z</time>
      </trkpt>
      <trkpt lat="42.97044" lon="-0.80871">
        <ele>1554</ele>
        <time>2019-04-14T12:19:00.013Z</time>
      </trkpt>
      <trkpt lat="42.97046" lon="-0.80869">
        <ele>1553</ele>
        <time>2019-04-14T12:19:02.013Z</time>
      </trkpt>
      <trkpt lat="42.97047" lon="-0.80868">
        <ele>1553</ele>
        <time>2019-04-14T12:19:04.013Z</time>
      </trkpt>
      <trkpt lat="42.9705" lon="-0.80867">
        <ele>1554</ele>
        <time>2019-04-14T12:19:07.013Z</time>
      </trkpt>
      <trkpt lat="42.97052" lon="-0.80866">
        <ele>1554</ele>
        <time>2019-04-14T12:19:10.013Z</time>
      </trkpt>
      <trkpt lat="42.97054" lon="-0.80864">
        <ele>1553</ele>
        <time>2019-04-14T12:19:13.013Z</time>
      </trkpt>
      <trkpt lat="42.97056" lon="-0.80862">
        <ele>1553</ele>
        <time>2019-04-14T12:19:15.013Z</time>
      </trkpt>
      <trkpt lat="42.97057" lon="-0.80861">
        <ele>1553</ele>
        <time>2019-04-14T12:19:17.013Z</time>
      </trkpt>
      <trkpt lat="42.97059" lon="-0.8086">
        <ele>1553</ele>
        <time>2019-04-14T12:19:19.013Z</time>
      </trkpt>
      <trkpt lat="42.97061" lon="-0.80858">
        <ele>1553</ele>
        <time>2019-04-14T12:19:21.013Z</time>
      </trkpt>
      <trkpt lat="42.97063" lon="-0.80857">
        <ele>1553</ele>
        <time>2019-04-14T12:19:23.013Z</time>
      </trkpt>
      <trkpt lat="42.97064" lon="-0.80855">
        <ele>1553</ele>
        <time>2019-04-14T12:19:26.013Z</time>
      </trkpt>
      <trkpt lat="42.97067" lon="-0.80853">
        <ele>1553</ele>
        <time>2019-04-14T12:19:29.013Z</time>
      </trkpt>
      <trkpt lat="42.97069" lon="-0.80851">
        <ele>1553</ele>
        <time>2019-04-14T12:19:32.013Z</time>
      </trkpt>
      <trkpt lat="42.97071" lon="-0.80848">
        <ele>1554</ele>
        <time>2019-04-14T12:19:35.013Z</time>
      </trkpt>
      <trkpt lat="42.97072" lon="-0.80845">
        <ele>1554</ele>
        <time>2019-04-14T12:19:38.013Z</time>
      </trkpt>
      <trkpt lat="42.97073" lon="-0.80843">
        <ele>1554</ele>
        <time>2019-04-14T12:19:41.013Z</time>
      </trkpt>
      <trkpt lat="42.97075" lon="-0.8084">
        <ele>1554</ele>
        <time>2019-04-14T12:19:44.013Z</time>
      </trkpt>
      <trkpt lat="42.97076" lon="-0.80837">
        <ele>1554</ele>
        <time>2019-04-14T12:19:47.013Z</time>
      </trkpt>
      <trkpt lat="42.97078" lon="-0.80835">
        <ele>1554</ele>
        <time>2019-04-14T12:19:49.013Z</time>
      </trkpt>
      <trkpt lat="42.97079" lon="-0.80833">
        <ele>1554</ele>
        <time>2019-04-14T12:19:51.013Z</time>
      </trkpt>
      <trkpt lat="42.97081" lon="-0.80831">
        <ele>1554</ele>
        <time>2019-04-14T12:19:54.013Z</time>
      </trkpt>
      <trkpt lat="42.97082" lon="-0.80829">
        <ele>1554.6633042498</ele>
        <time>2019-04-14T12:19:56.013Z</time>
      </trkpt>
      <trkpt lat="42.97083" lon="-0.80827">
        <ele>1554.3091737517</ele>
        <time>2019-04-14T12:19:58.013Z</time>
      </trkpt>
      <trkpt lat="42.97084" lon="-0.80824">
        <ele>1555</ele>
        <time>2019-04-14T12:20:01.013Z</time>
      </trkpt>
      <trkpt lat="42.97086" lon="-0.80822">
        <ele>1555</ele>
        <time>2019-04-14T12:20:04.013Z</time>
      </trkpt>
      <trkpt lat="42.97087" lon="-0.80819">
        <ele>1555</ele>
        <time>2019-04-14T12:20:06.013Z</time>
      </trkpt>
      <trkpt lat="42.97088" lon="-0.80816">
        <ele>1555</ele>
        <time>2019-04-14T12:20:09.013Z</time>
      </trkpt>
      <trkpt lat="42.97089" lon="-0.80814">
        <ele>1555</ele>
        <time>2019-04-14T12:20:12.013Z</time>
      </trkpt>
      <trkpt lat="42.97092" lon="-0.80813">
        <ele>1555</ele>
        <time>2019-04-14T12:20:41.013Z</time>
      </trkpt>
      <trkpt lat="42.97093" lon="-0.80811">
        <ele>1556</ele>
        <time>2019-04-14T12:20:52.013Z</time>
      </trkpt>
      <trkpt lat="42.97095" lon="-0.8081">
        <ele>1556</ele>
        <time>2019-04-14T12:20:54.013Z</time>
      </trkpt>
      <trkpt lat="42.97097" lon="-0.80808">
        <ele>1556</ele>
        <time>2019-04-14T12:20:56.013Z</time>
      </trkpt>
      <trkpt lat="42.97098" lon="-0.80807">
        <ele>1556</ele>
        <time>2019-04-14T12:20:58.013Z</time>
      </trkpt>
      <trkpt lat="42.971" lon="-0.80805">
        <ele>1556</ele>
        <time>2019-04-14T12:21:00.013Z</time>
      </trkpt>
      <trkpt lat="42.97101" lon="-0.80803">
        <ele>1555</ele>
        <time>2019-04-14T12:21:02.013Z</time>
      </trkpt>
      <trkpt lat="42.97103" lon="-0.80801">
        <ele>1556</ele>
        <time>2019-04-14T12:21:09.013Z</time>
      </trkpt>
      <trkpt lat="42.97105" lon="-0.808">
        <ele>1556</ele>
        <time>2019-04-14T12:21:11.013Z</time>
      </trkpt>
      <trkpt lat="42.97106" lon="-0.80799">
        <ele>1556</ele>
        <time>2019-04-14T12:21:13.013Z</time>
      </trkpt>
      <trkpt lat="42.97108" lon="-0.80797">
        <ele>1556</ele>
        <time>2019-04-14T12:21:15.013Z</time>
      </trkpt>
      <trkpt lat="42.9711" lon="-0.80796">
        <ele>1555</ele>
        <time>2019-04-14T12:21:17.013Z</time>
      </trkpt>
      <trkpt lat="42.97112" lon="-0.80794">
        <ele>1555</ele>
        <time>2019-04-14T12:21:19.013Z</time>
      </trkpt>
      <trkpt lat="42.97113" lon="-0.80792">
        <ele>1556</ele>
        <time>2019-04-14T12:21:21.013Z</time>
      </trkpt>
      <trkpt lat="42.97115" lon="-0.8079">
        <ele>1556</ele>
        <time>2019-04-14T12:21:23.013Z</time>
      </trkpt>
      <trkpt lat="42.97117" lon="-0.80788">
        <ele>1556</ele>
        <time>2019-04-14T12:21:25.013Z</time>
      </trkpt>
      <trkpt lat="42.97118" lon="-0.80786">
        <ele>1556</ele>
        <time>2019-04-14T12:21:27.013Z</time>
      </trkpt>
      <trkpt lat="42.9712" lon="-0.80784">
        <ele>1556</ele>
        <time>2019-04-14T12:21:29.013Z</time>
      </trkpt>
      <trkpt lat="42.97122" lon="-0.80781">
        <ele>1555.2494443976</ele>
        <time>2019-04-14T12:21:31.013Z</time>
      </trkpt>
      <trkpt lat="42.97123" lon="-0.80779">
        <ele>1555</ele>
        <time>2019-04-14T12:21:33.013Z</time>
      </trkpt>
      <trkpt lat="42.97125" lon="-0.80777">
        <ele>1555</ele>
        <time>2019-04-14T12:21:35.013Z</time>
      </trkpt>
      <trkpt lat="42.97126" lon="-0.80775">
        <ele>1554.4211676991</ele>
        <time>2019-04-14T12:21:37.013Z</time>
      </trkpt>
      <trkpt lat="42.97128" lon="-0.80773">
        <ele>1554</ele>
        <time>2019-04-14T12:21:39.013Z</time>
      </trkpt>
      <trkpt lat="42.97129" lon="-0.80771">
        <ele>1554</ele>
        <time>2019-04-14T12:21:41.013Z</time>
      </trkpt>
      <trkpt lat="42.97131" lon="-0.80768">
        <ele>1554</ele>
        <time>2019-04-14T12:21:43.013Z</time>
      </trkpt>
      <trkpt lat="42.97132" lon="-0.80766">
        <ele>1554</ele>
        <time>2019-04-14T12:21:45.013Z</time>
      </trkpt>
      <trkpt lat="42.97134" lon="-0.80764">
        <ele>1554</ele>
        <time>2019-04-14T12:21:47.013Z</time>
      </trkpt>
      <trkpt lat="42.97135" lon="-0.80762">
        <ele>1554</ele>
        <time>2019-04-14T12:21:49.013Z</time>
      </trkpt>
      <trkpt lat="42.97137" lon="-0.80761">
        <ele>1554</ele>
        <time>2019-04-14T12:21:51.013Z</time>
      </trkpt>
      <trkpt lat="42.97138" lon="-0.80758">
        <ele>1554</ele>
        <time>2019-04-14T12:21:53.013Z</time>
      </trkpt>
      <trkpt lat="42.9714" lon="-0.80756">
        <ele>1554</ele>
        <time>2019-04-14T12:21:55.013Z</time>
      </trkpt>
      <trkpt lat="42.97141" lon="-0.80754">
        <ele>1554</ele>
        <time>2019-04-14T12:21:57.013Z</time>
      </trkpt>
      <trkpt lat="42.97143" lon="-0.80752">
        <ele>1554</ele>
        <time>2019-04-14T12:21:59.013Z</time>
      </trkpt>
      <trkpt lat="42.97144" lon="-0.8075">
        <ele>1554</ele>
        <time>2019-04-14T12:22:01.013Z</time>
      </trkpt>
      <trkpt lat="42.97146" lon="-0.80749">
        <ele>1554</ele>
        <time>2019-04-14T12:22:03.013Z</time>
      </trkpt>
      <trkpt lat="42.97147" lon="-0.80747">
        <ele>1553</ele>
        <time>2019-04-14T12:22:43.013Z</time>
      </trkpt>
      <trkpt lat="42.97149" lon="-0.80744">
        <ele>1553</ele>
        <time>2019-04-14T12:22:46.013Z</time>
      </trkpt>
      <trkpt lat="42.97151" lon="-0.80742">
        <ele>1553</ele>
        <time>2019-04-14T12:22:48.013Z</time>
      </trkpt>
      <trkpt lat="42.97153" lon="-0.8074">
        <ele>1553</ele>
        <time>2019-04-14T12:22:51.013Z</time>
      </trkpt>
      <trkpt lat="42.97154" lon="-0.80738">
        <ele>1553</ele>
        <time>2019-04-14T12:22:54.013Z</time>
      </trkpt>
      <trkpt lat="42.97156" lon="-0.80736">
        <ele>1553</ele>
        <time>2019-04-14T12:22:56.013Z</time>
      </trkpt>
      <trkpt lat="42.97158" lon="-0.80734">
        <ele>1553</ele>
        <time>2019-04-14T12:22:59.013Z</time>
      </trkpt>
      <trkpt lat="42.9716" lon="-0.80731">
        <ele>1552.2472177778</ele>
        <time>2019-04-14T12:23:02.013Z</time>
      </trkpt>
      <trkpt lat="42.97161" lon="-0.80729">
        <ele>1552</ele>
        <time>2019-04-14T12:23:04.013Z</time>
      </trkpt>
      <trkpt lat="42.97168" lon="-0.80721">
        <ele>1552</ele>
        <time>2019-04-14T12:23:36.014Z</time>
      </trkpt>
      <trkpt lat="42.97176" lon="-0.80712">
        <ele>1552</ele>
        <time>2019-04-14T12:23:47.999Z</time>
      </trkpt>
      <trkpt lat="42.97183" lon="-0.80705">
        <ele>1551</ele>
        <time>2019-04-14T12:24:01.014Z</time>
      </trkpt>
      <trkpt lat="42.9719" lon="-0.80696">
        <ele>1550</ele>
        <time>2019-04-14T12:24:17.003Z</time>
      </trkpt>
      <trkpt lat="42.97196" lon="-0.80686">
        <ele>1549.1940536841</ele>
        <time>2019-04-14T12:24:26.014Z</time>
      </trkpt>
      <trkpt lat="42.97202" lon="-0.80676">
        <ele>1548</ele>
        <time>2019-04-14T12:24:47.003Z</time>
      </trkpt>
      <trkpt lat="42.97209" lon="-0.80669">
        <ele>1548</ele>
        <time>2019-04-14T12:25:01.013Z</time>
      </trkpt>
      <trkpt lat="42.97217" lon="-0.8066">
        <ele>1547</ele>
        <time>2019-04-14T12:25:10.004Z</time>
      </trkpt>
      <trkpt lat="42.97224" lon="-0.80652">
        <ele>1546</ele>
        <time>2019-04-14T12:25:20.004Z</time>
      </trkpt>
      <trkpt lat="42.97229" lon="-0.80641">
        <ele>1545</ele>
        <time>2019-04-14T12:25:34.999Z</time>
      </trkpt>
      <trkpt lat="42.97235" lon="-0.80631">
        <ele>1543</ele>
        <time>2019-04-14T12:25:44.999Z</time>
      </trkpt>
      <trkpt lat="42.97242" lon="-0.80623">
        <ele>1542</ele>
        <time>2019-04-14T12:25:56.014Z</time>
      </trkpt>
      <trkpt lat="42.97249" lon="-0.80615">
        <ele>1541</ele>
        <time>2019-04-14T12:26:07.004Z</time>
      </trkpt>
      <trkpt lat="42.97253" lon="-0.80603">
        <ele>1540</ele>
        <time>2019-04-14T12:26:19.003Z</time>
      </trkpt>
      <trkpt lat="42.97257" lon="-0.80592">
        <ele>1539</ele>
        <time>2019-04-14T12:26:28.999Z</time>
      </trkpt>
      <trkpt lat="42.97263" lon="-0.80582">
        <ele>1537</ele>
        <time>2019-04-14T12:26:43.002Z</time>
      </trkpt>
      <trkpt lat="42.9727" lon="-0.80573">
        <ele>1536</ele>
        <time>2019-04-14T12:26:53.003Z</time>
      </trkpt>
      <trkpt lat="42.97277" lon="-0.80566">
        <ele>1534</ele>
        <time>2019-04-14T12:27:04.003Z</time>
      </trkpt>
      <trkpt lat="42.97283" lon="-0.80557">
        <ele>1533</ele>
        <time>2019-04-14T12:27:16.014Z</time>
      </trkpt>
      <trkpt lat="42.97289" lon="-0.80545">
        <ele>1531.1950422021</ele>
        <time>2019-04-14T12:27:31.013Z</time>
      </trkpt>
      <trkpt lat="42.97295" lon="-0.80536">
        <ele>1531</ele>
        <time>2019-04-14T12:27:41.008Z</time>
      </trkpt>
      <trkpt lat="42.97303" lon="-0.80529">
        <ele>1530</ele>
        <time>2019-04-14T12:27:51.014Z</time>
      </trkpt>
      <trkpt lat="42.97309" lon="-0.8052">
        <ele>1528</ele>
        <time>2019-04-14T12:28:02.003Z</time>
      </trkpt>
      <trkpt lat="42.97318" lon="-0.80513">
        <ele>1527</ele>
        <time>2019-04-14T12:28:13.004Z</time>
      </trkpt>
      <trkpt lat="42.97326" lon="-0.80506">
        <ele>1526</ele>
        <time>2019-04-14T12:28:25.004Z</time>
      </trkpt>
      <trkpt lat="42.97334" lon="-0.80498">
        <ele>1523</ele>
        <time>2019-04-14T12:28:36.013Z</time>
      </trkpt>
      <trkpt lat="42.97342" lon="-0.80492">
        <ele>1521</ele>
        <time>2019-04-14T12:28:47.003Z</time>
      </trkpt>
      <trkpt lat="42.9735" lon="-0.80485">
        <ele>1518</ele>
        <time>2019-04-14T12:28:56.999Z</time>
      </trkpt>
      <trkpt lat="42.97357" lon="-0.80476">
        <ele>1516</ele>
        <time>2019-04-14T12:29:08.999Z</time>
      </trkpt>
      <trkpt lat="42.97363" lon="-0.80466">
        <ele>1516</ele>
        <time>2019-04-14T12:29:18.004Z</time>
      </trkpt>
      <trkpt lat="42.97368" lon="-0.80455">
        <ele>1514</ele>
        <time>2019-04-14T12:29:29.004Z</time>
      </trkpt>
      <trkpt lat="42.97375" lon="-0.80446">
        <ele>1512</ele>
        <time>2019-04-14T12:29:48.004Z</time>
      </trkpt>
      <trkpt lat="42.97382" lon="-0.80437">
        <ele>1511</ele>
        <time>2019-04-14T12:33:27.999Z</time>
      </trkpt>
      <trkpt lat="42.9739" lon="-0.80429">
        <ele>1509.1830016</ele>
        <time>2019-04-14T12:33:41.017Z</time>
      </trkpt>
      <trkpt lat="42.97396" lon="-0.8042">
        <ele>1506.2342772854</ele>
        <time>2019-04-14T12:33:55.004Z</time>
      </trkpt>
      <trkpt lat="42.97403" lon="-0.80411">
        <ele>1504</ele>
        <time>2019-04-14T12:34:07.004Z</time>
      </trkpt>
      <trkpt lat="42.9741" lon="-0.80402">
        <ele>1501</ele>
        <time>2019-04-14T12:34:19.003Z</time>
      </trkpt>
      <trkpt lat="42.97416" lon="-0.80393">
        <ele>1499</ele>
        <time>2019-04-14T12:34:28.999Z</time>
      </trkpt>
      <trkpt lat="42.97423" lon="-0.80384">
        <ele>1497.7824148311</ele>
        <time>2019-04-14T12:34:39.002Z</time>
      </trkpt>
      <trkpt lat="42.97429" lon="-0.80374">
        <ele>1495.2564859259</ele>
        <time>2019-04-14T12:34:50.003Z</time>
      </trkpt>
      <trkpt lat="42.97436" lon="-0.80366">
        <ele>1494</ele>
        <time>2019-04-14T12:35:03.003Z</time>
      </trkpt>
      <trkpt lat="42.97444" lon="-0.80359">
        <ele>1491.2009984</ele>
        <time>2019-04-14T12:35:12.999Z</time>
      </trkpt>
      <trkpt lat="42.97451" lon="-0.8035">
        <ele>1491</ele>
        <time>2019-04-14T12:35:22.999Z</time>
      </trkpt>
      <trkpt lat="42.97459" lon="-0.80343">
        <ele>1488</ele>
        <time>2019-04-14T12:35:34.003Z</time>
      </trkpt>
      <trkpt lat="42.97467" lon="-0.80337">
        <ele>1487</ele>
        <time>2019-04-14T12:35:43.003Z</time>
      </trkpt>
      <trkpt lat="42.97475" lon="-0.80329">
        <ele>1484</ele>
        <time>2019-04-14T12:35:55.003Z</time>
      </trkpt>
      <trkpt lat="42.97482" lon="-0.80323">
        <ele>1482</ele>
        <time>2019-04-14T12:36:07.003Z</time>
      </trkpt>
      <trkpt lat="42.9749" lon="-0.80315">
        <ele>1480</ele>
        <time>2019-04-14T12:36:22.003Z</time>
      </trkpt>
      <trkpt lat="42.97499" lon="-0.80309">
        <ele>1477</ele>
        <time>2019-04-14T12:36:32.003Z</time>
      </trkpt>
      <trkpt lat="42.97508" lon="-0.80306">
        <ele>1474</ele>
        <time>2019-04-14T12:36:43.003Z</time>
      </trkpt>
      <trkpt lat="42.97515" lon="-0.80299">
        <ele>1472</ele>
        <time>2019-04-14T12:36:56.014Z</time>
      </trkpt>
      <trkpt lat="42.97524" lon="-0.80294">
        <ele>1468</ele>
        <time>2019-04-14T12:37:30.003Z</time>
      </trkpt>
      <trkpt lat="42.97532" lon="-0.80287">
        <ele>1464.1970048</ele>
        <time>2019-04-14T12:37:43.003Z</time>
      </trkpt>
      <trkpt lat="42.97539" lon="-0.80278">
        <ele>1462</ele>
        <time>2019-04-14T12:37:56.999Z</time>
      </trkpt>
      <trkpt lat="42.97546" lon="-0.8027">
        <ele>1459</ele>
        <time>2019-04-14T12:38:22.003Z</time>
      </trkpt>
      <trkpt lat="42.97554" lon="-0.80263">
        <ele>1458</ele>
        <time>2019-04-14T12:38:40.004Z</time>
      </trkpt>
      <trkpt lat="42.97561" lon="-0.80256">
        <ele>1454</ele>
        <time>2019-04-14T12:38:52.004Z</time>
      </trkpt>
      <trkpt lat="42.9757" lon="-0.8025">
        <ele>1453.2756835296</ele>
        <time>2019-04-14T12:39:10.004Z</time>
      </trkpt>
      <trkpt lat="42.97578" lon="-0.80244">
        <ele>1449</ele>
        <time>2019-04-14T12:39:24.004Z</time>
      </trkpt>
      <trkpt lat="42.97586" lon="-0.80238">
        <ele>1445.2</ele>
        <time>2019-04-14T12:40:17.000Z</time>
      </trkpt>
      <trkpt lat="42.97593" lon="-0.80231">
        <ele>1444</ele>
        <time>2019-04-14T12:40:25.004Z</time>
      </trkpt>
      <trkpt lat="42.97601" lon="-0.80226">
        <ele>1442</ele>
        <time>2019-04-14T12:40:34.004Z</time>
      </trkpt>
      <trkpt lat="42.97609" lon="-0.80219">
        <ele>1440</ele>
        <time>2019-04-14T12:40:43.004Z</time>
      </trkpt>
      <trkpt lat="42.97615" lon="-0.80209">
        <ele>1438</ele>
        <time>2019-04-14T12:40:52.002Z</time>
      </trkpt>
      <trkpt lat="42.97618" lon="-0.80196">
        <ele>1436</ele>
        <time>2019-04-14T12:40:59.999Z</time>
      </trkpt>
      <trkpt lat="42.97625" lon="-0.80205">
        <ele>1435</ele>
        <time>2019-04-14T12:42:12.003Z</time>
      </trkpt>
      <trkpt lat="42.97629" lon="-0.80217">
        <ele>1433.1970048</ele>
        <time>2019-04-14T12:42:22.003Z</time>
      </trkpt>
      <trkpt lat="42.97631" lon="-0.8023">
        <ele>1431</ele>
        <time>2019-04-14T12:42:43.002Z</time>
      </trkpt>
      <trkpt lat="42.97631" lon="-0.80244">
        <ele>1429</ele>
        <time>2019-04-14T12:42:52.002Z</time>
      </trkpt>
      <trkpt lat="42.97631" lon="-0.80256">
        <ele>1427</ele>
        <time>2019-04-14T12:43:01.012Z</time>
      </trkpt>
      <trkpt lat="42.9763" lon="-0.80269">
        <ele>1426</ele>
        <time>2019-04-14T12:43:09.002Z</time>
      </trkpt>
      <trkpt lat="42.97628" lon="-0.80282">
        <ele>1424</ele>
        <time>2019-04-14T12:43:20.002Z</time>
      </trkpt>
      <trkpt lat="42.97626" lon="-0.80294">
        <ele>1422</ele>
        <time>2019-04-14T12:43:30.002Z</time>
      </trkpt>
      <trkpt lat="42.97624" lon="-0.80307">
        <ele>1420</ele>
        <time>2019-04-14T12:43:39.003Z</time>
      </trkpt>
      <trkpt lat="42.97633" lon="-0.80303">
        <ele>1417</ele>
        <time>2019-04-14T12:43:54.004Z</time>
      </trkpt>
      <trkpt lat="42.9764" lon="-0.80295">
        <ele>1414</ele>
        <time>2019-04-14T12:44:17.004Z</time>
      </trkpt>
      <trkpt lat="42.97647" lon="-0.80288">
        <ele>1412</ele>
        <time>2019-04-14T12:44:27.000Z</time>
      </trkpt>
      <trkpt lat="42.97656" lon="-0.80282">
        <ele>1411</ele>
        <time>2019-04-14T12:44:41.999Z</time>
      </trkpt>
      <trkpt lat="42.97665" lon="-0.80282">
        <ele>1407</ele>
        <time>2019-04-14T12:44:58.004Z</time>
      </trkpt>
      <trkpt lat="42.97673" lon="-0.80275">
        <ele>1404</ele>
        <time>2019-04-14T12:45:23.000Z</time>
      </trkpt>
      <trkpt lat="42.97681" lon="-0.8027">
        <ele>1401</ele>
        <time>2019-04-14T12:45:31.015Z</time>
      </trkpt>
      <trkpt lat="42.97689" lon="-0.80263">
        <ele>1399</ele>
        <time>2019-04-14T12:45:39.999Z</time>
      </trkpt>
      <trkpt lat="42.97697" lon="-0.80255">
        <ele>1397.2224763055</ele>
        <time>2019-04-14T12:45:50.002Z</time>
      </trkpt>
      <trkpt lat="42.97706" lon="-0.80249">
        <ele>1396</ele>
        <time>2019-04-14T12:45:59.004Z</time>
      </trkpt>
      <trkpt lat="42.97713" lon="-0.80242">
        <ele>1393</ele>
        <time>2019-04-14T12:46:12.004Z</time>
      </trkpt>
      <trkpt lat="42.97721" lon="-0.80235">
        <ele>1391</ele>
        <time>2019-04-14T12:46:22.003Z</time>
      </trkpt>
      <trkpt lat="42.97728" lon="-0.80226">
        <ele>1389</ele>
        <time>2019-04-14T12:46:31.012Z</time>
      </trkpt>
      <trkpt lat="42.97733" lon="-0.80215">
        <ele>1387</ele>
        <time>2019-04-14T12:46:51.014Z</time>
      </trkpt>
      <trkpt lat="42.97736" lon="-0.80202">
        <ele>1385</ele>
        <time>2019-04-14T12:47:01.012Z</time>
      </trkpt>
      <trkpt lat="42.97739" lon="-0.80189">
        <ele>1383</ele>
        <time>2019-04-14T12:47:09.001Z</time>
      </trkpt>
      <trkpt lat="42.97741" lon="-0.80177">
        <ele>1381</ele>
        <time>2019-04-14T12:47:19.002Z</time>
      </trkpt>
      <trkpt lat="42.9774" lon="-0.80164">
        <ele>1380</ele>
        <time>2019-04-14T12:47:34.001Z</time>
      </trkpt>
      <trkpt lat="42.97734" lon="-0.80154">
        <ele>1380</ele>
        <time>2019-04-14T12:47:46.014Z</time>
      </trkpt>
      <trkpt lat="42.97726" lon="-0.80147">
        <ele>1379</ele>
        <time>2019-04-14T12:47:56.016Z</time>
      </trkpt>
      <trkpt lat="42.97718" lon="-0.8014">
        <ele>1378</ele>
        <time>2019-04-14T12:48:04.001Z</time>
      </trkpt>
      <trkpt lat="42.97712" lon="-0.80131">
        <ele>1378</ele>
        <time>2019-04-14T12:48:12.001Z</time>
      </trkpt>
      <trkpt lat="42.97707" lon="-0.8012">
        <ele>1378</ele>
        <time>2019-04-14T12:48:21.012Z</time>
      </trkpt>
      <trkpt lat="42.97709" lon="-0.80107">
        <ele>1375</ele>
        <time>2019-04-14T12:48:31.014Z</time>
      </trkpt>
      <trkpt lat="42.97714" lon="-0.80097">
        <ele>1372</ele>
        <time>2019-04-14T12:48:41.999Z</time>
      </trkpt>
      <trkpt lat="42.97719" lon="-0.80086">
        <ele>1369</ele>
        <time>2019-04-14T12:48:51.999Z</time>
      </trkpt>
      <trkpt lat="42.97723" lon="-0.80074">
        <ele>1367</ele>
        <time>2019-04-14T12:49:01.014Z</time>
      </trkpt>
      <trkpt lat="42.97726" lon="-0.80062">
        <ele>1365</ele>
        <time>2019-04-14T12:49:07.999Z</time>
      </trkpt>
      <trkpt lat="42.97727" lon="-0.80049">
        <ele>1364</ele>
        <time>2019-04-14T12:49:17.003Z</time>
      </trkpt>
      <trkpt lat="42.97737" lon="-0.80052">
        <ele>1361</ele>
        <time>2019-04-14T12:49:31.012Z</time>
      </trkpt>
      <trkpt lat="42.97741" lon="-0.80063">
        <ele>1359.19688</ele>
        <time>2019-04-14T12:49:41.011Z</time>
      </trkpt>
      <trkpt lat="42.97748" lon="-0.80072">
        <ele>1358</ele>
        <time>2019-04-14T12:49:50.001Z</time>
      </trkpt>
      <trkpt lat="42.97756" lon="-0.80081">
        <ele>1356</ele>
        <time>2019-04-14T12:49:59.001Z</time>
      </trkpt>
      <trkpt lat="42.97763" lon="-0.80091">
        <ele>1353.1990016</ele>
        <time>2019-04-14T12:50:08.001Z</time>
      </trkpt>
      <trkpt lat="42.97769" lon="-0.801">
        <ele>1352</ele>
        <time>2019-04-14T12:50:18.001Z</time>
      </trkpt>
      <trkpt lat="42.97775" lon="-0.80109">
        <ele>1350</ele>
        <time>2019-04-14T12:50:33.999Z</time>
      </trkpt>
      <trkpt lat="42.97784" lon="-0.80114">
        <ele>1348</ele>
        <time>2019-04-14T12:50:50.000Z</time>
      </trkpt>
      <trkpt lat="42.97793" lon="-0.80114">
        <ele>1346</ele>
        <time>2019-04-14T12:50:59.999Z</time>
      </trkpt>
      <trkpt lat="42.97802" lon="-0.80112">
        <ele>1344</ele>
        <time>2019-04-14T12:51:10.000Z</time>
      </trkpt>
      <trkpt lat="42.97811" lon="-0.80111">
        <ele>1341.2061862472</ele>
        <time>2019-04-14T12:51:22.000Z</time>
      </trkpt>
      <trkpt lat="42.9782" lon="-0.80109">
        <ele>1339</ele>
        <time>2019-04-14T12:51:57.000Z</time>
      </trkpt>
      <trkpt lat="42.97829" lon="-0.80109">
        <ele>1336</ele>
        <time>2019-04-14T12:52:10.000Z</time>
      </trkpt>
      <trkpt lat="42.97838" lon="-0.80106">
        <ele>1334</ele>
        <time>2019-04-14T12:52:26.999Z</time>
      </trkpt>
      <trkpt lat="42.97839" lon="-0.80093">
        <ele>1331</ele>
        <time>2019-04-14T12:52:40.002Z</time>
      </trkpt>
      <trkpt lat="42.97847" lon="-0.80086">
        <ele>1329</ele>
        <time>2019-04-14T12:53:24.000Z</time>
      </trkpt>
      <trkpt lat="42.97856" lon="-0.80085">
        <ele>1328</ele>
        <time>2019-04-14T12:53:35.000Z</time>
      </trkpt>
      <trkpt lat="42.97864" lon="-0.80091">
        <ele>1325.2380929161</ele>
        <time>2019-04-14T12:53:47.000Z</time>
      </trkpt>
      <trkpt lat="42.97872" lon="-0.80098">
        <ele>1323</ele>
        <time>2019-04-14T12:53:56.999Z</time>
      </trkpt>
      <trkpt lat="42.9788" lon="-0.80107">
        <ele>1321</ele>
        <time>2019-04-14T12:54:07.001Z</time>
      </trkpt>
      <trkpt lat="42.97885" lon="-0.80118">
        <ele>1318</ele>
        <time>2019-04-14T12:54:19.001Z</time>
      </trkpt>
      <trkpt lat="42.97892" lon="-0.80127">
        <ele>1314</ele>
        <time>2019-04-14T12:54:32.000Z</time>
      </trkpt>
      <trkpt lat="42.97896" lon="-0.80138">
        <ele>1313</ele>
        <time>2019-04-14T12:54:40.002Z</time>
      </trkpt>
      <trkpt lat="42.97901" lon="-0.80151">
        <ele>1312</ele>
        <time>2019-04-14T12:54:49.002Z</time>
      </trkpt>
      <trkpt lat="42.97906" lon="-0.8016">
        <ele>1311.5685708016</ele>
        <time>2019-04-14T12:54:57.001Z</time>
      </trkpt>
      <trkpt lat="42.97911" lon="-0.80172">
        <ele>1310</ele>
        <time>2019-04-14T12:55:04.001Z</time>
      </trkpt>
      <trkpt lat="42.97919" lon="-0.80181">
        <ele>1309</ele>
        <time>2019-04-14T12:55:10.000Z</time>
      </trkpt>
      <trkpt lat="42.9792" lon="-0.80195">
        <ele>1308</ele>
        <time>2019-04-14T12:55:20.000Z</time>
      </trkpt>
      <trkpt lat="42.97924" lon="-0.80207">
        <ele>1307</ele>
        <time>2019-04-14T12:55:30.001Z</time>
      </trkpt>
      <trkpt lat="42.97929" lon="-0.80217">
        <ele>1306</ele>
        <time>2019-04-14T12:55:40.000Z</time>
      </trkpt>
      <trkpt lat="42.97933" lon="-0.80228">
        <ele>1304</ele>
        <time>2019-04-14T12:55:50.000Z</time>
      </trkpt>
      <trkpt lat="42.97938" lon="-0.80238">
        <ele>1303</ele>
        <time>2019-04-14T12:55:59.000Z</time>
      </trkpt>
      <trkpt lat="42.97939" lon="-0.80251">
        <ele>1302</ele>
        <time>2019-04-14T12:56:08.000Z</time>
      </trkpt>
      <trkpt lat="42.97944" lon="-0.80262">
        <ele>1301</ele>
        <time>2019-04-14T12:56:15.000Z</time>
      </trkpt>
      <trkpt lat="42.97948" lon="-0.80274">
        <ele>1300</ele>
        <time>2019-04-14T12:56:23.000Z</time>
      </trkpt>
      <trkpt lat="42.97949" lon="-0.80286">
        <ele>1299</ele>
        <time>2019-04-14T12:56:34.999Z</time>
      </trkpt>
      <trkpt lat="42.97957" lon="-0.80294">
        <ele>1297</ele>
        <time>2019-04-14T12:56:48.000Z</time>
      </trkpt>
      <trkpt lat="42.97964" lon="-0.80303">
        <ele>1295</ele>
        <time>2019-04-14T12:56:56.015Z</time>
      </trkpt>
      <trkpt lat="42.97972" lon="-0.80312">
        <ele>1294</ele>
        <time>2019-04-14T12:57:02.000Z</time>
      </trkpt>
      <trkpt lat="42.97979" lon="-0.80321">
        <ele>1292.5867748487</ele>
        <time>2019-04-14T12:57:09.000Z</time>
      </trkpt>
      <trkpt lat="42.97985" lon="-0.80331">
        <ele>1290</ele>
        <time>2019-04-14T12:57:19.000Z</time>
      </trkpt>
      <trkpt lat="42.97993" lon="-0.80337">
        <ele>1288.1990016</ele>
        <time>2019-04-14T12:57:27.001Z</time>
      </trkpt>
      <trkpt lat="42.97999" lon="-0.80346">
        <ele>1286.2061862472</ele>
        <time>2019-04-14T12:57:39.000Z</time>
      </trkpt>
      <trkpt lat="42.97997" lon="-0.80358">
        <ele>1284</ele>
        <time>2019-04-14T12:57:48.002Z</time>
      </trkpt>
      <trkpt lat="42.97995" lon="-0.80371">
        <ele>1281</ele>
        <time>2019-04-14T12:58:02.002Z</time>
      </trkpt>
      <trkpt lat="42.97994" lon="-0.80384">
        <ele>1278</ele>
        <time>2019-04-14T12:58:14.000Z</time>
      </trkpt>
      <trkpt lat="42.97998" lon="-0.80396">
        <ele>1274.484998208</ele>
        <time>2019-04-14T12:58:26.015Z</time>
      </trkpt>
      <trkpt lat="42.98007" lon="-0.804">
        <ele>1273</ele>
        <time>2019-04-14T12:58:35.002Z</time>
      </trkpt>
      <trkpt lat="42.98016" lon="-0.80398">
        <ele>1272</ele>
        <time>2019-04-14T12:58:44.012Z</time>
      </trkpt>
      <trkpt lat="42.98024" lon="-0.80404">
        <ele>1269.2102254546</ele>
        <time>2019-04-14T12:58:54.015Z</time>
      </trkpt>
      <trkpt lat="42.9802" lon="-0.80417">
        <ele>1265</ele>
        <time>2019-04-14T12:59:18.002Z</time>
      </trkpt>
      <trkpt lat="42.98026" lon="-0.80428">
        <ele>1263</ele>
        <time>2019-04-14T12:59:32.013Z</time>
      </trkpt>
      <trkpt lat="42.98033" lon="-0.80438">
        <ele>1256</ele>
        <time>2019-04-14T13:00:19.002Z</time>
      </trkpt>
      <trkpt lat="42.98042" lon="-0.80443">
        <ele>1252</ele>
        <time>2019-04-14T13:00:33.002Z</time>
      </trkpt>
      <trkpt lat="42.98036" lon="-0.80452">
        <ele>1249</ele>
        <time>2019-04-14T13:00:46.002Z</time>
      </trkpt>
      <trkpt lat="42.9803" lon="-0.80463">
        <ele>1248</ele>
        <time>2019-04-14T13:00:52.013Z</time>
      </trkpt>
      <trkpt lat="42.98025" lon="-0.80475">
        <ele>1245.2288492308</ele>
        <time>2019-04-14T13:01:04.002Z</time>
      </trkpt>
      <trkpt lat="42.9802" lon="-0.80485">
        <ele>1243</ele>
        <time>2019-04-14T13:01:15.000Z</time>
      </trkpt>
      <trkpt lat="42.98014" lon="-0.80495">
        <ele>1241</ele>
        <time>2019-04-14T13:01:30.014Z</time>
      </trkpt>
      <trkpt lat="42.9802" lon="-0.80504">
        <ele>1237</ele>
        <time>2019-04-14T13:01:52.002Z</time>
      </trkpt>
      <trkpt lat="42.98021" lon="-0.80516">
        <ele>1232</ele>
        <time>2019-04-14T13:02:08.012Z</time>
      </trkpt>
      <trkpt lat="42.98018" lon="-0.80528">
        <ele>1229.2106774037</ele>
        <time>2019-04-14T13:02:20.013Z</time>
      </trkpt>
      <trkpt lat="42.98015" lon="-0.80542">
        <ele>1225</ele>
        <time>2019-04-14T13:02:38.015Z</time>
      </trkpt>
      <trkpt lat="42.98025" lon="-0.80545">
        <ele>1223.2671384424</ele>
        <time>2019-04-14T13:02:52.013Z</time>
      </trkpt>
      <trkpt lat="42.98035" lon="-0.80539">
        <ele>1220</ele>
        <time>2019-04-14T13:03:04.002Z</time>
      </trkpt>
      <trkpt lat="42.98043" lon="-0.80546">
        <ele>1216</ele>
        <time>2019-04-14T13:03:25.012Z</time>
      </trkpt>
      <trkpt lat="42.98051" lon="-0.80537">
        <ele>1213</ele>
        <time>2019-04-14T13:03:43.013Z</time>
      </trkpt>
      <trkpt lat="42.9806" lon="-0.80543">
        <ele>1208</ele>
        <time>2019-04-14T13:04:05.000Z</time>
      </trkpt>
      <trkpt lat="42.9807" lon="-0.80538">
        <ele>1206</ele>
        <time>2019-04-14T13:04:15.013Z</time>
      </trkpt>
      <trkpt lat="42.9808" lon="-0.80538">
        <ele>1205</ele>
        <time>2019-04-14T13:04:21.000Z</time>
      </trkpt>
      <trkpt lat="42.98089" lon="-0.80534">
        <ele>1204</ele>
        <time>2019-04-14T13:04:29.000Z</time>
      </trkpt>
      <trkpt lat="42.98098" lon="-0.80531">
        <ele>1203</ele>
        <time>2019-04-14T13:04:36.001Z</time>
      </trkpt>
      <trkpt lat="42.98107" lon="-0.80528">
        <ele>1202</ele>
        <time>2019-04-14T13:04:48.015Z</time>
      </trkpt>
      <trkpt lat="42.98113" lon="-0.80516">
        <ele>1201</ele>
        <time>2019-04-14T13:04:52.013Z</time>
      </trkpt>
      <trkpt lat="42.98122" lon="-0.8051">
        <ele>1199.2257073545</ele>
        <time>2019-04-14T13:05:01.013Z</time>
      </trkpt>
      <trkpt lat="42.98128" lon="-0.805">
        <ele>1198</ele>
        <time>2019-04-14T13:05:09.013Z</time>
      </trkpt>
      <trkpt lat="42.98133" lon="-0.80488">
        <ele>1197</ele>
        <time>2019-04-14T13:05:16.013Z</time>
      </trkpt>
      <trkpt lat="42.98142" lon="-0.80484">
        <ele>1196</ele>
        <time>2019-04-14T13:05:25.015Z</time>
      </trkpt>
      <trkpt lat="42.98145" lon="-0.80496">
        <ele>1194</ele>
        <time>2019-04-14T13:05:48.000Z</time>
      </trkpt>
      <trkpt lat="42.98136" lon="-0.80497">
        <ele>1194</ele>
        <time>2019-04-14T13:06:03.000Z</time>
      </trkpt>
      <trkpt lat="42.98145" lon="-0.805">
        <ele>1194</ele>
        <time>2019-04-14T13:06:59.000Z</time>
      </trkpt>
      <trkpt lat="42.98136" lon="-0.80494">
        <ele>1194</ele>
        <time>2019-04-14T13:07:16.004Z</time>
      </trkpt>
      <trkpt lat="42.98146" lon="-0.80496">
        <ele>1194</ele>
        <time>2019-04-14T13:07:55.012Z</time>
      </trkpt>
      <trkpt lat="42.98135" lon="-0.805">
        <ele>1194</ele>
        <time>2019-04-14T13:08:01.013Z</time>
      </trkpt>
      <trkpt lat="42.98126" lon="-0.80469">
        <ele>1195</ele>
        <time>2019-04-14T13:08:23.013Z</time>
      </trkpt>
      <trkpt lat="42.98121" lon="-0.80479">
        <ele>1195</ele>
        <time>2019-04-14T13:08:36.032Z</time>
      </trkpt>
      <trkpt lat="42.9812" lon="-0.80465">
        <ele>1195</ele>
        <time>2019-04-14T13:09:42.002Z</time>
      </trkpt>
      <trkpt lat="42.98129" lon="-0.80467">
        <ele>1196</ele>
        <time>2019-04-14T13:09:55.013Z</time>
      </trkpt>
      <trkpt lat="42.98139" lon="-0.80471">
        <ele>1196</ele>
        <time>2019-04-14T13:10:03.999Z</time>
      </trkpt>
      <trkpt lat="42.98144" lon="-0.80461">
        <ele>1194</ele>
        <time>2019-04-14T13:10:40.001Z</time>
      </trkpt>
      <trkpt lat="42.98145" lon="-0.80448">
        <ele>1193</ele>
        <time>2019-04-14T13:10:48.001Z</time>
      </trkpt>
      <trkpt lat="42.9815" lon="-0.80438">
        <ele>1190</ele>
        <time>2019-04-14T13:11:00.001Z</time>
      </trkpt>
      <trkpt lat="42.98156" lon="-0.80428">
        <ele>1189</ele>
        <time>2019-04-14T13:11:06.015Z</time>
      </trkpt>
      <trkpt lat="42.98163" lon="-0.80418">
        <ele>1189</ele>
        <time>2019-04-14T13:11:13.001Z</time>
      </trkpt>
      <trkpt lat="42.98168" lon="-0.80407">
        <ele>1187</ele>
        <time>2019-04-14T13:11:23.001Z</time>
      </trkpt>
      <trkpt lat="42.98178" lon="-0.80402">
        <ele>1185</ele>
        <time>2019-04-14T13:11:30.001Z</time>
      </trkpt>
      <trkpt lat="42.98181" lon="-0.80391">
        <ele>1184</ele>
        <time>2019-04-14T13:11:41.016Z</time>
      </trkpt>
      <trkpt lat="42.98188" lon="-0.80382">
        <ele>1183</ele>
        <time>2019-04-14T13:11:52.001Z</time>
      </trkpt>
      <trkpt lat="42.98194" lon="-0.80371">
        <ele>1181</ele>
        <time>2019-04-14T13:12:01.011Z</time>
      </trkpt>
      <trkpt lat="42.98201" lon="-0.80362">
        <ele>1180</ele>
        <time>2019-04-14T13:12:09.001Z</time>
      </trkpt>
      <trkpt lat="42.98207" lon="-0.8035">
        <ele>1180</ele>
        <time>2019-04-14T13:12:14.013Z</time>
      </trkpt>
      <trkpt lat="42.98212" lon="-0.8034">
        <ele>1177</ele>
        <time>2019-04-14T13:12:31.001Z</time>
      </trkpt>
      <trkpt lat="42.98218" lon="-0.8033">
        <ele>1177</ele>
        <time>2019-04-14T13:12:57.001Z</time>
      </trkpt>
      <trkpt lat="42.98224" lon="-0.80321">
        <ele>1175</ele>
        <time>2019-04-14T13:13:05.011Z</time>
      </trkpt>
      <trkpt lat="42.98229" lon="-0.80311">
        <ele>1173.227589048</ele>
        <time>2019-04-14T13:13:13.002Z</time>
      </trkpt>
      <trkpt lat="42.98231" lon="-0.80297">
        <ele>1172</ele>
        <time>2019-04-14T13:13:23.002Z</time>
      </trkpt>
      <trkpt lat="42.98238" lon="-0.80288">
        <ele>1170</ele>
        <time>2019-04-14T13:13:34.001Z</time>
      </trkpt>
      <trkpt lat="42.98238" lon="-0.80275">
        <ele>1170</ele>
        <time>2019-04-14T13:13:39.013Z</time>
      </trkpt>
      <trkpt lat="42.98237" lon="-0.80262">
        <ele>1169</ele>
        <time>2019-04-14T13:13:47.001Z</time>
      </trkpt>
      <trkpt lat="42.98239" lon="-0.80249">
        <ele>1166</ele>
        <time>2019-04-14T13:13:56.011Z</time>
      </trkpt>
      <trkpt lat="42.9824" lon="-0.80236">
        <ele>1165</ele>
        <time>2019-04-14T13:14:02.013Z</time>
      </trkpt>
      <trkpt lat="42.98242" lon="-0.80223">
        <ele>1164</ele>
        <time>2019-04-14T13:14:12.013Z</time>
      </trkpt>
      <trkpt lat="42.98247" lon="-0.80211">
        <ele>1163</ele>
        <time>2019-04-14T13:14:23.013Z</time>
      </trkpt>
      <trkpt lat="42.98253" lon="-0.80202">
        <ele>1161</ele>
        <time>2019-04-14T13:14:33.013Z</time>
      </trkpt>
      <trkpt lat="42.98257" lon="-0.8019">
        <ele>1160</ele>
        <time>2019-04-14T13:14:43.013Z</time>
      </trkpt>
      <trkpt lat="42.98261" lon="-0.80178">
        <ele>1159</ele>
        <time>2019-04-14T13:14:52.013Z</time>
      </trkpt>
      <trkpt lat="42.98264" lon="-0.80166">
        <ele>1157</ele>
        <time>2019-04-14T13:15:03.013Z</time>
      </trkpt>
      <trkpt lat="42.98262" lon="-0.80152">
        <ele>1157</ele>
        <time>2019-04-14T13:15:30.002Z</time>
      </trkpt>
      <trkpt lat="42.98268" lon="-0.80143">
        <ele>1156.2059412466</ele>
        <time>2019-04-14T13:16:04.002Z</time>
      </trkpt>
      <trkpt lat="42.98276" lon="-0.80137">
        <ele>1153</ele>
        <time>2019-04-14T13:16:23.002Z</time>
      </trkpt>
      <trkpt lat="42.98282" lon="-0.80149">
        <ele>1152</ele>
        <time>2019-04-14T13:16:30.003Z</time>
      </trkpt>
      <trkpt lat="42.98284" lon="-0.80162">
        <ele>1150</ele>
        <time>2019-04-14T13:16:38.003Z</time>
      </trkpt>
      <trkpt lat="42.98291" lon="-0.80172">
        <ele>1149</ele>
        <time>2019-04-14T13:16:45.003Z</time>
      </trkpt>
      <trkpt lat="42.98293" lon="-0.80184">
        <ele>1146.226441466</ele>
        <time>2019-04-14T13:16:55.003Z</time>
      </trkpt>
      <trkpt lat="42.98294" lon="-0.80198">
        <ele>1147</ele>
        <time>2019-04-14T13:17:06.014Z</time>
      </trkpt>
      <trkpt lat="42.98297" lon="-0.80212">
        <ele>1144</ele>
        <time>2019-04-14T13:17:17.004Z</time>
      </trkpt>
      <trkpt lat="42.983" lon="-0.80224">
        <ele>1143</ele>
        <time>2019-04-14T13:17:27.003Z</time>
      </trkpt>
      <trkpt lat="42.983" lon="-0.80241">
        <ele>1142</ele>
        <time>2019-04-14T13:17:33.013Z</time>
      </trkpt>
      <trkpt lat="42.98301" lon="-0.80253">
        <ele>1141</ele>
        <time>2019-04-14T13:17:43.003Z</time>
      </trkpt>
      <trkpt lat="42.98302" lon="-0.80266">
        <ele>1139</ele>
        <time>2019-04-14T13:17:54.013Z</time>
      </trkpt>
      <trkpt lat="42.98298" lon="-0.80281">
        <ele>1139</ele>
        <time>2019-04-14T13:18:07.013Z</time>
      </trkpt>
      <trkpt lat="42.98299" lon="-0.80294">
        <ele>1137</ele>
        <time>2019-04-14T13:18:15.003Z</time>
      </trkpt>
      <trkpt lat="42.983" lon="-0.80307">
        <ele>1137</ele>
        <time>2019-04-14T13:18:23.003Z</time>
      </trkpt>
      <trkpt lat="42.98299" lon="-0.8032">
        <ele>1134</ele>
        <time>2019-04-14T13:18:35.012Z</time>
      </trkpt>
      <trkpt lat="42.98303" lon="-0.80332">
        <ele>1133</ele>
        <time>2019-04-14T13:18:52.003Z</time>
      </trkpt>
      <trkpt lat="42.98304" lon="-0.80345">
        <ele>1132</ele>
        <time>2019-04-14T13:19:01.002Z</time>
      </trkpt>
      <trkpt lat="42.98307" lon="-0.80358">
        <ele>1131</ele>
        <time>2019-04-14T13:19:09.013Z</time>
      </trkpt>
      <trkpt lat="42.98306" lon="-0.80371">
        <ele>1129</ele>
        <time>2019-04-14T13:19:32.002Z</time>
      </trkpt>
      <trkpt lat="42.98307" lon="-0.80385">
        <ele>1127</ele>
        <time>2019-04-14T13:19:43.003Z</time>
      </trkpt>
      <trkpt lat="42.98305" lon="-0.80397">
        <ele>1126</ele>
        <time>2019-04-14T13:19:53.003Z</time>
      </trkpt>
      <trkpt lat="42.98301" lon="-0.80409">
        <ele>1126</ele>
        <time>2019-04-14T13:20:03.002Z</time>
      </trkpt>
      <trkpt lat="42.98297" lon="-0.8042">
        <ele>1126</ele>
        <time>2019-04-14T13:20:10.003Z</time>
      </trkpt>
      <trkpt lat="42.9829" lon="-0.80432">
        <ele>1126</ele>
        <time>2019-04-14T13:20:18.003Z</time>
      </trkpt>
      <trkpt lat="42.98285" lon="-0.80442">
        <ele>1126</ele>
        <time>2019-04-14T13:20:26.003Z</time>
      </trkpt>
      <trkpt lat="42.9828" lon="-0.80454">
        <ele>1124</ele>
        <time>2019-04-14T13:20:34.012Z</time>
      </trkpt>
      <trkpt lat="42.9829" lon="-0.80452">
        <ele>1122</ele>
        <time>2019-04-14T13:20:46.002Z</time>
      </trkpt>
      <trkpt lat="42.98299" lon="-0.80447">
        <ele>1120</ele>
        <time>2019-04-14T13:20:55.003Z</time>
      </trkpt>
      <trkpt lat="42.98308" lon="-0.80444">
        <ele>1119</ele>
        <time>2019-04-14T13:21:03.002Z</time>
      </trkpt>
      <trkpt lat="42.98317" lon="-0.80438">
        <ele>1117</ele>
        <time>2019-04-14T13:21:15.002Z</time>
      </trkpt>
      <trkpt lat="42.98321" lon="-0.80426">
        <ele>1115</ele>
        <time>2019-04-14T13:21:25.002Z</time>
      </trkpt>
      <trkpt lat="42.98327" lon="-0.80414">
        <ele>1114</ele>
        <time>2019-04-14T13:21:37.002Z</time>
      </trkpt>
      <trkpt lat="42.98334" lon="-0.80407">
        <ele>1112</ele>
        <time>2019-04-14T13:21:44.012Z</time>
      </trkpt>
      <trkpt lat="42.98336" lon="-0.80394">
        <ele>1111</ele>
        <time>2019-04-14T13:21:54.013Z</time>
      </trkpt>
      <trkpt lat="42.98339" lon="-0.80383">
        <ele>1110</ele>
        <time>2019-04-14T13:22:08.013Z</time>
      </trkpt>
      <trkpt lat="42.98343" lon="-0.80371">
        <ele>1109</ele>
        <time>2019-04-14T13:22:16.002Z</time>
      </trkpt>
      <trkpt lat="42.98348" lon="-0.8036">
        <ele>1106.3830824218</ele>
        <time>2019-04-14T13:22:29.002Z</time>
      </trkpt>
      <trkpt lat="42.98351" lon="-0.80349">
        <ele>1105.2685647412</ele>
        <time>2019-04-14T13:22:40.012Z</time>
      </trkpt>
      <trkpt lat="42.98353" lon="-0.80336">
        <ele>1103</ele>
        <time>2019-04-14T13:22:51.002Z</time>
      </trkpt>
      <trkpt lat="42.98361" lon="-0.80326">
        <ele>1102</ele>
        <time>2019-04-14T13:23:01.002Z</time>
      </trkpt>
      <trkpt lat="42.98364" lon="-0.80314">
        <ele>1100</ele>
        <time>2019-04-14T13:23:12.002Z</time>
      </trkpt>
      <trkpt lat="42.98369" lon="-0.80301">
        <ele>1098</ele>
        <time>2019-04-14T13:23:23.003Z</time>
      </trkpt>
      <trkpt lat="42.98374" lon="-0.8029">
        <ele>1098</ele>
        <time>2019-04-14T13:23:32.002Z</time>
      </trkpt>
      <trkpt lat="42.9838" lon="-0.80281">
        <ele>1097</ele>
        <time>2019-04-14T13:23:41.003Z</time>
      </trkpt>
      <trkpt lat="42.98389" lon="-0.80277">
        <ele>1096</ele>
        <time>2019-04-14T13:23:50.012Z</time>
      </trkpt>
      <trkpt lat="42.98395" lon="-0.80267">
        <ele>1093.2700001164</ele>
        <time>2019-04-14T13:24:01.003Z</time>
      </trkpt>
      <trkpt lat="42.98404" lon="-0.80261">
        <ele>1092.2059412466</ele>
        <time>2019-04-14T13:24:09.002Z</time>
      </trkpt>
      <trkpt lat="42.98413" lon="-0.80255">
        <ele>1091</ele>
        <time>2019-04-14T13:24:17.002Z</time>
      </trkpt>
      <trkpt lat="42.98418" lon="-0.80244">
        <ele>1089</ele>
        <time>2019-04-14T13:24:34.003Z</time>
      </trkpt>
      <trkpt lat="42.98427" lon="-0.80239">
        <ele>1087</ele>
        <time>2019-04-14T13:24:45.012Z</time>
      </trkpt>
      <trkpt lat="42.98419" lon="-0.80245">
        <ele>1084</ele>
        <time>2019-04-14T13:24:58.003Z</time>
      </trkpt>
      <trkpt lat="42.9841" lon="-0.8024">
        <ele>1084</ele>
        <time>2019-04-14T13:26:08.004Z</time>
      </trkpt>
      <trkpt lat="42.98417" lon="-0.80248">
        <ele>1084</ele>
        <time>2019-04-14T13:26:30.009Z</time>
      </trkpt>
      <trkpt lat="42.98412" lon="-0.8026">
        <ele>1083</ele>
        <time>2019-04-14T13:26:53.004Z</time>
      </trkpt>
      <trkpt lat="42.9842" lon="-0.80252">
        <ele>1083</ele>
        <time>2019-04-14T13:27:13.003Z</time>
      </trkpt>
      <trkpt lat="42.98422" lon="-0.80265">
        <ele>1083</ele>
        <time>2019-04-14T13:27:33.004Z</time>
      </trkpt>
      <trkpt lat="42.98424" lon="-0.8028">
        <ele>1081.2129073993</ele>
        <time>2019-04-14T13:27:44.002Z</time>
      </trkpt>
      <trkpt lat="42.98424" lon="-0.80293">
        <ele>1079</ele>
        <time>2019-04-14T13:27:53.004Z</time>
      </trkpt>
      <trkpt lat="42.9842" lon="-0.80305">
        <ele>1077.2897129412</ele>
        <time>2019-04-14T13:28:01.003Z</time>
      </trkpt>
      <trkpt lat="42.98423" lon="-0.80317">
        <ele>1077</ele>
        <time>2019-04-14T13:28:06.013Z</time>
      </trkpt>
      <trkpt lat="42.98418" lon="-0.80328">
        <ele>1075</ele>
        <time>2019-04-14T13:28:15.003Z</time>
      </trkpt>
      <trkpt lat="42.98417" lon="-0.8034">
        <ele>1073</ele>
        <time>2019-04-14T13:28:20.004Z</time>
      </trkpt>
      <trkpt lat="42.98422" lon="-0.80351">
        <ele>1072.2149362209</ele>
        <time>2019-04-14T13:28:29.013Z</time>
      </trkpt>
      <trkpt lat="42.98423" lon="-0.80363">
        <ele>1072</ele>
        <time>2019-04-14T13:28:34.013Z</time>
      </trkpt>
      <trkpt lat="42.98423" lon="-0.80376">
        <ele>1070</ele>
        <time>2019-04-14T13:28:42.003Z</time>
      </trkpt>
      <trkpt lat="42.98425" lon="-0.8039">
        <ele>1070</ele>
        <time>2019-04-14T13:28:49.013Z</time>
      </trkpt>
      <trkpt lat="42.98424" lon="-0.80403">
        <ele>1069</ele>
        <time>2019-04-14T13:28:56.003Z</time>
      </trkpt>
      <trkpt lat="42.98422" lon="-0.80416">
        <ele>1068</ele>
        <time>2019-04-14T13:29:03.003Z</time>
      </trkpt>
      <trkpt lat="42.98415" lon="-0.80428">
        <ele>1066</ele>
        <time>2019-04-14T13:29:08.013Z</time>
      </trkpt>
      <trkpt lat="42.9842" lon="-0.80439">
        <ele>1064.2675653548</ele>
        <time>2019-04-14T13:29:17.013Z</time>
      </trkpt>
      <trkpt lat="42.98423" lon="-0.80451">
        <ele>1063</ele>
        <time>2019-04-14T13:29:25.002Z</time>
      </trkpt>
      <trkpt lat="42.98422" lon="-0.80464">
        <ele>1061.2182646154</ele>
        <time>2019-04-14T13:29:34.013Z</time>
      </trkpt>
      <trkpt lat="42.98422" lon="-0.80479">
        <ele>1058</ele>
        <time>2019-04-14T13:29:42.002Z</time>
      </trkpt>
      <trkpt lat="42.98421" lon="-0.80492">
        <ele>1058</ele>
        <time>2019-04-14T13:29:47.002Z</time>
      </trkpt>
      <trkpt lat="42.98422" lon="-0.80505">
        <ele>1057</ele>
        <time>2019-04-14T13:29:53.003Z</time>
      </trkpt>
      <trkpt lat="42.98421" lon="-0.80518">
        <ele>1056.8039936</ele>
        <time>2019-04-14T13:30:02.004Z</time>
      </trkpt>
      <trkpt lat="42.98418" lon="-0.8053">
        <ele>1055</ele>
        <time>2019-04-14T13:30:10.004Z</time>
      </trkpt>
      <trkpt lat="42.98416" lon="-0.80542">
        <ele>1054</ele>
        <time>2019-04-14T13:30:17.002Z</time>
      </trkpt>
      <trkpt lat="42.98424" lon="-0.8055">
        <ele>1051</ele>
        <time>2019-04-14T13:30:26.002Z</time>
      </trkpt>
      <trkpt lat="42.98433" lon="-0.80544">
        <ele>1050</ele>
        <time>2019-04-14T13:30:32.002Z</time>
      </trkpt>
      <trkpt lat="42.98441" lon="-0.80537">
        <ele>1047</ele>
        <time>2019-04-14T13:30:39.012Z</time>
      </trkpt>
      <trkpt lat="42.9845" lon="-0.80541">
        <ele>1044</ele>
        <time>2019-04-14T13:30:56.002Z</time>
      </trkpt>
      <trkpt lat="42.98458" lon="-0.80547">
        <ele>1042</ele>
        <time>2019-04-14T13:31:08.002Z</time>
      </trkpt>
      <trkpt lat="42.98467" lon="-0.80546">
        <ele>1040</ele>
        <time>2019-04-14T13:31:17.012Z</time>
      </trkpt>
      <trkpt lat="42.98475" lon="-0.80553">
        <ele>1036</ele>
        <time>2019-04-14T13:31:31.002Z</time>
      </trkpt>
      <trkpt lat="42.98484" lon="-0.80556">
        <ele>1034</ele>
        <time>2019-04-14T13:31:44.012Z</time>
      </trkpt>
      <trkpt lat="42.98491" lon="-0.80545">
        <ele>1031</ele>
        <time>2019-04-14T13:32:01.003Z</time>
      </trkpt>
      <trkpt lat="42.98499" lon="-0.80537">
        <ele>1029</ele>
        <time>2019-04-14T13:32:09.013Z</time>
      </trkpt>
      <trkpt lat="42.98498" lon="-0.80524">
        <ele>1028.2709162419</ele>
        <time>2019-04-14T13:32:16.002Z</time>
      </trkpt>
      <trkpt lat="42.98502" lon="-0.80512">
        <ele>1026.2828591281</ele>
        <time>2019-04-14T13:32:27.002Z</time>
      </trkpt>
      <trkpt lat="42.98511" lon="-0.80515">
        <ele>1025</ele>
        <time>2019-04-14T13:32:38.013Z</time>
      </trkpt>
      <trkpt lat="42.98514" lon="-0.80528">
        <ele>1023</ele>
        <time>2019-04-14T13:32:51.012Z</time>
      </trkpt>
      <trkpt lat="42.98518" lon="-0.8054">
        <ele>1020.2112439056</ele>
        <time>2019-04-14T13:33:01.012Z</time>
      </trkpt>
      <trkpt lat="42.98523" lon="-0.8055">
        <ele>1018</ele>
        <time>2019-04-14T13:33:10.002Z</time>
      </trkpt>
      <trkpt lat="42.98525" lon="-0.80563">
        <ele>1016</ele>
        <time>2019-04-14T13:33:23.999Z</time>
      </trkpt>
      <trkpt lat="42.98525" lon="-0.80575">
        <ele>1014.2642209592</ele>
        <time>2019-04-14T13:33:33.002Z</time>
      </trkpt>
      <trkpt lat="42.98526" lon="-0.80588">
        <ele>1013</ele>
        <time>2019-04-14T13:33:44.003Z</time>
      </trkpt>
      <trkpt lat="42.98534" lon="-0.80596">
        <ele>1011</ele>
        <time>2019-04-14T13:33:55.002Z</time>
      </trkpt>
      <trkpt lat="42.98539" lon="-0.80607">
        <ele>1008</ele>
        <time>2019-04-14T13:34:08.003Z</time>
      </trkpt>
      <trkpt lat="42.98544" lon="-0.80618">
        <ele>1005</ele>
        <time>2019-04-14T13:34:21.012Z</time>
      </trkpt>
      <trkpt lat="42.98542" lon="-0.8063">
        <ele>1003</ele>
        <time>2019-04-14T13:34:32.002Z</time>
      </trkpt>
      <trkpt lat="42.98536" lon="-0.80641">
        <ele>1001</ele>
        <time>2019-04-14T13:34:43.003Z</time>
      </trkpt>
      <trkpt lat="42.98538" lon="-0.80652">
        <ele>1001</ele>
        <time>2019-04-14T13:34:57.002Z</time>
      </trkpt>
      <trkpt lat="42.98547" lon="-0.80657">
        <ele>997</ele>
        <time>2019-04-14T13:35:15.003Z</time>
      </trkpt>
      <trkpt lat="42.98555" lon="-0.8065">
        <ele>996</ele>
        <time>2019-04-14T13:35:26.013Z</time>
      </trkpt>
      <trkpt lat="42.98566" lon="-0.80652">
        <ele>993</ele>
        <time>2019-04-14T13:35:33.012Z</time>
      </trkpt>
      <trkpt lat="42.98572" lon="-0.80644">
        <ele>992</ele>
        <time>2019-04-14T13:35:45.002Z</time>
      </trkpt>
      <trkpt lat="42.98578" lon="-0.80634">
        <ele>992</ele>
        <time>2019-04-14T13:35:55.003Z</time>
      </trkpt>
      <trkpt lat="42.98572" lon="-0.80625">
        <ele>990</ele>
        <time>2019-04-14T13:36:15.002Z</time>
      </trkpt>
      <trkpt lat="42.98565" lon="-0.80636">
        <ele>990</ele>
        <time>2019-04-14T13:36:26.002Z</time>
      </trkpt>
      <trkpt lat="42.98573" lon="-0.80644">
        <ele>991</ele>
        <time>2019-04-14T13:36:39.013Z</time>
      </trkpt>
      <trkpt lat="42.98569" lon="-0.8066">
        <ele>991</ele>
        <time>2019-04-14T13:36:44.013Z</time>
      </trkpt>
      <trkpt lat="42.9856" lon="-0.80669">
        <ele>991</ele>
        <time>2019-04-14T13:36:47.013Z</time>
      </trkpt>
      <trkpt lat="42.9855" lon="-0.80674">
        <ele>991</ele>
        <time>2019-04-14T13:37:02.002Z</time>
      </trkpt>
      <trkpt lat="42.98558" lon="-0.80685">
        <ele>985.27658298643</ele>
        <time>2019-04-14T13:37:26.003Z</time>
      </trkpt>
      <trkpt lat="42.98572" lon="-0.80687">
        <ele>983</ele>
        <time>2019-04-14T13:37:44.003Z</time>
      </trkpt>
      <trkpt lat="42.98581" lon="-0.80685">
        <ele>980</ele>
        <time>2019-04-14T13:37:52.012Z</time>
      </trkpt>
      <trkpt lat="42.98586" lon="-0.80675">
        <ele>978.31165866667</ele>
        <time>2019-04-14T13:38:01.013Z</time>
      </trkpt>
      <trkpt lat="42.98596" lon="-0.80675">
        <ele>975</ele>
        <time>2019-04-14T13:38:18.013Z</time>
      </trkpt>
      <trkpt lat="42.98606" lon="-0.80671">
        <ele>970</ele>
        <time>2019-04-14T13:38:41.013Z</time>
      </trkpt>
      <trkpt lat="42.98617" lon="-0.8067">
        <ele>969</ele>
        <time>2019-04-14T13:38:43.013Z</time>
      </trkpt>
      <trkpt lat="42.98612" lon="-0.80687">
        <ele>969</ele>
        <time>2019-04-14T13:38:49.013Z</time>
      </trkpt>
      <trkpt lat="42.98608" lon="-0.80698">
        <ele>969</ele>
        <time>2019-04-14T13:38:55.000Z</time>
      </trkpt>
      <trkpt lat="42.98609" lon="-0.80684">
        <ele>968.1869952</ele>
        <time>2019-04-14T13:39:08.013Z</time>
      </trkpt>
      <trkpt lat="42.98617" lon="-0.80692">
        <ele>964</ele>
        <time>2019-04-14T13:39:29.011Z</time>
      </trkpt>
      <trkpt lat="42.98608" lon="-0.80695">
        <ele>961</ele>
        <time>2019-04-14T13:39:46.004Z</time>
      </trkpt>
      <trkpt lat="42.98599" lon="-0.80691">
        <ele>961</ele>
        <time>2019-04-14T13:39:50.000Z</time>
      </trkpt>
      <trkpt lat="42.98591" lon="-0.80687">
        <ele>960.8</ele>
        <time>2019-04-14T13:39:58.000Z</time>
      </trkpt>
      <trkpt lat="42.98601" lon="-0.80692">
        <ele>960.18888342987</ele>
        <time>2019-04-14T13:40:10.013Z</time>
      </trkpt>
      <trkpt lat="42.9861" lon="-0.80699">
        <ele>958.74921722692</ele>
        <time>2019-04-14T13:40:12.013Z</time>
      </trkpt>
      <trkpt lat="42.98618" lon="-0.80704">
        <ele>957</ele>
        <time>2019-04-14T13:40:14.971Z</time>
      </trkpt>
      <trkpt lat="42.98623" lon="-0.80716">
        <ele>953.38526721042</ele>
        <time>2019-04-14T13:40:32.013Z</time>
      </trkpt>
      <trkpt lat="42.98629" lon="-0.80727">
        <ele>951.1910016</ele>
        <time>2019-04-14T13:40:36.009Z</time>
      </trkpt>
      <trkpt lat="42.98622" lon="-0.80734">
        <ele>952</ele>
        <time>2019-04-14T13:40:52.001Z</time>
      </trkpt>
      <trkpt lat="42.98631" lon="-0.80742">
        <ele>947.28429059923</ele>
        <time>2019-04-14T13:41:22.001Z</time>
      </trkpt>
      <trkpt lat="42.9864" lon="-0.80745">
        <ele>944</ele>
        <time>2019-04-14T13:41:39.003Z</time>
      </trkpt>
      <trkpt lat="42.98646" lon="-0.80754">
        <ele>941</ele>
        <time>2019-04-14T13:41:50.001Z</time>
      </trkpt>
      <trkpt lat="42.98655" lon="-0.80756">
        <ele>939</ele>
        <time>2019-04-14T13:41:59.013Z</time>
      </trkpt>
      <trkpt lat="42.98661" lon="-0.80743">
        <ele>935</ele>
        <time>2019-04-14T13:42:14.003Z</time>
      </trkpt>
      <trkpt lat="42.98671" lon="-0.80752">
        <ele>933</ele>
        <time>2019-04-14T13:42:31.013Z</time>
      </trkpt>
      <trkpt lat="42.98679" lon="-0.80742">
        <ele>928</ele>
        <time>2019-04-14T13:42:57.013Z</time>
      </trkpt>
      <trkpt lat="42.98681" lon="-0.80755">
        <ele>925</ele>
        <time>2019-04-14T13:43:31.016Z</time>
      </trkpt>
      <trkpt lat="42.98687" lon="-0.80766">
        <ele>923</ele>
        <time>2019-04-14T13:43:44.001Z</time>
      </trkpt>
      <trkpt lat="42.98687" lon="-0.80779">
        <ele>921</ele>
        <time>2019-04-14T13:43:56.011Z</time>
      </trkpt>
      <trkpt lat="42.98684" lon="-0.80791">
        <ele>920</ele>
        <time>2019-04-14T13:44:04.000Z</time>
      </trkpt>
      <trkpt lat="42.9868" lon="-0.80803">
        <ele>918</ele>
        <time>2019-04-14T13:44:16.016Z</time>
      </trkpt>
      <trkpt lat="42.98677" lon="-0.80815">
        <ele>917</ele>
        <time>2019-04-14T13:44:24.000Z</time>
      </trkpt>
      <trkpt lat="42.98684" lon="-0.80806">
        <ele>916</ele>
        <time>2019-04-14T13:44:36.013Z</time>
      </trkpt>
      <trkpt lat="42.98693" lon="-0.80806">
        <ele>915</ele>
        <time>2019-04-14T13:44:43.001Z</time>
      </trkpt>
      <trkpt lat="42.987" lon="-0.80795">
        <ele>913.21249454546</ele>
        <time>2019-04-14T13:44:54.013Z</time>
      </trkpt>
      <trkpt lat="42.98706" lon="-0.80786">
        <ele>912</ele>
        <time>2019-04-14T13:45:04.013Z</time>
      </trkpt>
      <trkpt lat="42.98709" lon="-0.80774">
        <ele>911</ele>
        <time>2019-04-14T13:45:13.999Z</time>
      </trkpt>
      <trkpt lat="42.98711" lon="-0.80762">
        <ele>908</ele>
        <time>2019-04-14T13:45:27.001Z</time>
      </trkpt>
      <trkpt lat="42.98713" lon="-0.8075">
        <ele>906.39007660439</ele>
        <time>2019-04-14T13:45:35.999Z</time>
      </trkpt>
      <trkpt lat="42.9871" lon="-0.80735">
        <ele>905</ele>
        <time>2019-04-14T13:45:41.013Z</time>
      </trkpt>
      <trkpt lat="42.98715" lon="-0.80723">
        <ele>904</ele>
        <time>2019-04-14T13:45:54.013Z</time>
      </trkpt>
      <trkpt lat="42.98724" lon="-0.80715">
        <ele>904</ele>
        <time>2019-04-14T13:45:58.013Z</time>
      </trkpt>
      <trkpt lat="42.98722" lon="-0.80703">
        <ele>903</ele>
        <time>2019-04-14T13:46:04.999Z</time>
      </trkpt>
      <trkpt lat="42.98728" lon="-0.80691">
        <ele>901</ele>
        <time>2019-04-14T13:46:17.013Z</time>
      </trkpt>
      <trkpt lat="42.98734" lon="-0.80681">
        <ele>899</ele>
        <time>2019-04-14T13:46:25.999Z</time>
      </trkpt>
      <trkpt lat="42.98733" lon="-0.80668">
        <ele>896</ele>
        <time>2019-04-14T13:46:37.999Z</time>
      </trkpt>
      <trkpt lat="42.98733" lon="-0.80655">
        <ele>896</ele>
        <time>2019-04-14T13:46:48.013Z</time>
      </trkpt>
      <trkpt lat="42.98733" lon="-0.80637">
        <ele>895</ele>
        <time>2019-04-14T13:46:56.013Z</time>
      </trkpt>
      <trkpt lat="42.98741" lon="-0.80631">
        <ele>894</ele>
        <time>2019-04-14T13:47:01.999Z</time>
      </trkpt>
      <trkpt lat="42.98748" lon="-0.80618">
        <ele>891</ele>
        <time>2019-04-14T13:47:15.999Z</time>
      </trkpt>
      <trkpt lat="42.98749" lon="-0.80605">
        <ele>890.35407442237</ele>
        <time>2019-04-14T13:47:24.013Z</time>
      </trkpt>
      <trkpt lat="42.98754" lon="-0.80594">
        <ele>889</ele>
        <time>2019-04-14T13:47:31.999Z</time>
      </trkpt>
      <trkpt lat="42.98751" lon="-0.80581">
        <ele>889</ele>
        <time>2019-04-14T13:47:36.999Z</time>
      </trkpt>
      <trkpt lat="42.98761" lon="-0.80579">
        <ele>889</ele>
        <time>2019-04-14T13:48:04.001Z</time>
      </trkpt>
      <trkpt lat="42.98759" lon="-0.80566">
        <ele>887</ele>
        <time>2019-04-14T13:48:37.000Z</time>
      </trkpt>
      <trkpt lat="42.98758" lon="-0.80552">
        <ele>887</ele>
        <time>2019-04-14T13:48:43.013Z</time>
      </trkpt>
      <trkpt lat="42.98759" lon="-0.80539">
        <ele>887</ele>
        <time>2019-04-14T13:48:55.004Z</time>
      </trkpt>
      <trkpt lat="42.98762" lon="-0.80528">
        <ele>885</ele>
        <time>2019-04-14T13:49:05.003Z</time>
      </trkpt>
      <trkpt lat="42.98764" lon="-0.80514">
        <ele>883</ele>
        <time>2019-04-14T13:49:22.000Z</time>
      </trkpt>
      <trkpt lat="42.98764" lon="-0.80499">
        <ele>881.1869952</ele>
        <time>2019-04-14T13:49:30.013Z</time>
      </trkpt>
      <trkpt lat="42.98763" lon="-0.80486">
        <ele>880</ele>
        <time>2019-04-14T13:49:38.013Z</time>
      </trkpt>
      <trkpt lat="42.98758" lon="-0.80474">
        <ele>880</ele>
        <time>2019-04-14T13:49:45.015Z</time>
      </trkpt>
      <trkpt lat="42.98762" lon="-0.80463">
        <ele>878</ele>
        <time>2019-04-14T13:49:53.010Z</time>
      </trkpt>
      <trkpt lat="42.98759" lon="-0.8045">
        <ele>877.2</ele>
        <time>2019-04-14T13:50:01.000Z</time>
      </trkpt>
      <trkpt lat="42.98764" lon="-0.80437">
        <ele>876.28985641673</ele>
        <time>2019-04-14T13:50:09.000Z</time>
      </trkpt>
      <trkpt lat="42.98765" lon="-0.80424">
        <ele>875</ele>
        <time>2019-04-14T13:50:18.015Z</time>
      </trkpt>
      <trkpt lat="42.98763" lon="-0.80408">
        <ele>874</ele>
        <time>2019-04-14T13:50:29.003Z</time>
      </trkpt>
      <trkpt lat="42.98763" lon="-0.80395">
        <ele>872</ele>
        <time>2019-04-14T13:50:41.003Z</time>
      </trkpt>
      <trkpt lat="42.98771" lon="-0.80404">
        <ele>871</ele>
        <time>2019-04-14T13:50:51.000Z</time>
      </trkpt>
      <trkpt lat="42.98773" lon="-0.80418">
        <ele>871</ele>
        <time>2019-04-14T13:51:00.004Z</time>
      </trkpt>
      <trkpt lat="42.98774" lon="-0.80431">
        <ele>869</ele>
        <time>2019-04-14T13:51:08.015Z</time>
      </trkpt>
      <trkpt lat="42.98777" lon="-0.80443">
        <ele>869</ele>
        <time>2019-04-14T13:51:15.001Z</time>
      </trkpt>
      <trkpt lat="42.9878" lon="-0.80455">
        <ele>868</ele>
        <time>2019-04-14T13:51:21.000Z</time>
      </trkpt>
      <trkpt lat="42.98786" lon="-0.80464">
        <ele>867</ele>
        <time>2019-04-14T13:51:29.000Z</time>
      </trkpt>
      <trkpt lat="42.98783" lon="-0.80476">
        <ele>866</ele>
        <time>2019-04-14T13:51:38.000Z</time>
      </trkpt>
      <trkpt lat="42.98785" lon="-0.8049">
        <ele>864.26713844241</ele>
        <time>2019-04-14T13:51:48.013Z</time>
      </trkpt>
      <trkpt lat="42.98789" lon="-0.80502">
        <ele>863</ele>
        <time>2019-04-14T13:51:58.000Z</time>
      </trkpt>
      <trkpt lat="42.98794" lon="-0.80512">
        <ele>862</ele>
        <time>2019-04-14T13:52:07.000Z</time>
      </trkpt>
      <trkpt lat="42.98797" lon="-0.80524">
        <ele>860.22222064199</ele>
        <time>2019-04-14T13:52:14.000Z</time>
      </trkpt>
      <trkpt lat="42.98801" lon="-0.80536">
        <ele>861</ele>
        <time>2019-04-14T13:52:23.000Z</time>
      </trkpt>
      <trkpt lat="42.98803" lon="-0.80548">
        <ele>859.71014358327</ele>
        <time>2019-04-14T13:52:32.000Z</time>
      </trkpt>
      <trkpt lat="42.98805" lon="-0.80562">
        <ele>859</ele>
        <time>2019-04-14T13:52:40.013Z</time>
      </trkpt>
      <trkpt lat="42.98809" lon="-0.80575">
        <ele>859</ele>
        <time>2019-04-14T13:52:44.015Z</time>
      </trkpt>
      <trkpt lat="42.9881" lon="-0.80588">
        <ele>859</ele>
        <time>2019-04-14T13:52:51.000Z</time>
      </trkpt>
      <trkpt lat="42.98808" lon="-0.806">
        <ele>856.20395153727</ele>
        <time>2019-04-14T13:53:03.004Z</time>
      </trkpt>
      <trkpt lat="42.98814" lon="-0.80611">
        <ele>855</ele>
        <time>2019-04-14T13:53:12.000Z</time>
      </trkpt>
      <trkpt lat="42.98817" lon="-0.80625">
        <ele>854</ele>
        <time>2019-04-14T13:53:18.013Z</time>
      </trkpt>
      <trkpt lat="42.98818" lon="-0.80638">
        <ele>854</ele>
        <time>2019-04-14T13:53:25.013Z</time>
      </trkpt>
      <trkpt lat="42.98826" lon="-0.80645">
        <ele>852</ele>
        <time>2019-04-14T13:53:31.013Z</time>
      </trkpt>
      <trkpt lat="42.98826" lon="-0.80658">
        <ele>851</ele>
        <time>2019-04-14T13:53:38.000Z</time>
      </trkpt>
      <trkpt lat="42.98828" lon="-0.80671">
        <ele>850</ele>
        <time>2019-04-14T13:53:50.015Z</time>
      </trkpt>
      <trkpt lat="42.98835" lon="-0.80681">
        <ele>849</ele>
        <time>2019-04-14T13:53:58.013Z</time>
      </trkpt>
      <trkpt lat="42.98836" lon="-0.80694">
        <ele>848</ele>
        <time>2019-04-14T13:54:13.000Z</time>
      </trkpt>
      <trkpt lat="42.98841" lon="-0.80705">
        <ele>847</ele>
        <time>2019-04-14T13:54:22.001Z</time>
      </trkpt>
      <trkpt lat="42.98849" lon="-0.80713">
        <ele>846</ele>
        <time>2019-04-14T13:54:28.000Z</time>
      </trkpt>
      <trkpt lat="42.98854" lon="-0.80726">
        <ele>844</ele>
        <time>2019-04-14T13:54:37.000Z</time>
      </trkpt>
      <trkpt lat="42.98857" lon="-0.80737">
        <ele>843</ele>
        <time>2019-04-14T13:54:45.000Z</time>
      </trkpt>
      <trkpt lat="42.98862" lon="-0.80748">
        <ele>842</ele>
        <time>2019-04-14T13:55:12.000Z</time>
      </trkpt>
      <trkpt lat="42.98871" lon="-0.80757">
        <ele>840</ele>
        <time>2019-04-14T13:55:26.013Z</time>
      </trkpt>
      <trkpt lat="42.98862" lon="-0.80758">
        <ele>840</ele>
        <time>2019-04-14T13:55:45.015Z</time>
      </trkpt>
      <trkpt lat="42.98872" lon="-0.80763">
        <ele>838</ele>
        <time>2019-04-14T13:56:05.013Z</time>
      </trkpt>
      <trkpt lat="42.9888" lon="-0.80772">
        <ele>835</ele>
        <time>2019-04-14T13:56:20.000Z</time>
      </trkpt>
      <trkpt lat="42.98884" lon="-0.80782">
        <ele>834</ele>
        <time>2019-04-14T13:56:28.000Z</time>
      </trkpt>
      <trkpt lat="42.98889" lon="-0.80794">
        <ele>832</ele>
        <time>2019-04-14T13:56:42.000Z</time>
      </trkpt>
      <trkpt lat="42.98895" lon="-0.80804">
        <ele>829</ele>
        <time>2019-04-14T13:56:54.015Z</time>
      </trkpt>
      <trkpt lat="42.98901" lon="-0.80814">
        <ele>827.2</ele>
        <time>2019-04-14T13:57:06.000Z</time>
      </trkpt>
      <trkpt lat="42.98906" lon="-0.80825">
        <ele>825</ele>
        <time>2019-04-14T13:57:20.000Z</time>
      </trkpt>
      <trkpt lat="42.98912" lon="-0.80835">
        <ele>823</ele>
        <time>2019-04-14T13:57:42.000Z</time>
      </trkpt>
      <trkpt lat="42.98917" lon="-0.80845">
        <ele>819</ele>
        <time>2019-04-14T13:57:56.000Z</time>
      </trkpt>
      <trkpt lat="42.98923" lon="-0.80854">
        <ele>818</ele>
        <time>2019-04-14T13:58:07.000Z</time>
      </trkpt>
      <trkpt lat="42.98925" lon="-0.80866">
        <ele>815</ele>
        <time>2019-04-14T13:58:24.015Z</time>
      </trkpt>
      <trkpt lat="42.98932" lon="-0.80875">
        <ele>812</ele>
        <time>2019-04-14T13:58:33.001Z</time>
      </trkpt>
      <trkpt lat="42.98935" lon="-0.80886">
        <ele>811</ele>
        <time>2019-04-14T13:58:48.000Z</time>
      </trkpt>
      <trkpt lat="42.98942" lon="-0.80895">
        <ele>807</ele>
        <time>2019-04-14T13:59:08.012Z</time>
      </trkpt>
      <trkpt lat="42.98949" lon="-0.80903">
        <ele>804</ele>
        <time>2019-04-14T13:59:19.015Z</time>
      </trkpt>
      <trkpt lat="42.98954" lon="-0.80913">
        <ele>800</ele>
        <time>2019-04-14T13:59:36.999Z</time>
      </trkpt>
      <trkpt lat="42.98962" lon="-0.8092">
        <ele>798</ele>
        <time>2019-04-14T14:00:14.013Z</time>
      </trkpt>
      <trkpt lat="42.98953" lon="-0.80917">
        <ele>799</ele>
        <time>2019-04-14T14:00:44.999Z</time>
      </trkpt>
      <trkpt lat="42.98959" lon="-0.80929">
        <ele>796.19277919267</ele>
        <time>2019-04-14T14:01:10.013Z</time>
      </trkpt>
      <trkpt lat="42.98968" lon="-0.80936">
        <ele>794</ele>
        <time>2019-04-14T14:01:24.000Z</time>
      </trkpt>
      <trkpt lat="42.98975" lon="-0.80943">
        <ele>791</ele>
        <time>2019-04-14T14:01:35.999Z</time>
      </trkpt>
      <trkpt lat="42.9898" lon="-0.80954">
        <ele>786</ele>
        <time>2019-04-14T14:01:51.000Z</time>
      </trkpt>
      <trkpt lat="42.98987" lon="-0.80964">
        <ele>783</ele>
        <time>2019-04-14T14:02:07.000Z</time>
      </trkpt>
      <trkpt lat="42.98995" lon="-0.80971">
        <ele>780</ele>
        <time>2019-04-14T14:02:39.014Z</time>
      </trkpt>
      <trkpt lat="42.98995" lon="-0.80985">
        <ele>777</ele>
        <time>2019-04-14T14:02:48.013Z</time>
      </trkpt>
      <trkpt lat="42.98998" lon="-0.80997">
        <ele>774</ele>
        <time>2019-04-14T14:02:58.014Z</time>
      </trkpt>
      <trkpt lat="42.99001" lon="-0.8101">
        <ele>772.22692923077</ele>
        <time>2019-04-14T14:03:08.004Z</time>
      </trkpt>
      <trkpt lat="42.99007" lon="-0.81022">
        <ele>770.41764459121</ele>
        <time>2019-04-14T14:03:16.013Z</time>
      </trkpt>
      <trkpt lat="42.99012" lon="-0.81032">
        <ele>770</ele>
        <time>2019-04-14T14:03:24.000Z</time>
      </trkpt>
      <trkpt lat="42.99012" lon="-0.81045">
        <ele>767</ele>
        <time>2019-04-14T14:03:35.004Z</time>
      </trkpt>
      <trkpt lat="42.99014" lon="-0.81057">
        <ele>766</ele>
        <time>2019-04-14T14:03:42.013Z</time>
      </trkpt>
      <trkpt lat="42.99015" lon="-0.8107">
        <ele>764</ele>
        <time>2019-04-14T14:03:53.013Z</time>
      </trkpt>
      <trkpt lat="42.99017" lon="-0.81084">
        <ele>762.40406268862</ele>
        <time>2019-04-14T14:04:02.013Z</time>
      </trkpt>
      <trkpt lat="42.9902" lon="-0.81098">
        <ele>758</ele>
        <time>2019-04-14T14:04:15.004Z</time>
      </trkpt>
      <trkpt lat="42.99023" lon="-0.8111">
        <ele>754.20302803062</ele>
        <time>2019-04-14T14:04:25.999Z</time>
      </trkpt>
      <trkpt lat="42.99025" lon="-0.81122">
        <ele>750</ele>
        <time>2019-04-14T14:04:47.003Z</time>
      </trkpt>
      <trkpt lat="42.99031" lon="-0.81132">
        <ele>747</ele>
        <time>2019-04-14T14:05:00.002Z</time>
      </trkpt>
      <trkpt lat="42.99039" lon="-0.81124">
        <ele>745</ele>
        <time>2019-04-14T14:05:22.000Z</time>
      </trkpt>
      <trkpt lat="42.99044" lon="-0.81113">
        <ele>744</ele>
        <time>2019-04-14T14:05:35.001Z</time>
      </trkpt>
      <trkpt lat="42.99047" lon="-0.81101">
        <ele>744</ele>
        <time>2019-04-14T14:05:44.013Z</time>
      </trkpt>
      <trkpt lat="42.99046" lon="-0.81086">
        <ele>743.21249454546</ele>
        <time>2019-04-14T14:05:51.013Z</time>
      </trkpt>
      <trkpt lat="42.9905" lon="-0.81074">
        <ele>743</ele>
        <time>2019-04-14T14:05:57.013Z</time>
      </trkpt>
      <trkpt lat="42.99053" lon="-0.81062">
        <ele>744</ele>
        <time>2019-04-14T14:06:06.013Z</time>
      </trkpt>
      <trkpt lat="42.99052" lon="-0.81048">
        <ele>743</ele>
        <time>2019-04-14T14:06:17.014Z</time>
      </trkpt>
      <trkpt lat="42.99049" lon="-0.81035">
        <ele>743</ele>
        <time>2019-04-14T14:06:26.004Z</time>
      </trkpt>
      <trkpt lat="42.99048" lon="-0.81022">
        <ele>742</ele>
        <time>2019-04-14T14:06:36.013Z</time>
      </trkpt>
      <trkpt lat="42.99046" lon="-0.81009">
        <ele>741.1869952</ele>
        <time>2019-04-14T14:06:45.013Z</time>
      </trkpt>
      <trkpt lat="42.99047" lon="-0.80997">
        <ele>741</ele>
        <time>2019-04-14T14:06:55.002Z</time>
      </trkpt>
      <trkpt lat="42.99048" lon="-0.80984">
        <ele>740</ele>
        <time>2019-04-14T14:07:06.002Z</time>
      </trkpt>
      <trkpt lat="42.99053" lon="-0.80974">
        <ele>739</ele>
        <time>2019-04-14T14:07:15.002Z</time>
      </trkpt>
      <trkpt lat="42.99058" lon="-0.80964">
        <ele>738</ele>
        <time>2019-04-14T14:07:21.002Z</time>
      </trkpt>
      <trkpt lat="42.99061" lon="-0.8095">
        <ele>737.59121530585</ele>
        <time>2019-04-14T14:07:28.013Z</time>
      </trkpt>
      <trkpt lat="42.99057" lon="-0.80937">
        <ele>736</ele>
        <time>2019-04-14T14:07:35.013Z</time>
      </trkpt>
      <trkpt lat="42.99058" lon="-0.80924">
        <ele>736</ele>
        <time>2019-04-14T14:07:43.001Z</time>
      </trkpt>
      <trkpt lat="42.99057" lon="-0.8091">
        <ele>735</ele>
        <time>2019-04-14T14:07:51.001Z</time>
      </trkpt>
      <trkpt lat="42.99055" lon="-0.80897">
        <ele>734</ele>
        <time>2019-04-14T14:08:00.013Z</time>
      </trkpt>
      <trkpt lat="42.99063" lon="-0.80894">
        <ele>733</ele>
        <time>2019-04-14T14:08:11.013Z</time>
      </trkpt>
      <trkpt lat="42.9907" lon="-0.80904">
        <ele>731</ele>
        <time>2019-04-14T14:08:18.999Z</time>
      </trkpt>
      <trkpt lat="42.99075" lon="-0.80915">
        <ele>731</ele>
        <time>2019-04-14T14:08:27.004Z</time>
      </trkpt>
      <trkpt lat="42.9908" lon="-0.80926">
        <ele>729</ele>
        <time>2019-04-14T14:08:35.000Z</time>
      </trkpt>
      <trkpt lat="42.99083" lon="-0.80937">
        <ele>727</ele>
        <time>2019-04-14T14:08:43.999Z</time>
      </trkpt>
      <trkpt lat="42.99088" lon="-0.80949">
        <ele>726.2</ele>
        <time>2019-04-14T14:08:52.000Z</time>
      </trkpt>
      <trkpt lat="42.99092" lon="-0.80961">
        <ele>725</ele>
        <time>2019-04-14T14:09:00.003Z</time>
      </trkpt>
      <trkpt lat="42.99093" lon="-0.80974">
        <ele>724.28713794617</ele>
        <time>2019-04-14T14:09:08.999Z</time>
      </trkpt>
      <trkpt lat="42.99098" lon="-0.80986">
        <ele>724</ele>
        <time>2019-04-14T14:09:16.014Z</time>
      </trkpt>
      <trkpt lat="42.99097" lon="-0.80999">
        <ele>723</ele>
        <time>2019-04-14T14:09:23.969Z</time>
      </trkpt>
      <trkpt lat="42.99095" lon="-0.81013">
        <ele>721</ele>
        <time>2019-04-14T14:09:33.004Z</time>
      </trkpt>
      <trkpt lat="42.99098" lon="-0.81026">
        <ele>719.4274639889</ele>
        <time>2019-04-14T14:09:40.013Z</time>
      </trkpt>
      <trkpt lat="42.99099" lon="-0.81038">
        <ele>718</ele>
        <time>2019-04-14T14:09:46.013Z</time>
      </trkpt>
      <trkpt lat="42.99101" lon="-0.81051">
        <ele>717</ele>
        <time>2019-04-14T14:09:59.013Z</time>
      </trkpt>
      <trkpt lat="42.99099" lon="-0.81039">
        <ele>712.1869952</ele>
        <time>2019-04-14T14:11:12.013Z</time>
      </trkpt>
      <trkpt lat="42.99102" lon="-0.81026">
        <ele>712</ele>
        <time>2019-04-14T14:11:17.001Z</time>
      </trkpt>
      <trkpt lat="42.99113" lon="-0.81024">
        <ele>710</ele>
        <time>2019-04-14T14:11:29.013Z</time>
      </trkpt>
      <trkpt lat="42.9912" lon="-0.81014">
        <ele>709</ele>
        <time>2019-04-14T14:11:36.013Z</time>
      </trkpt>
      <trkpt lat="42.99124" lon="-0.81003">
        <ele>707.21826461539</ele>
        <time>2019-04-14T14:11:43.013Z</time>
      </trkpt>
      <trkpt lat="42.99126" lon="-0.8099">
        <ele>706</ele>
        <time>2019-04-14T14:11:54.002Z</time>
      </trkpt>
      <trkpt lat="42.99129" lon="-0.80976">
        <ele>705</ele>
        <time>2019-04-14T14:12:03.013Z</time>
      </trkpt>
      <trkpt lat="42.99135" lon="-0.80965">
        <ele>704</ele>
        <time>2019-04-14T14:12:13.001Z</time>
      </trkpt>
      <trkpt lat="42.99136" lon="-0.80952">
        <ele>703</ele>
        <time>2019-04-14T14:12:20.013Z</time>
      </trkpt>
      <trkpt lat="42.9914" lon="-0.80941">
        <ele>700.37461477113</ele>
        <time>2019-04-14T14:12:31.013Z</time>
      </trkpt>
      <trkpt lat="42.99143" lon="-0.80929">
        <ele>699</ele>
        <time>2019-04-14T14:12:43.014Z</time>
      </trkpt>
      <trkpt lat="42.99145" lon="-0.80914">
        <ele>698</ele>
        <time>2019-04-14T14:12:53.013Z</time>
      </trkpt>
      <trkpt lat="42.99142" lon="-0.809">
        <ele>695</ele>
        <time>2019-04-14T14:13:24.013Z</time>
      </trkpt>
      <trkpt lat="42.99148" lon="-0.8089">
        <ele>693</ele>
        <time>2019-04-14T14:13:34.013Z</time>
      </trkpt>
      <trkpt lat="42.99146" lon="-0.80877">
        <ele>691.72899120692</ele>
        <time>2019-04-14T14:13:48.013Z</time>
      </trkpt>
      <trkpt lat="42.99154" lon="-0.80873">
        <ele>690.39738880727</ele>
        <time>2019-04-14T14:13:57.013Z</time>
      </trkpt>
      <trkpt lat="42.9915" lon="-0.80861">
        <ele>688</ele>
        <time>2019-04-14T14:14:26.013Z</time>
      </trkpt>
      <trkpt lat="42.99147" lon="-0.80847">
        <ele>686</ele>
        <time>2019-04-14T14:15:01.013Z</time>
      </trkpt>
      <trkpt lat="42.99145" lon="-0.80835">
        <ele>684</ele>
        <time>2019-04-14T14:15:13.014Z</time>
      </trkpt>
      <trkpt lat="42.99142" lon="-0.80823">
        <ele>681.25615893111</ele>
        <time>2019-04-14T14:15:27.013Z</time>
      </trkpt>
      <trkpt lat="42.99141" lon="-0.80809">
        <ele>679</ele>
        <time>2019-04-14T14:15:38.000Z</time>
      </trkpt>
      <trkpt lat="42.9915" lon="-0.80808">
        <ele>676.28018081389</ele>
        <time>2019-04-14T14:15:54.999Z</time>
      </trkpt>
      <trkpt lat="42.99156" lon="-0.80797">
        <ele>675</ele>
        <time>2019-04-14T14:16:13.000Z</time>
      </trkpt>
      <trkpt lat="42.99162" lon="-0.80787">
        <ele>672</ele>
        <time>2019-04-14T14:16:23.000Z</time>
      </trkpt>
      <trkpt lat="42.99168" lon="-0.80776">
        <ele>670</ele>
        <time>2019-04-14T14:16:39.013Z</time>
      </trkpt>
      <trkpt lat="42.99173" lon="-0.80765">
        <ele>668</ele>
        <time>2019-04-14T14:16:51.999Z</time>
      </trkpt>
      <trkpt lat="42.99182" lon="-0.80762">
        <ele>666</ele>
        <time>2019-04-14T14:17:03.002Z</time>
      </trkpt>
      <trkpt lat="42.99186" lon="-0.8075">
        <ele>664</ele>
        <time>2019-04-14T14:17:13.002Z</time>
      </trkpt>
      <trkpt lat="42.99188" lon="-0.80737">
        <ele>662</ele>
        <time>2019-04-14T14:17:22.003Z</time>
      </trkpt>
      <trkpt lat="42.99192" lon="-0.80726">
        <ele>662</ele>
        <time>2019-04-14T14:17:31.999Z</time>
      </trkpt>
      <trkpt lat="42.99197" lon="-0.80715">
        <ele>660</ele>
        <time>2019-04-14T14:17:47.003Z</time>
      </trkpt>
      <trkpt lat="42.99202" lon="-0.80703">
        <ele>658</ele>
        <time>2019-04-14T14:18:04.013Z</time>
      </trkpt>
      <trkpt lat="42.99206" lon="-0.80692">
        <ele>655</ele>
        <time>2019-04-14T14:18:19.000Z</time>
      </trkpt>
      <trkpt lat="42.99201" lon="-0.8068">
        <ele>652</ele>
        <time>2019-04-14T14:18:34.013Z</time>
      </trkpt>
      <trkpt lat="42.99196" lon="-0.80667">
        <ele>650</ele>
        <time>2019-04-14T14:18:43.013Z</time>
      </trkpt>
      <trkpt lat="42.99201" lon="-0.80656">
        <ele>647.26756535477</ele>
        <time>2019-04-14T14:18:59.013Z</time>
      </trkpt>
      <trkpt lat="42.99211" lon="-0.80661">
        <ele>646</ele>
        <time>2019-04-14T14:19:14.999Z</time>
      </trkpt>
      <trkpt lat="42.9922" lon="-0.80668">
        <ele>643</ele>
        <time>2019-04-14T14:19:27.013Z</time>
      </trkpt>
      <trkpt lat="42.99228" lon="-0.80662">
        <ele>640</ele>
        <time>2019-04-14T14:19:47.000Z</time>
      </trkpt>
      <trkpt lat="42.99233" lon="-0.80674">
        <ele>636</ele>
        <time>2019-04-14T14:20:03.013Z</time>
      </trkpt>
      <trkpt lat="42.9924" lon="-0.80683">
        <ele>634</ele>
        <time>2019-04-14T14:20:14.117Z</time>
      </trkpt>
      <trkpt lat="42.99249" lon="-0.80703">
        <ele>632</ele>
        <time>2019-04-14T14:20:32.013Z</time>
      </trkpt>
      <trkpt lat="42.99258" lon="-0.80708">
        <ele>632</ele>
        <time>2019-04-14T14:20:37.000Z</time>
      </trkpt>
      <trkpt lat="42.99258" lon="-0.80721">
        <ele>630</ele>
        <time>2019-04-14T14:20:49.014Z</time>
      </trkpt>
      <trkpt lat="42.99248" lon="-0.80725">
        <ele>629</ele>
        <time>2019-04-14T14:20:54.014Z</time>
      </trkpt>
      <trkpt lat="42.99258" lon="-0.80725">
        <ele>628</ele>
        <time>2019-04-14T14:20:59.013Z</time>
      </trkpt>
      <trkpt lat="42.99269" lon="-0.80729">
        <ele>623.19478666667</ele>
        <time>2019-04-14T14:21:17.013Z</time>
      </trkpt>
      <trkpt lat="42.99278" lon="-0.80732">
        <ele>622</ele>
        <time>2019-04-14T14:21:28.013Z</time>
      </trkpt>
      <trkpt lat="42.9929" lon="-0.80736">
        <ele>618</ele>
        <time>2019-04-14T14:21:42.003Z</time>
      </trkpt>
      <trkpt lat="42.99298" lon="-0.80742">
        <ele>614</ele>
        <time>2019-04-14T14:21:58.001Z</time>
      </trkpt>
      <trkpt lat="42.99304" lon="-0.80753">
        <ele>612</ele>
        <time>2019-04-14T14:22:13.001Z</time>
      </trkpt>
      <trkpt lat="42.99301" lon="-0.80764">
        <ele>610.33392</ele>
        <time>2019-04-14T14:22:21.013Z</time>
      </trkpt>
      <trkpt lat="42.99304" lon="-0.80779">
        <ele>608</ele>
        <time>2019-04-14T14:22:32.013Z</time>
      </trkpt>
      <trkpt lat="42.9931" lon="-0.80792">
        <ele>604</ele>
        <time>2019-04-14T14:22:55.013Z</time>
      </trkpt>
      <trkpt lat="42.99315" lon="-0.80802">
        <ele>600</ele>
        <time>2019-04-14T14:23:12.016Z</time>
      </trkpt>
      <trkpt lat="42.99322" lon="-0.80811">
        <ele>598</ele>
        <time>2019-04-14T14:23:23.013Z</time>
      </trkpt>
      <trkpt lat="42.99328" lon="-0.80825">
        <ele>595</ele>
        <time>2019-04-14T14:23:43.013Z</time>
      </trkpt>
      <trkpt lat="42.9933" lon="-0.80839">
        <ele>595</ele>
        <time>2019-04-14T14:23:51.013Z</time>
      </trkpt>
      <trkpt lat="42.99325" lon="-0.80821">
        <ele>595</ele>
        <time>2019-04-14T14:24:03.013Z</time>
      </trkpt>
      <trkpt lat="42.99328" lon="-0.80807">
        <ele>594</ele>
        <time>2019-04-14T14:24:10.000Z</time>
      </trkpt>
      <trkpt lat="42.99343" lon="-0.80806">
        <ele>593</ele>
        <time>2019-04-14T14:24:18.015Z</time>
      </trkpt>
      <trkpt lat="42.99353" lon="-0.80811">
        <ele>592</ele>
        <time>2019-04-14T14:24:25.003Z</time>
      </trkpt>
      <trkpt lat="42.9935" lon="-0.80824">
        <ele>592</ele>
        <time>2019-04-14T14:24:33.013Z</time>
      </trkpt>
      <trkpt lat="42.99352" lon="-0.80836">
        <ele>592</ele>
        <time>2019-04-14T14:24:41.001Z</time>
      </trkpt>
      <trkpt lat="42.99357" lon="-0.80848">
        <ele>592</ele>
        <time>2019-04-14T14:24:48.011Z</time>
      </trkpt>
      <trkpt lat="42.99359" lon="-0.80862">
        <ele>592</ele>
        <time>2019-04-14T14:24:55.001Z</time>
      </trkpt>
      <trkpt lat="42.99362" lon="-0.80874">
        <ele>590.2140032</ele>
        <time>2019-04-14T14:25:02.986Z</time>
      </trkpt>
      <trkpt lat="42.99367" lon="-0.80886">
        <ele>590</ele>
        <time>2019-04-14T14:25:10.001Z</time>
      </trkpt>
      <trkpt lat="42.99372" lon="-0.80897">
        <ele>590</ele>
        <time>2019-04-14T14:25:17.002Z</time>
      </trkpt>
      <trkpt lat="42.99373" lon="-0.80909">
        <ele>593</ele>
        <time>2019-04-14T14:25:31.000Z</time>
      </trkpt>
      <trkpt lat="42.99386" lon="-0.80913">
        <ele>594.61068553115</ele>
        <time>2019-04-14T14:25:45.000Z</time>
      </trkpt>
      <trkpt lat="42.99395" lon="-0.80911">
        <ele>595</ele>
        <time>2019-04-14T14:25:47.000Z</time>
      </trkpt>
      <trkpt lat="42.99406" lon="-0.80909">
        <ele>595</ele>
        <time>2019-04-14T14:25:53.015Z</time>
      </trkpt>
      <trkpt lat="42.99415" lon="-0.80908">
        <ele>596</ele>
        <time>2019-04-14T14:26:03.014Z</time>
      </trkpt>
      <trkpt lat="42.99426" lon="-0.8091">
        <ele>597</ele>
        <time>2019-04-14T14:26:12.004Z</time>
      </trkpt>
      <trkpt lat="42.99436" lon="-0.80909">
        <ele>597</ele>
        <time>2019-04-14T14:26:19.004Z</time>
      </trkpt>
      <trkpt lat="42.99447" lon="-0.80908">
        <ele>598.73043817015</ele>
        <time>2019-04-14T14:26:23.014Z</time>
      </trkpt>
      <trkpt lat="42.99457" lon="-0.80907">
        <ele>599.8</ele>
        <time>2019-04-14T14:26:31.000Z</time>
      </trkpt>
      <trkpt lat="42.99466" lon="-0.80902">
        <ele>602</ele>
        <time>2019-04-14T14:26:42.999Z</time>
      </trkpt>
      <trkpt lat="42.99473" lon="-0.80894">
        <ele>604</ele>
        <time>2019-04-14T14:26:55.999Z</time>
      </trkpt>
      <trkpt lat="42.99481" lon="-0.80888">
        <ele>605</ele>
        <time>2019-04-14T14:27:09.003Z</time>
      </trkpt>
      <trkpt lat="42.99492" lon="-0.80887">
        <ele>606</ele>
        <time>2019-04-14T14:27:19.002Z</time>
      </trkpt>
      <trkpt lat="42.99503" lon="-0.80885">
        <ele>607</ele>
        <time>2019-04-14T14:27:46.999Z</time>
      </trkpt>
      <trkpt lat="42.99515" lon="-0.80885">
        <ele>611</ele>
        <time>2019-04-14T14:28:03.003Z</time>
      </trkpt>
      <trkpt lat="42.99527" lon="-0.80883">
        <ele>613</ele>
        <time>2019-04-14T14:28:16.013Z</time>
      </trkpt>
      <trkpt lat="42.99533" lon="-0.80872">
        <ele>615</ele>
        <time>2019-04-14T14:28:33.013Z</time>
      </trkpt>
      <trkpt lat="42.99537" lon="-0.8086">
        <ele>616</ele>
        <time>2019-04-14T14:28:41.013Z</time>
      </trkpt>
      <trkpt lat="42.99537" lon="-0.80847">
        <ele>618</ele>
        <time>2019-04-14T14:28:51.013Z</time>
      </trkpt>
      <trkpt lat="42.99543" lon="-0.80838">
        <ele>619</ele>
        <time>2019-04-14T14:29:01.044Z</time>
      </trkpt>
      <trkpt lat="42.99549" lon="-0.80828">
        <ele>620</ele>
        <time>2019-04-14T14:29:10.013Z</time>
      </trkpt>
      <trkpt lat="42.99555" lon="-0.80819">
        <ele>623</ele>
        <time>2019-04-14T14:29:24.002Z</time>
      </trkpt>
      <trkpt lat="42.99564" lon="-0.80822">
        <ele>624</ele>
        <time>2019-04-14T14:29:34.001Z</time>
      </trkpt>
      <trkpt lat="42.99573" lon="-0.80826">
        <ele>626</ele>
        <time>2019-04-14T14:29:41.002Z</time>
      </trkpt>
      <trkpt lat="42.9958" lon="-0.80834">
        <ele>628.79897338105</ele>
        <time>2019-04-14T14:29:53.003Z</time>
      </trkpt>
      <trkpt lat="42.99588" lon="-0.80841">
        <ele>629</ele>
        <time>2019-04-14T14:30:01.000Z</time>
      </trkpt>
      <trkpt lat="42.9959" lon="-0.80854">
        <ele>630</ele>
        <time>2019-04-14T14:30:10.001Z</time>
      </trkpt>
      <trkpt lat="42.99587" lon="-0.80867">
        <ele>629</ele>
        <time>2019-04-14T14:30:18.000Z</time>
      </trkpt>
      <trkpt lat="42.99585" lon="-0.8088">
        <ele>630</ele>
        <time>2019-04-14T14:30:26.002Z</time>
      </trkpt>
      <trkpt lat="42.99586" lon="-0.80893">
        <ele>631</ele>
        <time>2019-04-14T14:30:36.032Z</time>
      </trkpt>
      <trkpt lat="42.99589" lon="-0.80906">
        <ele>631</ele>
        <time>2019-04-14T14:30:49.003Z</time>
      </trkpt>
      <trkpt lat="42.99586" lon="-0.80919">
        <ele>631</ele>
        <time>2019-04-14T14:30:57.013Z</time>
      </trkpt>
      <trkpt lat="42.99582" lon="-0.80936">
        <ele>631</ele>
        <time>2019-04-14T14:31:08.013Z</time>
      </trkpt>
      <trkpt lat="42.99581" lon="-0.80952">
        <ele>631</ele>
        <time>2019-04-14T14:31:33.032Z</time>
      </trkpt>
      <trkpt lat="42.99579" lon="-0.80965">
        <ele>632.77865987833</ele>
        <time>2019-04-14T14:31:44.013Z</time>
      </trkpt>
      <trkpt lat="42.99576" lon="-0.80977">
        <ele>634</ele>
        <time>2019-04-14T14:31:57.002Z</time>
      </trkpt>
      <trkpt lat="42.99574" lon="-0.80989">
        <ele>635</ele>
        <time>2019-04-14T14:33:06.003Z</time>
      </trkpt>
      <trkpt lat="42.99574" lon="-0.81002">
        <ele>637</ele>
        <time>2019-04-14T14:33:18.001Z</time>
      </trkpt>
      <trkpt lat="42.99575" lon="-0.81005">
        <ele>631.8</ele>
        <time>2019-04-14T14:33:21.001Z</time>
      </trkpt>
    </trkseg>
  </trk>
</gpx>